<?xml version="1.0" encoding="UTF-8" standalone="no" ?>
<gpx xmlns="http://www.topografix.com/GPX/1/1" xmlns:xsi="http://www.w3.org/2001/XMLSchema-instance" xsi:schemaLocation="http://www.topografix.com/GPX/1/1 http://www.topografix.com/GPX/1/1/gpx.xsd" version="1.1" creator="VisuGPX - https://www.visugpx.com">
  <metadata>
    <name>91L15/21 Yerres - Boissy - Marolles- Reveillon 23 km par Jean Marc IBP 58</name>
    <desc><![CDATA[[img]https://1.bp.blogspot.com/-sLyghmwJxsw/XX5Yo_hbmeI/AAAAAAABnyI/QZg-RxlCf6s3dFnT9w-YORgDcuU3Wb-UACNcBGAsYHQ/s1600/logo-dtour3-ConvertImage.ico[/img]   [b]Rando Club Yerrois[/b]


[img]https://1.bp.blogspot.com/-sLyghmwJxsw/XX5Yo_hbmeI/AAAAAAABnyI/QZg-RxlCf6s3dFnT9w-YORgDcuU3Wb-UACNcBGAsYHQ/s1600/logo-dtour3-ConvertImage.icoo[/img]   [b]Rando Club Yerrois[/b]

[b]Date[/b] :  Mercredi 17 février 2021
[b]Animateur[/b] : Jean Marc
[b]Groupe[/b] :18-22 km
[b]Effectif[/b] : 11


[b]Remarque particulière[/b] : Boucle depuis le départ du Parking des Rives de l'Yerres. Aucune difficulté notable à signaler

[b]Avertissement[/b] Toutes les randonnées répertoriées dans la randothèque du [b]R[/b]ando [b]C[/b]lub [b]Y[/b]errois ont été tracées par l'un de nos animateurs, puis reconnues et enfin effectuées avec un groupe. Pour votre sécurité, regardez toujours la date à laquelle la sortie a été effectuée - Nous tachons de mentionner des conditions météos particulières ou les difficultés éventuelles. N'oubliez jamais les consignes supplémentaires de sécurité.]]></desc>
  </metadata>
  <trk>
    <name><![CDATA[SityTrail - rando boissy Marolles réveillon 23 km]]></name>
    <trkseg>
      <trkpt lat="48.71509" lon="2.47871">
        <ele>38</ele>
        <time>2021-02-17T07:58:47.675Z</time>
      </trkpt>
      <trkpt lat="48.7151" lon="2.47871">
        <ele>38</ele>
        <time>2021-02-17T07:58:48.667Z</time>
      </trkpt>
      <trkpt lat="48.71515" lon="2.4787">
        <ele>37</ele>
        <time>2021-02-17T07:58:52.687Z</time>
      </trkpt>
      <trkpt lat="48.71521" lon="2.47868">
        <ele>37</ele>
        <time>2021-02-17T07:58:57.661Z</time>
      </trkpt>
      <trkpt lat="48.71525" lon="2.47865">
        <ele>37</ele>
        <time>2021-02-17T07:59:01.679Z</time>
      </trkpt>
      <trkpt lat="48.71531" lon="2.47864">
        <ele>37</ele>
        <time>2021-02-17T07:59:06.680Z</time>
      </trkpt>
      <trkpt lat="48.71536" lon="2.47863">
        <ele>37</ele>
        <time>2021-02-17T07:59:10.738Z</time>
      </trkpt>
      <trkpt lat="48.71542" lon="2.47862">
        <ele>37</ele>
        <time>2021-02-17T07:59:15.688Z</time>
      </trkpt>
      <trkpt lat="48.71547" lon="2.4786">
        <ele>37</ele>
        <time>2021-02-17T07:59:19.682Z</time>
      </trkpt>
      <trkpt lat="48.71553" lon="2.47859">
        <ele>37</ele>
        <time>2021-02-17T07:59:24.678Z</time>
      </trkpt>
      <trkpt lat="48.71558" lon="2.47858">
        <ele>37</ele>
        <time>2021-02-17T07:59:29.656Z</time>
      </trkpt>
      <trkpt lat="48.71565" lon="2.47857">
        <ele>37</ele>
        <time>2021-02-17T07:59:34.675Z</time>
      </trkpt>
      <trkpt lat="48.71571" lon="2.47857">
        <ele>38</ele>
        <time>2021-02-17T07:59:39.675Z</time>
      </trkpt>
      <trkpt lat="48.71574" lon="2.47865">
        <ele>38</ele>
        <time>2021-02-17T08:00:27.687Z</time>
      </trkpt>
      <trkpt lat="48.71579" lon="2.47861">
        <ele>38</ele>
        <time>2021-02-17T08:00:32.686Z</time>
      </trkpt>
      <trkpt lat="48.71586" lon="2.47857">
        <ele>38</ele>
        <time>2021-02-17T08:00:37.692Z</time>
      </trkpt>
      <trkpt lat="48.71592" lon="2.47853">
        <ele>38</ele>
        <time>2021-02-17T08:00:42.670Z</time>
      </trkpt>
      <trkpt lat="48.71596" lon="2.47853">
        <ele>38</ele>
        <time>2021-02-17T08:00:47.680Z</time>
      </trkpt>
      <trkpt lat="48.71601" lon="2.47852">
        <ele>40</ele>
        <time>2021-02-17T08:00:52.685Z</time>
      </trkpt>
      <trkpt lat="48.71605" lon="2.47849">
        <ele>40</ele>
        <time>2021-02-17T08:00:57.680Z</time>
      </trkpt>
      <trkpt lat="48.71611" lon="2.47849">
        <ele>40</ele>
        <time>2021-02-17T08:01:02.690Z</time>
      </trkpt>
      <trkpt lat="48.71615" lon="2.47846">
        <ele>40</ele>
        <time>2021-02-17T08:01:07.689Z</time>
      </trkpt>
      <trkpt lat="48.71621" lon="2.47844">
        <ele>40</ele>
        <time>2021-02-17T08:01:12.674Z</time>
      </trkpt>
      <trkpt lat="48.71627" lon="2.47843">
        <ele>47</ele>
        <time>2021-02-17T08:01:17.672Z</time>
      </trkpt>
      <trkpt lat="48.71632" lon="2.47841">
        <ele>47</ele>
        <time>2021-02-17T08:01:22.683Z</time>
      </trkpt>
      <trkpt lat="48.71638" lon="2.4784">
        <ele>47</ele>
        <time>2021-02-17T08:01:27.683Z</time>
      </trkpt>
      <trkpt lat="48.71644" lon="2.47839">
        <ele>47</ele>
        <time>2021-02-17T08:01:32.674Z</time>
      </trkpt>
      <trkpt lat="48.71649" lon="2.47833">
        <ele>47</ele>
        <time>2021-02-17T08:01:37.675Z</time>
      </trkpt>
      <trkpt lat="48.71652" lon="2.47827">
        <ele>47</ele>
        <time>2021-02-17T08:01:42.690Z</time>
      </trkpt>
      <trkpt lat="48.71656" lon="2.47825">
        <ele>50</ele>
        <time>2021-02-17T08:01:47.675Z</time>
      </trkpt>
      <trkpt lat="48.7166" lon="2.47825">
        <ele>50</ele>
        <time>2021-02-17T08:01:52.684Z</time>
      </trkpt>
      <trkpt lat="48.71665" lon="2.47824">
        <ele>50</ele>
        <time>2021-02-17T08:01:57.665Z</time>
      </trkpt>
      <trkpt lat="48.71668" lon="2.47822">
        <ele>50</ele>
        <time>2021-02-17T08:02:01.684Z</time>
      </trkpt>
      <trkpt lat="48.71672" lon="2.4782">
        <ele>50</ele>
        <time>2021-02-17T08:02:06.689Z</time>
      </trkpt>
      <trkpt lat="48.71675" lon="2.47819">
        <ele>52</ele>
        <time>2021-02-17T08:02:11.699Z</time>
      </trkpt>
      <trkpt lat="48.71678" lon="2.47817">
        <ele>52</ele>
        <time>2021-02-17T08:02:16.673Z</time>
      </trkpt>
      <trkpt lat="48.71681" lon="2.47816">
        <ele>54</ele>
        <time>2021-02-17T08:02:21.672Z</time>
      </trkpt>
      <trkpt lat="48.71684" lon="2.47814">
        <ele>54</ele>
        <time>2021-02-17T08:02:26.673Z</time>
      </trkpt>
      <trkpt lat="48.71689" lon="2.4781">
        <ele>54</ele>
        <time>2021-02-17T08:02:31.673Z</time>
      </trkpt>
      <trkpt lat="48.71692" lon="2.47809">
        <ele>54</ele>
        <time>2021-02-17T08:02:36.661Z</time>
      </trkpt>
      <trkpt lat="48.71695" lon="2.47809">
        <ele>54</ele>
        <time>2021-02-17T08:02:41.678Z</time>
      </trkpt>
      <trkpt lat="48.71697" lon="2.47808">
        <ele>54</ele>
        <time>2021-02-17T08:02:46.676Z</time>
      </trkpt>
      <trkpt lat="48.71699" lon="2.47802">
        <ele>54</ele>
        <time>2021-02-17T08:02:51.669Z</time>
      </trkpt>
      <trkpt lat="48.71701" lon="2.47798">
        <ele>54</ele>
        <time>2021-02-17T08:02:56.676Z</time>
      </trkpt>
      <trkpt lat="48.71696" lon="2.47788">
        <ele>56</ele>
        <time>2021-02-17T08:03:01.682Z</time>
      </trkpt>
      <trkpt lat="48.71698" lon="2.4778">
        <ele>56</ele>
        <time>2021-02-17T08:03:06.671Z</time>
      </trkpt>
      <trkpt lat="48.71701" lon="2.47774">
        <ele>56</ele>
        <time>2021-02-17T08:03:10.674Z</time>
      </trkpt>
      <trkpt lat="48.71701" lon="2.47765">
        <ele>56</ele>
        <time>2021-02-17T08:03:15.674Z</time>
      </trkpt>
      <trkpt lat="48.71703" lon="2.4776">
        <ele>59</ele>
        <time>2021-02-17T08:03:19.677Z</time>
      </trkpt>
      <trkpt lat="48.717" lon="2.47751">
        <ele>59</ele>
        <time>2021-02-17T08:03:24.674Z</time>
      </trkpt>
      <trkpt lat="48.717" lon="2.47742">
        <ele>59</ele>
        <time>2021-02-17T08:03:29.677Z</time>
      </trkpt>
      <trkpt lat="48.71699" lon="2.47732">
        <ele>60</ele>
        <time>2021-02-17T08:03:34.679Z</time>
      </trkpt>
      <trkpt lat="48.71698" lon="2.47722">
        <ele>60</ele>
        <time>2021-02-17T08:03:39.671Z</time>
      </trkpt>
      <trkpt lat="48.71696" lon="2.47714">
        <ele>60</ele>
        <time>2021-02-17T08:03:43.688Z</time>
      </trkpt>
      <trkpt lat="48.71694" lon="2.47704">
        <ele>60</ele>
        <time>2021-02-17T08:03:48.684Z</time>
      </trkpt>
      <trkpt lat="48.71691" lon="2.47694">
        <ele>60</ele>
        <time>2021-02-17T08:03:53.672Z</time>
      </trkpt>
      <trkpt lat="48.71691" lon="2.47688">
        <ele>60</ele>
        <time>2021-02-17T08:03:57.651Z</time>
      </trkpt>
      <trkpt lat="48.71689" lon="2.47683">
        <ele>60</ele>
        <time>2021-02-17T08:04:01.682Z</time>
      </trkpt>
      <trkpt lat="48.71688" lon="2.47676">
        <ele>60</ele>
        <time>2021-02-17T08:04:06.661Z</time>
      </trkpt>
      <trkpt lat="48.71688" lon="2.47669">
        <ele>60</ele>
        <time>2021-02-17T08:04:10.675Z</time>
      </trkpt>
      <trkpt lat="48.71688" lon="2.47663">
        <ele>60</ele>
        <time>2021-02-17T08:04:14.680Z</time>
      </trkpt>
      <trkpt lat="48.71686" lon="2.47655">
        <ele>60</ele>
        <time>2021-02-17T08:04:19.681Z</time>
      </trkpt>
      <trkpt lat="48.71683" lon="2.47645">
        <ele>62</ele>
        <time>2021-02-17T08:04:23.684Z</time>
      </trkpt>
      <trkpt lat="48.71682" lon="2.47636">
        <ele>62</ele>
        <time>2021-02-17T08:04:28.679Z</time>
      </trkpt>
      <trkpt lat="48.7168" lon="2.47628">
        <ele>57</ele>
        <time>2021-02-17T08:04:33.680Z</time>
      </trkpt>
      <trkpt lat="48.71678" lon="2.47617">
        <ele>59</ele>
        <time>2021-02-17T08:04:37.684Z</time>
      </trkpt>
      <trkpt lat="48.71677" lon="2.47608">
        <ele>59</ele>
        <time>2021-02-17T08:04:42.685Z</time>
      </trkpt>
      <trkpt lat="48.71676" lon="2.476">
        <ele>59</ele>
        <time>2021-02-17T08:04:47.675Z</time>
      </trkpt>
      <trkpt lat="48.71675" lon="2.47591">
        <ele>60</ele>
        <time>2021-02-17T08:04:52.683Z</time>
      </trkpt>
      <trkpt lat="48.71678" lon="2.47589">
        <ele>60</ele>
        <time>2021-02-17T08:04:57.695Z</time>
      </trkpt>
      <trkpt lat="48.71682" lon="2.47587">
        <ele>64</ele>
        <time>2021-02-17T08:05:02.685Z</time>
      </trkpt>
      <trkpt lat="48.71685" lon="2.47583">
        <ele>64</ele>
        <time>2021-02-17T08:05:07.689Z</time>
      </trkpt>
      <trkpt lat="48.71687" lon="2.47578">
        <ele>64</ele>
        <time>2021-02-17T08:05:12.673Z</time>
      </trkpt>
      <trkpt lat="48.71692" lon="2.47575">
        <ele>64</ele>
        <time>2021-02-17T08:05:17.669Z</time>
      </trkpt>
      <trkpt lat="48.71693" lon="2.47573">
        <ele>64</ele>
        <time>2021-02-17T08:05:21.687Z</time>
      </trkpt>
      <trkpt lat="48.71695" lon="2.47579">
        <ele>64</ele>
        <time>2021-02-17T08:05:26.675Z</time>
      </trkpt>
      <trkpt lat="48.71697" lon="2.47586">
        <ele>64</ele>
        <time>2021-02-17T08:05:31.688Z</time>
      </trkpt>
      <trkpt lat="48.717" lon="2.47593">
        <ele>64</ele>
        <time>2021-02-17T08:05:36.678Z</time>
      </trkpt>
      <trkpt lat="48.71703" lon="2.476">
        <ele>63</ele>
        <time>2021-02-17T08:05:40.657Z</time>
      </trkpt>
      <trkpt lat="48.71706" lon="2.47607">
        <ele>63</ele>
        <time>2021-02-17T08:05:45.677Z</time>
      </trkpt>
      <trkpt lat="48.71708" lon="2.47614">
        <ele>63</ele>
        <time>2021-02-17T08:05:49.682Z</time>
      </trkpt>
      <trkpt lat="48.71711" lon="2.47621">
        <ele>68</ele>
        <time>2021-02-17T08:05:54.689Z</time>
      </trkpt>
      <trkpt lat="48.71715" lon="2.47628">
        <ele>66</ele>
        <time>2021-02-17T08:05:59.686Z</time>
      </trkpt>
      <trkpt lat="48.71719" lon="2.47636">
        <ele>66</ele>
        <time>2021-02-17T08:06:04.679Z</time>
      </trkpt>
      <trkpt lat="48.71723" lon="2.47645">
        <ele>66</ele>
        <time>2021-02-17T08:06:09.685Z</time>
      </trkpt>
      <trkpt lat="48.71725" lon="2.4765">
        <ele>66</ele>
        <time>2021-02-17T08:06:13.690Z</time>
      </trkpt>
      <trkpt lat="48.71728" lon="2.47659">
        <ele>66</ele>
        <time>2021-02-17T08:06:18.683Z</time>
      </trkpt>
      <trkpt lat="48.71731" lon="2.47667">
        <ele>66</ele>
        <time>2021-02-17T08:06:23.676Z</time>
      </trkpt>
      <trkpt lat="48.71733" lon="2.47676">
        <ele>66</ele>
        <time>2021-02-17T08:06:28.678Z</time>
      </trkpt>
      <trkpt lat="48.71736" lon="2.47685">
        <ele>66</ele>
        <time>2021-02-17T08:06:33.686Z</time>
      </trkpt>
      <trkpt lat="48.71741" lon="2.47693">
        <ele>72</ele>
        <time>2021-02-17T08:06:38.678Z</time>
      </trkpt>
      <trkpt lat="48.71745" lon="2.47702">
        <ele>72</ele>
        <time>2021-02-17T08:06:43.668Z</time>
      </trkpt>
      <trkpt lat="48.71746" lon="2.47713">
        <ele>70</ele>
        <time>2021-02-17T08:06:48.679Z</time>
      </trkpt>
      <trkpt lat="48.71748" lon="2.47723">
        <ele>70</ele>
        <time>2021-02-17T08:06:53.679Z</time>
      </trkpt>
      <trkpt lat="48.7175" lon="2.47731">
        <ele>70</ele>
        <time>2021-02-17T08:06:58.676Z</time>
      </trkpt>
      <trkpt lat="48.71751" lon="2.47739">
        <ele>67</ele>
        <time>2021-02-17T08:07:02.677Z</time>
      </trkpt>
      <trkpt lat="48.71753" lon="2.47748">
        <ele>67</ele>
        <time>2021-02-17T08:07:07.687Z</time>
      </trkpt>
      <trkpt lat="48.71755" lon="2.47756">
        <ele>67</ele>
        <time>2021-02-17T08:07:11.685Z</time>
      </trkpt>
      <trkpt lat="48.71758" lon="2.47763">
        <ele>67</ele>
        <time>2021-02-17T08:07:16.685Z</time>
      </trkpt>
      <trkpt lat="48.71759" lon="2.47773">
        <ele>65</ele>
        <time>2021-02-17T08:07:21.671Z</time>
      </trkpt>
      <trkpt lat="48.71761" lon="2.47783">
        <ele>65</ele>
        <time>2021-02-17T08:07:26.670Z</time>
      </trkpt>
      <trkpt lat="48.71762" lon="2.47789">
        <ele>65</ele>
        <time>2021-02-17T08:07:30.676Z</time>
      </trkpt>
      <trkpt lat="48.71765" lon="2.47799">
        <ele>71</ele>
        <time>2021-02-17T08:07:35.672Z</time>
      </trkpt>
      <trkpt lat="48.71766" lon="2.47807">
        <ele>71</ele>
        <time>2021-02-17T08:07:39.677Z</time>
      </trkpt>
      <trkpt lat="48.71768" lon="2.47815">
        <ele>71</ele>
        <time>2021-02-17T08:07:44.672Z</time>
      </trkpt>
      <trkpt lat="48.71769" lon="2.47824">
        <ele>71</ele>
        <time>2021-02-17T08:07:49.675Z</time>
      </trkpt>
      <trkpt lat="48.7177" lon="2.47833">
        <ele>71</ele>
        <time>2021-02-17T08:07:54.666Z</time>
      </trkpt>
      <trkpt lat="48.71771" lon="2.47842">
        <ele>71</ele>
        <time>2021-02-17T08:07:59.675Z</time>
      </trkpt>
      <trkpt lat="48.71774" lon="2.4785">
        <ele>70</ele>
        <time>2021-02-17T08:08:03.667Z</time>
      </trkpt>
      <trkpt lat="48.71776" lon="2.4786">
        <ele>70</ele>
        <time>2021-02-17T08:08:08.669Z</time>
      </trkpt>
      <trkpt lat="48.71779" lon="2.47866">
        <ele>70</ele>
        <time>2021-02-17T08:08:13.676Z</time>
      </trkpt>
      <trkpt lat="48.71782" lon="2.47866">
        <ele>70</ele>
        <time>2021-02-17T08:08:18.681Z</time>
      </trkpt>
      <trkpt lat="48.71785" lon="2.47864">
        <ele>70</ele>
        <time>2021-02-17T08:08:23.669Z</time>
      </trkpt>
      <trkpt lat="48.71789" lon="2.47867">
        <ele>70</ele>
        <time>2021-02-17T08:08:27.670Z</time>
      </trkpt>
      <trkpt lat="48.71792" lon="2.47869">
        <ele>78</ele>
        <time>2021-02-17T08:08:32.670Z</time>
      </trkpt>
      <trkpt lat="48.71796" lon="2.47871">
        <ele>78</ele>
        <time>2021-02-17T08:08:37.668Z</time>
      </trkpt>
      <trkpt lat="48.71797" lon="2.47869">
        <ele>78</ele>
        <time>2021-02-17T08:08:42.670Z</time>
      </trkpt>
      <trkpt lat="48.71799" lon="2.47869">
        <ele>78</ele>
        <time>2021-02-17T08:08:46.675Z</time>
      </trkpt>
      <trkpt lat="48.718" lon="2.47867">
        <ele>78</ele>
        <time>2021-02-17T08:08:51.679Z</time>
      </trkpt>
      <trkpt lat="48.71806" lon="2.47867">
        <ele>78</ele>
        <time>2021-02-17T08:08:56.665Z</time>
      </trkpt>
      <trkpt lat="48.71809" lon="2.47869">
        <ele>78</ele>
        <time>2021-02-17T08:09:01.670Z</time>
      </trkpt>
      <trkpt lat="48.71812" lon="2.47871">
        <ele>78</ele>
        <time>2021-02-17T08:09:05.685Z</time>
      </trkpt>
      <trkpt lat="48.71814" lon="2.47871">
        <ele>78</ele>
        <time>2021-02-17T08:09:10.681Z</time>
      </trkpt>
      <trkpt lat="48.71817" lon="2.4787">
        <ele>78</ele>
        <time>2021-02-17T08:09:15.680Z</time>
      </trkpt>
      <trkpt lat="48.7182" lon="2.47869">
        <ele>85</ele>
        <time>2021-02-17T08:09:20.680Z</time>
      </trkpt>
      <trkpt lat="48.71822" lon="2.47865">
        <ele>85</ele>
        <time>2021-02-17T08:09:25.671Z</time>
      </trkpt>
      <trkpt lat="48.71825" lon="2.47864">
        <ele>85</ele>
        <time>2021-02-17T08:09:29.664Z</time>
      </trkpt>
      <trkpt lat="48.71829" lon="2.47863">
        <ele>85</ele>
        <time>2021-02-17T08:09:34.669Z</time>
      </trkpt>
      <trkpt lat="48.71832" lon="2.47861">
        <ele>85</ele>
        <time>2021-02-17T08:09:39.664Z</time>
      </trkpt>
      <trkpt lat="48.71835" lon="2.47861">
        <ele>85</ele>
        <time>2021-02-17T08:09:44.671Z</time>
      </trkpt>
      <trkpt lat="48.71836" lon="2.47857">
        <ele>85</ele>
        <time>2021-02-17T08:09:49.687Z</time>
      </trkpt>
      <trkpt lat="48.7184" lon="2.47856">
        <ele>85</ele>
        <time>2021-02-17T08:09:54.681Z</time>
      </trkpt>
      <trkpt lat="48.71844" lon="2.47856">
        <ele>85</ele>
        <time>2021-02-17T08:09:58.666Z</time>
      </trkpt>
      <trkpt lat="48.71848" lon="2.47857">
        <ele>88</ele>
        <time>2021-02-17T08:10:03.667Z</time>
      </trkpt>
      <trkpt lat="48.71851" lon="2.47858">
        <ele>88</ele>
        <time>2021-02-17T08:10:08.655Z</time>
      </trkpt>
      <trkpt lat="48.71855" lon="2.4786">
        <ele>88</ele>
        <time>2021-02-17T08:10:12.681Z</time>
      </trkpt>
      <trkpt lat="48.7186" lon="2.47862">
        <ele>88</ele>
        <time>2021-02-17T08:10:17.675Z</time>
      </trkpt>
      <trkpt lat="48.71864" lon="2.4786">
        <ele>88</ele>
        <time>2021-02-17T08:10:21.686Z</time>
      </trkpt>
      <trkpt lat="48.7187" lon="2.47862">
        <ele>88</ele>
        <time>2021-02-17T08:10:26.673Z</time>
      </trkpt>
      <trkpt lat="48.71874" lon="2.47867">
        <ele>88</ele>
        <time>2021-02-17T08:10:31.691Z</time>
      </trkpt>
      <trkpt lat="48.71875" lon="2.47868">
        <ele>88</ele>
        <time>2021-02-17T08:10:36.681Z</time>
      </trkpt>
      <trkpt lat="48.71874" lon="2.4787">
        <ele>88</ele>
        <time>2021-02-17T08:10:46.671Z</time>
      </trkpt>
      <trkpt lat="48.71875" lon="2.47875">
        <ele>90</ele>
        <time>2021-02-17T08:10:51.696Z</time>
      </trkpt>
      <trkpt lat="48.71878" lon="2.47875">
        <ele>92</ele>
        <time>2021-02-17T08:10:56.676Z</time>
      </trkpt>
      <trkpt lat="48.71884" lon="2.47875">
        <ele>92</ele>
        <time>2021-02-17T08:11:01.663Z</time>
      </trkpt>
      <trkpt lat="48.71887" lon="2.47878">
        <ele>92</ele>
        <time>2021-02-17T08:11:06.677Z</time>
      </trkpt>
      <trkpt lat="48.71893" lon="2.47883">
        <ele>92</ele>
        <time>2021-02-17T08:11:11.670Z</time>
      </trkpt>
      <trkpt lat="48.71896" lon="2.47885">
        <ele>92</ele>
        <time>2021-02-17T08:11:16.669Z</time>
      </trkpt>
      <trkpt lat="48.71899" lon="2.47883">
        <ele>92</ele>
        <time>2021-02-17T08:11:20.682Z</time>
      </trkpt>
      <trkpt lat="48.71902" lon="2.47885">
        <ele>92</ele>
        <time>2021-02-17T08:11:25.670Z</time>
      </trkpt>
      <trkpt lat="48.71905" lon="2.47885">
        <ele>92</ele>
        <time>2021-02-17T08:11:30.673Z</time>
      </trkpt>
      <trkpt lat="48.71906" lon="2.47886">
        <ele>92</ele>
        <time>2021-02-17T08:11:34.678Z</time>
      </trkpt>
      <trkpt lat="48.71902" lon="2.47886">
        <ele>92</ele>
        <time>2021-02-17T08:14:08.680Z</time>
      </trkpt>
      <trkpt lat="48.71902" lon="2.47892">
        <ele>92</ele>
        <time>2021-02-17T08:14:13.672Z</time>
      </trkpt>
      <trkpt lat="48.719" lon="2.47897">
        <ele>92</ele>
        <time>2021-02-17T08:14:18.677Z</time>
      </trkpt>
      <trkpt lat="48.719" lon="2.47906">
        <ele>92</ele>
        <time>2021-02-17T08:14:23.680Z</time>
      </trkpt>
      <trkpt lat="48.71898" lon="2.47915">
        <ele>92</ele>
        <time>2021-02-17T08:14:28.680Z</time>
      </trkpt>
      <trkpt lat="48.71896" lon="2.47924">
        <ele>92</ele>
        <time>2021-02-17T08:14:33.666Z</time>
      </trkpt>
      <trkpt lat="48.71897" lon="2.4793">
        <ele>92</ele>
        <time>2021-02-17T08:14:37.677Z</time>
      </trkpt>
      <trkpt lat="48.71897" lon="2.47939">
        <ele>90</ele>
        <time>2021-02-17T08:14:42.661Z</time>
      </trkpt>
      <trkpt lat="48.71895" lon="2.47946">
        <ele>90</ele>
        <time>2021-02-17T08:14:46.685Z</time>
      </trkpt>
      <trkpt lat="48.71893" lon="2.47957">
        <ele>90</ele>
        <time>2021-02-17T08:14:51.667Z</time>
      </trkpt>
      <trkpt lat="48.71892" lon="2.47967">
        <ele>89</ele>
        <time>2021-02-17T08:14:56.674Z</time>
      </trkpt>
      <trkpt lat="48.71891" lon="2.47974">
        <ele>89</ele>
        <time>2021-02-17T08:15:01.672Z</time>
      </trkpt>
      <trkpt lat="48.71888" lon="2.47984">
        <ele>89</ele>
        <time>2021-02-17T08:15:06.671Z</time>
      </trkpt>
      <trkpt lat="48.71886" lon="2.47995">
        <ele>89</ele>
        <time>2021-02-17T08:15:10.674Z</time>
      </trkpt>
      <trkpt lat="48.71883" lon="2.48004">
        <ele>89</ele>
        <time>2021-02-17T08:15:15.675Z</time>
      </trkpt>
      <trkpt lat="48.71883" lon="2.48013">
        <ele>89</ele>
        <time>2021-02-17T08:15:20.675Z</time>
      </trkpt>
      <trkpt lat="48.71886" lon="2.48021">
        <ele>88</ele>
        <time>2021-02-17T08:15:25.674Z</time>
      </trkpt>
      <trkpt lat="48.71887" lon="2.4803">
        <ele>88</ele>
        <time>2021-02-17T08:15:30.675Z</time>
      </trkpt>
      <trkpt lat="48.71887" lon="2.48038">
        <ele>88</ele>
        <time>2021-02-17T08:15:35.682Z</time>
      </trkpt>
      <trkpt lat="48.71888" lon="2.48044">
        <ele>88</ele>
        <time>2021-02-17T08:15:40.679Z</time>
      </trkpt>
      <trkpt lat="48.71886" lon="2.48048">
        <ele>88</ele>
        <time>2021-02-17T08:15:45.674Z</time>
      </trkpt>
      <trkpt lat="48.71882" lon="2.48056">
        <ele>88</ele>
        <time>2021-02-17T08:15:50.676Z</time>
      </trkpt>
      <trkpt lat="48.71882" lon="2.48067">
        <ele>88</ele>
        <time>2021-02-17T08:15:55.655Z</time>
      </trkpt>
      <trkpt lat="48.71882" lon="2.48076">
        <ele>88</ele>
        <time>2021-02-17T08:15:59.669Z</time>
      </trkpt>
      <trkpt lat="48.71885" lon="2.48087">
        <ele>88</ele>
        <time>2021-02-17T08:16:04.688Z</time>
      </trkpt>
      <trkpt lat="48.71885" lon="2.48096">
        <ele>88</ele>
        <time>2021-02-17T08:16:09.669Z</time>
      </trkpt>
      <trkpt lat="48.71884" lon="2.48105">
        <ele>86</ele>
        <time>2021-02-17T08:16:14.666Z</time>
      </trkpt>
      <trkpt lat="48.71885" lon="2.48113">
        <ele>86</ele>
        <time>2021-02-17T08:16:19.673Z</time>
      </trkpt>
      <trkpt lat="48.71884" lon="2.48126">
        <ele>86</ele>
        <time>2021-02-17T08:16:24.672Z</time>
      </trkpt>
      <trkpt lat="48.71881" lon="2.48136">
        <ele>86</ele>
        <time>2021-02-17T08:16:29.685Z</time>
      </trkpt>
      <trkpt lat="48.71881" lon="2.48145">
        <ele>86</ele>
        <time>2021-02-17T08:16:34.681Z</time>
      </trkpt>
      <trkpt lat="48.7188" lon="2.48153">
        <ele>85</ele>
        <time>2021-02-17T08:16:39.676Z</time>
      </trkpt>
      <trkpt lat="48.7188" lon="2.48161">
        <ele>85</ele>
        <time>2021-02-17T08:16:44.679Z</time>
      </trkpt>
      <trkpt lat="48.71881" lon="2.48171">
        <ele>85</ele>
        <time>2021-02-17T08:16:49.678Z</time>
      </trkpt>
      <trkpt lat="48.71882" lon="2.48178">
        <ele>85</ele>
        <time>2021-02-17T08:16:54.673Z</time>
      </trkpt>
      <trkpt lat="48.7188" lon="2.48186">
        <ele>84</ele>
        <time>2021-02-17T08:16:59.671Z</time>
      </trkpt>
      <trkpt lat="48.71882" lon="2.48192">
        <ele>84</ele>
        <time>2021-02-17T08:17:04.675Z</time>
      </trkpt>
      <trkpt lat="48.71884" lon="2.48199">
        <ele>84</ele>
        <time>2021-02-17T08:17:09.673Z</time>
      </trkpt>
      <trkpt lat="48.71888" lon="2.48206">
        <ele>84</ele>
        <time>2021-02-17T08:17:14.674Z</time>
      </trkpt>
      <trkpt lat="48.71891" lon="2.48216">
        <ele>83</ele>
        <time>2021-02-17T08:17:19.670Z</time>
      </trkpt>
      <trkpt lat="48.71892" lon="2.48227">
        <ele>83</ele>
        <time>2021-02-17T08:17:24.683Z</time>
      </trkpt>
      <trkpt lat="48.71893" lon="2.48236">
        <ele>83</ele>
        <time>2021-02-17T08:17:29.671Z</time>
      </trkpt>
      <trkpt lat="48.71896" lon="2.48243">
        <ele>81</ele>
        <time>2021-02-17T08:17:34.678Z</time>
      </trkpt>
      <trkpt lat="48.71898" lon="2.48251">
        <ele>81</ele>
        <time>2021-02-17T08:17:39.678Z</time>
      </trkpt>
      <trkpt lat="48.71898" lon="2.48257">
        <ele>81</ele>
        <time>2021-02-17T08:17:44.665Z</time>
      </trkpt>
      <trkpt lat="48.71898" lon="2.48266">
        <ele>81</ele>
        <time>2021-02-17T08:17:49.671Z</time>
      </trkpt>
      <trkpt lat="48.71899" lon="2.48274">
        <ele>81</ele>
        <time>2021-02-17T08:17:54.659Z</time>
      </trkpt>
      <trkpt lat="48.719" lon="2.48284">
        <ele>81</ele>
        <time>2021-02-17T08:17:59.662Z</time>
      </trkpt>
      <trkpt lat="48.71901" lon="2.48293">
        <ele>81</ele>
        <time>2021-02-17T08:18:04.668Z</time>
      </trkpt>
      <trkpt lat="48.71905" lon="2.48299">
        <ele>86</ele>
        <time>2021-02-17T08:18:09.669Z</time>
      </trkpt>
      <trkpt lat="48.71907" lon="2.48303">
        <ele>86</ele>
        <time>2021-02-17T08:18:14.671Z</time>
      </trkpt>
      <trkpt lat="48.71909" lon="2.48314">
        <ele>86</ele>
        <time>2021-02-17T08:18:19.642Z</time>
      </trkpt>
      <trkpt lat="48.71908" lon="2.48323">
        <ele>85</ele>
        <time>2021-02-17T08:18:24.668Z</time>
      </trkpt>
      <trkpt lat="48.71909" lon="2.48332">
        <ele>85</ele>
        <time>2021-02-17T08:18:29.676Z</time>
      </trkpt>
      <trkpt lat="48.71912" lon="2.48343">
        <ele>85</ele>
        <time>2021-02-17T08:18:34.670Z</time>
      </trkpt>
      <trkpt lat="48.71913" lon="2.48354">
        <ele>85</ele>
        <time>2021-02-17T08:18:39.671Z</time>
      </trkpt>
      <trkpt lat="48.71912" lon="2.48363">
        <ele>85</ele>
        <time>2021-02-17T08:18:44.671Z</time>
      </trkpt>
      <trkpt lat="48.7191" lon="2.48372">
        <ele>85</ele>
        <time>2021-02-17T08:18:49.669Z</time>
      </trkpt>
      <trkpt lat="48.71908" lon="2.48381">
        <ele>86</ele>
        <time>2021-02-17T08:18:54.671Z</time>
      </trkpt>
      <trkpt lat="48.71909" lon="2.4839">
        <ele>86</ele>
        <time>2021-02-17T08:18:59.672Z</time>
      </trkpt>
      <trkpt lat="48.71908" lon="2.484">
        <ele>86</ele>
        <time>2021-02-17T08:19:04.669Z</time>
      </trkpt>
      <trkpt lat="48.71909" lon="2.48404">
        <ele>86</ele>
        <time>2021-02-17T08:19:09.672Z</time>
      </trkpt>
      <trkpt lat="48.7191" lon="2.4841">
        <ele>86</ele>
        <time>2021-02-17T08:19:14.678Z</time>
      </trkpt>
      <trkpt lat="48.71909" lon="2.4842">
        <ele>86</ele>
        <time>2021-02-17T08:19:19.642Z</time>
      </trkpt>
      <trkpt lat="48.71906" lon="2.48426">
        <ele>86</ele>
        <time>2021-02-17T08:19:23.670Z</time>
      </trkpt>
      <trkpt lat="48.71903" lon="2.48433">
        <ele>88</ele>
        <time>2021-02-17T08:19:27.676Z</time>
      </trkpt>
      <trkpt lat="48.71902" lon="2.48442">
        <ele>82</ele>
        <time>2021-02-17T08:19:32.674Z</time>
      </trkpt>
      <trkpt lat="48.71901" lon="2.48452">
        <ele>82</ele>
        <time>2021-02-17T08:19:37.662Z</time>
      </trkpt>
      <trkpt lat="48.71897" lon="2.48458">
        <ele>82</ele>
        <time>2021-02-17T08:19:42.676Z</time>
      </trkpt>
      <trkpt lat="48.71894" lon="2.48464">
        <ele>82</ele>
        <time>2021-02-17T08:19:46.655Z</time>
      </trkpt>
      <trkpt lat="48.71892" lon="2.4847">
        <ele>82</ele>
        <time>2021-02-17T08:19:51.668Z</time>
      </trkpt>
      <trkpt lat="48.71892" lon="2.4848">
        <ele>82</ele>
        <time>2021-02-17T08:19:56.665Z</time>
      </trkpt>
      <trkpt lat="48.71891" lon="2.4849">
        <ele>83</ele>
        <time>2021-02-17T08:20:00.671Z</time>
      </trkpt>
      <trkpt lat="48.71891" lon="2.485">
        <ele>83</ele>
        <time>2021-02-17T08:20:05.677Z</time>
      </trkpt>
      <trkpt lat="48.71888" lon="2.48508">
        <ele>83</ele>
        <time>2021-02-17T08:20:10.662Z</time>
      </trkpt>
      <trkpt lat="48.71887" lon="2.48519">
        <ele>82</ele>
        <time>2021-02-17T08:20:15.655Z</time>
      </trkpt>
      <trkpt lat="48.71886" lon="2.48531">
        <ele>82</ele>
        <time>2021-02-17T08:20:20.667Z</time>
      </trkpt>
      <trkpt lat="48.71883" lon="2.4854">
        <ele>82</ele>
        <time>2021-02-17T08:20:25.669Z</time>
      </trkpt>
      <trkpt lat="48.71884" lon="2.48549">
        <ele>81</ele>
        <time>2021-02-17T08:20:30.669Z</time>
      </trkpt>
      <trkpt lat="48.71885" lon="2.4856">
        <ele>81</ele>
        <time>2021-02-17T08:20:35.669Z</time>
      </trkpt>
      <trkpt lat="48.71883" lon="2.48571">
        <ele>81</ele>
        <time>2021-02-17T08:20:40.660Z</time>
      </trkpt>
      <trkpt lat="48.71879" lon="2.48581">
        <ele>81</ele>
        <time>2021-02-17T08:20:45.668Z</time>
      </trkpt>
      <trkpt lat="48.71876" lon="2.48589">
        <ele>81</ele>
        <time>2021-02-17T08:20:50.669Z</time>
      </trkpt>
      <trkpt lat="48.71871" lon="2.48597">
        <ele>75</ele>
        <time>2021-02-17T08:20:55.667Z</time>
      </trkpt>
      <trkpt lat="48.71868" lon="2.48604">
        <ele>74</ele>
        <time>2021-02-17T08:21:00.678Z</time>
      </trkpt>
      <trkpt lat="48.71866" lon="2.48614">
        <ele>74</ele>
        <time>2021-02-17T08:21:05.660Z</time>
      </trkpt>
      <trkpt lat="48.71865" lon="2.48622">
        <ele>74</ele>
        <time>2021-02-17T08:21:10.678Z</time>
      </trkpt>
      <trkpt lat="48.71868" lon="2.48632">
        <ele>74</ele>
        <time>2021-02-17T08:21:15.661Z</time>
      </trkpt>
      <trkpt lat="48.71872" lon="2.48638">
        <ele>74</ele>
        <time>2021-02-17T08:21:19.669Z</time>
      </trkpt>
      <trkpt lat="48.71874" lon="2.48645">
        <ele>74</ele>
        <time>2021-02-17T08:21:24.655Z</time>
      </trkpt>
      <trkpt lat="48.71878" lon="2.48653">
        <ele>79</ele>
        <time>2021-02-17T08:21:29.661Z</time>
      </trkpt>
      <trkpt lat="48.71882" lon="2.4866">
        <ele>79</ele>
        <time>2021-02-17T08:21:34.661Z</time>
      </trkpt>
      <trkpt lat="48.71883" lon="2.48668">
        <ele>79</ele>
        <time>2021-02-17T08:21:39.659Z</time>
      </trkpt>
      <trkpt lat="48.71886" lon="2.48675">
        <ele>79</ele>
        <time>2021-02-17T08:21:44.672Z</time>
      </trkpt>
      <trkpt lat="48.71889" lon="2.4868">
        <ele>79</ele>
        <time>2021-02-17T08:21:48.661Z</time>
      </trkpt>
      <trkpt lat="48.71892" lon="2.48686">
        <ele>77</ele>
        <time>2021-02-17T08:21:53.674Z</time>
      </trkpt>
      <trkpt lat="48.71895" lon="2.48693">
        <ele>77</ele>
        <time>2021-02-17T08:21:58.671Z</time>
      </trkpt>
      <trkpt lat="48.71898" lon="2.48702">
        <ele>77</ele>
        <time>2021-02-17T08:22:03.666Z</time>
      </trkpt>
      <trkpt lat="48.71901" lon="2.48711">
        <ele>78</ele>
        <time>2021-02-17T08:22:08.670Z</time>
      </trkpt>
      <trkpt lat="48.71902" lon="2.48718">
        <ele>78</ele>
        <time>2021-02-17T08:22:12.670Z</time>
      </trkpt>
      <trkpt lat="48.71901" lon="2.48725">
        <ele>78</ele>
        <time>2021-02-17T08:22:17.667Z</time>
      </trkpt>
      <trkpt lat="48.719" lon="2.48733">
        <ele>78</ele>
        <time>2021-02-17T08:22:21.674Z</time>
      </trkpt>
      <trkpt lat="48.71903" lon="2.48743">
        <ele>82</ele>
        <time>2021-02-17T08:22:26.674Z</time>
      </trkpt>
      <trkpt lat="48.71906" lon="2.48752">
        <ele>82</ele>
        <time>2021-02-17T08:22:31.669Z</time>
      </trkpt>
      <trkpt lat="48.71909" lon="2.48757">
        <ele>82</ele>
        <time>2021-02-17T08:22:35.669Z</time>
      </trkpt>
      <trkpt lat="48.71914" lon="2.48758">
        <ele>82</ele>
        <time>2021-02-17T08:22:40.681Z</time>
      </trkpt>
      <trkpt lat="48.71917" lon="2.48757">
        <ele>82</ele>
        <time>2021-02-17T08:22:45.656Z</time>
      </trkpt>
      <trkpt lat="48.71923" lon="2.48759">
        <ele>82</ele>
        <time>2021-02-17T08:22:49.659Z</time>
      </trkpt>
      <trkpt lat="48.71926" lon="2.48756">
        <ele>82</ele>
        <time>2021-02-17T08:22:54.659Z</time>
      </trkpt>
      <trkpt lat="48.71929" lon="2.48754">
        <ele>82</ele>
        <time>2021-02-17T08:22:59.672Z</time>
      </trkpt>
      <trkpt lat="48.71932" lon="2.48751">
        <ele>84</ele>
        <time>2021-02-17T08:23:04.649Z</time>
      </trkpt>
      <trkpt lat="48.71937" lon="2.48751">
        <ele>84</ele>
        <time>2021-02-17T08:23:08.649Z</time>
      </trkpt>
      <trkpt lat="48.71938" lon="2.48749">
        <ele>84</ele>
        <time>2021-02-17T08:23:12.667Z</time>
      </trkpt>
      <trkpt lat="48.71944" lon="2.48748">
        <ele>84</ele>
        <time>2021-02-17T08:23:17.672Z</time>
      </trkpt>
      <trkpt lat="48.71951" lon="2.48749">
        <ele>84</ele>
        <time>2021-02-17T08:23:22.665Z</time>
      </trkpt>
      <trkpt lat="48.71957" lon="2.48752">
        <ele>84</ele>
        <time>2021-02-17T08:23:27.676Z</time>
      </trkpt>
      <trkpt lat="48.71962" lon="2.48755">
        <ele>87</ele>
        <time>2021-02-17T08:23:32.669Z</time>
      </trkpt>
      <trkpt lat="48.71966" lon="2.4876">
        <ele>87</ele>
        <time>2021-02-17T08:23:37.670Z</time>
      </trkpt>
      <trkpt lat="48.7197" lon="2.48762">
        <ele>87</ele>
        <time>2021-02-17T08:23:42.669Z</time>
      </trkpt>
      <trkpt lat="48.71975" lon="2.48767">
        <ele>85</ele>
        <time>2021-02-17T08:23:47.667Z</time>
      </trkpt>
      <trkpt lat="48.71979" lon="2.48773">
        <ele>85</ele>
        <time>2021-02-17T08:23:52.661Z</time>
      </trkpt>
      <trkpt lat="48.71982" lon="2.48776">
        <ele>85</ele>
        <time>2021-02-17T08:23:56.668Z</time>
      </trkpt>
      <trkpt lat="48.71988" lon="2.48781">
        <ele>89</ele>
        <time>2021-02-17T08:24:01.674Z</time>
      </trkpt>
      <trkpt lat="48.71993" lon="2.48787">
        <ele>89</ele>
        <time>2021-02-17T08:24:06.670Z</time>
      </trkpt>
      <trkpt lat="48.71998" lon="2.48791">
        <ele>89</ele>
        <time>2021-02-17T08:24:10.673Z</time>
      </trkpt>
      <trkpt lat="48.72" lon="2.48792">
        <ele>90</ele>
        <time>2021-02-17T08:24:15.674Z</time>
      </trkpt>
      <trkpt lat="48.72005" lon="2.48795">
        <ele>90</ele>
        <time>2021-02-17T08:24:20.669Z</time>
      </trkpt>
      <trkpt lat="48.7201" lon="2.488">
        <ele>90</ele>
        <time>2021-02-17T08:24:25.665Z</time>
      </trkpt>
      <trkpt lat="48.72013" lon="2.48804">
        <ele>90</ele>
        <time>2021-02-17T08:24:30.668Z</time>
      </trkpt>
      <trkpt lat="48.72019" lon="2.48805">
        <ele>93</ele>
        <time>2021-02-17T08:24:35.673Z</time>
      </trkpt>
      <trkpt lat="48.72023" lon="2.48803">
        <ele>93</ele>
        <time>2021-02-17T08:24:40.667Z</time>
      </trkpt>
      <trkpt lat="48.72027" lon="2.48801">
        <ele>93</ele>
        <time>2021-02-17T08:24:45.678Z</time>
      </trkpt>
      <trkpt lat="48.72032" lon="2.48798">
        <ele>93</ele>
        <time>2021-02-17T08:24:50.658Z</time>
      </trkpt>
      <trkpt lat="48.72038" lon="2.48796">
        <ele>93</ele>
        <time>2021-02-17T08:24:55.659Z</time>
      </trkpt>
      <trkpt lat="48.72044" lon="2.48796">
        <ele>94</ele>
        <time>2021-02-17T08:25:00.666Z</time>
      </trkpt>
      <trkpt lat="48.72046" lon="2.48793">
        <ele>94</ele>
        <time>2021-02-17T08:25:05.662Z</time>
      </trkpt>
      <trkpt lat="48.72049" lon="2.48797">
        <ele>94</ele>
        <time>2021-02-17T08:25:10.655Z</time>
      </trkpt>
      <trkpt lat="48.72052" lon="2.48797">
        <ele>94</ele>
        <time>2021-02-17T08:25:14.662Z</time>
      </trkpt>
      <trkpt lat="48.72059" lon="2.48799">
        <ele>94</ele>
        <time>2021-02-17T08:25:19.669Z</time>
      </trkpt>
      <trkpt lat="48.72064" lon="2.48799">
        <ele>94</ele>
        <time>2021-02-17T08:25:24.674Z</time>
      </trkpt>
      <trkpt lat="48.72068" lon="2.48801">
        <ele>94</ele>
        <time>2021-02-17T08:25:29.670Z</time>
      </trkpt>
      <trkpt lat="48.72074" lon="2.48804">
        <ele>95</ele>
        <time>2021-02-17T08:25:34.662Z</time>
      </trkpt>
      <trkpt lat="48.72078" lon="2.48807">
        <ele>95</ele>
        <time>2021-02-17T08:25:38.670Z</time>
      </trkpt>
      <trkpt lat="48.72084" lon="2.4881">
        <ele>95</ele>
        <time>2021-02-17T08:25:43.667Z</time>
      </trkpt>
      <trkpt lat="48.72087" lon="2.48814">
        <ele>95</ele>
        <time>2021-02-17T08:25:47.681Z</time>
      </trkpt>
      <trkpt lat="48.72092" lon="2.48819">
        <ele>95</ele>
        <time>2021-02-17T08:25:52.664Z</time>
      </trkpt>
      <trkpt lat="48.72099" lon="2.48822">
        <ele>98</ele>
        <time>2021-02-17T08:25:57.661Z</time>
      </trkpt>
      <trkpt lat="48.72102" lon="2.48823">
        <ele>98</ele>
        <time>2021-02-17T08:26:01.667Z</time>
      </trkpt>
      <trkpt lat="48.72107" lon="2.48823">
        <ele>98</ele>
        <time>2021-02-17T08:26:06.668Z</time>
      </trkpt>
      <trkpt lat="48.72114" lon="2.48823">
        <ele>98</ele>
        <time>2021-02-17T08:26:11.669Z</time>
      </trkpt>
      <trkpt lat="48.72119" lon="2.48827">
        <ele>98</ele>
        <time>2021-02-17T08:26:15.656Z</time>
      </trkpt>
      <trkpt lat="48.72124" lon="2.48833">
        <ele>98</ele>
        <time>2021-02-17T08:26:20.666Z</time>
      </trkpt>
      <trkpt lat="48.7213" lon="2.4884">
        <ele>98</ele>
        <time>2021-02-17T08:26:25.653Z</time>
      </trkpt>
      <trkpt lat="48.72134" lon="2.48847">
        <ele>98</ele>
        <time>2021-02-17T08:26:30.657Z</time>
      </trkpt>
      <trkpt lat="48.72137" lon="2.48853">
        <ele>98</ele>
        <time>2021-02-17T08:26:34.653Z</time>
      </trkpt>
      <trkpt lat="48.72141" lon="2.4886">
        <ele>98</ele>
        <time>2021-02-17T08:26:39.666Z</time>
      </trkpt>
      <trkpt lat="48.72138" lon="2.48868">
        <ele>98</ele>
        <time>2021-02-17T08:26:44.653Z</time>
      </trkpt>
      <trkpt lat="48.72138" lon="2.48874">
        <ele>98</ele>
        <time>2021-02-17T08:26:48.667Z</time>
      </trkpt>
      <trkpt lat="48.72138" lon="2.4888">
        <ele>98</ele>
        <time>2021-02-17T08:26:53.670Z</time>
      </trkpt>
      <trkpt lat="48.72141" lon="2.48887">
        <ele>98</ele>
        <time>2021-02-17T08:26:58.666Z</time>
      </trkpt>
      <trkpt lat="48.72143" lon="2.48894">
        <ele>98</ele>
        <time>2021-02-17T08:27:03.665Z</time>
      </trkpt>
      <trkpt lat="48.72147" lon="2.48898">
        <ele>98</ele>
        <time>2021-02-17T08:27:08.659Z</time>
      </trkpt>
      <trkpt lat="48.72152" lon="2.48903">
        <ele>96</ele>
        <time>2021-02-17T08:27:12.665Z</time>
      </trkpt>
      <trkpt lat="48.72157" lon="2.48909">
        <ele>97</ele>
        <time>2021-02-17T08:27:16.682Z</time>
      </trkpt>
      <trkpt lat="48.7216" lon="2.48915">
        <ele>97</ele>
        <time>2021-02-17T08:27:21.657Z</time>
      </trkpt>
      <trkpt lat="48.72161" lon="2.48924">
        <ele>97</ele>
        <time>2021-02-17T08:27:26.656Z</time>
      </trkpt>
      <trkpt lat="48.72166" lon="2.48932">
        <ele>96</ele>
        <time>2021-02-17T08:27:31.644Z</time>
      </trkpt>
      <trkpt lat="48.72168" lon="2.48939">
        <ele>96</ele>
        <time>2021-02-17T08:27:36.658Z</time>
      </trkpt>
      <trkpt lat="48.72171" lon="2.48946">
        <ele>96</ele>
        <time>2021-02-17T08:27:41.664Z</time>
      </trkpt>
      <trkpt lat="48.72173" lon="2.48953">
        <ele>96</ele>
        <time>2021-02-17T08:27:46.638Z</time>
      </trkpt>
      <trkpt lat="48.72175" lon="2.48958">
        <ele>96</ele>
        <time>2021-02-17T08:27:51.666Z</time>
      </trkpt>
      <trkpt lat="48.72175" lon="2.4896">
        <ele>96</ele>
        <time>2021-02-17T08:27:55.697Z</time>
      </trkpt>
      <trkpt lat="48.72172" lon="2.48966">
        <ele>96</ele>
        <time>2021-02-17T08:28:00.648Z</time>
      </trkpt>
      <trkpt lat="48.72171" lon="2.48973">
        <ele>96</ele>
        <time>2021-02-17T08:28:04.673Z</time>
      </trkpt>
      <trkpt lat="48.7217" lon="2.48982">
        <ele>96</ele>
        <time>2021-02-17T08:28:09.670Z</time>
      </trkpt>
      <trkpt lat="48.72172" lon="2.48988">
        <ele>96</ele>
        <time>2021-02-17T08:28:13.652Z</time>
      </trkpt>
      <trkpt lat="48.72173" lon="2.48992">
        <ele>96</ele>
        <time>2021-02-17T08:28:18.641Z</time>
      </trkpt>
      <trkpt lat="48.72172" lon="2.48999">
        <ele>96</ele>
        <time>2021-02-17T08:28:22.668Z</time>
      </trkpt>
      <trkpt lat="48.72169" lon="2.49009">
        <ele>96</ele>
        <time>2021-02-17T08:28:27.673Z</time>
      </trkpt>
      <trkpt lat="48.72169" lon="2.49021">
        <ele>95</ele>
        <time>2021-02-17T08:28:32.669Z</time>
      </trkpt>
      <trkpt lat="48.72168" lon="2.49031">
        <ele>95</ele>
        <time>2021-02-17T08:28:37.674Z</time>
      </trkpt>
      <trkpt lat="48.72167" lon="2.4904">
        <ele>95</ele>
        <time>2021-02-17T08:28:42.667Z</time>
      </trkpt>
      <trkpt lat="48.72168" lon="2.49049">
        <ele>95</ele>
        <time>2021-02-17T08:28:47.657Z</time>
      </trkpt>
      <trkpt lat="48.72167" lon="2.49056">
        <ele>95</ele>
        <time>2021-02-17T08:28:52.665Z</time>
      </trkpt>
      <trkpt lat="48.72164" lon="2.49064">
        <ele>95</ele>
        <time>2021-02-17T08:28:57.678Z</time>
      </trkpt>
      <trkpt lat="48.72161" lon="2.4907">
        <ele>95</ele>
        <time>2021-02-17T08:29:02.658Z</time>
      </trkpt>
      <trkpt lat="48.72158" lon="2.49081">
        <ele>95</ele>
        <time>2021-02-17T08:29:07.675Z</time>
      </trkpt>
      <trkpt lat="48.72155" lon="2.49088">
        <ele>95</ele>
        <time>2021-02-17T08:29:12.647Z</time>
      </trkpt>
      <trkpt lat="48.72152" lon="2.49091">
        <ele>94</ele>
        <time>2021-02-17T08:29:16.674Z</time>
      </trkpt>
      <trkpt lat="48.7215" lon="2.49098">
        <ele>95</ele>
        <time>2021-02-17T08:29:21.673Z</time>
      </trkpt>
      <trkpt lat="48.72146" lon="2.49106">
        <ele>95</ele>
        <time>2021-02-17T08:29:26.657Z</time>
      </trkpt>
      <trkpt lat="48.72142" lon="2.49114">
        <ele>95</ele>
        <time>2021-02-17T08:29:31.665Z</time>
      </trkpt>
      <trkpt lat="48.72139" lon="2.49122">
        <ele>95</ele>
        <time>2021-02-17T08:29:36.666Z</time>
      </trkpt>
      <trkpt lat="48.72137" lon="2.49127">
        <ele>96</ele>
        <time>2021-02-17T08:29:41.679Z</time>
      </trkpt>
      <trkpt lat="48.7214" lon="2.49138">
        <ele>96</ele>
        <time>2021-02-17T08:31:42.668Z</time>
      </trkpt>
      <trkpt lat="48.72137" lon="2.49144">
        <ele>96</ele>
        <time>2021-02-17T08:31:47.661Z</time>
      </trkpt>
      <trkpt lat="48.72136" lon="2.49145">
        <ele>96</ele>
        <time>2021-02-17T08:31:52.659Z</time>
      </trkpt>
      <trkpt lat="48.72134" lon="2.49145">
        <ele>96</ele>
        <time>2021-02-17T08:31:56.668Z</time>
      </trkpt>
      <trkpt lat="48.72132" lon="2.49143">
        <ele>96</ele>
        <time>2021-02-17T08:32:01.691Z</time>
      </trkpt>
      <trkpt lat="48.72131" lon="2.49136">
        <ele>96</ele>
        <time>2021-02-17T08:32:39.675Z</time>
      </trkpt>
      <trkpt lat="48.72135" lon="2.49144">
        <ele>96</ele>
        <time>2021-02-17T08:32:44.675Z</time>
      </trkpt>
      <trkpt lat="48.72136" lon="2.49154">
        <ele>97</ele>
        <time>2021-02-17T08:32:49.673Z</time>
      </trkpt>
      <trkpt lat="48.72134" lon="2.4916">
        <ele>97</ele>
        <time>2021-02-17T08:32:53.677Z</time>
      </trkpt>
      <trkpt lat="48.72133" lon="2.49168">
        <ele>97</ele>
        <time>2021-02-17T08:32:58.668Z</time>
      </trkpt>
      <trkpt lat="48.72131" lon="2.49176">
        <ele>97</ele>
        <time>2021-02-17T08:33:03.642Z</time>
      </trkpt>
      <trkpt lat="48.72128" lon="2.49182">
        <ele>97</ele>
        <time>2021-02-17T08:33:07.653Z</time>
      </trkpt>
      <trkpt lat="48.72127" lon="2.4919">
        <ele>97</ele>
        <time>2021-02-17T08:33:12.651Z</time>
      </trkpt>
      <trkpt lat="48.72125" lon="2.49201">
        <ele>97</ele>
        <time>2021-02-17T08:33:17.656Z</time>
      </trkpt>
      <trkpt lat="48.72123" lon="2.49212">
        <ele>96</ele>
        <time>2021-02-17T08:33:22.655Z</time>
      </trkpt>
      <trkpt lat="48.72119" lon="2.49223">
        <ele>96</ele>
        <time>2021-02-17T08:33:27.655Z</time>
      </trkpt>
      <trkpt lat="48.72118" lon="2.49233">
        <ele>96</ele>
        <time>2021-02-17T08:33:32.652Z</time>
      </trkpt>
      <trkpt lat="48.72116" lon="2.49241">
        <ele>94</ele>
        <time>2021-02-17T08:33:37.654Z</time>
      </trkpt>
      <trkpt lat="48.72115" lon="2.4925">
        <ele>94</ele>
        <time>2021-02-17T08:33:42.641Z</time>
      </trkpt>
      <trkpt lat="48.72114" lon="2.49254">
        <ele>94</ele>
        <time>2021-02-17T08:33:46.675Z</time>
      </trkpt>
      <trkpt lat="48.72115" lon="2.49257">
        <ele>94</ele>
        <time>2021-02-17T08:33:50.656Z</time>
      </trkpt>
      <trkpt lat="48.72118" lon="2.49264">
        <ele>93</ele>
        <time>2021-02-17T08:33:55.664Z</time>
      </trkpt>
      <trkpt lat="48.7212" lon="2.49272">
        <ele>93</ele>
        <time>2021-02-17T08:34:00.653Z</time>
      </trkpt>
      <trkpt lat="48.72123" lon="2.49279">
        <ele>93</ele>
        <time>2021-02-17T08:34:05.657Z</time>
      </trkpt>
      <trkpt lat="48.72124" lon="2.49281">
        <ele>93</ele>
        <time>2021-02-17T08:34:10.655Z</time>
      </trkpt>
      <trkpt lat="48.72127" lon="2.49288">
        <ele>95</ele>
        <time>2021-02-17T08:34:14.663Z</time>
      </trkpt>
      <trkpt lat="48.7213" lon="2.49294">
        <ele>94</ele>
        <time>2021-02-17T08:34:19.657Z</time>
      </trkpt>
      <trkpt lat="48.72132" lon="2.49301">
        <ele>94</ele>
        <time>2021-02-17T08:34:23.647Z</time>
      </trkpt>
      <trkpt lat="48.72132" lon="2.49308">
        <ele>94</ele>
        <time>2021-02-17T08:34:28.653Z</time>
      </trkpt>
      <trkpt lat="48.72134" lon="2.49313">
        <ele>94</ele>
        <time>2021-02-17T08:34:33.642Z</time>
      </trkpt>
      <trkpt lat="48.72136" lon="2.4932">
        <ele>94</ele>
        <time>2021-02-17T08:34:37.651Z</time>
      </trkpt>
      <trkpt lat="48.72133" lon="2.4933">
        <ele>94</ele>
        <time>2021-02-17T08:34:42.652Z</time>
      </trkpt>
      <trkpt lat="48.72132" lon="2.49342">
        <ele>94</ele>
        <time>2021-02-17T08:34:47.660Z</time>
      </trkpt>
      <trkpt lat="48.72132" lon="2.49351">
        <ele>95</ele>
        <time>2021-02-17T08:34:52.646Z</time>
      </trkpt>
      <trkpt lat="48.72129" lon="2.49358">
        <ele>95</ele>
        <time>2021-02-17T08:34:57.628Z</time>
      </trkpt>
      <trkpt lat="48.72126" lon="2.4936">
        <ele>95</ele>
        <time>2021-02-17T08:35:01.649Z</time>
      </trkpt>
      <trkpt lat="48.72122" lon="2.49365">
        <ele>91</ele>
        <time>2021-02-17T08:35:05.652Z</time>
      </trkpt>
      <trkpt lat="48.72119" lon="2.49375">
        <ele>91</ele>
        <time>2021-02-17T08:35:10.651Z</time>
      </trkpt>
      <trkpt lat="48.72118" lon="2.49383">
        <ele>92</ele>
        <time>2021-02-17T08:35:15.650Z</time>
      </trkpt>
      <trkpt lat="48.72116" lon="2.4939">
        <ele>92</ele>
        <time>2021-02-17T08:35:20.650Z</time>
      </trkpt>
      <trkpt lat="48.72116" lon="2.49393">
        <ele>92</ele>
        <time>2021-02-17T08:35:24.651Z</time>
      </trkpt>
      <trkpt lat="48.72115" lon="2.49401">
        <ele>92</ele>
        <time>2021-02-17T08:35:29.653Z</time>
      </trkpt>
      <trkpt lat="48.72113" lon="2.4941">
        <ele>93</ele>
        <time>2021-02-17T08:35:34.651Z</time>
      </trkpt>
      <trkpt lat="48.72112" lon="2.4942">
        <ele>93</ele>
        <time>2021-02-17T08:35:39.654Z</time>
      </trkpt>
      <trkpt lat="48.7211" lon="2.49429">
        <ele>93</ele>
        <time>2021-02-17T08:35:44.650Z</time>
      </trkpt>
      <trkpt lat="48.7211" lon="2.49436">
        <ele>93</ele>
        <time>2021-02-17T08:35:48.646Z</time>
      </trkpt>
      <trkpt lat="48.72109" lon="2.49445">
        <ele>93</ele>
        <time>2021-02-17T08:35:53.634Z</time>
      </trkpt>
      <trkpt lat="48.72106" lon="2.49457">
        <ele>93</ele>
        <time>2021-02-17T08:35:58.650Z</time>
      </trkpt>
      <trkpt lat="48.72102" lon="2.49466">
        <ele>93</ele>
        <time>2021-02-17T08:36:03.641Z</time>
      </trkpt>
      <trkpt lat="48.72102" lon="2.49473">
        <ele>93</ele>
        <time>2021-02-17T08:36:07.652Z</time>
      </trkpt>
      <trkpt lat="48.72102" lon="2.49482">
        <ele>93</ele>
        <time>2021-02-17T08:36:12.651Z</time>
      </trkpt>
      <trkpt lat="48.72103" lon="2.49488">
        <ele>92</ele>
        <time>2021-02-17T08:36:17.650Z</time>
      </trkpt>
      <trkpt lat="48.72106" lon="2.49494">
        <ele>92</ele>
        <time>2021-02-17T08:36:22.648Z</time>
      </trkpt>
      <trkpt lat="48.7211" lon="2.49496">
        <ele>92</ele>
        <time>2021-02-17T08:36:27.649Z</time>
      </trkpt>
      <trkpt lat="48.72115" lon="2.49499">
        <ele>92</ele>
        <time>2021-02-17T08:36:32.650Z</time>
      </trkpt>
      <trkpt lat="48.72119" lon="2.49507">
        <ele>92</ele>
        <time>2021-02-17T08:36:37.652Z</time>
      </trkpt>
      <trkpt lat="48.72124" lon="2.49511">
        <ele>92</ele>
        <time>2021-02-17T08:36:42.649Z</time>
      </trkpt>
      <trkpt lat="48.7213" lon="2.49513">
        <ele>94</ele>
        <time>2021-02-17T08:36:47.650Z</time>
      </trkpt>
      <trkpt lat="48.72134" lon="2.49518">
        <ele>92</ele>
        <time>2021-02-17T08:36:51.653Z</time>
      </trkpt>
      <trkpt lat="48.72141" lon="2.49521">
        <ele>92</ele>
        <time>2021-02-17T08:36:56.655Z</time>
      </trkpt>
      <trkpt lat="48.72144" lon="2.49528">
        <ele>92</ele>
        <time>2021-02-17T08:37:01.654Z</time>
      </trkpt>
      <trkpt lat="48.72149" lon="2.49534">
        <ele>92</ele>
        <time>2021-02-17T08:37:06.664Z</time>
      </trkpt>
      <trkpt lat="48.72154" lon="2.4954">
        <ele>93</ele>
        <time>2021-02-17T08:37:11.667Z</time>
      </trkpt>
      <trkpt lat="48.72161" lon="2.49544">
        <ele>91</ele>
        <time>2021-02-17T08:37:16.658Z</time>
      </trkpt>
      <trkpt lat="48.72167" lon="2.4955">
        <ele>91</ele>
        <time>2021-02-17T08:37:21.658Z</time>
      </trkpt>
      <trkpt lat="48.72173" lon="2.49554">
        <ele>91</ele>
        <time>2021-02-17T08:37:25.663Z</time>
      </trkpt>
      <trkpt lat="48.72178" lon="2.49561">
        <ele>91</ele>
        <time>2021-02-17T08:37:30.665Z</time>
      </trkpt>
      <trkpt lat="48.72184" lon="2.49565">
        <ele>92</ele>
        <time>2021-02-17T08:37:35.653Z</time>
      </trkpt>
      <trkpt lat="48.72187" lon="2.49569">
        <ele>92</ele>
        <time>2021-02-17T08:37:39.664Z</time>
      </trkpt>
      <trkpt lat="48.72192" lon="2.49574">
        <ele>90</ele>
        <time>2021-02-17T08:37:44.666Z</time>
      </trkpt>
      <trkpt lat="48.72196" lon="2.49577">
        <ele>90</ele>
        <time>2021-02-17T08:37:49.664Z</time>
      </trkpt>
      <trkpt lat="48.722" lon="2.49582">
        <ele>90</ele>
        <time>2021-02-17T08:37:54.664Z</time>
      </trkpt>
      <trkpt lat="48.72202" lon="2.49591">
        <ele>90</ele>
        <time>2021-02-17T08:37:59.665Z</time>
      </trkpt>
      <trkpt lat="48.72204" lon="2.49598">
        <ele>90</ele>
        <time>2021-02-17T08:38:04.653Z</time>
      </trkpt>
      <trkpt lat="48.72206" lon="2.49604">
        <ele>90</ele>
        <time>2021-02-17T08:38:09.677Z</time>
      </trkpt>
      <trkpt lat="48.72206" lon="2.49616">
        <ele>90</ele>
        <time>2021-02-17T08:38:14.630Z</time>
      </trkpt>
      <trkpt lat="48.72206" lon="2.49623">
        <ele>90</ele>
        <time>2021-02-17T08:38:18.629Z</time>
      </trkpt>
      <trkpt lat="48.72207" lon="2.49632">
        <ele>90</ele>
        <time>2021-02-17T08:38:22.660Z</time>
      </trkpt>
      <trkpt lat="48.72206" lon="2.49639">
        <ele>90</ele>
        <time>2021-02-17T08:38:27.650Z</time>
      </trkpt>
      <trkpt lat="48.72208" lon="2.4965">
        <ele>90</ele>
        <time>2021-02-17T08:38:32.652Z</time>
      </trkpt>
      <trkpt lat="48.72208" lon="2.49657">
        <ele>89</ele>
        <time>2021-02-17T08:38:36.654Z</time>
      </trkpt>
      <trkpt lat="48.7221" lon="2.49667">
        <ele>88</ele>
        <time>2021-02-17T08:38:41.634Z</time>
      </trkpt>
      <trkpt lat="48.7221" lon="2.49674">
        <ele>88</ele>
        <time>2021-02-17T08:38:45.650Z</time>
      </trkpt>
      <trkpt lat="48.72211" lon="2.49685">
        <ele>88</ele>
        <time>2021-02-17T08:38:50.650Z</time>
      </trkpt>
      <trkpt lat="48.72211" lon="2.49694">
        <ele>88</ele>
        <time>2021-02-17T08:38:55.650Z</time>
      </trkpt>
      <trkpt lat="48.72212" lon="2.49705">
        <ele>88</ele>
        <time>2021-02-17T08:39:00.650Z</time>
      </trkpt>
      <trkpt lat="48.72212" lon="2.49715">
        <ele>89</ele>
        <time>2021-02-17T08:39:05.654Z</time>
      </trkpt>
      <trkpt lat="48.72211" lon="2.49725">
        <ele>89</ele>
        <time>2021-02-17T08:39:10.675Z</time>
      </trkpt>
      <trkpt lat="48.7221" lon="2.49736">
        <ele>89</ele>
        <time>2021-02-17T08:39:15.662Z</time>
      </trkpt>
      <trkpt lat="48.7221" lon="2.49745">
        <ele>90</ele>
        <time>2021-02-17T08:39:20.661Z</time>
      </trkpt>
      <trkpt lat="48.72208" lon="2.49755">
        <ele>90</ele>
        <time>2021-02-17T08:39:25.671Z</time>
      </trkpt>
      <trkpt lat="48.72207" lon="2.49766">
        <ele>90</ele>
        <time>2021-02-17T08:39:30.667Z</time>
      </trkpt>
      <trkpt lat="48.72208" lon="2.49777">
        <ele>90</ele>
        <time>2021-02-17T08:39:35.661Z</time>
      </trkpt>
      <trkpt lat="48.72208" lon="2.49787">
        <ele>90</ele>
        <time>2021-02-17T08:39:40.665Z</time>
      </trkpt>
      <trkpt lat="48.72209" lon="2.49795">
        <ele>90</ele>
        <time>2021-02-17T08:39:45.658Z</time>
      </trkpt>
      <trkpt lat="48.72208" lon="2.49801">
        <ele>90</ele>
        <time>2021-02-17T08:39:50.668Z</time>
      </trkpt>
      <trkpt lat="48.72211" lon="2.49807">
        <ele>90</ele>
        <time>2021-02-17T08:39:55.642Z</time>
      </trkpt>
      <trkpt lat="48.72216" lon="2.4981">
        <ele>90</ele>
        <time>2021-02-17T08:39:59.664Z</time>
      </trkpt>
      <trkpt lat="48.72221" lon="2.49814">
        <ele>90</ele>
        <time>2021-02-17T08:40:04.661Z</time>
      </trkpt>
      <trkpt lat="48.72227" lon="2.49819">
        <ele>90</ele>
        <time>2021-02-17T08:40:09.652Z</time>
      </trkpt>
      <trkpt lat="48.72231" lon="2.49823">
        <ele>89</ele>
        <time>2021-02-17T08:40:14.654Z</time>
      </trkpt>
      <trkpt lat="48.72237" lon="2.49827">
        <ele>90</ele>
        <time>2021-02-17T08:40:19.662Z</time>
      </trkpt>
      <trkpt lat="48.72243" lon="2.49829">
        <ele>90</ele>
        <time>2021-02-17T08:40:24.653Z</time>
      </trkpt>
      <trkpt lat="48.72249" lon="2.49832">
        <ele>90</ele>
        <time>2021-02-17T08:40:29.651Z</time>
      </trkpt>
      <trkpt lat="48.72253" lon="2.49836">
        <ele>90</ele>
        <time>2021-02-17T08:40:34.656Z</time>
      </trkpt>
      <trkpt lat="48.72256" lon="2.49842">
        <ele>90</ele>
        <time>2021-02-17T08:40:39.655Z</time>
      </trkpt>
      <trkpt lat="48.72259" lon="2.49847">
        <ele>90</ele>
        <time>2021-02-17T08:40:43.654Z</time>
      </trkpt>
      <trkpt lat="48.72261" lon="2.49855">
        <ele>90</ele>
        <time>2021-02-17T08:40:48.630Z</time>
      </trkpt>
      <trkpt lat="48.72267" lon="2.49862">
        <ele>91</ele>
        <time>2021-02-17T08:40:53.635Z</time>
      </trkpt>
      <trkpt lat="48.72271" lon="2.4987">
        <ele>91</ele>
        <time>2021-02-17T08:40:58.649Z</time>
      </trkpt>
      <trkpt lat="48.72274" lon="2.49875">
        <ele>91</ele>
        <time>2021-02-17T08:41:03.672Z</time>
      </trkpt>
      <trkpt lat="48.72279" lon="2.49883">
        <ele>91</ele>
        <time>2021-02-17T08:41:08.669Z</time>
      </trkpt>
      <trkpt lat="48.72283" lon="2.49891">
        <ele>91</ele>
        <time>2021-02-17T08:41:13.648Z</time>
      </trkpt>
      <trkpt lat="48.72287" lon="2.49896">
        <ele>91</ele>
        <time>2021-02-17T08:41:17.663Z</time>
      </trkpt>
      <trkpt lat="48.72293" lon="2.49899">
        <ele>92</ele>
        <time>2021-02-17T08:41:22.658Z</time>
      </trkpt>
      <trkpt lat="48.72297" lon="2.49901">
        <ele>92</ele>
        <time>2021-02-17T08:41:27.657Z</time>
      </trkpt>
      <trkpt lat="48.72303" lon="2.499">
        <ele>92</ele>
        <time>2021-02-17T08:41:32.663Z</time>
      </trkpt>
      <trkpt lat="48.72308" lon="2.499">
        <ele>92</ele>
        <time>2021-02-17T08:41:36.639Z</time>
      </trkpt>
      <trkpt lat="48.72315" lon="2.49899">
        <ele>92</ele>
        <time>2021-02-17T08:41:41.642Z</time>
      </trkpt>
      <trkpt lat="48.72321" lon="2.49902">
        <ele>93</ele>
        <time>2021-02-17T08:41:45.659Z</time>
      </trkpt>
      <trkpt lat="48.72326" lon="2.49907">
        <ele>93</ele>
        <time>2021-02-17T08:41:50.662Z</time>
      </trkpt>
      <trkpt lat="48.72332" lon="2.49914">
        <ele>93</ele>
        <time>2021-02-17T08:41:55.663Z</time>
      </trkpt>
      <trkpt lat="48.72336" lon="2.49921">
        <ele>93</ele>
        <time>2021-02-17T08:42:00.665Z</time>
      </trkpt>
      <trkpt lat="48.72341" lon="2.49928">
        <ele>93</ele>
        <time>2021-02-17T08:42:05.665Z</time>
      </trkpt>
      <trkpt lat="48.72345" lon="2.49935">
        <ele>93</ele>
        <time>2021-02-17T08:42:10.665Z</time>
      </trkpt>
      <trkpt lat="48.72345" lon="2.49942">
        <ele>93</ele>
        <time>2021-02-17T08:42:14.661Z</time>
      </trkpt>
      <trkpt lat="48.72343" lon="2.49951">
        <ele>93</ele>
        <time>2021-02-17T08:42:19.667Z</time>
      </trkpt>
      <trkpt lat="48.72343" lon="2.49961">
        <ele>94</ele>
        <time>2021-02-17T08:42:24.659Z</time>
      </trkpt>
      <trkpt lat="48.72343" lon="2.4997">
        <ele>94</ele>
        <time>2021-02-17T08:42:29.659Z</time>
      </trkpt>
      <trkpt lat="48.72347" lon="2.49972">
        <ele>94</ele>
        <time>2021-02-17T08:42:34.657Z</time>
      </trkpt>
      <trkpt lat="48.72355" lon="2.49972">
        <ele>94</ele>
        <time>2021-02-17T08:42:39.655Z</time>
      </trkpt>
      <trkpt lat="48.72361" lon="2.49972">
        <ele>94</ele>
        <time>2021-02-17T08:42:44.641Z</time>
      </trkpt>
      <trkpt lat="48.7237" lon="2.49972">
        <ele>94</ele>
        <time>2021-02-17T08:42:49.644Z</time>
      </trkpt>
      <trkpt lat="48.72374" lon="2.49971">
        <ele>94</ele>
        <time>2021-02-17T08:42:53.649Z</time>
      </trkpt>
      <trkpt lat="48.7238" lon="2.49971">
        <ele>93</ele>
        <time>2021-02-17T08:42:58.656Z</time>
      </trkpt>
      <trkpt lat="48.72386" lon="2.49972">
        <ele>93</ele>
        <time>2021-02-17T08:43:03.650Z</time>
      </trkpt>
      <trkpt lat="48.72391" lon="2.49973">
        <ele>93</ele>
        <time>2021-02-17T08:43:08.631Z</time>
      </trkpt>
      <trkpt lat="48.72396" lon="2.49973">
        <ele>93</ele>
        <time>2021-02-17T08:43:12.648Z</time>
      </trkpt>
      <trkpt lat="48.72402" lon="2.49974">
        <ele>93</ele>
        <time>2021-02-17T08:43:17.647Z</time>
      </trkpt>
      <trkpt lat="48.72407" lon="2.49975">
        <ele>93</ele>
        <time>2021-02-17T08:43:22.659Z</time>
      </trkpt>
      <trkpt lat="48.72414" lon="2.49977">
        <ele>93</ele>
        <time>2021-02-17T08:43:27.673Z</time>
      </trkpt>
      <trkpt lat="48.72421" lon="2.49979">
        <ele>93</ele>
        <time>2021-02-17T08:43:32.646Z</time>
      </trkpt>
      <trkpt lat="48.72425" lon="2.49981">
        <ele>93</ele>
        <time>2021-02-17T08:43:36.659Z</time>
      </trkpt>
      <trkpt lat="48.72427" lon="2.49985">
        <ele>93</ele>
        <time>2021-02-17T08:43:41.652Z</time>
      </trkpt>
      <trkpt lat="48.72431" lon="2.49993">
        <ele>96</ele>
        <time>2021-02-17T08:43:46.652Z</time>
      </trkpt>
      <trkpt lat="48.72435" lon="2.50001">
        <ele>96</ele>
        <time>2021-02-17T08:43:51.648Z</time>
      </trkpt>
      <trkpt lat="48.72441" lon="2.50008">
        <ele>96</ele>
        <time>2021-02-17T08:43:56.655Z</time>
      </trkpt>
      <trkpt lat="48.72445" lon="2.50015">
        <ele>97</ele>
        <time>2021-02-17T08:44:01.635Z</time>
      </trkpt>
      <trkpt lat="48.72448" lon="2.50021">
        <ele>97</ele>
        <time>2021-02-17T08:44:05.652Z</time>
      </trkpt>
      <trkpt lat="48.72451" lon="2.50028">
        <ele>97</ele>
        <time>2021-02-17T08:44:09.644Z</time>
      </trkpt>
      <trkpt lat="48.72454" lon="2.50036">
        <ele>97</ele>
        <time>2021-02-17T08:44:14.657Z</time>
      </trkpt>
      <trkpt lat="48.72459" lon="2.50044">
        <ele>100</ele>
        <time>2021-02-17T08:44:19.653Z</time>
      </trkpt>
      <trkpt lat="48.72461" lon="2.50052">
        <ele>100</ele>
        <time>2021-02-17T08:44:24.650Z</time>
      </trkpt>
      <trkpt lat="48.72466" lon="2.50059">
        <ele>100</ele>
        <time>2021-02-17T08:44:29.647Z</time>
      </trkpt>
      <trkpt lat="48.72468" lon="2.50066">
        <ele>100</ele>
        <time>2021-02-17T08:44:33.651Z</time>
      </trkpt>
      <trkpt lat="48.72473" lon="2.50072">
        <ele>102</ele>
        <time>2021-02-17T08:44:38.658Z</time>
      </trkpt>
      <trkpt lat="48.72476" lon="2.50078">
        <ele>102</ele>
        <time>2021-02-17T08:44:43.655Z</time>
      </trkpt>
      <trkpt lat="48.7248" lon="2.50086">
        <ele>102</ele>
        <time>2021-02-17T08:44:48.662Z</time>
      </trkpt>
      <trkpt lat="48.72484" lon="2.50093">
        <ele>102</ele>
        <time>2021-02-17T08:44:53.640Z</time>
      </trkpt>
      <trkpt lat="48.72487" lon="2.50098">
        <ele>105</ele>
        <time>2021-02-17T08:44:57.671Z</time>
      </trkpt>
      <trkpt lat="48.72491" lon="2.50109">
        <ele>105</ele>
        <time>2021-02-17T08:45:02.647Z</time>
      </trkpt>
      <trkpt lat="48.72493" lon="2.50117">
        <ele>105</ele>
        <time>2021-02-17T08:45:07.653Z</time>
      </trkpt>
      <trkpt lat="48.72495" lon="2.50124">
        <ele>105</ele>
        <time>2021-02-17T08:45:11.660Z</time>
      </trkpt>
      <trkpt lat="48.72499" lon="2.50132">
        <ele>107</ele>
        <time>2021-02-17T08:45:16.669Z</time>
      </trkpt>
      <trkpt lat="48.72504" lon="2.5014">
        <ele>107</ele>
        <time>2021-02-17T08:45:21.655Z</time>
      </trkpt>
      <trkpt lat="48.72509" lon="2.50148">
        <ele>107</ele>
        <time>2021-02-17T08:45:26.647Z</time>
      </trkpt>
      <trkpt lat="48.72513" lon="2.50158">
        <ele>107</ele>
        <time>2021-02-17T08:45:31.646Z</time>
      </trkpt>
      <trkpt lat="48.72517" lon="2.50165">
        <ele>107</ele>
        <time>2021-02-17T08:45:36.641Z</time>
      </trkpt>
      <trkpt lat="48.7252" lon="2.50173">
        <ele>107</ele>
        <time>2021-02-17T08:45:40.652Z</time>
      </trkpt>
      <trkpt lat="48.72522" lon="2.5018">
        <ele>107</ele>
        <time>2021-02-17T08:45:45.648Z</time>
      </trkpt>
      <trkpt lat="48.72522" lon="2.50187">
        <ele>106</ele>
        <time>2021-02-17T08:45:49.647Z</time>
      </trkpt>
      <trkpt lat="48.72525" lon="2.50195">
        <ele>106</ele>
        <time>2021-02-17T08:45:54.657Z</time>
      </trkpt>
      <trkpt lat="48.72528" lon="2.50204">
        <ele>106</ele>
        <time>2021-02-17T08:45:59.655Z</time>
      </trkpt>
      <trkpt lat="48.72531" lon="2.50212">
        <ele>106</ele>
        <time>2021-02-17T08:46:04.642Z</time>
      </trkpt>
      <trkpt lat="48.72537" lon="2.50221">
        <ele>106</ele>
        <time>2021-02-17T08:46:09.644Z</time>
      </trkpt>
      <trkpt lat="48.72538" lon="2.50228">
        <ele>106</ele>
        <time>2021-02-17T08:46:13.656Z</time>
      </trkpt>
      <trkpt lat="48.72543" lon="2.50236">
        <ele>105</ele>
        <time>2021-02-17T08:46:18.626Z</time>
      </trkpt>
      <trkpt lat="48.72546" lon="2.50243">
        <ele>105</ele>
        <time>2021-02-17T08:46:23.636Z</time>
      </trkpt>
      <trkpt lat="48.72545" lon="2.50249">
        <ele>105</ele>
        <time>2021-02-17T08:46:28.622Z</time>
      </trkpt>
      <trkpt lat="48.72548" lon="2.50257">
        <ele>105</ele>
        <time>2021-02-17T08:46:33.619Z</time>
      </trkpt>
      <trkpt lat="48.72549" lon="2.50264">
        <ele>105</ele>
        <time>2021-02-17T08:46:37.643Z</time>
      </trkpt>
      <trkpt lat="48.72555" lon="2.50269">
        <ele>105</ele>
        <time>2021-02-17T08:46:42.640Z</time>
      </trkpt>
      <trkpt lat="48.72558" lon="2.50278">
        <ele>105</ele>
        <time>2021-02-17T08:46:47.642Z</time>
      </trkpt>
      <trkpt lat="48.7256" lon="2.50286">
        <ele>105</ele>
        <time>2021-02-17T08:46:51.657Z</time>
      </trkpt>
      <trkpt lat="48.72566" lon="2.50294">
        <ele>106</ele>
        <time>2021-02-17T08:46:56.648Z</time>
      </trkpt>
      <trkpt lat="48.7257" lon="2.50301">
        <ele>106</ele>
        <time>2021-02-17T08:47:00.660Z</time>
      </trkpt>
      <trkpt lat="48.72573" lon="2.50308">
        <ele>106</ele>
        <time>2021-02-17T08:47:05.648Z</time>
      </trkpt>
      <trkpt lat="48.72573" lon="2.50318">
        <ele>106</ele>
        <time>2021-02-17T08:47:10.655Z</time>
      </trkpt>
      <trkpt lat="48.72576" lon="2.50325">
        <ele>106</ele>
        <time>2021-02-17T08:47:15.652Z</time>
      </trkpt>
      <trkpt lat="48.7258" lon="2.50333">
        <ele>106</ele>
        <time>2021-02-17T08:47:20.654Z</time>
      </trkpt>
      <trkpt lat="48.72583" lon="2.50339">
        <ele>106</ele>
        <time>2021-02-17T08:47:24.656Z</time>
      </trkpt>
      <trkpt lat="48.72584" lon="2.50341">
        <ele>106</ele>
        <time>2021-02-17T08:47:28.650Z</time>
      </trkpt>
      <trkpt lat="48.72588" lon="2.50349">
        <ele>107</ele>
        <time>2021-02-17T08:47:33.651Z</time>
      </trkpt>
      <trkpt lat="48.72591" lon="2.50356">
        <ele>107</ele>
        <time>2021-02-17T08:47:38.654Z</time>
      </trkpt>
      <trkpt lat="48.72594" lon="2.50363">
        <ele>107</ele>
        <time>2021-02-17T08:47:43.652Z</time>
      </trkpt>
      <trkpt lat="48.72595" lon="2.50368">
        <ele>107</ele>
        <time>2021-02-17T08:47:47.655Z</time>
      </trkpt>
      <trkpt lat="48.72599" lon="2.50376">
        <ele>110</ele>
        <time>2021-02-17T08:47:52.642Z</time>
      </trkpt>
      <trkpt lat="48.72604" lon="2.50383">
        <ele>110</ele>
        <time>2021-02-17T08:47:57.644Z</time>
      </trkpt>
      <trkpt lat="48.72609" lon="2.50386">
        <ele>110</ele>
        <time>2021-02-17T08:48:02.653Z</time>
      </trkpt>
      <trkpt lat="48.72615" lon="2.50387">
        <ele>110</ele>
        <time>2021-02-17T08:48:07.650Z</time>
      </trkpt>
      <trkpt lat="48.72621" lon="2.50383">
        <ele>110</ele>
        <time>2021-02-17T08:48:12.650Z</time>
      </trkpt>
      <trkpt lat="48.72626" lon="2.5038">
        <ele>110</ele>
        <time>2021-02-17T08:48:17.655Z</time>
      </trkpt>
      <trkpt lat="48.72632" lon="2.50378">
        <ele>110</ele>
        <time>2021-02-17T08:48:22.628Z</time>
      </trkpt>
      <trkpt lat="48.72634" lon="2.50378">
        <ele>110</ele>
        <time>2021-02-17T08:48:26.638Z</time>
      </trkpt>
      <trkpt lat="48.7264" lon="2.50378">
        <ele>110</ele>
        <time>2021-02-17T08:48:31.651Z</time>
      </trkpt>
      <trkpt lat="48.72645" lon="2.50379">
        <ele>110</ele>
        <time>2021-02-17T08:48:36.641Z</time>
      </trkpt>
      <trkpt lat="48.72648" lon="2.50379">
        <ele>110</ele>
        <time>2021-02-17T08:48:40.642Z</time>
      </trkpt>
      <trkpt lat="48.72651" lon="2.50374">
        <ele>109</ele>
        <time>2021-02-17T08:48:45.643Z</time>
      </trkpt>
      <trkpt lat="48.72657" lon="2.50373">
        <ele>108</ele>
        <time>2021-02-17T08:48:49.649Z</time>
      </trkpt>
      <trkpt lat="48.72664" lon="2.50372">
        <ele>108</ele>
        <time>2021-02-17T08:48:54.652Z</time>
      </trkpt>
      <trkpt lat="48.72671" lon="2.50372">
        <ele>108</ele>
        <time>2021-02-17T08:48:59.624Z</time>
      </trkpt>
      <trkpt lat="48.72677" lon="2.50373">
        <ele>108</ele>
        <time>2021-02-17T08:49:03.662Z</time>
      </trkpt>
      <trkpt lat="48.72682" lon="2.50371">
        <ele>107</ele>
        <time>2021-02-17T08:49:08.634Z</time>
      </trkpt>
      <trkpt lat="48.72686" lon="2.5037">
        <ele>107</ele>
        <time>2021-02-17T08:49:12.652Z</time>
      </trkpt>
      <trkpt lat="48.72694" lon="2.5037">
        <ele>107</ele>
        <time>2021-02-17T08:49:17.652Z</time>
      </trkpt>
      <trkpt lat="48.72701" lon="2.50371">
        <ele>107</ele>
        <time>2021-02-17T08:49:21.649Z</time>
      </trkpt>
      <trkpt lat="48.72706" lon="2.50369">
        <ele>107</ele>
        <time>2021-02-17T08:49:26.653Z</time>
      </trkpt>
      <trkpt lat="48.72709" lon="2.50369">
        <ele>104</ele>
        <time>2021-02-17T08:49:31.644Z</time>
      </trkpt>
      <trkpt lat="48.72716" lon="2.50369">
        <ele>104</ele>
        <time>2021-02-17T08:49:36.640Z</time>
      </trkpt>
      <trkpt lat="48.72721" lon="2.50369">
        <ele>104</ele>
        <time>2021-02-17T08:49:41.655Z</time>
      </trkpt>
      <trkpt lat="48.72723" lon="2.50367">
        <ele>104</ele>
        <time>2021-02-17T08:49:46.651Z</time>
      </trkpt>
      <trkpt lat="48.72728" lon="2.50365">
        <ele>104</ele>
        <time>2021-02-17T08:49:50.634Z</time>
      </trkpt>
      <trkpt lat="48.72735" lon="2.50363">
        <ele>104</ele>
        <time>2021-02-17T08:49:55.648Z</time>
      </trkpt>
      <trkpt lat="48.72741" lon="2.50364">
        <ele>102</ele>
        <time>2021-02-17T08:49:59.642Z</time>
      </trkpt>
      <trkpt lat="48.72747" lon="2.50365">
        <ele>102</ele>
        <time>2021-02-17T08:50:04.647Z</time>
      </trkpt>
      <trkpt lat="48.72756" lon="2.50365">
        <ele>102</ele>
        <time>2021-02-17T08:50:09.652Z</time>
      </trkpt>
      <trkpt lat="48.72763" lon="2.50366">
        <ele>102</ele>
        <time>2021-02-17T08:50:14.655Z</time>
      </trkpt>
      <trkpt lat="48.7277" lon="2.50365">
        <ele>100</ele>
        <time>2021-02-17T08:50:19.651Z</time>
      </trkpt>
      <trkpt lat="48.72778" lon="2.50364">
        <ele>100</ele>
        <time>2021-02-17T08:50:24.647Z</time>
      </trkpt>
      <trkpt lat="48.72783" lon="2.50363">
        <ele>100</ele>
        <time>2021-02-17T08:50:28.643Z</time>
      </trkpt>
      <trkpt lat="48.72789" lon="2.50361">
        <ele>100</ele>
        <time>2021-02-17T08:50:33.647Z</time>
      </trkpt>
      <trkpt lat="48.72797" lon="2.50362">
        <ele>99</ele>
        <time>2021-02-17T08:50:38.636Z</time>
      </trkpt>
      <trkpt lat="48.72805" lon="2.50366">
        <ele>99</ele>
        <time>2021-02-17T08:50:42.648Z</time>
      </trkpt>
      <trkpt lat="48.72812" lon="2.50364">
        <ele>99</ele>
        <time>2021-02-17T08:50:47.640Z</time>
      </trkpt>
      <trkpt lat="48.72816" lon="2.50361">
        <ele>99</ele>
        <time>2021-02-17T08:50:51.649Z</time>
      </trkpt>
      <trkpt lat="48.7282" lon="2.50359">
        <ele>99</ele>
        <time>2021-02-17T08:50:56.641Z</time>
      </trkpt>
      <trkpt lat="48.72829" lon="2.50361">
        <ele>99</ele>
        <time>2021-02-17T08:51:01.657Z</time>
      </trkpt>
      <trkpt lat="48.72833" lon="2.5036">
        <ele>99</ele>
        <time>2021-02-17T08:51:06.638Z</time>
      </trkpt>
      <trkpt lat="48.72836" lon="2.50357">
        <ele>99</ele>
        <time>2021-02-17T08:51:11.649Z</time>
      </trkpt>
      <trkpt lat="48.72846" lon="2.50353">
        <ele>99</ele>
        <time>2021-02-17T08:51:16.650Z</time>
      </trkpt>
      <trkpt lat="48.72854" lon="2.50353">
        <ele>100</ele>
        <time>2021-02-17T08:51:20.650Z</time>
      </trkpt>
      <trkpt lat="48.72859" lon="2.50354">
        <ele>100</ele>
        <time>2021-02-17T08:51:24.635Z</time>
      </trkpt>
      <trkpt lat="48.72866" lon="2.50354">
        <ele>100</ele>
        <time>2021-02-17T08:51:29.641Z</time>
      </trkpt>
      <trkpt lat="48.72871" lon="2.50354">
        <ele>100</ele>
        <time>2021-02-17T08:51:34.643Z</time>
      </trkpt>
      <trkpt lat="48.72876" lon="2.50354">
        <ele>99</ele>
        <time>2021-02-17T08:51:38.646Z</time>
      </trkpt>
      <trkpt lat="48.72881" lon="2.50355">
        <ele>99</ele>
        <time>2021-02-17T08:51:43.640Z</time>
      </trkpt>
      <trkpt lat="48.72887" lon="2.50352">
        <ele>99</ele>
        <time>2021-02-17T08:51:48.651Z</time>
      </trkpt>
      <trkpt lat="48.72894" lon="2.50348">
        <ele>99</ele>
        <time>2021-02-17T08:51:53.628Z</time>
      </trkpt>
      <trkpt lat="48.72899" lon="2.50349">
        <ele>99</ele>
        <time>2021-02-17T08:51:57.642Z</time>
      </trkpt>
      <trkpt lat="48.72906" lon="2.50349">
        <ele>95</ele>
        <time>2021-02-17T08:52:02.648Z</time>
      </trkpt>
      <trkpt lat="48.72912" lon="2.50348">
        <ele>95</ele>
        <time>2021-02-17T08:52:07.658Z</time>
      </trkpt>
      <trkpt lat="48.7292" lon="2.5035">
        <ele>95</ele>
        <time>2021-02-17T08:52:12.658Z</time>
      </trkpt>
      <trkpt lat="48.72927" lon="2.5035">
        <ele>95</ele>
        <time>2021-02-17T08:52:17.660Z</time>
      </trkpt>
      <trkpt lat="48.72934" lon="2.5035">
        <ele>93</ele>
        <time>2021-02-17T08:52:22.649Z</time>
      </trkpt>
      <trkpt lat="48.7294" lon="2.50348">
        <ele>93</ele>
        <time>2021-02-17T08:52:27.650Z</time>
      </trkpt>
      <trkpt lat="48.72947" lon="2.5035">
        <ele>93</ele>
        <time>2021-02-17T08:52:32.653Z</time>
      </trkpt>
      <trkpt lat="48.72952" lon="2.50349">
        <ele>93</ele>
        <time>2021-02-17T08:52:36.653Z</time>
      </trkpt>
      <trkpt lat="48.72957" lon="2.50348">
        <ele>93</ele>
        <time>2021-02-17T08:52:41.657Z</time>
      </trkpt>
      <trkpt lat="48.72963" lon="2.50348">
        <ele>92</ele>
        <time>2021-02-17T08:52:46.644Z</time>
      </trkpt>
      <trkpt lat="48.72971" lon="2.50348">
        <ele>92</ele>
        <time>2021-02-17T08:52:51.649Z</time>
      </trkpt>
      <trkpt lat="48.72978" lon="2.5035">
        <ele>92</ele>
        <time>2021-02-17T08:52:56.646Z</time>
      </trkpt>
      <trkpt lat="48.72986" lon="2.50349">
        <ele>92</ele>
        <time>2021-02-17T08:53:01.658Z</time>
      </trkpt>
      <trkpt lat="48.72994" lon="2.50349">
        <ele>93</ele>
        <time>2021-02-17T08:53:06.640Z</time>
      </trkpt>
      <trkpt lat="48.72999" lon="2.50349">
        <ele>93</ele>
        <time>2021-02-17T08:53:10.644Z</time>
      </trkpt>
      <trkpt lat="48.73006" lon="2.50348">
        <ele>93</ele>
        <time>2021-02-17T08:53:15.629Z</time>
      </trkpt>
      <trkpt lat="48.73012" lon="2.50349">
        <ele>93</ele>
        <time>2021-02-17T08:53:19.642Z</time>
      </trkpt>
      <trkpt lat="48.73017" lon="2.50348">
        <ele>93</ele>
        <time>2021-02-17T08:53:23.658Z</time>
      </trkpt>
      <trkpt lat="48.73022" lon="2.50346">
        <ele>93</ele>
        <time>2021-02-17T08:53:28.646Z</time>
      </trkpt>
      <trkpt lat="48.73027" lon="2.50344">
        <ele>93</ele>
        <time>2021-02-17T08:53:32.645Z</time>
      </trkpt>
      <trkpt lat="48.73034" lon="2.50344">
        <ele>93</ele>
        <time>2021-02-17T08:53:37.649Z</time>
      </trkpt>
      <trkpt lat="48.7304" lon="2.50344">
        <ele>93</ele>
        <time>2021-02-17T08:53:42.652Z</time>
      </trkpt>
      <trkpt lat="48.73047" lon="2.50344">
        <ele>92</ele>
        <time>2021-02-17T08:53:47.653Z</time>
      </trkpt>
      <trkpt lat="48.73052" lon="2.50343">
        <ele>92</ele>
        <time>2021-02-17T08:53:51.654Z</time>
      </trkpt>
      <trkpt lat="48.73058" lon="2.50343">
        <ele>92</ele>
        <time>2021-02-17T08:53:56.653Z</time>
      </trkpt>
      <trkpt lat="48.7306" lon="2.50342">
        <ele>92</ele>
        <time>2021-02-17T08:54:01.632Z</time>
      </trkpt>
      <trkpt lat="48.73063" lon="2.50342">
        <ele>92</ele>
        <time>2021-02-17T08:54:05.659Z</time>
      </trkpt>
      <trkpt lat="48.73065" lon="2.50342">
        <ele>92</ele>
        <time>2021-02-17T08:54:10.657Z</time>
      </trkpt>
      <trkpt lat="48.73071" lon="2.50344">
        <ele>93</ele>
        <time>2021-02-17T08:54:15.649Z</time>
      </trkpt>
      <trkpt lat="48.73078" lon="2.50345">
        <ele>93</ele>
        <time>2021-02-17T08:54:20.653Z</time>
      </trkpt>
      <trkpt lat="48.73085" lon="2.50345">
        <ele>93</ele>
        <time>2021-02-17T08:54:25.649Z</time>
      </trkpt>
      <trkpt lat="48.73089" lon="2.50343">
        <ele>93</ele>
        <time>2021-02-17T08:54:29.642Z</time>
      </trkpt>
      <trkpt lat="48.73093" lon="2.50337">
        <ele>93</ele>
        <time>2021-02-17T08:54:34.649Z</time>
      </trkpt>
      <trkpt lat="48.73096" lon="2.50336">
        <ele>93</ele>
        <time>2021-02-17T08:54:39.655Z</time>
      </trkpt>
      <trkpt lat="48.73102" lon="2.50336">
        <ele>94</ele>
        <time>2021-02-17T08:54:44.654Z</time>
      </trkpt>
      <trkpt lat="48.73107" lon="2.50335">
        <ele>94</ele>
        <time>2021-02-17T08:54:49.643Z</time>
      </trkpt>
      <trkpt lat="48.73111" lon="2.50335">
        <ele>94</ele>
        <time>2021-02-17T08:54:54.642Z</time>
      </trkpt>
      <trkpt lat="48.73118" lon="2.50334">
        <ele>94</ele>
        <time>2021-02-17T08:54:59.652Z</time>
      </trkpt>
      <trkpt lat="48.73124" lon="2.50332">
        <ele>94</ele>
        <time>2021-02-17T08:55:04.643Z</time>
      </trkpt>
      <trkpt lat="48.7313" lon="2.50332">
        <ele>95</ele>
        <time>2021-02-17T08:55:09.647Z</time>
      </trkpt>
      <trkpt lat="48.73137" lon="2.50333">
        <ele>95</ele>
        <time>2021-02-17T08:55:14.641Z</time>
      </trkpt>
      <trkpt lat="48.73142" lon="2.50332">
        <ele>95</ele>
        <time>2021-02-17T08:55:19.638Z</time>
      </trkpt>
      <trkpt lat="48.7315" lon="2.50331">
        <ele>95</ele>
        <time>2021-02-17T08:55:24.640Z</time>
      </trkpt>
      <trkpt lat="48.73158" lon="2.50331">
        <ele>94</ele>
        <time>2021-02-17T08:55:29.656Z</time>
      </trkpt>
      <trkpt lat="48.73166" lon="2.50332">
        <ele>94</ele>
        <time>2021-02-17T08:55:34.661Z</time>
      </trkpt>
      <trkpt lat="48.73174" lon="2.50331">
        <ele>94</ele>
        <time>2021-02-17T08:55:39.656Z</time>
      </trkpt>
      <trkpt lat="48.73181" lon="2.50328">
        <ele>94</ele>
        <time>2021-02-17T08:55:44.626Z</time>
      </trkpt>
      <trkpt lat="48.73184" lon="2.50328">
        <ele>94</ele>
        <time>2021-02-17T08:55:48.627Z</time>
      </trkpt>
      <trkpt lat="48.7319" lon="2.50329">
        <ele>94</ele>
        <time>2021-02-17T08:55:53.635Z</time>
      </trkpt>
      <trkpt lat="48.73196" lon="2.50329">
        <ele>94</ele>
        <time>2021-02-17T08:55:57.657Z</time>
      </trkpt>
      <trkpt lat="48.73202" lon="2.50329">
        <ele>94</ele>
        <time>2021-02-17T08:56:02.646Z</time>
      </trkpt>
      <trkpt lat="48.73207" lon="2.50327">
        <ele>94</ele>
        <time>2021-02-17T08:56:06.655Z</time>
      </trkpt>
      <trkpt lat="48.73213" lon="2.50326">
        <ele>93</ele>
        <time>2021-02-17T08:56:11.650Z</time>
      </trkpt>
      <trkpt lat="48.73219" lon="2.50326">
        <ele>93</ele>
        <time>2021-02-17T08:56:15.657Z</time>
      </trkpt>
      <trkpt lat="48.73224" lon="2.50324">
        <ele>93</ele>
        <time>2021-02-17T08:56:20.649Z</time>
      </trkpt>
      <trkpt lat="48.73225" lon="2.50323">
        <ele>93</ele>
        <time>2021-02-17T08:56:25.657Z</time>
      </trkpt>
      <trkpt lat="48.7323" lon="2.50321">
        <ele>93</ele>
        <time>2021-02-17T08:56:30.651Z</time>
      </trkpt>
      <trkpt lat="48.73241" lon="2.5032">
        <ele>93</ele>
        <time>2021-02-17T08:56:35.651Z</time>
      </trkpt>
      <trkpt lat="48.73251" lon="2.5032">
        <ele>93</ele>
        <time>2021-02-17T08:56:40.649Z</time>
      </trkpt>
      <trkpt lat="48.73253" lon="2.50319">
        <ele>94</ele>
        <time>2021-02-17T08:56:45.645Z</time>
      </trkpt>
      <trkpt lat="48.73258" lon="2.50319">
        <ele>94</ele>
        <time>2021-02-17T08:56:49.647Z</time>
      </trkpt>
      <trkpt lat="48.73264" lon="2.50319">
        <ele>95</ele>
        <time>2021-02-17T08:56:54.624Z</time>
      </trkpt>
      <trkpt lat="48.73269" lon="2.5032">
        <ele>95</ele>
        <time>2021-02-17T08:56:58.647Z</time>
      </trkpt>
      <trkpt lat="48.73274" lon="2.50318">
        <ele>95</ele>
        <time>2021-02-17T08:57:03.630Z</time>
      </trkpt>
      <trkpt lat="48.7328" lon="2.50318">
        <ele>95</ele>
        <time>2021-02-17T08:57:07.653Z</time>
      </trkpt>
      <trkpt lat="48.73284" lon="2.50319">
        <ele>95</ele>
        <time>2021-02-17T08:57:12.648Z</time>
      </trkpt>
      <trkpt lat="48.73287" lon="2.50321">
        <ele>95</ele>
        <time>2021-02-17T08:57:16.653Z</time>
      </trkpt>
      <trkpt lat="48.73295" lon="2.50321">
        <ele>95</ele>
        <time>2021-02-17T08:57:21.653Z</time>
      </trkpt>
      <trkpt lat="48.73301" lon="2.5032">
        <ele>95</ele>
        <time>2021-02-17T08:57:26.650Z</time>
      </trkpt>
      <trkpt lat="48.73308" lon="2.5032">
        <ele>95</ele>
        <time>2021-02-17T08:57:30.653Z</time>
      </trkpt>
      <trkpt lat="48.73318" lon="2.50322">
        <ele>95</ele>
        <time>2021-02-17T08:57:35.648Z</time>
      </trkpt>
      <trkpt lat="48.73322" lon="2.50319">
        <ele>94</ele>
        <time>2021-02-17T08:57:40.646Z</time>
      </trkpt>
      <trkpt lat="48.73327" lon="2.50319">
        <ele>94</ele>
        <time>2021-02-17T08:57:44.656Z</time>
      </trkpt>
      <trkpt lat="48.73333" lon="2.50319">
        <ele>94</ele>
        <time>2021-02-17T08:57:49.649Z</time>
      </trkpt>
      <trkpt lat="48.73338" lon="2.50319">
        <ele>94</ele>
        <time>2021-02-17T08:57:54.658Z</time>
      </trkpt>
      <trkpt lat="48.73344" lon="2.50319">
        <ele>94</ele>
        <time>2021-02-17T08:57:59.651Z</time>
      </trkpt>
      <trkpt lat="48.7335" lon="2.50317">
        <ele>93</ele>
        <time>2021-02-17T08:58:04.658Z</time>
      </trkpt>
      <trkpt lat="48.73354" lon="2.50313">
        <ele>93</ele>
        <time>2021-02-17T08:58:09.642Z</time>
      </trkpt>
      <trkpt lat="48.73358" lon="2.50313">
        <ele>93</ele>
        <time>2021-02-17T08:58:13.621Z</time>
      </trkpt>
      <trkpt lat="48.73363" lon="2.50312">
        <ele>93</ele>
        <time>2021-02-17T08:58:18.630Z</time>
      </trkpt>
      <trkpt lat="48.73367" lon="2.50312">
        <ele>93</ele>
        <time>2021-02-17T08:58:23.637Z</time>
      </trkpt>
      <trkpt lat="48.73375" lon="2.50312">
        <ele>91</ele>
        <time>2021-02-17T08:58:28.643Z</time>
      </trkpt>
      <trkpt lat="48.73384" lon="2.50311">
        <ele>91</ele>
        <time>2021-02-17T08:58:33.619Z</time>
      </trkpt>
      <trkpt lat="48.73387" lon="2.5031">
        <ele>91</ele>
        <time>2021-02-17T08:58:38.634Z</time>
      </trkpt>
      <trkpt lat="48.73395" lon="2.50309">
        <ele>91</ele>
        <time>2021-02-17T08:58:43.635Z</time>
      </trkpt>
      <trkpt lat="48.73401" lon="2.50309">
        <ele>91</ele>
        <time>2021-02-17T08:58:47.642Z</time>
      </trkpt>
      <trkpt lat="48.73409" lon="2.50309">
        <ele>91</ele>
        <time>2021-02-17T08:58:52.655Z</time>
      </trkpt>
      <trkpt lat="48.73415" lon="2.50309">
        <ele>91</ele>
        <time>2021-02-17T08:58:57.653Z</time>
      </trkpt>
      <trkpt lat="48.7342" lon="2.50307">
        <ele>91</ele>
        <time>2021-02-17T08:59:02.650Z</time>
      </trkpt>
      <trkpt lat="48.73426" lon="2.50308">
        <ele>91</ele>
        <time>2021-02-17T08:59:07.651Z</time>
      </trkpt>
      <trkpt lat="48.73434" lon="2.50311">
        <ele>94</ele>
        <time>2021-02-17T08:59:12.651Z</time>
      </trkpt>
      <trkpt lat="48.7344" lon="2.50312">
        <ele>94</ele>
        <time>2021-02-17T08:59:17.658Z</time>
      </trkpt>
      <trkpt lat="48.73445" lon="2.50313">
        <ele>94</ele>
        <time>2021-02-17T08:59:22.648Z</time>
      </trkpt>
      <trkpt lat="48.73449" lon="2.50311">
        <ele>94</ele>
        <time>2021-02-17T08:59:26.653Z</time>
      </trkpt>
      <trkpt lat="48.73453" lon="2.5031">
        <ele>94</ele>
        <time>2021-02-17T08:59:30.655Z</time>
      </trkpt>
      <trkpt lat="48.7346" lon="2.50309">
        <ele>95</ele>
        <time>2021-02-17T08:59:35.651Z</time>
      </trkpt>
      <trkpt lat="48.73466" lon="2.50306">
        <ele>95</ele>
        <time>2021-02-17T08:59:39.635Z</time>
      </trkpt>
      <trkpt lat="48.7347" lon="2.50307">
        <ele>95</ele>
        <time>2021-02-17T08:59:44.648Z</time>
      </trkpt>
      <trkpt lat="48.73476" lon="2.50308">
        <ele>95</ele>
        <time>2021-02-17T08:59:49.649Z</time>
      </trkpt>
      <trkpt lat="48.73483" lon="2.50307">
        <ele>95</ele>
        <time>2021-02-17T08:59:54.643Z</time>
      </trkpt>
      <trkpt lat="48.73491" lon="2.50306">
        <ele>95</ele>
        <time>2021-02-17T08:59:59.647Z</time>
      </trkpt>
      <trkpt lat="48.73497" lon="2.50309">
        <ele>95</ele>
        <time>2021-02-17T09:00:03.636Z</time>
      </trkpt>
      <trkpt lat="48.73501" lon="2.50309">
        <ele>95</ele>
        <time>2021-02-17T09:00:07.651Z</time>
      </trkpt>
      <trkpt lat="48.73508" lon="2.50308">
        <ele>95</ele>
        <time>2021-02-17T09:00:12.645Z</time>
      </trkpt>
      <trkpt lat="48.73514" lon="2.50308">
        <ele>95</ele>
        <time>2021-02-17T09:00:17.643Z</time>
      </trkpt>
      <trkpt lat="48.7352" lon="2.50307">
        <ele>95</ele>
        <time>2021-02-17T09:00:22.650Z</time>
      </trkpt>
      <trkpt lat="48.73525" lon="2.50307">
        <ele>95</ele>
        <time>2021-02-17T09:00:27.662Z</time>
      </trkpt>
      <trkpt lat="48.73532" lon="2.50305">
        <ele>95</ele>
        <time>2021-02-17T09:00:32.660Z</time>
      </trkpt>
      <trkpt lat="48.73537" lon="2.50304">
        <ele>95</ele>
        <time>2021-02-17T09:00:37.642Z</time>
      </trkpt>
      <trkpt lat="48.7354" lon="2.50303">
        <ele>95</ele>
        <time>2021-02-17T09:00:42.641Z</time>
      </trkpt>
      <trkpt lat="48.73547" lon="2.50301">
        <ele>96</ele>
        <time>2021-02-17T09:00:47.635Z</time>
      </trkpt>
      <trkpt lat="48.73553" lon="2.50299">
        <ele>96</ele>
        <time>2021-02-17T09:00:51.649Z</time>
      </trkpt>
      <trkpt lat="48.7356" lon="2.50301">
        <ele>96</ele>
        <time>2021-02-17T09:00:56.650Z</time>
      </trkpt>
      <trkpt lat="48.73567" lon="2.50302">
        <ele>96</ele>
        <time>2021-02-17T09:01:01.645Z</time>
      </trkpt>
      <trkpt lat="48.73571" lon="2.50301">
        <ele>96</ele>
        <time>2021-02-17T09:01:06.641Z</time>
      </trkpt>
      <trkpt lat="48.73575" lon="2.50301">
        <ele>96</ele>
        <time>2021-02-17T09:01:10.650Z</time>
      </trkpt>
      <trkpt lat="48.73581" lon="2.50299">
        <ele>96</ele>
        <time>2021-02-17T09:01:15.650Z</time>
      </trkpt>
      <trkpt lat="48.73586" lon="2.50298">
        <ele>96</ele>
        <time>2021-02-17T09:01:20.641Z</time>
      </trkpt>
      <trkpt lat="48.73591" lon="2.50296">
        <ele>96</ele>
        <time>2021-02-17T09:01:24.664Z</time>
      </trkpt>
      <trkpt lat="48.73597" lon="2.50296">
        <ele>95</ele>
        <time>2021-02-17T09:01:29.644Z</time>
      </trkpt>
      <trkpt lat="48.73606" lon="2.50297">
        <ele>95</ele>
        <time>2021-02-17T09:01:34.648Z</time>
      </trkpt>
      <trkpt lat="48.73611" lon="2.50294">
        <ele>95</ele>
        <time>2021-02-17T09:01:39.650Z</time>
      </trkpt>
      <trkpt lat="48.73618" lon="2.50292">
        <ele>95</ele>
        <time>2021-02-17T09:01:44.647Z</time>
      </trkpt>
      <trkpt lat="48.73623" lon="2.50293">
        <ele>95</ele>
        <time>2021-02-17T09:01:48.643Z</time>
      </trkpt>
      <trkpt lat="48.73631" lon="2.50295">
        <ele>95</ele>
        <time>2021-02-17T09:01:53.648Z</time>
      </trkpt>
      <trkpt lat="48.73636" lon="2.50295">
        <ele>95</ele>
        <time>2021-02-17T09:01:57.652Z</time>
      </trkpt>
      <trkpt lat="48.73643" lon="2.50293">
        <ele>95</ele>
        <time>2021-02-17T09:02:02.642Z</time>
      </trkpt>
      <trkpt lat="48.73649" lon="2.50291">
        <ele>94</ele>
        <time>2021-02-17T09:02:07.646Z</time>
      </trkpt>
      <trkpt lat="48.73654" lon="2.5029">
        <ele>95</ele>
        <time>2021-02-17T09:02:12.648Z</time>
      </trkpt>
      <trkpt lat="48.73659" lon="2.50288">
        <ele>95</ele>
        <time>2021-02-17T09:02:17.632Z</time>
      </trkpt>
      <trkpt lat="48.73666" lon="2.50287">
        <ele>95</ele>
        <time>2021-02-17T09:02:22.643Z</time>
      </trkpt>
      <trkpt lat="48.73671" lon="2.50288">
        <ele>95</ele>
        <time>2021-02-17T09:02:26.649Z</time>
      </trkpt>
      <trkpt lat="48.7368" lon="2.5029">
        <ele>95</ele>
        <time>2021-02-17T09:02:31.622Z</time>
      </trkpt>
      <trkpt lat="48.73686" lon="2.50292">
        <ele>96</ele>
        <time>2021-02-17T09:02:35.638Z</time>
      </trkpt>
      <trkpt lat="48.73691" lon="2.50289">
        <ele>96</ele>
        <time>2021-02-17T09:02:40.638Z</time>
      </trkpt>
      <trkpt lat="48.73696" lon="2.50286">
        <ele>96</ele>
        <time>2021-02-17T09:02:44.640Z</time>
      </trkpt>
      <trkpt lat="48.73702" lon="2.50284">
        <ele>96</ele>
        <time>2021-02-17T09:02:49.637Z</time>
      </trkpt>
      <trkpt lat="48.73708" lon="2.50283">
        <ele>96</ele>
        <time>2021-02-17T09:02:53.625Z</time>
      </trkpt>
      <trkpt lat="48.73712" lon="2.50284">
        <ele>96</ele>
        <time>2021-02-17T09:02:57.643Z</time>
      </trkpt>
      <trkpt lat="48.73717" lon="2.50284">
        <ele>96</ele>
        <time>2021-02-17T09:03:02.652Z</time>
      </trkpt>
      <trkpt lat="48.73726" lon="2.50284">
        <ele>96</ele>
        <time>2021-02-17T09:03:07.629Z</time>
      </trkpt>
      <trkpt lat="48.73736" lon="2.5029">
        <ele>96</ele>
        <time>2021-02-17T09:03:12.651Z</time>
      </trkpt>
      <trkpt lat="48.73743" lon="2.50294">
        <ele>96</ele>
        <time>2021-02-17T09:03:17.642Z</time>
      </trkpt>
      <trkpt lat="48.73747" lon="2.50299">
        <ele>96</ele>
        <time>2021-02-17T09:03:22.643Z</time>
      </trkpt>
      <trkpt lat="48.7375" lon="2.50305">
        <ele>96</ele>
        <time>2021-02-17T09:03:26.634Z</time>
      </trkpt>
      <trkpt lat="48.73756" lon="2.5031">
        <ele>96</ele>
        <time>2021-02-17T09:03:31.620Z</time>
      </trkpt>
      <trkpt lat="48.73761" lon="2.50316">
        <ele>96</ele>
        <time>2021-02-17T09:03:36.650Z</time>
      </trkpt>
      <trkpt lat="48.73762" lon="2.5032">
        <ele>96</ele>
        <time>2021-02-17T09:03:41.655Z</time>
      </trkpt>
      <trkpt lat="48.73767" lon="2.50325">
        <ele>95</ele>
        <time>2021-02-17T09:03:46.655Z</time>
      </trkpt>
      <trkpt lat="48.73771" lon="2.50332">
        <ele>95</ele>
        <time>2021-02-17T09:03:51.653Z</time>
      </trkpt>
      <trkpt lat="48.73774" lon="2.50338">
        <ele>95</ele>
        <time>2021-02-17T09:03:56.659Z</time>
      </trkpt>
      <trkpt lat="48.73777" lon="2.50342">
        <ele>95</ele>
        <time>2021-02-17T09:04:01.645Z</time>
      </trkpt>
      <trkpt lat="48.73779" lon="2.50346">
        <ele>95</ele>
        <time>2021-02-17T09:04:05.647Z</time>
      </trkpt>
      <trkpt lat="48.7378" lon="2.50352">
        <ele>96</ele>
        <time>2021-02-17T09:04:10.629Z</time>
      </trkpt>
      <trkpt lat="48.73784" lon="2.5036">
        <ele>96</ele>
        <time>2021-02-17T09:04:15.655Z</time>
      </trkpt>
      <trkpt lat="48.7379" lon="2.50367">
        <ele>96</ele>
        <time>2021-02-17T09:04:20.644Z</time>
      </trkpt>
      <trkpt lat="48.73792" lon="2.50373">
        <ele>95</ele>
        <time>2021-02-17T09:04:25.644Z</time>
      </trkpt>
      <trkpt lat="48.73799" lon="2.5038">
        <ele>96</ele>
        <time>2021-02-17T09:04:30.654Z</time>
      </trkpt>
      <trkpt lat="48.73804" lon="2.50386">
        <ele>96</ele>
        <time>2021-02-17T09:04:35.645Z</time>
      </trkpt>
      <trkpt lat="48.73808" lon="2.50391">
        <ele>96</ele>
        <time>2021-02-17T09:04:40.639Z</time>
      </trkpt>
      <trkpt lat="48.73812" lon="2.50395">
        <ele>96</ele>
        <time>2021-02-17T09:04:45.644Z</time>
      </trkpt>
      <trkpt lat="48.73817" lon="2.50401">
        <ele>96</ele>
        <time>2021-02-17T09:04:50.647Z</time>
      </trkpt>
      <trkpt lat="48.73821" lon="2.50409">
        <ele>96</ele>
        <time>2021-02-17T09:04:55.642Z</time>
      </trkpt>
      <trkpt lat="48.73825" lon="2.50414">
        <ele>96</ele>
        <time>2021-02-17T09:05:00.643Z</time>
      </trkpt>
      <trkpt lat="48.73832" lon="2.50421">
        <ele>96</ele>
        <time>2021-02-17T09:05:05.650Z</time>
      </trkpt>
      <trkpt lat="48.73836" lon="2.50427">
        <ele>96</ele>
        <time>2021-02-17T09:05:10.641Z</time>
      </trkpt>
      <trkpt lat="48.73841" lon="2.50432">
        <ele>97</ele>
        <time>2021-02-17T09:05:15.646Z</time>
      </trkpt>
      <trkpt lat="48.73845" lon="2.50437">
        <ele>97</ele>
        <time>2021-02-17T09:05:20.651Z</time>
      </trkpt>
      <trkpt lat="48.7385" lon="2.50444">
        <ele>97</ele>
        <time>2021-02-17T09:05:25.650Z</time>
      </trkpt>
      <trkpt lat="48.73855" lon="2.5045">
        <ele>97</ele>
        <time>2021-02-17T09:05:30.635Z</time>
      </trkpt>
      <trkpt lat="48.73859" lon="2.50457">
        <ele>97</ele>
        <time>2021-02-17T09:05:35.649Z</time>
      </trkpt>
      <trkpt lat="48.73862" lon="2.50461">
        <ele>98</ele>
        <time>2021-02-17T09:05:40.641Z</time>
      </trkpt>
      <trkpt lat="48.73867" lon="2.50465">
        <ele>98</ele>
        <time>2021-02-17T09:05:45.646Z</time>
      </trkpt>
      <trkpt lat="48.7387" lon="2.50471">
        <ele>98</ele>
        <time>2021-02-17T09:05:49.649Z</time>
      </trkpt>
      <trkpt lat="48.73872" lon="2.50476">
        <ele>98</ele>
        <time>2021-02-17T09:05:54.651Z</time>
      </trkpt>
      <trkpt lat="48.73881" lon="2.50483">
        <ele>98</ele>
        <time>2021-02-17T09:05:59.627Z</time>
      </trkpt>
      <trkpt lat="48.73894" lon="2.50491">
        <ele>98</ele>
        <time>2021-02-17T09:06:04.643Z</time>
      </trkpt>
      <trkpt lat="48.73899" lon="2.50496">
        <ele>98</ele>
        <time>2021-02-17T09:06:09.650Z</time>
      </trkpt>
      <trkpt lat="48.739" lon="2.505">
        <ele>98</ele>
        <time>2021-02-17T09:06:14.655Z</time>
      </trkpt>
      <trkpt lat="48.73901" lon="2.50505">
        <ele>98</ele>
        <time>2021-02-17T09:06:19.649Z</time>
      </trkpt>
      <trkpt lat="48.73905" lon="2.50515">
        <ele>96</ele>
        <time>2021-02-17T09:06:24.651Z</time>
      </trkpt>
      <trkpt lat="48.73909" lon="2.50522">
        <ele>96</ele>
        <time>2021-02-17T09:06:29.655Z</time>
      </trkpt>
      <trkpt lat="48.73914" lon="2.50528">
        <ele>96</ele>
        <time>2021-02-17T09:06:34.644Z</time>
      </trkpt>
      <trkpt lat="48.73917" lon="2.50535">
        <ele>96</ele>
        <time>2021-02-17T09:06:39.637Z</time>
      </trkpt>
      <trkpt lat="48.73922" lon="2.50539">
        <ele>96</ele>
        <time>2021-02-17T09:06:44.645Z</time>
      </trkpt>
      <trkpt lat="48.73926" lon="2.50544">
        <ele>96</ele>
        <time>2021-02-17T09:06:49.639Z</time>
      </trkpt>
      <trkpt lat="48.7393" lon="2.5055">
        <ele>96</ele>
        <time>2021-02-17T09:06:54.639Z</time>
      </trkpt>
      <trkpt lat="48.73934" lon="2.50557">
        <ele>94</ele>
        <time>2021-02-17T09:06:59.648Z</time>
      </trkpt>
      <trkpt lat="48.73939" lon="2.5056">
        <ele>94</ele>
        <time>2021-02-17T09:07:04.648Z</time>
      </trkpt>
      <trkpt lat="48.73942" lon="2.50564">
        <ele>94</ele>
        <time>2021-02-17T09:07:08.652Z</time>
      </trkpt>
      <trkpt lat="48.73944" lon="2.5057">
        <ele>96</ele>
        <time>2021-02-17T09:07:13.651Z</time>
      </trkpt>
      <trkpt lat="48.73948" lon="2.50573">
        <ele>96</ele>
        <time>2021-02-17T09:07:18.645Z</time>
      </trkpt>
      <trkpt lat="48.73951" lon="2.50576">
        <ele>96</ele>
        <time>2021-02-17T09:07:23.649Z</time>
      </trkpt>
      <trkpt lat="48.73954" lon="2.50578">
        <ele>96</ele>
        <time>2021-02-17T09:07:28.635Z</time>
      </trkpt>
      <trkpt lat="48.73955" lon="2.50583">
        <ele>96</ele>
        <time>2021-02-17T09:07:32.633Z</time>
      </trkpt>
      <trkpt lat="48.73961" lon="2.50587">
        <ele>95</ele>
        <time>2021-02-17T09:07:37.637Z</time>
      </trkpt>
      <trkpt lat="48.73965" lon="2.50591">
        <ele>95</ele>
        <time>2021-02-17T09:07:42.658Z</time>
      </trkpt>
      <trkpt lat="48.7397" lon="2.50595">
        <ele>95</ele>
        <time>2021-02-17T09:07:47.651Z</time>
      </trkpt>
      <trkpt lat="48.73976" lon="2.50598">
        <ele>97</ele>
        <time>2021-02-17T09:07:52.646Z</time>
      </trkpt>
      <trkpt lat="48.73978" lon="2.50601">
        <ele>97</ele>
        <time>2021-02-17T09:07:56.643Z</time>
      </trkpt>
      <trkpt lat="48.73982" lon="2.50607">
        <ele>97</ele>
        <time>2021-02-17T09:08:01.653Z</time>
      </trkpt>
      <trkpt lat="48.73986" lon="2.50617">
        <ele>97</ele>
        <time>2021-02-17T09:08:06.641Z</time>
      </trkpt>
      <trkpt lat="48.7399" lon="2.50625">
        <ele>94</ele>
        <time>2021-02-17T09:08:11.653Z</time>
      </trkpt>
      <trkpt lat="48.73996" lon="2.50634">
        <ele>94</ele>
        <time>2021-02-17T09:08:16.651Z</time>
      </trkpt>
      <trkpt lat="48.73998" lon="2.50643">
        <ele>94</ele>
        <time>2021-02-17T09:08:21.645Z</time>
      </trkpt>
      <trkpt lat="48.74002" lon="2.50649">
        <ele>94</ele>
        <time>2021-02-17T09:08:26.636Z</time>
      </trkpt>
      <trkpt lat="48.74006" lon="2.50654">
        <ele>95</ele>
        <time>2021-02-17T09:08:30.641Z</time>
      </trkpt>
      <trkpt lat="48.7401" lon="2.50655">
        <ele>95</ele>
        <time>2021-02-17T09:08:35.645Z</time>
      </trkpt>
      <trkpt lat="48.74012" lon="2.50662">
        <ele>95</ele>
        <time>2021-02-17T09:08:40.650Z</time>
      </trkpt>
      <trkpt lat="48.74016" lon="2.50668">
        <ele>92</ele>
        <time>2021-02-17T09:08:45.649Z</time>
      </trkpt>
      <trkpt lat="48.74022" lon="2.5067">
        <ele>92</ele>
        <time>2021-02-17T09:08:50.653Z</time>
      </trkpt>
      <trkpt lat="48.74027" lon="2.50673">
        <ele>92</ele>
        <time>2021-02-17T09:08:55.655Z</time>
      </trkpt>
      <trkpt lat="48.74032" lon="2.50681">
        <ele>92</ele>
        <time>2021-02-17T09:09:00.625Z</time>
      </trkpt>
      <trkpt lat="48.74036" lon="2.50686">
        <ele>92</ele>
        <time>2021-02-17T09:09:04.649Z</time>
      </trkpt>
      <trkpt lat="48.74041" lon="2.50689">
        <ele>92</ele>
        <time>2021-02-17T09:09:09.641Z</time>
      </trkpt>
      <trkpt lat="48.74046" lon="2.50695">
        <ele>91</ele>
        <time>2021-02-17T09:09:14.653Z</time>
      </trkpt>
      <trkpt lat="48.74056" lon="2.50702">
        <ele>91</ele>
        <time>2021-02-17T09:09:19.637Z</time>
      </trkpt>
      <trkpt lat="48.74062" lon="2.50706">
        <ele>91</ele>
        <time>2021-02-17T09:09:23.655Z</time>
      </trkpt>
      <trkpt lat="48.74067" lon="2.5071">
        <ele>91</ele>
        <time>2021-02-17T09:09:27.656Z</time>
      </trkpt>
      <trkpt lat="48.74071" lon="2.50715">
        <ele>91</ele>
        <time>2021-02-17T09:09:32.636Z</time>
      </trkpt>
      <trkpt lat="48.74076" lon="2.50721">
        <ele>91</ele>
        <time>2021-02-17T09:09:37.631Z</time>
      </trkpt>
      <trkpt lat="48.74081" lon="2.50726">
        <ele>91</ele>
        <time>2021-02-17T09:09:42.644Z</time>
      </trkpt>
      <trkpt lat="48.74087" lon="2.50729">
        <ele>91</ele>
        <time>2021-02-17T09:09:47.647Z</time>
      </trkpt>
      <trkpt lat="48.74093" lon="2.50733">
        <ele>91</ele>
        <time>2021-02-17T09:09:52.643Z</time>
      </trkpt>
      <trkpt lat="48.74098" lon="2.50738">
        <ele>92</ele>
        <time>2021-02-17T09:09:57.645Z</time>
      </trkpt>
      <trkpt lat="48.74103" lon="2.50741">
        <ele>92</ele>
        <time>2021-02-17T09:10:01.638Z</time>
      </trkpt>
      <trkpt lat="48.74108" lon="2.50746">
        <ele>92</ele>
        <time>2021-02-17T09:10:06.642Z</time>
      </trkpt>
      <trkpt lat="48.74114" lon="2.50752">
        <ele>92</ele>
        <time>2021-02-17T09:10:11.644Z</time>
      </trkpt>
      <trkpt lat="48.74119" lon="2.50757">
        <ele>92</ele>
        <time>2021-02-17T09:10:16.654Z</time>
      </trkpt>
      <trkpt lat="48.74123" lon="2.50762">
        <ele>92</ele>
        <time>2021-02-17T09:10:21.649Z</time>
      </trkpt>
      <trkpt lat="48.74127" lon="2.50768">
        <ele>92</ele>
        <time>2021-02-17T09:10:26.644Z</time>
      </trkpt>
      <trkpt lat="48.74131" lon="2.50772">
        <ele>92</ele>
        <time>2021-02-17T09:10:30.638Z</time>
      </trkpt>
      <trkpt lat="48.74135" lon="2.50779">
        <ele>92</ele>
        <time>2021-02-17T09:10:35.653Z</time>
      </trkpt>
      <trkpt lat="48.74139" lon="2.50785">
        <ele>92</ele>
        <time>2021-02-17T09:10:40.640Z</time>
      </trkpt>
      <trkpt lat="48.74142" lon="2.50791">
        <ele>92</ele>
        <time>2021-02-17T09:10:45.647Z</time>
      </trkpt>
      <trkpt lat="48.74147" lon="2.50796">
        <ele>91</ele>
        <time>2021-02-17T09:10:50.652Z</time>
      </trkpt>
      <trkpt lat="48.74152" lon="2.50803">
        <ele>91</ele>
        <time>2021-02-17T09:10:55.657Z</time>
      </trkpt>
      <trkpt lat="48.74156" lon="2.50809">
        <ele>91</ele>
        <time>2021-02-17T09:11:00.635Z</time>
      </trkpt>
      <trkpt lat="48.7416" lon="2.50816">
        <ele>91</ele>
        <time>2021-02-17T09:11:05.642Z</time>
      </trkpt>
      <trkpt lat="48.74166" lon="2.50821">
        <ele>90</ele>
        <time>2021-02-17T09:11:10.639Z</time>
      </trkpt>
      <trkpt lat="48.74172" lon="2.50827">
        <ele>90</ele>
        <time>2021-02-17T09:11:15.642Z</time>
      </trkpt>
      <trkpt lat="48.74177" lon="2.50834">
        <ele>90</ele>
        <time>2021-02-17T09:11:20.643Z</time>
      </trkpt>
      <trkpt lat="48.74183" lon="2.50839">
        <ele>91</ele>
        <time>2021-02-17T09:11:25.641Z</time>
      </trkpt>
      <trkpt lat="48.74187" lon="2.50845">
        <ele>91</ele>
        <time>2021-02-17T09:11:30.635Z</time>
      </trkpt>
      <trkpt lat="48.74189" lon="2.5085">
        <ele>90</ele>
        <time>2021-02-17T09:11:34.623Z</time>
      </trkpt>
      <trkpt lat="48.74195" lon="2.50856">
        <ele>90</ele>
        <time>2021-02-17T09:11:39.641Z</time>
      </trkpt>
      <trkpt lat="48.74199" lon="2.5086">
        <ele>90</ele>
        <time>2021-02-17T09:11:44.643Z</time>
      </trkpt>
      <trkpt lat="48.74204" lon="2.50865">
        <ele>90</ele>
        <time>2021-02-17T09:11:49.640Z</time>
      </trkpt>
      <trkpt lat="48.74208" lon="2.50871">
        <ele>90</ele>
        <time>2021-02-17T09:11:54.644Z</time>
      </trkpt>
      <trkpt lat="48.74213" lon="2.50877">
        <ele>91</ele>
        <time>2021-02-17T09:11:59.651Z</time>
      </trkpt>
      <trkpt lat="48.74218" lon="2.50882">
        <ele>91</ele>
        <time>2021-02-17T09:12:04.636Z</time>
      </trkpt>
      <trkpt lat="48.7422" lon="2.5089">
        <ele>91</ele>
        <time>2021-02-17T09:12:09.613Z</time>
      </trkpt>
      <trkpt lat="48.74224" lon="2.50897">
        <ele>91</ele>
        <time>2021-02-17T09:12:14.632Z</time>
      </trkpt>
      <trkpt lat="48.74228" lon="2.50902">
        <ele>91</ele>
        <time>2021-02-17T09:12:18.625Z</time>
      </trkpt>
      <trkpt lat="48.74234" lon="2.50908">
        <ele>91</ele>
        <time>2021-02-17T09:12:23.617Z</time>
      </trkpt>
      <trkpt lat="48.74237" lon="2.50914">
        <ele>90</ele>
        <time>2021-02-17T09:12:27.638Z</time>
      </trkpt>
      <trkpt lat="48.74242" lon="2.50921">
        <ele>90</ele>
        <time>2021-02-17T09:12:32.652Z</time>
      </trkpt>
      <trkpt lat="48.74247" lon="2.50927">
        <ele>90</ele>
        <time>2021-02-17T09:12:37.639Z</time>
      </trkpt>
      <trkpt lat="48.74253" lon="2.50933">
        <ele>90</ele>
        <time>2021-02-17T09:12:42.647Z</time>
      </trkpt>
      <trkpt lat="48.74258" lon="2.50939">
        <ele>90</ele>
        <time>2021-02-17T09:12:46.646Z</time>
      </trkpt>
      <trkpt lat="48.7426" lon="2.50945">
        <ele>90</ele>
        <time>2021-02-17T09:12:51.642Z</time>
      </trkpt>
      <trkpt lat="48.74266" lon="2.50951">
        <ele>89</ele>
        <time>2021-02-17T09:12:56.639Z</time>
      </trkpt>
      <trkpt lat="48.7427" lon="2.50957">
        <ele>89</ele>
        <time>2021-02-17T09:13:01.641Z</time>
      </trkpt>
      <trkpt lat="48.74275" lon="2.50963">
        <ele>89</ele>
        <time>2021-02-17T09:13:06.640Z</time>
      </trkpt>
      <trkpt lat="48.74281" lon="2.50968">
        <ele>89</ele>
        <time>2021-02-17T09:13:11.645Z</time>
      </trkpt>
      <trkpt lat="48.74286" lon="2.50975">
        <ele>89</ele>
        <time>2021-02-17T09:13:16.646Z</time>
      </trkpt>
      <trkpt lat="48.74291" lon="2.50982">
        <ele>89</ele>
        <time>2021-02-17T09:13:21.643Z</time>
      </trkpt>
      <trkpt lat="48.74298" lon="2.50988">
        <ele>91</ele>
        <time>2021-02-17T09:13:26.639Z</time>
      </trkpt>
      <trkpt lat="48.74305" lon="2.50993">
        <ele>91</ele>
        <time>2021-02-17T09:13:31.615Z</time>
      </trkpt>
      <trkpt lat="48.74309" lon="2.50997">
        <ele>91</ele>
        <time>2021-02-17T09:13:35.633Z</time>
      </trkpt>
      <trkpt lat="48.74316" lon="2.51002">
        <ele>91</ele>
        <time>2021-02-17T09:13:40.619Z</time>
      </trkpt>
      <trkpt lat="48.74321" lon="2.51007">
        <ele>92</ele>
        <time>2021-02-17T09:13:44.644Z</time>
      </trkpt>
      <trkpt lat="48.7433" lon="2.51012">
        <ele>92</ele>
        <time>2021-02-17T09:13:49.635Z</time>
      </trkpt>
      <trkpt lat="48.74334" lon="2.51017">
        <ele>91</ele>
        <time>2021-02-17T09:13:54.633Z</time>
      </trkpt>
      <trkpt lat="48.74339" lon="2.51023">
        <ele>91</ele>
        <time>2021-02-17T09:13:58.616Z</time>
      </trkpt>
      <trkpt lat="48.74343" lon="2.51029">
        <ele>91</ele>
        <time>2021-02-17T09:14:03.611Z</time>
      </trkpt>
      <trkpt lat="48.74348" lon="2.51034">
        <ele>91</ele>
        <time>2021-02-17T09:14:07.632Z</time>
      </trkpt>
      <trkpt lat="48.74353" lon="2.5104">
        <ele>91</ele>
        <time>2021-02-17T09:14:12.644Z</time>
      </trkpt>
      <trkpt lat="48.74359" lon="2.51047">
        <ele>90</ele>
        <time>2021-02-17T09:14:17.643Z</time>
      </trkpt>
      <trkpt lat="48.74364" lon="2.51052">
        <ele>90</ele>
        <time>2021-02-17T09:14:22.641Z</time>
      </trkpt>
      <trkpt lat="48.74369" lon="2.51057">
        <ele>90</ele>
        <time>2021-02-17T09:14:27.651Z</time>
      </trkpt>
      <trkpt lat="48.74372" lon="2.51063">
        <ele>90</ele>
        <time>2021-02-17T09:14:32.621Z</time>
      </trkpt>
      <trkpt lat="48.74375" lon="2.51067">
        <ele>90</ele>
        <time>2021-02-17T09:14:36.643Z</time>
      </trkpt>
      <trkpt lat="48.7438" lon="2.51073">
        <ele>90</ele>
        <time>2021-02-17T09:14:41.632Z</time>
      </trkpt>
      <trkpt lat="48.74385" lon="2.51079">
        <ele>90</ele>
        <time>2021-02-17T09:14:46.633Z</time>
      </trkpt>
      <trkpt lat="48.74389" lon="2.51082">
        <ele>90</ele>
        <time>2021-02-17T09:14:50.639Z</time>
      </trkpt>
      <trkpt lat="48.74396" lon="2.51081">
        <ele>90</ele>
        <time>2021-02-17T09:14:55.642Z</time>
      </trkpt>
      <trkpt lat="48.74402" lon="2.51081">
        <ele>90</ele>
        <time>2021-02-17T09:15:00.640Z</time>
      </trkpt>
      <trkpt lat="48.74406" lon="2.51087">
        <ele>91</ele>
        <time>2021-02-17T09:15:05.638Z</time>
      </trkpt>
      <trkpt lat="48.7441" lon="2.51092">
        <ele>91</ele>
        <time>2021-02-17T09:15:09.633Z</time>
      </trkpt>
      <trkpt lat="48.74415" lon="2.51099">
        <ele>91</ele>
        <time>2021-02-17T09:15:14.645Z</time>
      </trkpt>
      <trkpt lat="48.7442" lon="2.51104">
        <ele>91</ele>
        <time>2021-02-17T09:15:19.646Z</time>
      </trkpt>
      <trkpt lat="48.74424" lon="2.51109">
        <ele>91</ele>
        <time>2021-02-17T09:15:24.635Z</time>
      </trkpt>
      <trkpt lat="48.7443" lon="2.51115">
        <ele>91</ele>
        <time>2021-02-17T09:15:29.629Z</time>
      </trkpt>
      <trkpt lat="48.74433" lon="2.51119">
        <ele>90</ele>
        <time>2021-02-17T09:15:33.629Z</time>
      </trkpt>
      <trkpt lat="48.74438" lon="2.51124">
        <ele>90</ele>
        <time>2021-02-17T09:15:38.639Z</time>
      </trkpt>
      <trkpt lat="48.74445" lon="2.51128">
        <ele>91</ele>
        <time>2021-02-17T09:15:43.637Z</time>
      </trkpt>
      <trkpt lat="48.74451" lon="2.5113">
        <ele>91</ele>
        <time>2021-02-17T09:15:47.644Z</time>
      </trkpt>
      <trkpt lat="48.74457" lon="2.51132">
        <ele>91</ele>
        <time>2021-02-17T09:15:52.641Z</time>
      </trkpt>
      <trkpt lat="48.7446" lon="2.51138">
        <ele>89</ele>
        <time>2021-02-17T09:15:56.644Z</time>
      </trkpt>
      <trkpt lat="48.74464" lon="2.51143">
        <ele>89</ele>
        <time>2021-02-17T09:16:01.638Z</time>
      </trkpt>
      <trkpt lat="48.74471" lon="2.51145">
        <ele>89</ele>
        <time>2021-02-17T09:16:06.635Z</time>
      </trkpt>
      <trkpt lat="48.74476" lon="2.51145">
        <ele>89</ele>
        <time>2021-02-17T09:16:10.653Z</time>
      </trkpt>
      <trkpt lat="48.74483" lon="2.51144">
        <ele>89</ele>
        <time>2021-02-17T09:16:15.641Z</time>
      </trkpt>
      <trkpt lat="48.74488" lon="2.51145">
        <ele>89</ele>
        <time>2021-02-17T09:16:20.636Z</time>
      </trkpt>
      <trkpt lat="48.74488" lon="2.51145">
        <ele>89</ele>
        <time>2021-02-17T09:16:25.650Z</time>
      </trkpt>
      <trkpt lat="48.74488" lon="2.51145">
        <ele>89</ele>
        <time>2021-02-17T09:16:30.633Z</time>
      </trkpt>
      <trkpt lat="48.74489" lon="2.5115">
        <ele>89</ele>
        <time>2021-02-17T09:16:35.646Z</time>
      </trkpt>
      <trkpt lat="48.74488" lon="2.51161">
        <ele>89</ele>
        <time>2021-02-17T09:16:40.629Z</time>
      </trkpt>
      <trkpt lat="48.74489" lon="2.51168">
        <ele>89</ele>
        <time>2021-02-17T09:16:44.629Z</time>
      </trkpt>
      <trkpt lat="48.74494" lon="2.51171">
        <ele>89</ele>
        <time>2021-02-17T09:16:49.625Z</time>
      </trkpt>
      <trkpt lat="48.74499" lon="2.51174">
        <ele>89</ele>
        <time>2021-02-17T09:16:54.608Z</time>
      </trkpt>
      <trkpt lat="48.74504" lon="2.51176">
        <ele>89</ele>
        <time>2021-02-17T09:16:58.618Z</time>
      </trkpt>
      <trkpt lat="48.7451" lon="2.51179">
        <ele>89</ele>
        <time>2021-02-17T09:17:03.627Z</time>
      </trkpt>
      <trkpt lat="48.74516" lon="2.51182">
        <ele>90</ele>
        <time>2021-02-17T09:17:08.611Z</time>
      </trkpt>
      <trkpt lat="48.74523" lon="2.51185">
        <ele>90</ele>
        <time>2021-02-17T09:17:13.641Z</time>
      </trkpt>
      <trkpt lat="48.7453" lon="2.51187">
        <ele>90</ele>
        <time>2021-02-17T09:17:18.637Z</time>
      </trkpt>
      <trkpt lat="48.74536" lon="2.51191">
        <ele>90</ele>
        <time>2021-02-17T09:17:23.610Z</time>
      </trkpt>
      <trkpt lat="48.74541" lon="2.51191">
        <ele>90</ele>
        <time>2021-02-17T09:17:27.637Z</time>
      </trkpt>
      <trkpt lat="48.74547" lon="2.51193">
        <ele>90</ele>
        <time>2021-02-17T09:17:32.635Z</time>
      </trkpt>
      <trkpt lat="48.74552" lon="2.51194">
        <ele>90</ele>
        <time>2021-02-17T09:17:36.636Z</time>
      </trkpt>
      <trkpt lat="48.74559" lon="2.51196">
        <ele>90</ele>
        <time>2021-02-17T09:17:41.645Z</time>
      </trkpt>
      <trkpt lat="48.74566" lon="2.51198">
        <ele>90</ele>
        <time>2021-02-17T09:17:46.648Z</time>
      </trkpt>
      <trkpt lat="48.74572" lon="2.512">
        <ele>89</ele>
        <time>2021-02-17T09:17:51.641Z</time>
      </trkpt>
      <trkpt lat="48.74578" lon="2.51202">
        <ele>89</ele>
        <time>2021-02-17T09:17:56.618Z</time>
      </trkpt>
      <trkpt lat="48.7458" lon="2.51202">
        <ele>89</ele>
        <time>2021-02-17T09:18:00.630Z</time>
      </trkpt>
      <trkpt lat="48.74586" lon="2.51205">
        <ele>89</ele>
        <time>2021-02-17T09:18:05.630Z</time>
      </trkpt>
      <trkpt lat="48.74592" lon="2.51207">
        <ele>89</ele>
        <time>2021-02-17T09:18:10.637Z</time>
      </trkpt>
      <trkpt lat="48.74597" lon="2.51209">
        <ele>89</ele>
        <time>2021-02-17T09:18:15.637Z</time>
      </trkpt>
      <trkpt lat="48.74602" lon="2.51211">
        <ele>89</ele>
        <time>2021-02-17T09:18:19.645Z</time>
      </trkpt>
      <trkpt lat="48.7461" lon="2.51212">
        <ele>89</ele>
        <time>2021-02-17T09:18:24.640Z</time>
      </trkpt>
      <trkpt lat="48.74621" lon="2.51214">
        <ele>89</ele>
        <time>2021-02-17T09:18:29.630Z</time>
      </trkpt>
      <trkpt lat="48.74626" lon="2.51216">
        <ele>89</ele>
        <time>2021-02-17T09:18:34.626Z</time>
      </trkpt>
      <trkpt lat="48.74631" lon="2.51218">
        <ele>89</ele>
        <time>2021-02-17T09:18:39.627Z</time>
      </trkpt>
      <trkpt lat="48.74635" lon="2.5122">
        <ele>89</ele>
        <time>2021-02-17T09:18:44.628Z</time>
      </trkpt>
      <trkpt lat="48.74641" lon="2.5122">
        <ele>89</ele>
        <time>2021-02-17T09:18:49.639Z</time>
      </trkpt>
      <trkpt lat="48.74647" lon="2.51219">
        <ele>89</ele>
        <time>2021-02-17T09:18:54.641Z</time>
      </trkpt>
      <trkpt lat="48.74651" lon="2.51222">
        <ele>89</ele>
        <time>2021-02-17T09:18:59.634Z</time>
      </trkpt>
      <trkpt lat="48.74656" lon="2.51225">
        <ele>87</ele>
        <time>2021-02-17T09:19:04.625Z</time>
      </trkpt>
      <trkpt lat="48.74662" lon="2.51226">
        <ele>87</ele>
        <time>2021-02-17T09:19:09.607Z</time>
      </trkpt>
      <trkpt lat="48.74666" lon="2.51229">
        <ele>87</ele>
        <time>2021-02-17T09:19:13.634Z</time>
      </trkpt>
      <trkpt lat="48.74673" lon="2.5123">
        <ele>87</ele>
        <time>2021-02-17T09:19:18.614Z</time>
      </trkpt>
      <trkpt lat="48.74679" lon="2.51234">
        <ele>87</ele>
        <time>2021-02-17T09:19:22.635Z</time>
      </trkpt>
      <trkpt lat="48.74684" lon="2.51236">
        <ele>87</ele>
        <time>2021-02-17T09:19:27.652Z</time>
      </trkpt>
      <trkpt lat="48.74689" lon="2.51237">
        <ele>87</ele>
        <time>2021-02-17T09:19:32.639Z</time>
      </trkpt>
      <trkpt lat="48.74694" lon="2.51239">
        <ele>87</ele>
        <time>2021-02-17T09:19:37.624Z</time>
      </trkpt>
      <trkpt lat="48.74702" lon="2.51242">
        <ele>87</ele>
        <time>2021-02-17T09:19:42.623Z</time>
      </trkpt>
      <trkpt lat="48.74707" lon="2.51245">
        <ele>87</ele>
        <time>2021-02-17T09:19:47.627Z</time>
      </trkpt>
      <trkpt lat="48.74713" lon="2.51248">
        <ele>87</ele>
        <time>2021-02-17T09:19:52.630Z</time>
      </trkpt>
      <trkpt lat="48.7472" lon="2.5125">
        <ele>87</ele>
        <time>2021-02-17T09:19:57.635Z</time>
      </trkpt>
      <trkpt lat="48.74728" lon="2.51249">
        <ele>87</ele>
        <time>2021-02-17T09:20:02.637Z</time>
      </trkpt>
      <trkpt lat="48.74734" lon="2.51251">
        <ele>87</ele>
        <time>2021-02-17T09:20:07.653Z</time>
      </trkpt>
      <trkpt lat="48.74736" lon="2.51254">
        <ele>89</ele>
        <time>2021-02-17T09:20:12.636Z</time>
      </trkpt>
      <trkpt lat="48.74743" lon="2.51256">
        <ele>89</ele>
        <time>2021-02-17T09:20:17.635Z</time>
      </trkpt>
      <trkpt lat="48.74751" lon="2.51255">
        <ele>89</ele>
        <time>2021-02-17T09:20:22.638Z</time>
      </trkpt>
      <trkpt lat="48.74755" lon="2.51258">
        <ele>89</ele>
        <time>2021-02-17T09:20:27.637Z</time>
      </trkpt>
      <trkpt lat="48.74762" lon="2.51259">
        <ele>89</ele>
        <time>2021-02-17T09:20:32.620Z</time>
      </trkpt>
      <trkpt lat="48.74768" lon="2.5126">
        <ele>90</ele>
        <time>2021-02-17T09:20:37.646Z</time>
      </trkpt>
      <trkpt lat="48.74773" lon="2.51262">
        <ele>90</ele>
        <time>2021-02-17T09:20:42.621Z</time>
      </trkpt>
      <trkpt lat="48.74778" lon="2.51262">
        <ele>90</ele>
        <time>2021-02-17T09:20:47.625Z</time>
      </trkpt>
      <trkpt lat="48.74783" lon="2.51264">
        <ele>91</ele>
        <time>2021-02-17T09:20:52.626Z</time>
      </trkpt>
      <trkpt lat="48.74786" lon="2.51271">
        <ele>91</ele>
        <time>2021-02-17T09:20:57.623Z</time>
      </trkpt>
      <trkpt lat="48.74789" lon="2.51272">
        <ele>91</ele>
        <time>2021-02-17T09:21:02.622Z</time>
      </trkpt>
      <trkpt lat="48.74792" lon="2.51275">
        <ele>91</ele>
        <time>2021-02-17T09:21:07.622Z</time>
      </trkpt>
      <trkpt lat="48.74795" lon="2.51282">
        <ele>91</ele>
        <time>2021-02-17T09:21:12.619Z</time>
      </trkpt>
      <trkpt lat="48.74797" lon="2.51287">
        <ele>91</ele>
        <time>2021-02-17T09:21:16.625Z</time>
      </trkpt>
      <trkpt lat="48.74802" lon="2.51287">
        <ele>91</ele>
        <time>2021-02-17T09:21:20.627Z</time>
      </trkpt>
      <trkpt lat="48.74809" lon="2.51287">
        <ele>91</ele>
        <time>2021-02-17T09:21:25.634Z</time>
      </trkpt>
      <trkpt lat="48.74816" lon="2.51289">
        <ele>91</ele>
        <time>2021-02-17T09:21:30.639Z</time>
      </trkpt>
      <trkpt lat="48.74821" lon="2.51289">
        <ele>91</ele>
        <time>2021-02-17T09:21:35.624Z</time>
      </trkpt>
      <trkpt lat="48.74825" lon="2.51294">
        <ele>92</ele>
        <time>2021-02-17T09:21:40.632Z</time>
      </trkpt>
      <trkpt lat="48.74831" lon="2.51299">
        <ele>92</ele>
        <time>2021-02-17T09:21:45.630Z</time>
      </trkpt>
      <trkpt lat="48.74837" lon="2.51301">
        <ele>92</ele>
        <time>2021-02-17T09:21:50.631Z</time>
      </trkpt>
      <trkpt lat="48.74841" lon="2.51304">
        <ele>92</ele>
        <time>2021-02-17T09:21:54.636Z</time>
      </trkpt>
      <trkpt lat="48.74846" lon="2.51308">
        <ele>92</ele>
        <time>2021-02-17T09:21:59.631Z</time>
      </trkpt>
      <trkpt lat="48.74845" lon="2.51313">
        <ele>92</ele>
        <time>2021-02-17T09:22:04.625Z</time>
      </trkpt>
      <trkpt lat="48.74842" lon="2.51316">
        <ele>92</ele>
        <time>2021-02-17T09:22:09.619Z</time>
      </trkpt>
      <trkpt lat="48.74841" lon="2.51321">
        <ele>92</ele>
        <time>2021-02-17T09:22:14.608Z</time>
      </trkpt>
      <trkpt lat="48.74838" lon="2.51326">
        <ele>92</ele>
        <time>2021-02-17T09:22:18.623Z</time>
      </trkpt>
      <trkpt lat="48.74836" lon="2.51334">
        <ele>92</ele>
        <time>2021-02-17T09:22:23.625Z</time>
      </trkpt>
      <trkpt lat="48.74833" lon="2.51343">
        <ele>92</ele>
        <time>2021-02-17T09:22:28.602Z</time>
      </trkpt>
      <trkpt lat="48.74832" lon="2.51349">
        <ele>91</ele>
        <time>2021-02-17T09:22:32.619Z</time>
      </trkpt>
      <trkpt lat="48.74828" lon="2.51356">
        <ele>91</ele>
        <time>2021-02-17T09:22:37.630Z</time>
      </trkpt>
      <trkpt lat="48.74826" lon="2.51361">
        <ele>91</ele>
        <time>2021-02-17T09:22:42.630Z</time>
      </trkpt>
      <trkpt lat="48.74824" lon="2.51365">
        <ele>91</ele>
        <time>2021-02-17T09:22:47.630Z</time>
      </trkpt>
      <trkpt lat="48.74822" lon="2.51369">
        <ele>91</ele>
        <time>2021-02-17T09:22:52.622Z</time>
      </trkpt>
      <trkpt lat="48.74819" lon="2.51375">
        <ele>90</ele>
        <time>2021-02-17T09:22:57.626Z</time>
      </trkpt>
      <trkpt lat="48.74816" lon="2.51381">
        <ele>90</ele>
        <time>2021-02-17T09:23:01.641Z</time>
      </trkpt>
      <trkpt lat="48.74813" lon="2.51389">
        <ele>90</ele>
        <time>2021-02-17T09:23:06.621Z</time>
      </trkpt>
      <trkpt lat="48.74811" lon="2.51391">
        <ele>90</ele>
        <time>2021-02-17T09:23:11.626Z</time>
      </trkpt>
      <trkpt lat="48.74807" lon="2.51395">
        <ele>90</ele>
        <time>2021-02-17T09:23:15.636Z</time>
      </trkpt>
      <trkpt lat="48.74805" lon="2.51398">
        <ele>90</ele>
        <time>2021-02-17T09:23:20.632Z</time>
      </trkpt>
      <trkpt lat="48.74803" lon="2.51401">
        <ele>90</ele>
        <time>2021-02-17T09:23:24.635Z</time>
      </trkpt>
      <trkpt lat="48.74799" lon="2.51409">
        <ele>91</ele>
        <time>2021-02-17T09:23:29.638Z</time>
      </trkpt>
      <trkpt lat="48.74796" lon="2.51417">
        <ele>91</ele>
        <time>2021-02-17T09:23:34.631Z</time>
      </trkpt>
      <trkpt lat="48.74793" lon="2.51424">
        <ele>91</ele>
        <time>2021-02-17T09:23:39.634Z</time>
      </trkpt>
      <trkpt lat="48.74788" lon="2.51431">
        <ele>92</ele>
        <time>2021-02-17T09:23:44.616Z</time>
      </trkpt>
      <trkpt lat="48.74782" lon="2.51441">
        <ele>92</ele>
        <time>2021-02-17T09:23:49.648Z</time>
      </trkpt>
      <trkpt lat="48.74776" lon="2.51451">
        <ele>92</ele>
        <time>2021-02-17T09:23:54.636Z</time>
      </trkpt>
      <trkpt lat="48.7477" lon="2.51461">
        <ele>93</ele>
        <time>2021-02-17T09:23:59.648Z</time>
      </trkpt>
      <trkpt lat="48.74763" lon="2.51469">
        <ele>93</ele>
        <time>2021-02-17T09:24:04.635Z</time>
      </trkpt>
      <trkpt lat="48.74759" lon="2.51478">
        <ele>93</ele>
        <time>2021-02-17T09:24:09.627Z</time>
      </trkpt>
      <trkpt lat="48.74754" lon="2.51486">
        <ele>93</ele>
        <time>2021-02-17T09:24:14.612Z</time>
      </trkpt>
      <trkpt lat="48.7475" lon="2.51494">
        <ele>93</ele>
        <time>2021-02-17T09:24:18.630Z</time>
      </trkpt>
      <trkpt lat="48.74745" lon="2.51502">
        <ele>93</ele>
        <time>2021-02-17T09:24:23.615Z</time>
      </trkpt>
      <trkpt lat="48.74742" lon="2.51507">
        <ele>93</ele>
        <time>2021-02-17T09:24:27.621Z</time>
      </trkpt>
      <trkpt lat="48.74739" lon="2.51514">
        <ele>93</ele>
        <time>2021-02-17T09:24:31.632Z</time>
      </trkpt>
      <trkpt lat="48.74738" lon="2.51517">
        <ele>92</ele>
        <time>2021-02-17T09:24:36.638Z</time>
      </trkpt>
      <trkpt lat="48.74733" lon="2.5152">
        <ele>93</ele>
        <time>2021-02-17T09:24:41.617Z</time>
      </trkpt>
      <trkpt lat="48.74726" lon="2.51525">
        <ele>93</ele>
        <time>2021-02-17T09:24:45.633Z</time>
      </trkpt>
      <trkpt lat="48.74722" lon="2.51529">
        <ele>93</ele>
        <time>2021-02-17T09:24:50.631Z</time>
      </trkpt>
      <trkpt lat="48.74716" lon="2.51528">
        <ele>93</ele>
        <time>2021-02-17T09:24:55.640Z</time>
      </trkpt>
      <trkpt lat="48.7471" lon="2.51525">
        <ele>93</ele>
        <time>2021-02-17T09:25:00.631Z</time>
      </trkpt>
      <trkpt lat="48.74704" lon="2.51523">
        <ele>93</ele>
        <time>2021-02-17T09:25:05.625Z</time>
      </trkpt>
      <trkpt lat="48.74698" lon="2.51522">
        <ele>93</ele>
        <time>2021-02-17T09:25:10.634Z</time>
      </trkpt>
      <trkpt lat="48.74691" lon="2.51521">
        <ele>93</ele>
        <time>2021-02-17T09:25:15.617Z</time>
      </trkpt>
      <trkpt lat="48.74686" lon="2.51519">
        <ele>93</ele>
        <time>2021-02-17T09:25:20.613Z</time>
      </trkpt>
      <trkpt lat="48.74682" lon="2.51519">
        <ele>93</ele>
        <time>2021-02-17T09:25:25.615Z</time>
      </trkpt>
      <trkpt lat="48.74676" lon="2.51515">
        <ele>94</ele>
        <time>2021-02-17T09:26:34.624Z</time>
      </trkpt>
      <trkpt lat="48.74675" lon="2.51517">
        <ele>94</ele>
        <time>2021-02-17T09:26:39.625Z</time>
      </trkpt>
      <trkpt lat="48.74675" lon="2.51517">
        <ele>94</ele>
        <time>2021-02-17T09:26:43.608Z</time>
      </trkpt>
      <trkpt lat="48.74671" lon="2.51514">
        <ele>94</ele>
        <time>2021-02-17T09:26:48.630Z</time>
      </trkpt>
      <trkpt lat="48.74665" lon="2.51513">
        <ele>93</ele>
        <time>2021-02-17T09:26:53.606Z</time>
      </trkpt>
      <trkpt lat="48.74659" lon="2.51511">
        <ele>93</ele>
        <time>2021-02-17T09:26:58.618Z</time>
      </trkpt>
      <trkpt lat="48.74655" lon="2.51509">
        <ele>93</ele>
        <time>2021-02-17T09:27:02.616Z</time>
      </trkpt>
      <trkpt lat="48.7465" lon="2.51506">
        <ele>92</ele>
        <time>2021-02-17T09:27:07.612Z</time>
      </trkpt>
      <trkpt lat="48.74646" lon="2.51505">
        <ele>92</ele>
        <time>2021-02-17T09:27:11.626Z</time>
      </trkpt>
      <trkpt lat="48.74635" lon="2.51504">
        <ele>92</ele>
        <time>2021-02-17T09:27:31.612Z</time>
      </trkpt>
      <trkpt lat="48.74634" lon="2.51504">
        <ele>92</ele>
        <time>2021-02-17T09:27:35.625Z</time>
      </trkpt>
      <trkpt lat="48.74633" lon="2.51504">
        <ele>92</ele>
        <time>2021-02-17T09:27:39.630Z</time>
      </trkpt>
      <trkpt lat="48.74631" lon="2.51504">
        <ele>92</ele>
        <time>2021-02-17T09:27:44.630Z</time>
      </trkpt>
      <trkpt lat="48.74631" lon="2.51503">
        <ele>92</ele>
        <time>2021-02-17T09:28:07.624Z</time>
      </trkpt>
      <trkpt lat="48.74631" lon="2.51515">
        <ele>94</ele>
        <time>2021-02-17T09:28:27.624Z</time>
      </trkpt>
      <trkpt lat="48.74634" lon="2.51514">
        <ele>94</ele>
        <time>2021-02-17T09:28:32.617Z</time>
      </trkpt>
      <trkpt lat="48.74637" lon="2.51515">
        <ele>94</ele>
        <time>2021-02-17T09:28:37.610Z</time>
      </trkpt>
      <trkpt lat="48.74639" lon="2.51515">
        <ele>94</ele>
        <time>2021-02-17T09:28:41.604Z</time>
      </trkpt>
      <trkpt lat="48.74643" lon="2.51518">
        <ele>94</ele>
        <time>2021-02-17T09:28:46.626Z</time>
      </trkpt>
      <trkpt lat="48.74646" lon="2.51519">
        <ele>94</ele>
        <time>2021-02-17T09:28:51.630Z</time>
      </trkpt>
      <trkpt lat="48.7465" lon="2.5152">
        <ele>94</ele>
        <time>2021-02-17T09:28:56.606Z</time>
      </trkpt>
      <trkpt lat="48.74653" lon="2.51521">
        <ele>94</ele>
        <time>2021-02-17T09:29:00.622Z</time>
      </trkpt>
      <trkpt lat="48.74654" lon="2.51521">
        <ele>94</ele>
        <time>2021-02-17T09:29:05.617Z</time>
      </trkpt>
      <trkpt lat="48.74656" lon="2.51519">
        <ele>94</ele>
        <time>2021-02-17T09:29:10.624Z</time>
      </trkpt>
      <trkpt lat="48.74657" lon="2.51516">
        <ele>94</ele>
        <time>2021-02-17T09:30:24.615Z</time>
      </trkpt>
      <trkpt lat="48.74655" lon="2.51515">
        <ele>94</ele>
        <time>2021-02-17T09:30:28.598Z</time>
      </trkpt>
      <trkpt lat="48.74652" lon="2.51512">
        <ele>92</ele>
        <time>2021-02-17T09:30:33.601Z</time>
      </trkpt>
      <trkpt lat="48.74646" lon="2.51512">
        <ele>92</ele>
        <time>2021-02-17T09:30:37.593Z</time>
      </trkpt>
      <trkpt lat="48.74642" lon="2.51509">
        <ele>92</ele>
        <time>2021-02-17T09:30:42.619Z</time>
      </trkpt>
      <trkpt lat="48.74637" lon="2.51508">
        <ele>92</ele>
        <time>2021-02-17T09:30:47.625Z</time>
      </trkpt>
      <trkpt lat="48.74632" lon="2.51508">
        <ele>92</ele>
        <time>2021-02-17T09:30:52.623Z</time>
      </trkpt>
      <trkpt lat="48.74626" lon="2.51509">
        <ele>92</ele>
        <time>2021-02-17T09:30:57.632Z</time>
      </trkpt>
      <trkpt lat="48.74619" lon="2.51508">
        <ele>92</ele>
        <time>2021-02-17T09:31:02.631Z</time>
      </trkpt>
      <trkpt lat="48.74613" lon="2.51507">
        <ele>92</ele>
        <time>2021-02-17T09:31:07.625Z</time>
      </trkpt>
      <trkpt lat="48.74606" lon="2.51505">
        <ele>92</ele>
        <time>2021-02-17T09:31:12.616Z</time>
      </trkpt>
      <trkpt lat="48.746" lon="2.51505">
        <ele>92</ele>
        <time>2021-02-17T09:31:17.613Z</time>
      </trkpt>
      <trkpt lat="48.74595" lon="2.51503">
        <ele>92</ele>
        <time>2021-02-17T09:31:21.627Z</time>
      </trkpt>
      <trkpt lat="48.74591" lon="2.51501">
        <ele>92</ele>
        <time>2021-02-17T09:31:25.626Z</time>
      </trkpt>
      <trkpt lat="48.74584" lon="2.515">
        <ele>92</ele>
        <time>2021-02-17T09:31:30.620Z</time>
      </trkpt>
      <trkpt lat="48.74579" lon="2.51502">
        <ele>92</ele>
        <time>2021-02-17T09:31:34.634Z</time>
      </trkpt>
      <trkpt lat="48.74573" lon="2.51502">
        <ele>92</ele>
        <time>2021-02-17T09:31:39.606Z</time>
      </trkpt>
      <trkpt lat="48.74567" lon="2.51501">
        <ele>91</ele>
        <time>2021-02-17T09:31:44.616Z</time>
      </trkpt>
      <trkpt lat="48.74562" lon="2.51499">
        <ele>91</ele>
        <time>2021-02-17T09:31:48.610Z</time>
      </trkpt>
      <trkpt lat="48.74558" lon="2.51499">
        <ele>91</ele>
        <time>2021-02-17T09:31:52.619Z</time>
      </trkpt>
      <trkpt lat="48.74552" lon="2.51498">
        <ele>91</ele>
        <time>2021-02-17T09:31:57.622Z</time>
      </trkpt>
      <trkpt lat="48.74547" lon="2.51497">
        <ele>91</ele>
        <time>2021-02-17T09:32:01.622Z</time>
      </trkpt>
      <trkpt lat="48.74541" lon="2.51496">
        <ele>92</ele>
        <time>2021-02-17T09:32:06.626Z</time>
      </trkpt>
      <trkpt lat="48.74535" lon="2.51497">
        <ele>92</ele>
        <time>2021-02-17T09:32:10.617Z</time>
      </trkpt>
      <trkpt lat="48.7453" lon="2.51496">
        <ele>92</ele>
        <time>2021-02-17T09:32:15.619Z</time>
      </trkpt>
      <trkpt lat="48.74524" lon="2.51494">
        <ele>92</ele>
        <time>2021-02-17T09:32:20.618Z</time>
      </trkpt>
      <trkpt lat="48.74517" lon="2.51495">
        <ele>92</ele>
        <time>2021-02-17T09:32:25.623Z</time>
      </trkpt>
      <trkpt lat="48.74511" lon="2.51494">
        <ele>93</ele>
        <time>2021-02-17T09:32:30.619Z</time>
      </trkpt>
      <trkpt lat="48.74504" lon="2.51492">
        <ele>93</ele>
        <time>2021-02-17T09:32:35.628Z</time>
      </trkpt>
      <trkpt lat="48.74497" lon="2.51491">
        <ele>93</ele>
        <time>2021-02-17T09:32:40.616Z</time>
      </trkpt>
      <trkpt lat="48.74491" lon="2.51491">
        <ele>93</ele>
        <time>2021-02-17T09:32:45.622Z</time>
      </trkpt>
      <trkpt lat="48.74485" lon="2.5149">
        <ele>94</ele>
        <time>2021-02-17T09:32:50.623Z</time>
      </trkpt>
      <trkpt lat="48.74479" lon="2.5149">
        <ele>94</ele>
        <time>2021-02-17T09:32:55.622Z</time>
      </trkpt>
      <trkpt lat="48.74471" lon="2.51491">
        <ele>94</ele>
        <time>2021-02-17T09:33:00.612Z</time>
      </trkpt>
      <trkpt lat="48.74467" lon="2.5149">
        <ele>94</ele>
        <time>2021-02-17T09:33:04.613Z</time>
      </trkpt>
      <trkpt lat="48.74459" lon="2.51492">
        <ele>94</ele>
        <time>2021-02-17T09:33:09.625Z</time>
      </trkpt>
      <trkpt lat="48.74454" lon="2.51492">
        <ele>93</ele>
        <time>2021-02-17T09:33:14.637Z</time>
      </trkpt>
      <trkpt lat="48.74447" lon="2.51494">
        <ele>93</ele>
        <time>2021-02-17T09:33:19.621Z</time>
      </trkpt>
      <trkpt lat="48.74441" lon="2.51494">
        <ele>93</ele>
        <time>2021-02-17T09:33:24.625Z</time>
      </trkpt>
      <trkpt lat="48.74434" lon="2.51493">
        <ele>93</ele>
        <time>2021-02-17T09:33:29.621Z</time>
      </trkpt>
      <trkpt lat="48.74429" lon="2.51492">
        <ele>94</ele>
        <time>2021-02-17T09:33:33.621Z</time>
      </trkpt>
      <trkpt lat="48.74422" lon="2.51492">
        <ele>94</ele>
        <time>2021-02-17T09:33:38.612Z</time>
      </trkpt>
      <trkpt lat="48.74416" lon="2.51491">
        <ele>94</ele>
        <time>2021-02-17T09:33:43.620Z</time>
      </trkpt>
      <trkpt lat="48.74411" lon="2.51489">
        <ele>94</ele>
        <time>2021-02-17T09:33:47.620Z</time>
      </trkpt>
      <trkpt lat="48.74404" lon="2.51489">
        <ele>94</ele>
        <time>2021-02-17T09:33:52.625Z</time>
      </trkpt>
      <trkpt lat="48.74398" lon="2.51488">
        <ele>93</ele>
        <time>2021-02-17T09:33:57.632Z</time>
      </trkpt>
      <trkpt lat="48.74391" lon="2.51488">
        <ele>93</ele>
        <time>2021-02-17T09:34:02.630Z</time>
      </trkpt>
      <trkpt lat="48.74385" lon="2.51488">
        <ele>93</ele>
        <time>2021-02-17T09:34:06.620Z</time>
      </trkpt>
      <trkpt lat="48.74379" lon="2.51488">
        <ele>93</ele>
        <time>2021-02-17T09:34:11.625Z</time>
      </trkpt>
      <trkpt lat="48.74372" lon="2.51489">
        <ele>93</ele>
        <time>2021-02-17T09:34:16.627Z</time>
      </trkpt>
      <trkpt lat="48.74367" lon="2.5149">
        <ele>93</ele>
        <time>2021-02-17T09:34:20.622Z</time>
      </trkpt>
      <trkpt lat="48.74361" lon="2.51491">
        <ele>93</ele>
        <time>2021-02-17T09:34:25.621Z</time>
      </trkpt>
      <trkpt lat="48.74355" lon="2.51492">
        <ele>93</ele>
        <time>2021-02-17T09:34:30.624Z</time>
      </trkpt>
      <trkpt lat="48.74346" lon="2.5149">
        <ele>92</ele>
        <time>2021-02-17T09:34:35.618Z</time>
      </trkpt>
      <trkpt lat="48.74338" lon="2.51492">
        <ele>92</ele>
        <time>2021-02-17T09:34:40.632Z</time>
      </trkpt>
      <trkpt lat="48.74332" lon="2.51492">
        <ele>92</ele>
        <time>2021-02-17T09:34:45.623Z</time>
      </trkpt>
      <trkpt lat="48.74325" lon="2.51492">
        <ele>92</ele>
        <time>2021-02-17T09:34:50.617Z</time>
      </trkpt>
      <trkpt lat="48.74318" lon="2.5149">
        <ele>91</ele>
        <time>2021-02-17T09:34:55.619Z</time>
      </trkpt>
      <trkpt lat="48.74312" lon="2.51487">
        <ele>91</ele>
        <time>2021-02-17T09:35:00.621Z</time>
      </trkpt>
      <trkpt lat="48.74306" lon="2.51487">
        <ele>91</ele>
        <time>2021-02-17T09:35:04.633Z</time>
      </trkpt>
      <trkpt lat="48.74299" lon="2.51485">
        <ele>93</ele>
        <time>2021-02-17T09:35:09.633Z</time>
      </trkpt>
      <trkpt lat="48.74293" lon="2.51485">
        <ele>93</ele>
        <time>2021-02-17T09:35:14.614Z</time>
      </trkpt>
      <trkpt lat="48.74286" lon="2.51484">
        <ele>93</ele>
        <time>2021-02-17T09:35:19.608Z</time>
      </trkpt>
      <trkpt lat="48.74279" lon="2.51484">
        <ele>93</ele>
        <time>2021-02-17T09:35:24.605Z</time>
      </trkpt>
      <trkpt lat="48.74274" lon="2.51484">
        <ele>93</ele>
        <time>2021-02-17T09:35:29.615Z</time>
      </trkpt>
      <trkpt lat="48.74268" lon="2.51482">
        <ele>93</ele>
        <time>2021-02-17T09:35:34.611Z</time>
      </trkpt>
      <trkpt lat="48.7426" lon="2.51483">
        <ele>94</ele>
        <time>2021-02-17T09:35:39.633Z</time>
      </trkpt>
      <trkpt lat="48.74254" lon="2.51482">
        <ele>94</ele>
        <time>2021-02-17T09:35:44.625Z</time>
      </trkpt>
      <trkpt lat="48.74248" lon="2.51482">
        <ele>94</ele>
        <time>2021-02-17T09:35:49.624Z</time>
      </trkpt>
      <trkpt lat="48.74242" lon="2.51482">
        <ele>94</ele>
        <time>2021-02-17T09:35:54.646Z</time>
      </trkpt>
      <trkpt lat="48.74235" lon="2.51483">
        <ele>95</ele>
        <time>2021-02-17T09:35:59.624Z</time>
      </trkpt>
      <trkpt lat="48.7423" lon="2.51481">
        <ele>95</ele>
        <time>2021-02-17T09:36:03.635Z</time>
      </trkpt>
      <trkpt lat="48.74223" lon="2.5148">
        <ele>95</ele>
        <time>2021-02-17T09:36:08.630Z</time>
      </trkpt>
      <trkpt lat="48.74218" lon="2.51478">
        <ele>95</ele>
        <time>2021-02-17T09:36:12.620Z</time>
      </trkpt>
      <trkpt lat="48.74211" lon="2.51479">
        <ele>95</ele>
        <time>2021-02-17T09:36:17.621Z</time>
      </trkpt>
      <trkpt lat="48.74206" lon="2.5148">
        <ele>95</ele>
        <time>2021-02-17T09:36:22.628Z</time>
      </trkpt>
      <trkpt lat="48.742" lon="2.51481">
        <ele>95</ele>
        <time>2021-02-17T09:36:27.618Z</time>
      </trkpt>
      <trkpt lat="48.74194" lon="2.51485">
        <ele>95</ele>
        <time>2021-02-17T09:36:32.633Z</time>
      </trkpt>
      <trkpt lat="48.74193" lon="2.51492">
        <ele>95</ele>
        <time>2021-02-17T09:36:37.633Z</time>
      </trkpt>
      <trkpt lat="48.74188" lon="2.51499">
        <ele>95</ele>
        <time>2021-02-17T09:36:42.615Z</time>
      </trkpt>
      <trkpt lat="48.74185" lon="2.51505">
        <ele>95</ele>
        <time>2021-02-17T09:36:47.625Z</time>
      </trkpt>
      <trkpt lat="48.74186" lon="2.51511">
        <ele>95</ele>
        <time>2021-02-17T09:36:52.621Z</time>
      </trkpt>
      <trkpt lat="48.74186" lon="2.51517">
        <ele>95</ele>
        <time>2021-02-17T09:36:57.621Z</time>
      </trkpt>
      <trkpt lat="48.74186" lon="2.51524">
        <ele>95</ele>
        <time>2021-02-17T09:37:02.625Z</time>
      </trkpt>
      <trkpt lat="48.74188" lon="2.5153">
        <ele>95</ele>
        <time>2021-02-17T09:37:07.626Z</time>
      </trkpt>
      <trkpt lat="48.74188" lon="2.51537">
        <ele>95</ele>
        <time>2021-02-17T09:37:11.617Z</time>
      </trkpt>
      <trkpt lat="48.74191" lon="2.51544">
        <ele>94</ele>
        <time>2021-02-17T09:37:16.624Z</time>
      </trkpt>
      <trkpt lat="48.74194" lon="2.51551">
        <ele>94</ele>
        <time>2021-02-17T09:37:21.637Z</time>
      </trkpt>
      <trkpt lat="48.74196" lon="2.51558">
        <ele>94</ele>
        <time>2021-02-17T09:37:26.622Z</time>
      </trkpt>
      <trkpt lat="48.74201" lon="2.51565">
        <ele>94</ele>
        <time>2021-02-17T09:37:31.625Z</time>
      </trkpt>
      <trkpt lat="48.74205" lon="2.5157">
        <ele>94</ele>
        <time>2021-02-17T09:37:36.625Z</time>
      </trkpt>
      <trkpt lat="48.7421" lon="2.51577">
        <ele>93</ele>
        <time>2021-02-17T09:37:41.631Z</time>
      </trkpt>
      <trkpt lat="48.74212" lon="2.51581">
        <ele>93</ele>
        <time>2021-02-17T09:37:46.624Z</time>
      </trkpt>
      <trkpt lat="48.74215" lon="2.51586">
        <ele>93</ele>
        <time>2021-02-17T09:37:51.623Z</time>
      </trkpt>
      <trkpt lat="48.74219" lon="2.51593">
        <ele>93</ele>
        <time>2021-02-17T09:37:56.620Z</time>
      </trkpt>
      <trkpt lat="48.74222" lon="2.51599">
        <ele>93</ele>
        <time>2021-02-17T09:38:01.628Z</time>
      </trkpt>
      <trkpt lat="48.74226" lon="2.51607">
        <ele>93</ele>
        <time>2021-02-17T09:38:06.619Z</time>
      </trkpt>
      <trkpt lat="48.7423" lon="2.51614">
        <ele>93</ele>
        <time>2021-02-17T09:38:11.622Z</time>
      </trkpt>
      <trkpt lat="48.74232" lon="2.51621">
        <ele>93</ele>
        <time>2021-02-17T09:38:16.620Z</time>
      </trkpt>
      <trkpt lat="48.74234" lon="2.51627">
        <ele>94</ele>
        <time>2021-02-17T09:38:20.630Z</time>
      </trkpt>
      <trkpt lat="48.7424" lon="2.51632">
        <ele>92</ele>
        <time>2021-02-17T09:38:25.620Z</time>
      </trkpt>
      <trkpt lat="48.74244" lon="2.51638">
        <ele>92</ele>
        <time>2021-02-17T09:38:30.620Z</time>
      </trkpt>
      <trkpt lat="48.74248" lon="2.51645">
        <ele>92</ele>
        <time>2021-02-17T09:38:35.622Z</time>
      </trkpt>
      <trkpt lat="48.74254" lon="2.51651">
        <ele>92</ele>
        <time>2021-02-17T09:38:40.617Z</time>
      </trkpt>
      <trkpt lat="48.74258" lon="2.51658">
        <ele>93</ele>
        <time>2021-02-17T09:38:45.595Z</time>
      </trkpt>
      <trkpt lat="48.74261" lon="2.51664">
        <ele>93</ele>
        <time>2021-02-17T09:38:49.617Z</time>
      </trkpt>
      <trkpt lat="48.74267" lon="2.51672">
        <ele>92</ele>
        <time>2021-02-17T09:38:54.627Z</time>
      </trkpt>
      <trkpt lat="48.74272" lon="2.51679">
        <ele>92</ele>
        <time>2021-02-17T09:38:59.628Z</time>
      </trkpt>
      <trkpt lat="48.74278" lon="2.51684">
        <ele>92</ele>
        <time>2021-02-17T09:39:04.601Z</time>
      </trkpt>
      <trkpt lat="48.74282" lon="2.5169">
        <ele>92</ele>
        <time>2021-02-17T09:39:09.617Z</time>
      </trkpt>
      <trkpt lat="48.74287" lon="2.51695">
        <ele>92</ele>
        <time>2021-02-17T09:39:14.631Z</time>
      </trkpt>
      <trkpt lat="48.74292" lon="2.51702">
        <ele>91</ele>
        <time>2021-02-17T09:39:19.618Z</time>
      </trkpt>
      <trkpt lat="48.74295" lon="2.51706">
        <ele>91</ele>
        <time>2021-02-17T09:39:23.611Z</time>
      </trkpt>
      <trkpt lat="48.743" lon="2.51712">
        <ele>92</ele>
        <time>2021-02-17T09:39:28.601Z</time>
      </trkpt>
      <trkpt lat="48.74305" lon="2.51718">
        <ele>92</ele>
        <time>2021-02-17T09:39:33.598Z</time>
      </trkpt>
      <trkpt lat="48.74309" lon="2.51724">
        <ele>92</ele>
        <time>2021-02-17T09:39:38.620Z</time>
      </trkpt>
      <trkpt lat="48.74314" lon="2.51729">
        <ele>92</ele>
        <time>2021-02-17T09:39:43.631Z</time>
      </trkpt>
      <trkpt lat="48.74317" lon="2.51735">
        <ele>92</ele>
        <time>2021-02-17T09:39:47.634Z</time>
      </trkpt>
      <trkpt lat="48.74321" lon="2.51742">
        <ele>93</ele>
        <time>2021-02-17T09:39:52.629Z</time>
      </trkpt>
      <trkpt lat="48.74324" lon="2.51748">
        <ele>93</ele>
        <time>2021-02-17T09:39:57.623Z</time>
      </trkpt>
      <trkpt lat="48.74328" lon="2.51753">
        <ele>93</ele>
        <time>2021-02-17T09:40:01.633Z</time>
      </trkpt>
      <trkpt lat="48.74333" lon="2.51757">
        <ele>93</ele>
        <time>2021-02-17T09:40:06.626Z</time>
      </trkpt>
      <trkpt lat="48.74338" lon="2.51763">
        <ele>93</ele>
        <time>2021-02-17T09:40:11.628Z</time>
      </trkpt>
      <trkpt lat="48.74343" lon="2.51768">
        <ele>94</ele>
        <time>2021-02-17T09:40:16.622Z</time>
      </trkpt>
      <trkpt lat="48.74349" lon="2.51775">
        <ele>95</ele>
        <time>2021-02-17T09:40:21.608Z</time>
      </trkpt>
      <trkpt lat="48.74353" lon="2.51779">
        <ele>95</ele>
        <time>2021-02-17T09:40:25.623Z</time>
      </trkpt>
      <trkpt lat="48.74357" lon="2.51785">
        <ele>95</ele>
        <time>2021-02-17T09:40:30.605Z</time>
      </trkpt>
      <trkpt lat="48.74362" lon="2.5179">
        <ele>95</ele>
        <time>2021-02-17T09:40:35.614Z</time>
      </trkpt>
      <trkpt lat="48.74364" lon="2.51796">
        <ele>95</ele>
        <time>2021-02-17T09:40:39.610Z</time>
      </trkpt>
      <trkpt lat="48.74369" lon="2.51802">
        <ele>95</ele>
        <time>2021-02-17T09:40:44.607Z</time>
      </trkpt>
      <trkpt lat="48.74372" lon="2.51806">
        <ele>95</ele>
        <time>2021-02-17T09:40:48.596Z</time>
      </trkpt>
      <trkpt lat="48.74375" lon="2.51811">
        <ele>94</ele>
        <time>2021-02-17T09:40:52.619Z</time>
      </trkpt>
      <trkpt lat="48.74379" lon="2.51818">
        <ele>94</ele>
        <time>2021-02-17T09:40:57.622Z</time>
      </trkpt>
      <trkpt lat="48.74383" lon="2.51824">
        <ele>95</ele>
        <time>2021-02-17T09:41:02.618Z</time>
      </trkpt>
      <trkpt lat="48.74386" lon="2.5183">
        <ele>95</ele>
        <time>2021-02-17T09:41:07.623Z</time>
      </trkpt>
      <trkpt lat="48.74392" lon="2.51838">
        <ele>95</ele>
        <time>2021-02-17T09:41:12.619Z</time>
      </trkpt>
      <trkpt lat="48.74398" lon="2.51845">
        <ele>95</ele>
        <time>2021-02-17T09:41:17.624Z</time>
      </trkpt>
      <trkpt lat="48.74404" lon="2.51851">
        <ele>94</ele>
        <time>2021-02-17T09:41:22.631Z</time>
      </trkpt>
      <trkpt lat="48.74411" lon="2.51857">
        <ele>94</ele>
        <time>2021-02-17T09:41:27.621Z</time>
      </trkpt>
      <trkpt lat="48.74417" lon="2.51864">
        <ele>94</ele>
        <time>2021-02-17T09:41:32.621Z</time>
      </trkpt>
      <trkpt lat="48.74424" lon="2.5187">
        <ele>94</ele>
        <time>2021-02-17T09:41:37.622Z</time>
      </trkpt>
      <trkpt lat="48.74429" lon="2.51875">
        <ele>93</ele>
        <time>2021-02-17T09:41:42.605Z</time>
      </trkpt>
      <trkpt lat="48.74435" lon="2.51882">
        <ele>93</ele>
        <time>2021-02-17T09:41:47.621Z</time>
      </trkpt>
      <trkpt lat="48.74441" lon="2.51889">
        <ele>93</ele>
        <time>2021-02-17T09:41:52.617Z</time>
      </trkpt>
      <trkpt lat="48.74446" lon="2.51895">
        <ele>93</ele>
        <time>2021-02-17T09:41:57.616Z</time>
      </trkpt>
      <trkpt lat="48.74452" lon="2.51902">
        <ele>93</ele>
        <time>2021-02-17T09:42:02.617Z</time>
      </trkpt>
      <trkpt lat="48.74456" lon="2.51908">
        <ele>92</ele>
        <time>2021-02-17T09:42:06.600Z</time>
      </trkpt>
      <trkpt lat="48.74463" lon="2.51915">
        <ele>92</ele>
        <time>2021-02-17T09:42:11.617Z</time>
      </trkpt>
      <trkpt lat="48.74465" lon="2.51923">
        <ele>92</ele>
        <time>2021-02-17T09:42:16.621Z</time>
      </trkpt>
      <trkpt lat="48.74465" lon="2.51931">
        <ele>92</ele>
        <time>2021-02-17T09:42:21.623Z</time>
      </trkpt>
      <trkpt lat="48.74466" lon="2.51938">
        <ele>92</ele>
        <time>2021-02-17T09:42:26.606Z</time>
      </trkpt>
      <trkpt lat="48.74466" lon="2.51945">
        <ele>92</ele>
        <time>2021-02-17T09:42:31.613Z</time>
      </trkpt>
      <trkpt lat="48.74465" lon="2.51949">
        <ele>92</ele>
        <time>2021-02-17T09:42:35.598Z</time>
      </trkpt>
      <trkpt lat="48.74462" lon="2.51956">
        <ele>92</ele>
        <time>2021-02-17T09:42:40.600Z</time>
      </trkpt>
      <trkpt lat="48.7446" lon="2.5196">
        <ele>93</ele>
        <time>2021-02-17T09:42:44.628Z</time>
      </trkpt>
      <trkpt lat="48.74457" lon="2.51966">
        <ele>93</ele>
        <time>2021-02-17T09:42:49.635Z</time>
      </trkpt>
      <trkpt lat="48.74454" lon="2.51973">
        <ele>93</ele>
        <time>2021-02-17T09:42:54.612Z</time>
      </trkpt>
      <trkpt lat="48.74451" lon="2.51979">
        <ele>93</ele>
        <time>2021-02-17T09:42:58.600Z</time>
      </trkpt>
      <trkpt lat="48.74446" lon="2.51987">
        <ele>93</ele>
        <time>2021-02-17T09:43:03.593Z</time>
      </trkpt>
      <trkpt lat="48.74442" lon="2.51991">
        <ele>93</ele>
        <time>2021-02-17T09:43:07.620Z</time>
      </trkpt>
      <trkpt lat="48.74439" lon="2.51997">
        <ele>93</ele>
        <time>2021-02-17T09:43:12.612Z</time>
      </trkpt>
      <trkpt lat="48.74435" lon="2.52004">
        <ele>93</ele>
        <time>2021-02-17T09:43:17.612Z</time>
      </trkpt>
      <trkpt lat="48.7443" lon="2.52013">
        <ele>95</ele>
        <time>2021-02-17T09:43:22.619Z</time>
      </trkpt>
      <trkpt lat="48.74426" lon="2.52021">
        <ele>95</ele>
        <time>2021-02-17T09:43:27.623Z</time>
      </trkpt>
      <trkpt lat="48.74422" lon="2.5203">
        <ele>95</ele>
        <time>2021-02-17T09:43:32.615Z</time>
      </trkpt>
      <trkpt lat="48.74418" lon="2.52037">
        <ele>95</ele>
        <time>2021-02-17T09:43:37.616Z</time>
      </trkpt>
      <trkpt lat="48.74412" lon="2.52046">
        <ele>95</ele>
        <time>2021-02-17T09:43:42.615Z</time>
      </trkpt>
      <trkpt lat="48.74408" lon="2.52052">
        <ele>95</ele>
        <time>2021-02-17T09:43:47.610Z</time>
      </trkpt>
      <trkpt lat="48.74405" lon="2.5206">
        <ele>95</ele>
        <time>2021-02-17T09:43:52.615Z</time>
      </trkpt>
      <trkpt lat="48.74399" lon="2.52067">
        <ele>94</ele>
        <time>2021-02-17T09:43:57.616Z</time>
      </trkpt>
      <trkpt lat="48.74397" lon="2.5207">
        <ele>93</ele>
        <time>2021-02-17T09:44:01.609Z</time>
      </trkpt>
      <trkpt lat="48.74393" lon="2.52076">
        <ele>93</ele>
        <time>2021-02-17T09:44:06.615Z</time>
      </trkpt>
      <trkpt lat="48.74389" lon="2.52085">
        <ele>93</ele>
        <time>2021-02-17T09:44:11.613Z</time>
      </trkpt>
      <trkpt lat="48.74384" lon="2.52091">
        <ele>93</ele>
        <time>2021-02-17T09:44:16.616Z</time>
      </trkpt>
      <trkpt lat="48.74381" lon="2.52096">
        <ele>93</ele>
        <time>2021-02-17T09:44:20.608Z</time>
      </trkpt>
      <trkpt lat="48.74376" lon="2.52104">
        <ele>93</ele>
        <time>2021-02-17T09:44:25.615Z</time>
      </trkpt>
      <trkpt lat="48.74371" lon="2.52114">
        <ele>92</ele>
        <time>2021-02-17T09:44:30.625Z</time>
      </trkpt>
      <trkpt lat="48.74366" lon="2.52122">
        <ele>92</ele>
        <time>2021-02-17T09:44:35.619Z</time>
      </trkpt>
      <trkpt lat="48.74362" lon="2.5213">
        <ele>92</ele>
        <time>2021-02-17T09:44:40.610Z</time>
      </trkpt>
      <trkpt lat="48.74357" lon="2.5214">
        <ele>92</ele>
        <time>2021-02-17T09:44:45.619Z</time>
      </trkpt>
      <trkpt lat="48.74354" lon="2.52148">
        <ele>92</ele>
        <time>2021-02-17T09:44:49.620Z</time>
      </trkpt>
      <trkpt lat="48.7435" lon="2.52158">
        <ele>92</ele>
        <time>2021-02-17T09:44:54.612Z</time>
      </trkpt>
      <trkpt lat="48.74346" lon="2.52167">
        <ele>92</ele>
        <time>2021-02-17T09:44:59.616Z</time>
      </trkpt>
      <trkpt lat="48.74341" lon="2.52172">
        <ele>92</ele>
        <time>2021-02-17T09:45:03.629Z</time>
      </trkpt>
      <trkpt lat="48.74337" lon="2.5218">
        <ele>92</ele>
        <time>2021-02-17T09:45:08.614Z</time>
      </trkpt>
      <trkpt lat="48.74332" lon="2.52189">
        <ele>92</ele>
        <time>2021-02-17T09:45:13.598Z</time>
      </trkpt>
      <trkpt lat="48.74328" lon="2.52199">
        <ele>92</ele>
        <time>2021-02-17T09:45:18.594Z</time>
      </trkpt>
      <trkpt lat="48.74327" lon="2.52207">
        <ele>92</ele>
        <time>2021-02-17T09:45:22.618Z</time>
      </trkpt>
      <trkpt lat="48.74327" lon="2.52216">
        <ele>92</ele>
        <time>2021-02-17T09:45:27.608Z</time>
      </trkpt>
      <trkpt lat="48.74328" lon="2.52224">
        <ele>92</ele>
        <time>2021-02-17T09:45:31.613Z</time>
      </trkpt>
      <trkpt lat="48.74329" lon="2.52233">
        <ele>92</ele>
        <time>2021-02-17T09:45:36.607Z</time>
      </trkpt>
      <trkpt lat="48.74329" lon="2.52241">
        <ele>92</ele>
        <time>2021-02-17T09:45:40.608Z</time>
      </trkpt>
      <trkpt lat="48.7433" lon="2.52249">
        <ele>92</ele>
        <time>2021-02-17T09:45:45.617Z</time>
      </trkpt>
      <trkpt lat="48.74331" lon="2.52259">
        <ele>92</ele>
        <time>2021-02-17T09:45:50.618Z</time>
      </trkpt>
      <trkpt lat="48.74332" lon="2.52267">
        <ele>92</ele>
        <time>2021-02-17T09:45:55.618Z</time>
      </trkpt>
      <trkpt lat="48.74332" lon="2.52275">
        <ele>92</ele>
        <time>2021-02-17T09:46:00.619Z</time>
      </trkpt>
      <trkpt lat="48.74333" lon="2.52284">
        <ele>92</ele>
        <time>2021-02-17T09:46:05.614Z</time>
      </trkpt>
      <trkpt lat="48.74335" lon="2.52294">
        <ele>92</ele>
        <time>2021-02-17T09:46:10.614Z</time>
      </trkpt>
      <trkpt lat="48.74336" lon="2.52299">
        <ele>92</ele>
        <time>2021-02-17T09:46:14.610Z</time>
      </trkpt>
      <trkpt lat="48.74337" lon="2.52306">
        <ele>92</ele>
        <time>2021-02-17T09:46:18.602Z</time>
      </trkpt>
      <trkpt lat="48.74339" lon="2.52315">
        <ele>92</ele>
        <time>2021-02-17T09:46:23.594Z</time>
      </trkpt>
      <trkpt lat="48.74341" lon="2.52323">
        <ele>93</ele>
        <time>2021-02-17T09:46:27.618Z</time>
      </trkpt>
      <trkpt lat="48.74342" lon="2.52332">
        <ele>93</ele>
        <time>2021-02-17T09:46:32.622Z</time>
      </trkpt>
      <trkpt lat="48.74343" lon="2.52341">
        <ele>93</ele>
        <time>2021-02-17T09:46:37.618Z</time>
      </trkpt>
      <trkpt lat="48.74344" lon="2.5235">
        <ele>93</ele>
        <time>2021-02-17T09:46:42.612Z</time>
      </trkpt>
      <trkpt lat="48.74346" lon="2.52359">
        <ele>93</ele>
        <time>2021-02-17T09:46:47.611Z</time>
      </trkpt>
      <trkpt lat="48.74348" lon="2.5237">
        <ele>93</ele>
        <time>2021-02-17T09:46:52.613Z</time>
      </trkpt>
      <trkpt lat="48.7435" lon="2.5238">
        <ele>93</ele>
        <time>2021-02-17T09:46:57.612Z</time>
      </trkpt>
      <trkpt lat="48.74352" lon="2.52388">
        <ele>93</ele>
        <time>2021-02-17T09:47:02.622Z</time>
      </trkpt>
      <trkpt lat="48.74354" lon="2.52396">
        <ele>93</ele>
        <time>2021-02-17T09:47:07.612Z</time>
      </trkpt>
      <trkpt lat="48.74356" lon="2.52405">
        <ele>92</ele>
        <time>2021-02-17T09:47:12.599Z</time>
      </trkpt>
      <trkpt lat="48.74357" lon="2.52414">
        <ele>92</ele>
        <time>2021-02-17T09:47:17.606Z</time>
      </trkpt>
      <trkpt lat="48.7436" lon="2.52424">
        <ele>92</ele>
        <time>2021-02-17T09:47:22.617Z</time>
      </trkpt>
      <trkpt lat="48.74362" lon="2.52433">
        <ele>92</ele>
        <time>2021-02-17T09:47:27.627Z</time>
      </trkpt>
      <trkpt lat="48.74365" lon="2.52442">
        <ele>92</ele>
        <time>2021-02-17T09:47:32.609Z</time>
      </trkpt>
      <trkpt lat="48.74367" lon="2.52451">
        <ele>92</ele>
        <time>2021-02-17T09:47:37.610Z</time>
      </trkpt>
      <trkpt lat="48.74369" lon="2.52461">
        <ele>94</ele>
        <time>2021-02-17T09:47:42.615Z</time>
      </trkpt>
      <trkpt lat="48.74369" lon="2.52472">
        <ele>94</ele>
        <time>2021-02-17T09:47:47.612Z</time>
      </trkpt>
      <trkpt lat="48.74371" lon="2.52481">
        <ele>94</ele>
        <time>2021-02-17T09:47:52.607Z</time>
      </trkpt>
      <trkpt lat="48.74375" lon="2.52489">
        <ele>94</ele>
        <time>2021-02-17T09:47:57.607Z</time>
      </trkpt>
      <trkpt lat="48.74377" lon="2.52499">
        <ele>95</ele>
        <time>2021-02-17T09:48:02.608Z</time>
      </trkpt>
      <trkpt lat="48.74379" lon="2.52508">
        <ele>95</ele>
        <time>2021-02-17T09:48:07.606Z</time>
      </trkpt>
      <trkpt lat="48.74381" lon="2.52517">
        <ele>96</ele>
        <time>2021-02-17T09:48:12.609Z</time>
      </trkpt>
      <trkpt lat="48.74383" lon="2.52526">
        <ele>96</ele>
        <time>2021-02-17T09:48:17.629Z</time>
      </trkpt>
      <trkpt lat="48.74385" lon="2.52534">
        <ele>96</ele>
        <time>2021-02-17T09:48:22.612Z</time>
      </trkpt>
      <trkpt lat="48.74387" lon="2.52543">
        <ele>96</ele>
        <time>2021-02-17T09:48:27.611Z</time>
      </trkpt>
      <trkpt lat="48.74388" lon="2.52552">
        <ele>96</ele>
        <time>2021-02-17T09:48:32.618Z</time>
      </trkpt>
      <trkpt lat="48.7439" lon="2.52562">
        <ele>96</ele>
        <time>2021-02-17T09:48:37.604Z</time>
      </trkpt>
      <trkpt lat="48.74392" lon="2.5257">
        <ele>96</ele>
        <time>2021-02-17T09:48:42.602Z</time>
      </trkpt>
      <trkpt lat="48.74394" lon="2.52578">
        <ele>96</ele>
        <time>2021-02-17T09:48:47.615Z</time>
      </trkpt>
      <trkpt lat="48.74396" lon="2.52588">
        <ele>96</ele>
        <time>2021-02-17T09:48:52.621Z</time>
      </trkpt>
      <trkpt lat="48.74399" lon="2.52595">
        <ele>96</ele>
        <time>2021-02-17T09:48:57.611Z</time>
      </trkpt>
      <trkpt lat="48.74403" lon="2.52602">
        <ele>95</ele>
        <time>2021-02-17T09:49:02.616Z</time>
      </trkpt>
      <trkpt lat="48.74404" lon="2.52609">
        <ele>95</ele>
        <time>2021-02-17T09:49:07.613Z</time>
      </trkpt>
      <trkpt lat="48.74406" lon="2.52617">
        <ele>95</ele>
        <time>2021-02-17T09:49:12.595Z</time>
      </trkpt>
      <trkpt lat="48.74408" lon="2.52625">
        <ele>95</ele>
        <time>2021-02-17T09:49:16.616Z</time>
      </trkpt>
      <trkpt lat="48.74412" lon="2.52634">
        <ele>96</ele>
        <time>2021-02-17T09:49:21.613Z</time>
      </trkpt>
      <trkpt lat="48.74413" lon="2.52645">
        <ele>96</ele>
        <time>2021-02-17T09:49:26.597Z</time>
      </trkpt>
      <trkpt lat="48.74414" lon="2.52654">
        <ele>96</ele>
        <time>2021-02-17T09:49:30.607Z</time>
      </trkpt>
      <trkpt lat="48.74415" lon="2.52664">
        <ele>96</ele>
        <time>2021-02-17T09:49:35.602Z</time>
      </trkpt>
      <trkpt lat="48.74418" lon="2.52672">
        <ele>96</ele>
        <time>2021-02-17T09:49:40.605Z</time>
      </trkpt>
      <trkpt lat="48.74421" lon="2.5268">
        <ele>96</ele>
        <time>2021-02-17T09:49:45.605Z</time>
      </trkpt>
      <trkpt lat="48.74421" lon="2.52688">
        <ele>97</ele>
        <time>2021-02-17T09:49:49.603Z</time>
      </trkpt>
      <trkpt lat="48.74423" lon="2.52697">
        <ele>97</ele>
        <time>2021-02-17T09:49:54.597Z</time>
      </trkpt>
      <trkpt lat="48.74427" lon="2.52707">
        <ele>97</ele>
        <time>2021-02-17T09:49:59.600Z</time>
      </trkpt>
      <trkpt lat="48.7443" lon="2.52716">
        <ele>96</ele>
        <time>2021-02-17T09:50:04.612Z</time>
      </trkpt>
      <trkpt lat="48.74434" lon="2.52725">
        <ele>97</ele>
        <time>2021-02-17T09:50:09.583Z</time>
      </trkpt>
      <trkpt lat="48.74436" lon="2.52735">
        <ele>97</ele>
        <time>2021-02-17T09:50:14.611Z</time>
      </trkpt>
      <trkpt lat="48.74438" lon="2.52744">
        <ele>96</ele>
        <time>2021-02-17T09:50:19.587Z</time>
      </trkpt>
      <trkpt lat="48.7444" lon="2.52752">
        <ele>96</ele>
        <time>2021-02-17T09:50:23.579Z</time>
      </trkpt>
      <trkpt lat="48.74441" lon="2.5276">
        <ele>96</ele>
        <time>2021-02-17T09:50:27.615Z</time>
      </trkpt>
      <trkpt lat="48.74446" lon="2.52768">
        <ele>96</ele>
        <time>2021-02-17T09:50:32.613Z</time>
      </trkpt>
      <trkpt lat="48.74447" lon="2.52777">
        <ele>96</ele>
        <time>2021-02-17T09:50:37.608Z</time>
      </trkpt>
      <trkpt lat="48.74451" lon="2.52786">
        <ele>96</ele>
        <time>2021-02-17T09:50:42.607Z</time>
      </trkpt>
      <trkpt lat="48.74453" lon="2.52796">
        <ele>95</ele>
        <time>2021-02-17T09:50:47.616Z</time>
      </trkpt>
      <trkpt lat="48.74455" lon="2.52805">
        <ele>95</ele>
        <time>2021-02-17T09:50:52.624Z</time>
      </trkpt>
      <trkpt lat="48.74456" lon="2.52812">
        <ele>95</ele>
        <time>2021-02-17T09:50:56.608Z</time>
      </trkpt>
      <trkpt lat="48.74456" lon="2.5282">
        <ele>95</ele>
        <time>2021-02-17T09:51:01.599Z</time>
      </trkpt>
      <trkpt lat="48.74457" lon="2.52831">
        <ele>95</ele>
        <time>2021-02-17T09:51:06.608Z</time>
      </trkpt>
      <trkpt lat="48.74458" lon="2.52841">
        <ele>94</ele>
        <time>2021-02-17T09:51:11.611Z</time>
      </trkpt>
      <trkpt lat="48.7446" lon="2.52852">
        <ele>95</ele>
        <time>2021-02-17T09:51:16.601Z</time>
      </trkpt>
      <trkpt lat="48.74463" lon="2.52861">
        <ele>95</ele>
        <time>2021-02-17T09:51:21.612Z</time>
      </trkpt>
      <trkpt lat="48.74466" lon="2.52869">
        <ele>95</ele>
        <time>2021-02-17T09:51:26.614Z</time>
      </trkpt>
      <trkpt lat="48.74468" lon="2.52881">
        <ele>96</ele>
        <time>2021-02-17T09:51:31.597Z</time>
      </trkpt>
      <trkpt lat="48.74471" lon="2.52891">
        <ele>96</ele>
        <time>2021-02-17T09:51:36.595Z</time>
      </trkpt>
      <trkpt lat="48.74473" lon="2.529">
        <ele>96</ele>
        <time>2021-02-17T09:51:41.612Z</time>
      </trkpt>
      <trkpt lat="48.74476" lon="2.52909">
        <ele>98</ele>
        <time>2021-02-17T09:51:46.607Z</time>
      </trkpt>
      <trkpt lat="48.74478" lon="2.52917">
        <ele>98</ele>
        <time>2021-02-17T09:51:50.606Z</time>
      </trkpt>
      <trkpt lat="48.7448" lon="2.52928">
        <ele>98</ele>
        <time>2021-02-17T09:51:55.608Z</time>
      </trkpt>
      <trkpt lat="48.74482" lon="2.52938">
        <ele>99</ele>
        <time>2021-02-17T09:52:00.607Z</time>
      </trkpt>
      <trkpt lat="48.74484" lon="2.52945">
        <ele>99</ele>
        <time>2021-02-17T09:52:05.608Z</time>
      </trkpt>
      <trkpt lat="48.74487" lon="2.52955">
        <ele>97</ele>
        <time>2021-02-17T09:52:10.609Z</time>
      </trkpt>
      <trkpt lat="48.74488" lon="2.52965">
        <ele>98</ele>
        <time>2021-02-17T09:52:15.597Z</time>
      </trkpt>
      <trkpt lat="48.7449" lon="2.52975">
        <ele>98</ele>
        <time>2021-02-17T09:52:20.606Z</time>
      </trkpt>
      <trkpt lat="48.74491" lon="2.52983">
        <ele>98</ele>
        <time>2021-02-17T09:52:24.602Z</time>
      </trkpt>
      <trkpt lat="48.74492" lon="2.52993">
        <ele>98</ele>
        <time>2021-02-17T09:52:29.601Z</time>
      </trkpt>
      <trkpt lat="48.74495" lon="2.53004">
        <ele>98</ele>
        <time>2021-02-17T09:52:34.585Z</time>
      </trkpt>
      <trkpt lat="48.74501" lon="2.53017">
        <ele>98</ele>
        <time>2021-02-17T09:52:40.607Z</time>
      </trkpt>
      <trkpt lat="48.74507" lon="2.53029">
        <ele>98</ele>
        <time>2021-02-17T09:52:45.609Z</time>
      </trkpt>
      <trkpt lat="48.74511" lon="2.53039">
        <ele>98</ele>
        <time>2021-02-17T09:52:50.606Z</time>
      </trkpt>
      <trkpt lat="48.74517" lon="2.53048">
        <ele>99</ele>
        <time>2021-02-17T09:52:55.616Z</time>
      </trkpt>
      <trkpt lat="48.7452" lon="2.53053">
        <ele>99</ele>
        <time>2021-02-17T09:52:59.621Z</time>
      </trkpt>
      <trkpt lat="48.74524" lon="2.53059">
        <ele>99</ele>
        <time>2021-02-17T09:53:04.602Z</time>
      </trkpt>
      <trkpt lat="48.74527" lon="2.53063">
        <ele>99</ele>
        <time>2021-02-17T09:53:09.591Z</time>
      </trkpt>
      <trkpt lat="48.74529" lon="2.53068">
        <ele>99</ele>
        <time>2021-02-17T09:53:13.602Z</time>
      </trkpt>
      <trkpt lat="48.74534" lon="2.53077">
        <ele>98</ele>
        <time>2021-02-17T09:53:18.582Z</time>
      </trkpt>
      <trkpt lat="48.74539" lon="2.53083">
        <ele>98</ele>
        <time>2021-02-17T09:53:22.599Z</time>
      </trkpt>
      <trkpt lat="48.74545" lon="2.53089">
        <ele>98</ele>
        <time>2021-02-17T09:53:27.608Z</time>
      </trkpt>
      <trkpt lat="48.74555" lon="2.53097">
        <ele>98</ele>
        <time>2021-02-17T09:53:32.612Z</time>
      </trkpt>
      <trkpt lat="48.74559" lon="2.53105">
        <ele>98</ele>
        <time>2021-02-17T09:53:37.605Z</time>
      </trkpt>
      <trkpt lat="48.74563" lon="2.53112">
        <ele>98</ele>
        <time>2021-02-17T09:53:42.618Z</time>
      </trkpt>
      <trkpt lat="48.74567" lon="2.53117">
        <ele>98</ele>
        <time>2021-02-17T09:53:46.616Z</time>
      </trkpt>
      <trkpt lat="48.74572" lon="2.53123">
        <ele>98</ele>
        <time>2021-02-17T09:53:51.596Z</time>
      </trkpt>
      <trkpt lat="48.74577" lon="2.53127">
        <ele>97</ele>
        <time>2021-02-17T09:53:56.614Z</time>
      </trkpt>
      <trkpt lat="48.74581" lon="2.53136">
        <ele>97</ele>
        <time>2021-02-17T09:54:01.611Z</time>
      </trkpt>
      <trkpt lat="48.74588" lon="2.53141">
        <ele>97</ele>
        <time>2021-02-17T09:54:06.601Z</time>
      </trkpt>
      <trkpt lat="48.74593" lon="2.53145">
        <ele>97</ele>
        <time>2021-02-17T09:54:10.604Z</time>
      </trkpt>
      <trkpt lat="48.74599" lon="2.5315">
        <ele>97</ele>
        <time>2021-02-17T09:54:14.612Z</time>
      </trkpt>
      <trkpt lat="48.74604" lon="2.53156">
        <ele>97</ele>
        <time>2021-02-17T09:54:19.600Z</time>
      </trkpt>
      <trkpt lat="48.74608" lon="2.53163">
        <ele>97</ele>
        <time>2021-02-17T09:54:23.604Z</time>
      </trkpt>
      <trkpt lat="48.74614" lon="2.5317">
        <ele>97</ele>
        <time>2021-02-17T09:54:28.586Z</time>
      </trkpt>
      <trkpt lat="48.74618" lon="2.53177">
        <ele>97</ele>
        <time>2021-02-17T09:54:32.623Z</time>
      </trkpt>
      <trkpt lat="48.74622" lon="2.53183">
        <ele>97</ele>
        <time>2021-02-17T09:54:36.609Z</time>
      </trkpt>
      <trkpt lat="48.74627" lon="2.53189">
        <ele>98</ele>
        <time>2021-02-17T09:54:41.607Z</time>
      </trkpt>
      <trkpt lat="48.74631" lon="2.53194">
        <ele>98</ele>
        <time>2021-02-17T09:54:45.591Z</time>
      </trkpt>
      <trkpt lat="48.74635" lon="2.53199">
        <ele>98</ele>
        <time>2021-02-17T09:54:50.602Z</time>
      </trkpt>
      <trkpt lat="48.74638" lon="2.53206">
        <ele>98</ele>
        <time>2021-02-17T09:54:55.616Z</time>
      </trkpt>
      <trkpt lat="48.74642" lon="2.53206">
        <ele>98</ele>
        <time>2021-02-17T09:55:00.607Z</time>
      </trkpt>
      <trkpt lat="48.74647" lon="2.53201">
        <ele>98</ele>
        <time>2021-02-17T09:55:05.599Z</time>
      </trkpt>
      <trkpt lat="48.74655" lon="2.53193">
        <ele>98</ele>
        <time>2021-02-17T09:55:39.604Z</time>
      </trkpt>
      <trkpt lat="48.74656" lon="2.53194">
        <ele>98</ele>
        <time>2021-02-17T09:55:44.600Z</time>
      </trkpt>
      <trkpt lat="48.74661" lon="2.53193">
        <ele>98</ele>
        <time>2021-02-17T09:55:49.591Z</time>
      </trkpt>
      <trkpt lat="48.74665" lon="2.53192">
        <ele>98</ele>
        <time>2021-02-17T09:56:12.613Z</time>
      </trkpt>
      <trkpt lat="48.74665" lon="2.53192">
        <ele>98</ele>
        <time>2021-02-17T09:56:30.603Z</time>
      </trkpt>
      <trkpt lat="48.74667" lon="2.53196">
        <ele>98</ele>
        <time>2021-02-17T09:57:24.598Z</time>
      </trkpt>
      <trkpt lat="48.74665" lon="2.53196">
        <ele>98</ele>
        <time>2021-02-17T09:57:33.586Z</time>
      </trkpt>
      <trkpt lat="48.74665" lon="2.53196">
        <ele>98</ele>
        <time>2021-02-17T09:57:35.583Z</time>
      </trkpt>
      <trkpt lat="48.74666" lon="2.532">
        <ele>98</ele>
        <time>2021-02-17T10:05:32.212Z</time>
      </trkpt>
      <trkpt lat="48.74661" lon="2.5321">
        <ele>98</ele>
        <time>2021-02-17T10:05:37.204Z</time>
      </trkpt>
      <trkpt lat="48.74661" lon="2.53222">
        <ele>98</ele>
        <time>2021-02-17T10:05:56.227Z</time>
      </trkpt>
      <trkpt lat="48.74664" lon="2.53221">
        <ele>98</ele>
        <time>2021-02-17T10:06:01.231Z</time>
      </trkpt>
      <trkpt lat="48.74664" lon="2.53223">
        <ele>98</ele>
        <time>2021-02-17T10:06:06.220Z</time>
      </trkpt>
      <trkpt lat="48.74665" lon="2.53224">
        <ele>98</ele>
        <time>2021-02-17T10:06:10.208Z</time>
      </trkpt>
      <trkpt lat="48.74668" lon="2.5323">
        <ele>98</ele>
        <time>2021-02-17T10:06:15.213Z</time>
      </trkpt>
      <trkpt lat="48.74672" lon="2.53237">
        <ele>98</ele>
        <time>2021-02-17T10:06:20.208Z</time>
      </trkpt>
      <trkpt lat="48.74673" lon="2.53241">
        <ele>98</ele>
        <time>2021-02-17T10:06:24.217Z</time>
      </trkpt>
      <trkpt lat="48.74675" lon="2.53244">
        <ele>98</ele>
        <time>2021-02-17T10:06:28.190Z</time>
      </trkpt>
      <trkpt lat="48.74679" lon="2.53245">
        <ele>98</ele>
        <time>2021-02-17T10:06:33.218Z</time>
      </trkpt>
      <trkpt lat="48.74686" lon="2.53252">
        <ele>98</ele>
        <time>2021-02-17T10:06:38.200Z</time>
      </trkpt>
      <trkpt lat="48.74689" lon="2.53259">
        <ele>98</ele>
        <time>2021-02-17T10:06:42.203Z</time>
      </trkpt>
      <trkpt lat="48.74692" lon="2.53264">
        <ele>98</ele>
        <time>2021-02-17T10:06:47.210Z</time>
      </trkpt>
      <trkpt lat="48.74694" lon="2.53267">
        <ele>98</ele>
        <time>2021-02-17T10:06:51.205Z</time>
      </trkpt>
      <trkpt lat="48.74699" lon="2.5327">
        <ele>98</ele>
        <time>2021-02-17T10:06:56.220Z</time>
      </trkpt>
      <trkpt lat="48.74701" lon="2.53277">
        <ele>98</ele>
        <time>2021-02-17T10:07:01.216Z</time>
      </trkpt>
      <trkpt lat="48.74704" lon="2.53282">
        <ele>98</ele>
        <time>2021-02-17T10:07:05.216Z</time>
      </trkpt>
      <trkpt lat="48.7471" lon="2.53283">
        <ele>98</ele>
        <time>2021-02-17T10:07:10.222Z</time>
      </trkpt>
      <trkpt lat="48.74714" lon="2.53289">
        <ele>98</ele>
        <time>2021-02-17T10:07:15.221Z</time>
      </trkpt>
      <trkpt lat="48.74719" lon="2.53295">
        <ele>98</ele>
        <time>2021-02-17T10:07:20.208Z</time>
      </trkpt>
      <trkpt lat="48.74722" lon="2.533">
        <ele>98</ele>
        <time>2021-02-17T10:07:24.206Z</time>
      </trkpt>
      <trkpt lat="48.74725" lon="2.53306">
        <ele>98</ele>
        <time>2021-02-17T10:07:29.212Z</time>
      </trkpt>
      <trkpt lat="48.7473" lon="2.53312">
        <ele>98</ele>
        <time>2021-02-17T10:07:34.189Z</time>
      </trkpt>
      <trkpt lat="48.74734" lon="2.5332">
        <ele>97</ele>
        <time>2021-02-17T10:07:38.231Z</time>
      </trkpt>
      <trkpt lat="48.74739" lon="2.53328">
        <ele>98</ele>
        <time>2021-02-17T10:07:43.209Z</time>
      </trkpt>
      <trkpt lat="48.74744" lon="2.53332">
        <ele>98</ele>
        <time>2021-02-17T10:07:47.205Z</time>
      </trkpt>
      <trkpt lat="48.74749" lon="2.53337">
        <ele>98</ele>
        <time>2021-02-17T10:07:52.208Z</time>
      </trkpt>
      <trkpt lat="48.74754" lon="2.53342">
        <ele>98</ele>
        <time>2021-02-17T10:07:57.207Z</time>
      </trkpt>
      <trkpt lat="48.74756" lon="2.5335">
        <ele>98</ele>
        <time>2021-02-17T10:08:01.216Z</time>
      </trkpt>
      <trkpt lat="48.7476" lon="2.53357">
        <ele>98</ele>
        <time>2021-02-17T10:08:06.203Z</time>
      </trkpt>
      <trkpt lat="48.74765" lon="2.53366">
        <ele>98</ele>
        <time>2021-02-17T10:08:11.212Z</time>
      </trkpt>
      <trkpt lat="48.74769" lon="2.53373">
        <ele>98</ele>
        <time>2021-02-17T10:08:16.214Z</time>
      </trkpt>
      <trkpt lat="48.74772" lon="2.53378">
        <ele>98</ele>
        <time>2021-02-17T10:08:21.223Z</time>
      </trkpt>
      <trkpt lat="48.74777" lon="2.53382">
        <ele>98</ele>
        <time>2021-02-17T10:08:26.207Z</time>
      </trkpt>
      <trkpt lat="48.74784" lon="2.53387">
        <ele>98</ele>
        <time>2021-02-17T10:08:31.204Z</time>
      </trkpt>
      <trkpt lat="48.74791" lon="2.53392">
        <ele>98</ele>
        <time>2021-02-17T10:08:36.211Z</time>
      </trkpt>
      <trkpt lat="48.74796" lon="2.53399">
        <ele>98</ele>
        <time>2021-02-17T10:08:40.225Z</time>
      </trkpt>
      <trkpt lat="48.74803" lon="2.53405">
        <ele>98</ele>
        <time>2021-02-17T10:08:45.203Z</time>
      </trkpt>
      <trkpt lat="48.74806" lon="2.53411">
        <ele>98</ele>
        <time>2021-02-17T10:08:50.212Z</time>
      </trkpt>
      <trkpt lat="48.74811" lon="2.53417">
        <ele>98</ele>
        <time>2021-02-17T10:08:54.192Z</time>
      </trkpt>
      <trkpt lat="48.74816" lon="2.53424">
        <ele>98</ele>
        <time>2021-02-17T10:08:59.209Z</time>
      </trkpt>
      <trkpt lat="48.74821" lon="2.53431">
        <ele>97</ele>
        <time>2021-02-17T10:09:04.210Z</time>
      </trkpt>
      <trkpt lat="48.74827" lon="2.53439">
        <ele>97</ele>
        <time>2021-02-17T10:09:09.207Z</time>
      </trkpt>
      <trkpt lat="48.74831" lon="2.53444">
        <ele>97</ele>
        <time>2021-02-17T10:09:13.205Z</time>
      </trkpt>
      <trkpt lat="48.74839" lon="2.53451">
        <ele>97</ele>
        <time>2021-02-17T10:09:18.206Z</time>
      </trkpt>
      <trkpt lat="48.74846" lon="2.53457">
        <ele>97</ele>
        <time>2021-02-17T10:09:23.214Z</time>
      </trkpt>
      <trkpt lat="48.74849" lon="2.53463">
        <ele>98</ele>
        <time>2021-02-17T10:09:27.209Z</time>
      </trkpt>
      <trkpt lat="48.74855" lon="2.53468">
        <ele>98</ele>
        <time>2021-02-17T10:09:32.220Z</time>
      </trkpt>
      <trkpt lat="48.7486" lon="2.53475">
        <ele>98</ele>
        <time>2021-02-17T10:09:37.220Z</time>
      </trkpt>
      <trkpt lat="48.74866" lon="2.5348">
        <ele>98</ele>
        <time>2021-02-17T10:09:42.210Z</time>
      </trkpt>
      <trkpt lat="48.74874" lon="2.53487">
        <ele>99</ele>
        <time>2021-02-17T10:09:47.206Z</time>
      </trkpt>
      <trkpt lat="48.74878" lon="2.53495">
        <ele>100</ele>
        <time>2021-02-17T10:09:52.213Z</time>
      </trkpt>
      <trkpt lat="48.74882" lon="2.535">
        <ele>100</ele>
        <time>2021-02-17T10:09:57.219Z</time>
      </trkpt>
      <trkpt lat="48.74889" lon="2.53507">
        <ele>100</ele>
        <time>2021-02-17T10:10:02.210Z</time>
      </trkpt>
      <trkpt lat="48.74893" lon="2.53513">
        <ele>100</ele>
        <time>2021-02-17T10:10:07.222Z</time>
      </trkpt>
      <trkpt lat="48.74898" lon="2.53519">
        <ele>101</ele>
        <time>2021-02-17T10:10:12.221Z</time>
      </trkpt>
      <trkpt lat="48.74903" lon="2.53525">
        <ele>101</ele>
        <time>2021-02-17T10:10:17.219Z</time>
      </trkpt>
      <trkpt lat="48.74906" lon="2.53532">
        <ele>101</ele>
        <time>2021-02-17T10:10:21.220Z</time>
      </trkpt>
      <trkpt lat="48.74913" lon="2.53538">
        <ele>101</ele>
        <time>2021-02-17T10:10:26.218Z</time>
      </trkpt>
      <trkpt lat="48.74919" lon="2.53545">
        <ele>101</ele>
        <time>2021-02-17T10:10:31.228Z</time>
      </trkpt>
      <trkpt lat="48.74925" lon="2.53553">
        <ele>101</ele>
        <time>2021-02-17T10:10:36.211Z</time>
      </trkpt>
      <trkpt lat="48.74931" lon="2.5356">
        <ele>100</ele>
        <time>2021-02-17T10:10:41.210Z</time>
      </trkpt>
      <trkpt lat="48.74939" lon="2.53565">
        <ele>100</ele>
        <time>2021-02-17T10:10:46.220Z</time>
      </trkpt>
      <trkpt lat="48.74944" lon="2.53572">
        <ele>100</ele>
        <time>2021-02-17T10:10:50.221Z</time>
      </trkpt>
      <trkpt lat="48.7495" lon="2.53578">
        <ele>100</ele>
        <time>2021-02-17T10:10:55.234Z</time>
      </trkpt>
      <trkpt lat="48.74953" lon="2.53586">
        <ele>100</ele>
        <time>2021-02-17T10:11:00.217Z</time>
      </trkpt>
      <trkpt lat="48.74955" lon="2.53596">
        <ele>100</ele>
        <time>2021-02-17T10:11:05.219Z</time>
      </trkpt>
      <trkpt lat="48.74954" lon="2.53603">
        <ele>99</ele>
        <time>2021-02-17T10:11:10.223Z</time>
      </trkpt>
      <trkpt lat="48.74953" lon="2.53611">
        <ele>99</ele>
        <time>2021-02-17T10:11:15.222Z</time>
      </trkpt>
      <trkpt lat="48.74952" lon="2.5362">
        <ele>99</ele>
        <time>2021-02-17T10:11:20.210Z</time>
      </trkpt>
      <trkpt lat="48.7495" lon="2.53628">
        <ele>99</ele>
        <time>2021-02-17T10:11:25.208Z</time>
      </trkpt>
      <trkpt lat="48.74948" lon="2.53637">
        <ele>99</ele>
        <time>2021-02-17T10:11:30.210Z</time>
      </trkpt>
      <trkpt lat="48.74946" lon="2.53644">
        <ele>99</ele>
        <time>2021-02-17T10:11:35.208Z</time>
      </trkpt>
      <trkpt lat="48.74944" lon="2.53651">
        <ele>99</ele>
        <time>2021-02-17T10:11:39.208Z</time>
      </trkpt>
      <trkpt lat="48.74942" lon="2.53659">
        <ele>100</ele>
        <time>2021-02-17T10:11:44.200Z</time>
      </trkpt>
      <trkpt lat="48.7494" lon="2.53669">
        <ele>100</ele>
        <time>2021-02-17T10:11:49.221Z</time>
      </trkpt>
      <trkpt lat="48.74937" lon="2.53676">
        <ele>100</ele>
        <time>2021-02-17T10:11:54.212Z</time>
      </trkpt>
      <trkpt lat="48.74933" lon="2.53684">
        <ele>100</ele>
        <time>2021-02-17T10:11:59.227Z</time>
      </trkpt>
      <trkpt lat="48.74932" lon="2.5369">
        <ele>100</ele>
        <time>2021-02-17T10:12:04.217Z</time>
      </trkpt>
      <trkpt lat="48.74929" lon="2.53697">
        <ele>101</ele>
        <time>2021-02-17T10:12:09.223Z</time>
      </trkpt>
      <trkpt lat="48.74927" lon="2.53701">
        <ele>101</ele>
        <time>2021-02-17T10:12:13.221Z</time>
      </trkpt>
      <trkpt lat="48.74924" lon="2.5371">
        <ele>101</ele>
        <time>2021-02-17T10:12:18.222Z</time>
      </trkpt>
      <trkpt lat="48.7492" lon="2.5372">
        <ele>101</ele>
        <time>2021-02-17T10:12:23.217Z</time>
      </trkpt>
      <trkpt lat="48.74917" lon="2.53727">
        <ele>101</ele>
        <time>2021-02-17T10:12:27.213Z</time>
      </trkpt>
      <trkpt lat="48.74914" lon="2.53735">
        <ele>101</ele>
        <time>2021-02-17T10:12:32.206Z</time>
      </trkpt>
      <trkpt lat="48.74911" lon="2.53742">
        <ele>100</ele>
        <time>2021-02-17T10:12:37.217Z</time>
      </trkpt>
      <trkpt lat="48.74907" lon="2.5375">
        <ele>100</ele>
        <time>2021-02-17T10:12:42.206Z</time>
      </trkpt>
      <trkpt lat="48.74902" lon="2.5376">
        <ele>101</ele>
        <time>2021-02-17T10:12:47.224Z</time>
      </trkpt>
      <trkpt lat="48.74899" lon="2.53771">
        <ele>100</ele>
        <time>2021-02-17T10:12:52.213Z</time>
      </trkpt>
      <trkpt lat="48.74897" lon="2.53782">
        <ele>100</ele>
        <time>2021-02-17T10:12:57.220Z</time>
      </trkpt>
      <trkpt lat="48.74894" lon="2.53791">
        <ele>100</ele>
        <time>2021-02-17T10:13:01.217Z</time>
      </trkpt>
      <trkpt lat="48.7489" lon="2.53801">
        <ele>100</ele>
        <time>2021-02-17T10:13:06.213Z</time>
      </trkpt>
      <trkpt lat="48.74888" lon="2.53811">
        <ele>100</ele>
        <time>2021-02-17T10:13:11.212Z</time>
      </trkpt>
      <trkpt lat="48.74886" lon="2.5382">
        <ele>100</ele>
        <time>2021-02-17T10:13:16.216Z</time>
      </trkpt>
      <trkpt lat="48.74884" lon="2.53828">
        <ele>100</ele>
        <time>2021-02-17T10:13:20.214Z</time>
      </trkpt>
      <trkpt lat="48.74881" lon="2.53837">
        <ele>100</ele>
        <time>2021-02-17T10:13:25.209Z</time>
      </trkpt>
      <trkpt lat="48.74879" lon="2.53847">
        <ele>100</ele>
        <time>2021-02-17T10:13:30.219Z</time>
      </trkpt>
      <trkpt lat="48.74879" lon="2.53857">
        <ele>100</ele>
        <time>2021-02-17T10:13:35.217Z</time>
      </trkpt>
      <trkpt lat="48.7488" lon="2.53866">
        <ele>100</ele>
        <time>2021-02-17T10:13:40.217Z</time>
      </trkpt>
      <trkpt lat="48.74884" lon="2.53877">
        <ele>100</ele>
        <time>2021-02-17T10:13:45.225Z</time>
      </trkpt>
      <trkpt lat="48.74888" lon="2.53889">
        <ele>100</ele>
        <time>2021-02-17T10:13:50.208Z</time>
      </trkpt>
      <trkpt lat="48.74892" lon="2.53898">
        <ele>100</ele>
        <time>2021-02-17T10:13:55.204Z</time>
      </trkpt>
      <trkpt lat="48.74895" lon="2.53904">
        <ele>100</ele>
        <time>2021-02-17T10:13:59.206Z</time>
      </trkpt>
      <trkpt lat="48.74899" lon="2.53911">
        <ele>100</ele>
        <time>2021-02-17T10:14:04.193Z</time>
      </trkpt>
      <trkpt lat="48.74902" lon="2.53918">
        <ele>100</ele>
        <time>2021-02-17T10:14:08.210Z</time>
      </trkpt>
      <trkpt lat="48.74904" lon="2.53923">
        <ele>97</ele>
        <time>2021-02-17T10:14:12.211Z</time>
      </trkpt>
      <trkpt lat="48.74907" lon="2.53932">
        <ele>98</ele>
        <time>2021-02-17T10:14:17.209Z</time>
      </trkpt>
      <trkpt lat="48.74909" lon="2.5394">
        <ele>98</ele>
        <time>2021-02-17T10:14:21.218Z</time>
      </trkpt>
      <trkpt lat="48.74909" lon="2.53951">
        <ele>98</ele>
        <time>2021-02-17T10:14:26.210Z</time>
      </trkpt>
      <trkpt lat="48.74909" lon="2.5396">
        <ele>98</ele>
        <time>2021-02-17T10:14:31.218Z</time>
      </trkpt>
      <trkpt lat="48.7491" lon="2.53968">
        <ele>98</ele>
        <time>2021-02-17T10:14:35.214Z</time>
      </trkpt>
      <trkpt lat="48.74912" lon="2.53977">
        <ele>98</ele>
        <time>2021-02-17T10:14:40.205Z</time>
      </trkpt>
      <trkpt lat="48.74915" lon="2.53983">
        <ele>98</ele>
        <time>2021-02-17T10:14:44.210Z</time>
      </trkpt>
      <trkpt lat="48.74919" lon="2.53988">
        <ele>99</ele>
        <time>2021-02-17T10:14:49.211Z</time>
      </trkpt>
      <trkpt lat="48.74924" lon="2.53992">
        <ele>99</ele>
        <time>2021-02-17T10:14:54.216Z</time>
      </trkpt>
      <trkpt lat="48.74929" lon="2.53997">
        <ele>99</ele>
        <time>2021-02-17T10:14:59.219Z</time>
      </trkpt>
      <trkpt lat="48.74934" lon="2.54002">
        <ele>99</ele>
        <time>2021-02-17T10:15:04.207Z</time>
      </trkpt>
      <trkpt lat="48.74939" lon="2.54005">
        <ele>99</ele>
        <time>2021-02-17T10:15:08.229Z</time>
      </trkpt>
      <trkpt lat="48.74946" lon="2.54008">
        <ele>99</ele>
        <time>2021-02-17T10:15:13.211Z</time>
      </trkpt>
      <trkpt lat="48.74951" lon="2.54012">
        <ele>99</ele>
        <time>2021-02-17T10:15:17.211Z</time>
      </trkpt>
      <trkpt lat="48.74956" lon="2.54016">
        <ele>99</ele>
        <time>2021-02-17T10:15:22.209Z</time>
      </trkpt>
      <trkpt lat="48.74961" lon="2.54018">
        <ele>99</ele>
        <time>2021-02-17T10:15:27.213Z</time>
      </trkpt>
      <trkpt lat="48.74966" lon="2.54022">
        <ele>99</ele>
        <time>2021-02-17T10:15:31.224Z</time>
      </trkpt>
      <trkpt lat="48.7497" lon="2.54026">
        <ele>99</ele>
        <time>2021-02-17T10:15:36.217Z</time>
      </trkpt>
      <trkpt lat="48.7497" lon="2.54031">
        <ele>99</ele>
        <time>2021-02-17T10:15:40.207Z</time>
      </trkpt>
      <trkpt lat="48.74969" lon="2.54041">
        <ele>99</ele>
        <time>2021-02-17T10:15:45.209Z</time>
      </trkpt>
      <trkpt lat="48.74968" lon="2.54051">
        <ele>99</ele>
        <time>2021-02-17T10:15:50.212Z</time>
      </trkpt>
      <trkpt lat="48.74965" lon="2.54057">
        <ele>99</ele>
        <time>2021-02-17T10:15:54.219Z</time>
      </trkpt>
      <trkpt lat="48.74964" lon="2.54066">
        <ele>99</ele>
        <time>2021-02-17T10:15:59.212Z</time>
      </trkpt>
      <trkpt lat="48.74962" lon="2.54076">
        <ele>99</ele>
        <time>2021-02-17T10:16:04.212Z</time>
      </trkpt>
      <trkpt lat="48.7496" lon="2.54081">
        <ele>99</ele>
        <time>2021-02-17T10:16:08.219Z</time>
      </trkpt>
      <trkpt lat="48.74958" lon="2.5409">
        <ele>99</ele>
        <time>2021-02-17T10:16:13.224Z</time>
      </trkpt>
      <trkpt lat="48.74956" lon="2.54097">
        <ele>99</ele>
        <time>2021-02-17T10:16:18.204Z</time>
      </trkpt>
      <trkpt lat="48.74954" lon="2.54106">
        <ele>100</ele>
        <time>2021-02-17T10:16:23.211Z</time>
      </trkpt>
      <trkpt lat="48.74953" lon="2.54116">
        <ele>100</ele>
        <time>2021-02-17T10:16:28.209Z</time>
      </trkpt>
      <trkpt lat="48.74952" lon="2.54125">
        <ele>100</ele>
        <time>2021-02-17T10:16:33.220Z</time>
      </trkpt>
      <trkpt lat="48.7495" lon="2.54134">
        <ele>100</ele>
        <time>2021-02-17T10:16:38.206Z</time>
      </trkpt>
      <trkpt lat="48.74949" lon="2.54141">
        <ele>100</ele>
        <time>2021-02-17T10:16:42.210Z</time>
      </trkpt>
      <trkpt lat="48.74946" lon="2.54151">
        <ele>100</ele>
        <time>2021-02-17T10:16:47.202Z</time>
      </trkpt>
      <trkpt lat="48.74945" lon="2.5416">
        <ele>100</ele>
        <time>2021-02-17T10:16:51.213Z</time>
      </trkpt>
      <trkpt lat="48.74943" lon="2.54168">
        <ele>100</ele>
        <time>2021-02-17T10:16:56.217Z</time>
      </trkpt>
      <trkpt lat="48.74941" lon="2.54176">
        <ele>100</ele>
        <time>2021-02-17T10:17:01.212Z</time>
      </trkpt>
      <trkpt lat="48.74939" lon="2.54186">
        <ele>101</ele>
        <time>2021-02-17T10:17:06.213Z</time>
      </trkpt>
      <trkpt lat="48.74938" lon="2.54195">
        <ele>101</ele>
        <time>2021-02-17T10:17:11.212Z</time>
      </trkpt>
      <trkpt lat="48.74935" lon="2.54203">
        <ele>101</ele>
        <time>2021-02-17T10:17:16.212Z</time>
      </trkpt>
      <trkpt lat="48.74934" lon="2.54211">
        <ele>101</ele>
        <time>2021-02-17T10:17:20.216Z</time>
      </trkpt>
      <trkpt lat="48.74934" lon="2.54219">
        <ele>101</ele>
        <time>2021-02-17T10:17:25.208Z</time>
      </trkpt>
      <trkpt lat="48.74934" lon="2.54228">
        <ele>101</ele>
        <time>2021-02-17T10:17:30.210Z</time>
      </trkpt>
      <trkpt lat="48.74931" lon="2.54237">
        <ele>101</ele>
        <time>2021-02-17T10:17:35.212Z</time>
      </trkpt>
      <trkpt lat="48.74929" lon="2.54243">
        <ele>101</ele>
        <time>2021-02-17T10:17:39.218Z</time>
      </trkpt>
      <trkpt lat="48.74928" lon="2.54251">
        <ele>101</ele>
        <time>2021-02-17T10:17:44.201Z</time>
      </trkpt>
      <trkpt lat="48.74926" lon="2.5426">
        <ele>101</ele>
        <time>2021-02-17T10:17:49.211Z</time>
      </trkpt>
      <trkpt lat="48.74924" lon="2.54268">
        <ele>101</ele>
        <time>2021-02-17T10:17:54.215Z</time>
      </trkpt>
      <trkpt lat="48.74923" lon="2.54276">
        <ele>101</ele>
        <time>2021-02-17T10:17:59.215Z</time>
      </trkpt>
      <trkpt lat="48.74922" lon="2.54285">
        <ele>101</ele>
        <time>2021-02-17T10:18:04.199Z</time>
      </trkpt>
      <trkpt lat="48.7492" lon="2.54294">
        <ele>101</ele>
        <time>2021-02-17T10:18:09.214Z</time>
      </trkpt>
      <trkpt lat="48.74918" lon="2.54301">
        <ele>101</ele>
        <time>2021-02-17T10:18:14.214Z</time>
      </trkpt>
      <trkpt lat="48.74916" lon="2.54309">
        <ele>101</ele>
        <time>2021-02-17T10:18:19.206Z</time>
      </trkpt>
      <trkpt lat="48.74915" lon="2.54315">
        <ele>101</ele>
        <time>2021-02-17T10:18:23.202Z</time>
      </trkpt>
      <trkpt lat="48.74913" lon="2.54327">
        <ele>101</ele>
        <time>2021-02-17T10:18:28.204Z</time>
      </trkpt>
      <trkpt lat="48.7491" lon="2.54336">
        <ele>101</ele>
        <time>2021-02-17T10:18:33.210Z</time>
      </trkpt>
      <trkpt lat="48.74908" lon="2.54345">
        <ele>101</ele>
        <time>2021-02-17T10:18:38.208Z</time>
      </trkpt>
      <trkpt lat="48.74906" lon="2.54355">
        <ele>101</ele>
        <time>2021-02-17T10:18:43.210Z</time>
      </trkpt>
      <trkpt lat="48.74905" lon="2.54364">
        <ele>101</ele>
        <time>2021-02-17T10:18:48.202Z</time>
      </trkpt>
      <trkpt lat="48.74904" lon="2.54371">
        <ele>101</ele>
        <time>2021-02-17T10:18:52.201Z</time>
      </trkpt>
      <trkpt lat="48.749" lon="2.5438">
        <ele>100</ele>
        <time>2021-02-17T10:18:57.207Z</time>
      </trkpt>
      <trkpt lat="48.74898" lon="2.5439">
        <ele>100</ele>
        <time>2021-02-17T10:19:02.216Z</time>
      </trkpt>
      <trkpt lat="48.74896" lon="2.54397">
        <ele>100</ele>
        <time>2021-02-17T10:19:07.222Z</time>
      </trkpt>
      <trkpt lat="48.74894" lon="2.54405">
        <ele>100</ele>
        <time>2021-02-17T10:19:12.205Z</time>
      </trkpt>
      <trkpt lat="48.74891" lon="2.54414">
        <ele>100</ele>
        <time>2021-02-17T10:19:17.213Z</time>
      </trkpt>
      <trkpt lat="48.74891" lon="2.54422">
        <ele>100</ele>
        <time>2021-02-17T10:19:22.214Z</time>
      </trkpt>
      <trkpt lat="48.74891" lon="2.54429">
        <ele>100</ele>
        <time>2021-02-17T10:19:27.225Z</time>
      </trkpt>
      <trkpt lat="48.7489" lon="2.54437">
        <ele>101</ele>
        <time>2021-02-17T10:19:32.206Z</time>
      </trkpt>
      <trkpt lat="48.74887" lon="2.54443">
        <ele>101</ele>
        <time>2021-02-17T10:19:36.222Z</time>
      </trkpt>
      <trkpt lat="48.74887" lon="2.54448">
        <ele>101</ele>
        <time>2021-02-17T10:19:41.207Z</time>
      </trkpt>
      <trkpt lat="48.74886" lon="2.54455">
        <ele>101</ele>
        <time>2021-02-17T10:19:46.233Z</time>
      </trkpt>
      <trkpt lat="48.74885" lon="2.5446">
        <ele>101</ele>
        <time>2021-02-17T10:19:51.213Z</time>
      </trkpt>
      <trkpt lat="48.74884" lon="2.54466">
        <ele>101</ele>
        <time>2021-02-17T10:19:55.220Z</time>
      </trkpt>
      <trkpt lat="48.74882" lon="2.54475">
        <ele>101</ele>
        <time>2021-02-17T10:20:00.201Z</time>
      </trkpt>
      <trkpt lat="48.7488" lon="2.54485">
        <ele>101</ele>
        <time>2021-02-17T10:20:05.181Z</time>
      </trkpt>
      <trkpt lat="48.74879" lon="2.54493">
        <ele>102</ele>
        <time>2021-02-17T10:20:09.202Z</time>
      </trkpt>
      <trkpt lat="48.74877" lon="2.54503">
        <ele>102</ele>
        <time>2021-02-17T10:20:14.217Z</time>
      </trkpt>
      <trkpt lat="48.74875" lon="2.54513">
        <ele>101</ele>
        <time>2021-02-17T10:20:19.219Z</time>
      </trkpt>
      <trkpt lat="48.74872" lon="2.54521">
        <ele>102</ele>
        <time>2021-02-17T10:20:23.211Z</time>
      </trkpt>
      <trkpt lat="48.74871" lon="2.54534">
        <ele>102</ele>
        <time>2021-02-17T10:20:28.225Z</time>
      </trkpt>
      <trkpt lat="48.74868" lon="2.54541">
        <ele>102</ele>
        <time>2021-02-17T10:20:32.209Z</time>
      </trkpt>
      <trkpt lat="48.74866" lon="2.5455">
        <ele>102</ele>
        <time>2021-02-17T10:20:37.203Z</time>
      </trkpt>
      <trkpt lat="48.74865" lon="2.54558">
        <ele>102</ele>
        <time>2021-02-17T10:20:42.201Z</time>
      </trkpt>
      <trkpt lat="48.74864" lon="2.54565">
        <ele>102</ele>
        <time>2021-02-17T10:20:47.202Z</time>
      </trkpt>
      <trkpt lat="48.74862" lon="2.54571">
        <ele>102</ele>
        <time>2021-02-17T10:20:51.216Z</time>
      </trkpt>
      <trkpt lat="48.74859" lon="2.54579">
        <ele>102</ele>
        <time>2021-02-17T10:20:56.200Z</time>
      </trkpt>
      <trkpt lat="48.74858" lon="2.54589">
        <ele>102</ele>
        <time>2021-02-17T10:21:01.204Z</time>
      </trkpt>
      <trkpt lat="48.74855" lon="2.54599">
        <ele>102</ele>
        <time>2021-02-17T10:21:05.213Z</time>
      </trkpt>
      <trkpt lat="48.74853" lon="2.54606">
        <ele>102</ele>
        <time>2021-02-17T10:21:10.203Z</time>
      </trkpt>
      <trkpt lat="48.74852" lon="2.54614">
        <ele>102</ele>
        <time>2021-02-17T10:21:15.207Z</time>
      </trkpt>
      <trkpt lat="48.74849" lon="2.54624">
        <ele>102</ele>
        <time>2021-02-17T10:21:20.209Z</time>
      </trkpt>
      <trkpt lat="48.74847" lon="2.54635">
        <ele>99</ele>
        <time>2021-02-17T10:21:25.208Z</time>
      </trkpt>
      <trkpt lat="48.74845" lon="2.54643">
        <ele>99</ele>
        <time>2021-02-17T10:21:29.201Z</time>
      </trkpt>
      <trkpt lat="48.74842" lon="2.54652">
        <ele>99</ele>
        <time>2021-02-17T10:21:34.206Z</time>
      </trkpt>
      <trkpt lat="48.74839" lon="2.54662">
        <ele>98</ele>
        <time>2021-02-17T10:21:39.199Z</time>
      </trkpt>
      <trkpt lat="48.74837" lon="2.54676">
        <ele>98</ele>
        <time>2021-02-17T10:21:43.230Z</time>
      </trkpt>
      <trkpt lat="48.74834" lon="2.54691">
        <ele>98</ele>
        <time>2021-02-17T10:21:48.193Z</time>
      </trkpt>
      <trkpt lat="48.74833" lon="2.54704">
        <ele>98</ele>
        <time>2021-02-17T10:21:53.185Z</time>
      </trkpt>
      <trkpt lat="48.74833" lon="2.54717">
        <ele>98</ele>
        <time>2021-02-17T10:21:58.199Z</time>
      </trkpt>
      <trkpt lat="48.74831" lon="2.54726">
        <ele>98</ele>
        <time>2021-02-17T10:22:02.195Z</time>
      </trkpt>
      <trkpt lat="48.74829" lon="2.54736">
        <ele>98</ele>
        <time>2021-02-17T10:22:07.200Z</time>
      </trkpt>
      <trkpt lat="48.74827" lon="2.54745">
        <ele>97</ele>
        <time>2021-02-17T10:22:12.206Z</time>
      </trkpt>
      <trkpt lat="48.74825" lon="2.54753">
        <ele>97</ele>
        <time>2021-02-17T10:22:17.209Z</time>
      </trkpt>
      <trkpt lat="48.74824" lon="2.54765">
        <ele>96</ele>
        <time>2021-02-17T10:22:22.200Z</time>
      </trkpt>
      <trkpt lat="48.74821" lon="2.54776">
        <ele>96</ele>
        <time>2021-02-17T10:22:27.191Z</time>
      </trkpt>
      <trkpt lat="48.74819" lon="2.54786">
        <ele>97</ele>
        <time>2021-02-17T10:22:32.201Z</time>
      </trkpt>
      <trkpt lat="48.74819" lon="2.54792">
        <ele>97</ele>
        <time>2021-02-17T10:22:36.186Z</time>
      </trkpt>
      <trkpt lat="48.74818" lon="2.54801">
        <ele>97</ele>
        <time>2021-02-17T10:22:41.222Z</time>
      </trkpt>
      <trkpt lat="48.74815" lon="2.5481">
        <ele>97</ele>
        <time>2021-02-17T10:22:46.209Z</time>
      </trkpt>
      <trkpt lat="48.74813" lon="2.54819">
        <ele>97</ele>
        <time>2021-02-17T10:22:51.199Z</time>
      </trkpt>
      <trkpt lat="48.74812" lon="2.54829">
        <ele>97</ele>
        <time>2021-02-17T10:22:56.214Z</time>
      </trkpt>
      <trkpt lat="48.74811" lon="2.54837">
        <ele>97</ele>
        <time>2021-02-17T10:23:00.210Z</time>
      </trkpt>
      <trkpt lat="48.74809" lon="2.54844">
        <ele>97</ele>
        <time>2021-02-17T10:23:04.220Z</time>
      </trkpt>
      <trkpt lat="48.74808" lon="2.5485">
        <ele>98</ele>
        <time>2021-02-17T10:23:09.193Z</time>
      </trkpt>
      <trkpt lat="48.74806" lon="2.54856">
        <ele>98</ele>
        <time>2021-02-17T10:23:14.183Z</time>
      </trkpt>
      <trkpt lat="48.74803" lon="2.54863">
        <ele>98</ele>
        <time>2021-02-17T10:23:18.211Z</time>
      </trkpt>
      <trkpt lat="48.74803" lon="2.5487">
        <ele>98</ele>
        <time>2021-02-17T10:23:23.211Z</time>
      </trkpt>
      <trkpt lat="48.748" lon="2.54878">
        <ele>99</ele>
        <time>2021-02-17T10:23:28.202Z</time>
      </trkpt>
      <trkpt lat="48.74798" lon="2.54885">
        <ele>99</ele>
        <time>2021-02-17T10:23:32.196Z</time>
      </trkpt>
      <trkpt lat="48.74796" lon="2.54894">
        <ele>99</ele>
        <time>2021-02-17T10:23:37.207Z</time>
      </trkpt>
      <trkpt lat="48.74795" lon="2.549">
        <ele>99</ele>
        <time>2021-02-17T10:23:42.211Z</time>
      </trkpt>
      <trkpt lat="48.74793" lon="2.5491">
        <ele>100</ele>
        <time>2021-02-17T10:23:47.208Z</time>
      </trkpt>
      <trkpt lat="48.74791" lon="2.54919">
        <ele>99</ele>
        <time>2021-02-17T10:23:52.200Z</time>
      </trkpt>
      <trkpt lat="48.74789" lon="2.54925">
        <ele>99</ele>
        <time>2021-02-17T10:23:56.199Z</time>
      </trkpt>
      <trkpt lat="48.74787" lon="2.54936">
        <ele>99</ele>
        <time>2021-02-17T10:24:01.220Z</time>
      </trkpt>
      <trkpt lat="48.74784" lon="2.54944">
        <ele>99</ele>
        <time>2021-02-17T10:24:06.209Z</time>
      </trkpt>
      <trkpt lat="48.74782" lon="2.54954">
        <ele>99</ele>
        <time>2021-02-17T10:24:11.214Z</time>
      </trkpt>
      <trkpt lat="48.7478" lon="2.54965">
        <ele>99</ele>
        <time>2021-02-17T10:24:16.199Z</time>
      </trkpt>
      <trkpt lat="48.74778" lon="2.54974">
        <ele>99</ele>
        <time>2021-02-17T10:24:20.233Z</time>
      </trkpt>
      <trkpt lat="48.74777" lon="2.54983">
        <ele>99</ele>
        <time>2021-02-17T10:24:25.191Z</time>
      </trkpt>
      <trkpt lat="48.74776" lon="2.54985">
        <ele>99</ele>
        <time>2021-02-17T10:24:29.212Z</time>
      </trkpt>
      <trkpt lat="48.74774" lon="2.54994">
        <ele>99</ele>
        <time>2021-02-17T10:24:34.210Z</time>
      </trkpt>
      <trkpt lat="48.74772" lon="2.55004">
        <ele>99</ele>
        <time>2021-02-17T10:24:39.198Z</time>
      </trkpt>
      <trkpt lat="48.7477" lon="2.55015">
        <ele>100</ele>
        <time>2021-02-17T10:24:44.211Z</time>
      </trkpt>
      <trkpt lat="48.74767" lon="2.55023">
        <ele>100</ele>
        <time>2021-02-17T10:24:48.213Z</time>
      </trkpt>
      <trkpt lat="48.74765" lon="2.55032">
        <ele>100</ele>
        <time>2021-02-17T10:24:53.201Z</time>
      </trkpt>
      <trkpt lat="48.74762" lon="2.55039">
        <ele>99</ele>
        <time>2021-02-17T10:24:57.197Z</time>
      </trkpt>
      <trkpt lat="48.7476" lon="2.55047">
        <ele>99</ele>
        <time>2021-02-17T10:25:02.201Z</time>
      </trkpt>
      <trkpt lat="48.74759" lon="2.55058">
        <ele>99</ele>
        <time>2021-02-17T10:25:07.216Z</time>
      </trkpt>
      <trkpt lat="48.74757" lon="2.55067">
        <ele>99</ele>
        <time>2021-02-17T10:25:12.209Z</time>
      </trkpt>
      <trkpt lat="48.74755" lon="2.55074">
        <ele>99</ele>
        <time>2021-02-17T10:25:16.211Z</time>
      </trkpt>
      <trkpt lat="48.74753" lon="2.55083">
        <ele>99</ele>
        <time>2021-02-17T10:25:21.202Z</time>
      </trkpt>
      <trkpt lat="48.74752" lon="2.55092">
        <ele>99</ele>
        <time>2021-02-17T10:25:26.205Z</time>
      </trkpt>
      <trkpt lat="48.74751" lon="2.55101">
        <ele>99</ele>
        <time>2021-02-17T10:25:31.216Z</time>
      </trkpt>
      <trkpt lat="48.74749" lon="2.55109">
        <ele>99</ele>
        <time>2021-02-17T10:25:35.209Z</time>
      </trkpt>
      <trkpt lat="48.74748" lon="2.55119">
        <ele>99</ele>
        <time>2021-02-17T10:25:40.193Z</time>
      </trkpt>
      <trkpt lat="48.74747" lon="2.55127">
        <ele>99</ele>
        <time>2021-02-17T10:25:44.199Z</time>
      </trkpt>
      <trkpt lat="48.74744" lon="2.55137">
        <ele>99</ele>
        <time>2021-02-17T10:25:49.199Z</time>
      </trkpt>
      <trkpt lat="48.74742" lon="2.55146">
        <ele>99</ele>
        <time>2021-02-17T10:25:54.210Z</time>
      </trkpt>
      <trkpt lat="48.7474" lon="2.55154">
        <ele>101</ele>
        <time>2021-02-17T10:25:59.213Z</time>
      </trkpt>
      <trkpt lat="48.74738" lon="2.55164">
        <ele>101</ele>
        <time>2021-02-17T10:26:04.196Z</time>
      </trkpt>
      <trkpt lat="48.74734" lon="2.55174">
        <ele>100</ele>
        <time>2021-02-17T10:26:09.199Z</time>
      </trkpt>
      <trkpt lat="48.74731" lon="2.55181">
        <ele>102</ele>
        <time>2021-02-17T10:26:14.202Z</time>
      </trkpt>
      <trkpt lat="48.74731" lon="2.55191">
        <ele>102</ele>
        <time>2021-02-17T10:26:19.184Z</time>
      </trkpt>
      <trkpt lat="48.74728" lon="2.55198">
        <ele>102</ele>
        <time>2021-02-17T10:26:23.174Z</time>
      </trkpt>
      <trkpt lat="48.74726" lon="2.55206">
        <ele>102</ele>
        <time>2021-02-17T10:26:28.189Z</time>
      </trkpt>
      <trkpt lat="48.74724" lon="2.55217">
        <ele>104</ele>
        <time>2021-02-17T10:26:33.201Z</time>
      </trkpt>
      <trkpt lat="48.74723" lon="2.55225">
        <ele>104</ele>
        <time>2021-02-17T10:26:37.197Z</time>
      </trkpt>
      <trkpt lat="48.74719" lon="2.55234">
        <ele>104</ele>
        <time>2021-02-17T10:26:42.195Z</time>
      </trkpt>
      <trkpt lat="48.74718" lon="2.55241">
        <ele>105</ele>
        <time>2021-02-17T10:26:46.204Z</time>
      </trkpt>
      <trkpt lat="48.74716" lon="2.55249">
        <ele>105</ele>
        <time>2021-02-17T10:26:51.195Z</time>
      </trkpt>
      <trkpt lat="48.74714" lon="2.55257">
        <ele>105</ele>
        <time>2021-02-17T10:26:56.201Z</time>
      </trkpt>
      <trkpt lat="48.74712" lon="2.55266">
        <ele>105</ele>
        <time>2021-02-17T10:27:01.194Z</time>
      </trkpt>
      <trkpt lat="48.7471" lon="2.55275">
        <ele>105</ele>
        <time>2021-02-17T10:27:06.193Z</time>
      </trkpt>
      <trkpt lat="48.74708" lon="2.55285">
        <ele>102</ele>
        <time>2021-02-17T10:27:11.203Z</time>
      </trkpt>
      <trkpt lat="48.74707" lon="2.55294">
        <ele>103</ele>
        <time>2021-02-17T10:27:15.208Z</time>
      </trkpt>
      <trkpt lat="48.74706" lon="2.55304">
        <ele>103</ele>
        <time>2021-02-17T10:27:20.208Z</time>
      </trkpt>
      <trkpt lat="48.74705" lon="2.55313">
        <ele>103</ele>
        <time>2021-02-17T10:27:25.205Z</time>
      </trkpt>
      <trkpt lat="48.74703" lon="2.55324">
        <ele>102</ele>
        <time>2021-02-17T10:27:30.201Z</time>
      </trkpt>
      <trkpt lat="48.74702" lon="2.55333">
        <ele>102</ele>
        <time>2021-02-17T10:27:35.194Z</time>
      </trkpt>
      <trkpt lat="48.74701" lon="2.55339">
        <ele>102</ele>
        <time>2021-02-17T10:27:40.197Z</time>
      </trkpt>
      <trkpt lat="48.747" lon="2.55346">
        <ele>102</ele>
        <time>2021-02-17T10:27:44.198Z</time>
      </trkpt>
      <trkpt lat="48.74698" lon="2.55357">
        <ele>100</ele>
        <time>2021-02-17T10:27:49.209Z</time>
      </trkpt>
      <trkpt lat="48.74695" lon="2.55368">
        <ele>100</ele>
        <time>2021-02-17T10:27:54.202Z</time>
      </trkpt>
      <trkpt lat="48.74693" lon="2.55376">
        <ele>99</ele>
        <time>2021-02-17T10:27:58.204Z</time>
      </trkpt>
      <trkpt lat="48.7469" lon="2.55386">
        <ele>99</ele>
        <time>2021-02-17T10:28:03.193Z</time>
      </trkpt>
      <trkpt lat="48.74688" lon="2.55395">
        <ele>99</ele>
        <time>2021-02-17T10:28:07.206Z</time>
      </trkpt>
      <trkpt lat="48.74685" lon="2.55407">
        <ele>97</ele>
        <time>2021-02-17T10:28:12.199Z</time>
      </trkpt>
      <trkpt lat="48.74682" lon="2.55416">
        <ele>97</ele>
        <time>2021-02-17T10:28:17.195Z</time>
      </trkpt>
      <trkpt lat="48.74681" lon="2.55425">
        <ele>97</ele>
        <time>2021-02-17T10:28:21.194Z</time>
      </trkpt>
      <trkpt lat="48.7468" lon="2.55432">
        <ele>95</ele>
        <time>2021-02-17T10:28:26.204Z</time>
      </trkpt>
      <trkpt lat="48.74678" lon="2.55442">
        <ele>95</ele>
        <time>2021-02-17T10:28:31.204Z</time>
      </trkpt>
      <trkpt lat="48.74679" lon="2.5545">
        <ele>95</ele>
        <time>2021-02-17T10:28:36.204Z</time>
      </trkpt>
      <trkpt lat="48.74676" lon="2.55457">
        <ele>95</ele>
        <time>2021-02-17T10:28:40.203Z</time>
      </trkpt>
      <trkpt lat="48.74674" lon="2.55463">
        <ele>96</ele>
        <time>2021-02-17T10:28:45.203Z</time>
      </trkpt>
      <trkpt lat="48.74672" lon="2.55468">
        <ele>96</ele>
        <time>2021-02-17T10:28:50.207Z</time>
      </trkpt>
      <trkpt lat="48.7467" lon="2.55476">
        <ele>96</ele>
        <time>2021-02-17T10:28:55.199Z</time>
      </trkpt>
      <trkpt lat="48.74667" lon="2.55482">
        <ele>96</ele>
        <time>2021-02-17T10:28:59.195Z</time>
      </trkpt>
      <trkpt lat="48.74666" lon="2.5549">
        <ele>98</ele>
        <time>2021-02-17T10:29:04.194Z</time>
      </trkpt>
      <trkpt lat="48.74664" lon="2.55498">
        <ele>98</ele>
        <time>2021-02-17T10:29:08.197Z</time>
      </trkpt>
      <trkpt lat="48.74664" lon="2.555">
        <ele>98</ele>
        <time>2021-02-17T10:29:12.195Z</time>
      </trkpt>
      <trkpt lat="48.74663" lon="2.55507">
        <ele>98</ele>
        <time>2021-02-17T10:29:17.192Z</time>
      </trkpt>
      <trkpt lat="48.74661" lon="2.55512">
        <ele>98</ele>
        <time>2021-02-17T10:29:21.196Z</time>
      </trkpt>
      <trkpt lat="48.74659" lon="2.5552">
        <ele>100</ele>
        <time>2021-02-17T10:29:26.205Z</time>
      </trkpt>
      <trkpt lat="48.74658" lon="2.55527">
        <ele>100</ele>
        <time>2021-02-17T10:29:31.184Z</time>
      </trkpt>
      <trkpt lat="48.74656" lon="2.55535">
        <ele>100</ele>
        <time>2021-02-17T10:29:35.207Z</time>
      </trkpt>
      <trkpt lat="48.74655" lon="2.55544">
        <ele>100</ele>
        <time>2021-02-17T10:29:39.227Z</time>
      </trkpt>
      <trkpt lat="48.74651" lon="2.55558">
        <ele>98</ele>
        <time>2021-02-17T10:29:44.212Z</time>
      </trkpt>
      <trkpt lat="48.74648" lon="2.5557">
        <ele>99</ele>
        <time>2021-02-17T10:29:49.217Z</time>
      </trkpt>
      <trkpt lat="48.74645" lon="2.55585">
        <ele>99</ele>
        <time>2021-02-17T10:29:54.221Z</time>
      </trkpt>
      <trkpt lat="48.74643" lon="2.55601">
        <ele>98</ele>
        <time>2021-02-17T10:29:59.174Z</time>
      </trkpt>
      <trkpt lat="48.74641" lon="2.55619">
        <ele>98</ele>
        <time>2021-02-17T10:30:04.187Z</time>
      </trkpt>
      <trkpt lat="48.74639" lon="2.55633">
        <ele>98</ele>
        <time>2021-02-17T10:30:09.206Z</time>
      </trkpt>
      <trkpt lat="48.74638" lon="2.55646">
        <ele>98</ele>
        <time>2021-02-17T10:30:14.198Z</time>
      </trkpt>
      <trkpt lat="48.74636" lon="2.55654">
        <ele>98</ele>
        <time>2021-02-17T10:30:18.204Z</time>
      </trkpt>
      <trkpt lat="48.74634" lon="2.55664">
        <ele>98</ele>
        <time>2021-02-17T10:30:23.193Z</time>
      </trkpt>
      <trkpt lat="48.74631" lon="2.55673">
        <ele>98</ele>
        <time>2021-02-17T10:30:28.198Z</time>
      </trkpt>
      <trkpt lat="48.74631" lon="2.55683">
        <ele>99</ele>
        <time>2021-02-17T10:30:33.202Z</time>
      </trkpt>
      <trkpt lat="48.7463" lon="2.55689">
        <ele>99</ele>
        <time>2021-02-17T10:30:37.202Z</time>
      </trkpt>
      <trkpt lat="48.74627" lon="2.55696">
        <ele>99</ele>
        <time>2021-02-17T10:30:41.217Z</time>
      </trkpt>
      <trkpt lat="48.74625" lon="2.55702">
        <ele>98</ele>
        <time>2021-02-17T10:30:46.210Z</time>
      </trkpt>
      <trkpt lat="48.74625" lon="2.55709">
        <ele>98</ele>
        <time>2021-02-17T10:30:51.212Z</time>
      </trkpt>
      <trkpt lat="48.74629" lon="2.55712">
        <ele>99</ele>
        <time>2021-02-17T10:30:55.223Z</time>
      </trkpt>
      <trkpt lat="48.74633" lon="2.55715">
        <ele>99</ele>
        <time>2021-02-17T10:31:00.205Z</time>
      </trkpt>
      <trkpt lat="48.74637" lon="2.5572">
        <ele>99</ele>
        <time>2021-02-17T10:31:04.215Z</time>
      </trkpt>
      <trkpt lat="48.7464" lon="2.55729">
        <ele>99</ele>
        <time>2021-02-17T10:31:09.205Z</time>
      </trkpt>
      <trkpt lat="48.74643" lon="2.55734">
        <ele>99</ele>
        <time>2021-02-17T10:31:13.217Z</time>
      </trkpt>
      <trkpt lat="48.74642" lon="2.55743">
        <ele>100</ele>
        <time>2021-02-17T10:31:18.186Z</time>
      </trkpt>
      <trkpt lat="48.74639" lon="2.55751">
        <ele>100</ele>
        <time>2021-02-17T10:31:23.205Z</time>
      </trkpt>
      <trkpt lat="48.74637" lon="2.55755">
        <ele>100</ele>
        <time>2021-02-17T10:31:27.224Z</time>
      </trkpt>
      <trkpt lat="48.74634" lon="2.55761">
        <ele>100</ele>
        <time>2021-02-17T10:31:32.204Z</time>
      </trkpt>
      <trkpt lat="48.74632" lon="2.55764">
        <ele>101</ele>
        <time>2021-02-17T10:31:36.210Z</time>
      </trkpt>
      <trkpt lat="48.7463" lon="2.55772">
        <ele>101</ele>
        <time>2021-02-17T10:31:41.187Z</time>
      </trkpt>
      <trkpt lat="48.74628" lon="2.55779">
        <ele>101</ele>
        <time>2021-02-17T10:31:45.209Z</time>
      </trkpt>
      <trkpt lat="48.74625" lon="2.55783">
        <ele>100</ele>
        <time>2021-02-17T10:31:50.214Z</time>
      </trkpt>
      <trkpt lat="48.74619" lon="2.55786">
        <ele>100</ele>
        <time>2021-02-17T10:31:55.211Z</time>
      </trkpt>
      <trkpt lat="48.74617" lon="2.55793">
        <ele>102</ele>
        <time>2021-02-17T10:32:00.203Z</time>
      </trkpt>
      <trkpt lat="48.74613" lon="2.558">
        <ele>102</ele>
        <time>2021-02-17T10:32:05.202Z</time>
      </trkpt>
      <trkpt lat="48.74609" lon="2.55806">
        <ele>102</ele>
        <time>2021-02-17T10:32:10.195Z</time>
      </trkpt>
      <trkpt lat="48.74606" lon="2.55811">
        <ele>102</ele>
        <time>2021-02-17T10:32:14.207Z</time>
      </trkpt>
      <trkpt lat="48.74601" lon="2.55818">
        <ele>102</ele>
        <time>2021-02-17T10:32:19.213Z</time>
      </trkpt>
      <trkpt lat="48.74598" lon="2.55823">
        <ele>103</ele>
        <time>2021-02-17T10:32:23.201Z</time>
      </trkpt>
      <trkpt lat="48.74594" lon="2.5583">
        <ele>103</ele>
        <time>2021-02-17T10:32:28.200Z</time>
      </trkpt>
      <trkpt lat="48.7459" lon="2.55838">
        <ele>103</ele>
        <time>2021-02-17T10:32:33.206Z</time>
      </trkpt>
      <trkpt lat="48.74585" lon="2.55843">
        <ele>103</ele>
        <time>2021-02-17T10:32:38.199Z</time>
      </trkpt>
      <trkpt lat="48.74582" lon="2.5585">
        <ele>103</ele>
        <time>2021-02-17T10:32:42.205Z</time>
      </trkpt>
      <trkpt lat="48.74577" lon="2.55859">
        <ele>103</ele>
        <time>2021-02-17T10:32:47.201Z</time>
      </trkpt>
      <trkpt lat="48.74573" lon="2.55865">
        <ele>103</ele>
        <time>2021-02-17T10:32:52.206Z</time>
      </trkpt>
      <trkpt lat="48.74569" lon="2.55873">
        <ele>102</ele>
        <time>2021-02-17T10:32:57.206Z</time>
      </trkpt>
      <trkpt lat="48.74565" lon="2.55879">
        <ele>101</ele>
        <time>2021-02-17T10:33:02.184Z</time>
      </trkpt>
      <trkpt lat="48.74564" lon="2.55881">
        <ele>101</ele>
        <time>2021-02-17T10:33:06.193Z</time>
      </trkpt>
      <trkpt lat="48.74564" lon="2.55886">
        <ele>101</ele>
        <time>2021-02-17T10:33:10.199Z</time>
      </trkpt>
      <trkpt lat="48.74561" lon="2.55895">
        <ele>101</ele>
        <time>2021-02-17T10:33:15.195Z</time>
      </trkpt>
      <trkpt lat="48.74557" lon="2.55907">
        <ele>101</ele>
        <time>2021-02-17T10:33:20.198Z</time>
      </trkpt>
      <trkpt lat="48.74552" lon="2.55919">
        <ele>101</ele>
        <time>2021-02-17T10:33:25.211Z</time>
      </trkpt>
      <trkpt lat="48.74545" lon="2.55928">
        <ele>101</ele>
        <time>2021-02-17T10:33:30.203Z</time>
      </trkpt>
      <trkpt lat="48.74537" lon="2.55936">
        <ele>98</ele>
        <time>2021-02-17T10:33:35.194Z</time>
      </trkpt>
      <trkpt lat="48.74531" lon="2.55936">
        <ele>98</ele>
        <time>2021-02-17T10:33:40.200Z</time>
      </trkpt>
      <trkpt lat="48.74528" lon="2.55938">
        <ele>98</ele>
        <time>2021-02-17T10:33:45.204Z</time>
      </trkpt>
      <trkpt lat="48.74524" lon="2.55934">
        <ele>98</ele>
        <time>2021-02-17T10:33:50.210Z</time>
      </trkpt>
      <trkpt lat="48.74521" lon="2.55929">
        <ele>98</ele>
        <time>2021-02-17T10:33:55.196Z</time>
      </trkpt>
      <trkpt lat="48.74517" lon="2.55926">
        <ele>98</ele>
        <time>2021-02-17T10:33:59.200Z</time>
      </trkpt>
      <trkpt lat="48.74513" lon="2.55921">
        <ele>98</ele>
        <time>2021-02-17T10:34:04.201Z</time>
      </trkpt>
      <trkpt lat="48.74508" lon="2.55915">
        <ele>98</ele>
        <time>2021-02-17T10:34:09.213Z</time>
      </trkpt>
      <trkpt lat="48.74503" lon="2.55911">
        <ele>98</ele>
        <time>2021-02-17T10:34:14.201Z</time>
      </trkpt>
      <trkpt lat="48.745" lon="2.55907">
        <ele>98</ele>
        <time>2021-02-17T10:34:18.199Z</time>
      </trkpt>
      <trkpt lat="48.74495" lon="2.55901">
        <ele>98</ele>
        <time>2021-02-17T10:34:23.203Z</time>
      </trkpt>
      <trkpt lat="48.74492" lon="2.55895">
        <ele>98</ele>
        <time>2021-02-17T10:34:28.211Z</time>
      </trkpt>
      <trkpt lat="48.74487" lon="2.55889">
        <ele>98</ele>
        <time>2021-02-17T10:34:33.196Z</time>
      </trkpt>
      <trkpt lat="48.74485" lon="2.55885">
        <ele>98</ele>
        <time>2021-02-17T10:34:37.211Z</time>
      </trkpt>
      <trkpt lat="48.7448" lon="2.55881">
        <ele>98</ele>
        <time>2021-02-17T10:34:42.218Z</time>
      </trkpt>
      <trkpt lat="48.74476" lon="2.55876">
        <ele>98</ele>
        <time>2021-02-17T10:34:47.208Z</time>
      </trkpt>
      <trkpt lat="48.74471" lon="2.55872">
        <ele>97</ele>
        <time>2021-02-17T10:34:52.209Z</time>
      </trkpt>
      <trkpt lat="48.74467" lon="2.55866">
        <ele>97</ele>
        <time>2021-02-17T10:34:57.204Z</time>
      </trkpt>
      <trkpt lat="48.74464" lon="2.55861">
        <ele>97</ele>
        <time>2021-02-17T10:35:02.209Z</time>
      </trkpt>
      <trkpt lat="48.74461" lon="2.55856">
        <ele>97</ele>
        <time>2021-02-17T10:35:06.206Z</time>
      </trkpt>
      <trkpt lat="48.74457" lon="2.55852">
        <ele>96</ele>
        <time>2021-02-17T10:35:11.215Z</time>
      </trkpt>
      <trkpt lat="48.74453" lon="2.55848">
        <ele>96</ele>
        <time>2021-02-17T10:35:16.208Z</time>
      </trkpt>
      <trkpt lat="48.74448" lon="2.55844">
        <ele>96</ele>
        <time>2021-02-17T10:35:21.202Z</time>
      </trkpt>
      <trkpt lat="48.74444" lon="2.55838">
        <ele>96</ele>
        <time>2021-02-17T10:35:26.202Z</time>
      </trkpt>
      <trkpt lat="48.7444" lon="2.55832">
        <ele>96</ele>
        <time>2021-02-17T10:35:31.213Z</time>
      </trkpt>
      <trkpt lat="48.74436" lon="2.55829">
        <ele>96</ele>
        <time>2021-02-17T10:35:36.209Z</time>
      </trkpt>
      <trkpt lat="48.7443" lon="2.55827">
        <ele>96</ele>
        <time>2021-02-17T10:35:41.204Z</time>
      </trkpt>
      <trkpt lat="48.74424" lon="2.55825">
        <ele>96</ele>
        <time>2021-02-17T10:35:46.206Z</time>
      </trkpt>
      <trkpt lat="48.74418" lon="2.55824">
        <ele>96</ele>
        <time>2021-02-17T10:35:50.209Z</time>
      </trkpt>
      <trkpt lat="48.74412" lon="2.55825">
        <ele>96</ele>
        <time>2021-02-17T10:35:54.208Z</time>
      </trkpt>
      <trkpt lat="48.74405" lon="2.55826">
        <ele>96</ele>
        <time>2021-02-17T10:35:59.193Z</time>
      </trkpt>
      <trkpt lat="48.74398" lon="2.55827">
        <ele>97</ele>
        <time>2021-02-17T10:36:04.200Z</time>
      </trkpt>
      <trkpt lat="48.74393" lon="2.55828">
        <ele>97</ele>
        <time>2021-02-17T10:36:08.212Z</time>
      </trkpt>
      <trkpt lat="48.74386" lon="2.55831">
        <ele>97</ele>
        <time>2021-02-17T10:36:13.187Z</time>
      </trkpt>
      <trkpt lat="48.7438" lon="2.55831">
        <ele>97</ele>
        <time>2021-02-17T10:36:17.212Z</time>
      </trkpt>
      <trkpt lat="48.74374" lon="2.55832">
        <ele>97</ele>
        <time>2021-02-17T10:36:22.211Z</time>
      </trkpt>
      <trkpt lat="48.74368" lon="2.55835">
        <ele>97</ele>
        <time>2021-02-17T10:36:27.197Z</time>
      </trkpt>
      <trkpt lat="48.74363" lon="2.55837">
        <ele>97</ele>
        <time>2021-02-17T10:36:31.199Z</time>
      </trkpt>
      <trkpt lat="48.74358" lon="2.55839">
        <ele>97</ele>
        <time>2021-02-17T10:36:36.208Z</time>
      </trkpt>
      <trkpt lat="48.74353" lon="2.55842">
        <ele>97</ele>
        <time>2021-02-17T10:36:40.201Z</time>
      </trkpt>
      <trkpt lat="48.74348" lon="2.55848">
        <ele>97</ele>
        <time>2021-02-17T10:36:45.209Z</time>
      </trkpt>
      <trkpt lat="48.74344" lon="2.55852">
        <ele>98</ele>
        <time>2021-02-17T10:36:49.200Z</time>
      </trkpt>
      <trkpt lat="48.7434" lon="2.55857">
        <ele>98</ele>
        <time>2021-02-17T10:36:54.186Z</time>
      </trkpt>
      <trkpt lat="48.74336" lon="2.55862">
        <ele>98</ele>
        <time>2021-02-17T10:36:59.209Z</time>
      </trkpt>
      <trkpt lat="48.7433" lon="2.55866">
        <ele>98</ele>
        <time>2021-02-17T10:37:04.188Z</time>
      </trkpt>
      <trkpt lat="48.74325" lon="2.55871">
        <ele>98</ele>
        <time>2021-02-17T10:37:08.209Z</time>
      </trkpt>
      <trkpt lat="48.7432" lon="2.55874">
        <ele>98</ele>
        <time>2021-02-17T10:37:13.207Z</time>
      </trkpt>
      <trkpt lat="48.74312" lon="2.55877">
        <ele>97</ele>
        <time>2021-02-17T10:37:18.180Z</time>
      </trkpt>
      <trkpt lat="48.74306" lon="2.55882">
        <ele>97</ele>
        <time>2021-02-17T10:37:22.210Z</time>
      </trkpt>
      <trkpt lat="48.74301" lon="2.55887">
        <ele>97</ele>
        <time>2021-02-17T10:37:26.223Z</time>
      </trkpt>
      <trkpt lat="48.74295" lon="2.5589">
        <ele>97</ele>
        <time>2021-02-17T10:37:31.210Z</time>
      </trkpt>
      <trkpt lat="48.74288" lon="2.55893">
        <ele>97</ele>
        <time>2021-02-17T10:37:36.201Z</time>
      </trkpt>
      <trkpt lat="48.74282" lon="2.55898">
        <ele>97</ele>
        <time>2021-02-17T10:37:41.201Z</time>
      </trkpt>
      <trkpt lat="48.74276" lon="2.55903">
        <ele>97</ele>
        <time>2021-02-17T10:37:46.183Z</time>
      </trkpt>
      <trkpt lat="48.74272" lon="2.55906">
        <ele>97</ele>
        <time>2021-02-17T10:37:50.208Z</time>
      </trkpt>
      <trkpt lat="48.74266" lon="2.5591">
        <ele>97</ele>
        <time>2021-02-17T10:37:55.207Z</time>
      </trkpt>
      <trkpt lat="48.7426" lon="2.55912">
        <ele>97</ele>
        <time>2021-02-17T10:38:00.209Z</time>
      </trkpt>
      <trkpt lat="48.74254" lon="2.55912">
        <ele>97</ele>
        <time>2021-02-17T10:38:05.199Z</time>
      </trkpt>
      <trkpt lat="48.74249" lon="2.55914">
        <ele>97</ele>
        <time>2021-02-17T10:38:10.195Z</time>
      </trkpt>
      <trkpt lat="48.74242" lon="2.55914">
        <ele>97</ele>
        <time>2021-02-17T10:38:15.213Z</time>
      </trkpt>
      <trkpt lat="48.74235" lon="2.55915">
        <ele>97</ele>
        <time>2021-02-17T10:38:20.204Z</time>
      </trkpt>
      <trkpt lat="48.7423" lon="2.55916">
        <ele>97</ele>
        <time>2021-02-17T10:38:24.206Z</time>
      </trkpt>
      <trkpt lat="48.74223" lon="2.55915">
        <ele>97</ele>
        <time>2021-02-17T10:38:29.199Z</time>
      </trkpt>
      <trkpt lat="48.74218" lon="2.55914">
        <ele>97</ele>
        <time>2021-02-17T10:38:33.204Z</time>
      </trkpt>
      <trkpt lat="48.74211" lon="2.55915">
        <ele>97</ele>
        <time>2021-02-17T10:38:38.201Z</time>
      </trkpt>
      <trkpt lat="48.74204" lon="2.55916">
        <ele>97</ele>
        <time>2021-02-17T10:38:43.190Z</time>
      </trkpt>
      <trkpt lat="48.74198" lon="2.55916">
        <ele>97</ele>
        <time>2021-02-17T10:38:48.181Z</time>
      </trkpt>
      <trkpt lat="48.74193" lon="2.55916">
        <ele>97</ele>
        <time>2021-02-17T10:38:52.204Z</time>
      </trkpt>
      <trkpt lat="48.74186" lon="2.55914">
        <ele>97</ele>
        <time>2021-02-17T10:38:57.210Z</time>
      </trkpt>
      <trkpt lat="48.74179" lon="2.55913">
        <ele>98</ele>
        <time>2021-02-17T10:39:02.202Z</time>
      </trkpt>
      <trkpt lat="48.74172" lon="2.5591">
        <ele>98</ele>
        <time>2021-02-17T10:39:07.199Z</time>
      </trkpt>
      <trkpt lat="48.74165" lon="2.55909">
        <ele>98</ele>
        <time>2021-02-17T10:39:12.201Z</time>
      </trkpt>
      <trkpt lat="48.74159" lon="2.55908">
        <ele>98</ele>
        <time>2021-02-17T10:39:17.210Z</time>
      </trkpt>
      <trkpt lat="48.74152" lon="2.55908">
        <ele>97</ele>
        <time>2021-02-17T10:39:22.197Z</time>
      </trkpt>
      <trkpt lat="48.74145" lon="2.55909">
        <ele>97</ele>
        <time>2021-02-17T10:39:27.201Z</time>
      </trkpt>
      <trkpt lat="48.74139" lon="2.5591">
        <ele>97</ele>
        <time>2021-02-17T10:39:32.203Z</time>
      </trkpt>
      <trkpt lat="48.74132" lon="2.55913">
        <ele>97</ele>
        <time>2021-02-17T10:39:37.200Z</time>
      </trkpt>
      <trkpt lat="48.74125" lon="2.55914">
        <ele>97</ele>
        <time>2021-02-17T10:39:42.209Z</time>
      </trkpt>
      <trkpt lat="48.7412" lon="2.55915">
        <ele>98</ele>
        <time>2021-02-17T10:39:46.209Z</time>
      </trkpt>
      <trkpt lat="48.74113" lon="2.55915">
        <ele>98</ele>
        <time>2021-02-17T10:39:51.196Z</time>
      </trkpt>
      <trkpt lat="48.74107" lon="2.55914">
        <ele>98</ele>
        <time>2021-02-17T10:39:56.199Z</time>
      </trkpt>
      <trkpt lat="48.74101" lon="2.55911">
        <ele>98</ele>
        <time>2021-02-17T10:40:01.212Z</time>
      </trkpt>
      <trkpt lat="48.74097" lon="2.55905">
        <ele>98</ele>
        <time>2021-02-17T10:40:06.214Z</time>
      </trkpt>
      <trkpt lat="48.74089" lon="2.55892">
        <ele>98</ele>
        <time>2021-02-17T10:40:20.183Z</time>
      </trkpt>
      <trkpt lat="48.74089" lon="2.55892">
        <ele>98</ele>
        <time>2021-02-17T10:40:24.186Z</time>
      </trkpt>
      <trkpt lat="48.74088" lon="2.55892">
        <ele>98</ele>
        <time>2021-02-17T10:40:29.184Z</time>
      </trkpt>
      <trkpt lat="48.74088" lon="2.5589">
        <ele>98</ele>
        <time>2021-02-17T10:40:34.182Z</time>
      </trkpt>
      <trkpt lat="48.74087" lon="2.55889">
        <ele>98</ele>
        <time>2021-02-17T10:40:39.187Z</time>
      </trkpt>
      <trkpt lat="48.74087" lon="2.55889">
        <ele>98</ele>
        <time>2021-02-17T10:40:44.195Z</time>
      </trkpt>
      <trkpt lat="48.74087" lon="2.55889">
        <ele>98</ele>
        <time>2021-02-17T10:40:48.199Z</time>
      </trkpt>
      <trkpt lat="48.74085" lon="2.55887">
        <ele>98</ele>
        <time>2021-02-17T10:40:52.209Z</time>
      </trkpt>
      <trkpt lat="48.74081" lon="2.55885">
        <ele>98</ele>
        <time>2021-02-17T10:40:57.207Z</time>
      </trkpt>
      <trkpt lat="48.74076" lon="2.55883">
        <ele>98</ele>
        <time>2021-02-17T10:41:02.207Z</time>
      </trkpt>
      <trkpt lat="48.74071" lon="2.55878">
        <ele>98</ele>
        <time>2021-02-17T10:41:07.212Z</time>
      </trkpt>
      <trkpt lat="48.74066" lon="2.55877">
        <ele>97</ele>
        <time>2021-02-17T10:41:12.213Z</time>
      </trkpt>
      <trkpt lat="48.74059" lon="2.55877">
        <ele>97</ele>
        <time>2021-02-17T10:41:17.190Z</time>
      </trkpt>
      <trkpt lat="48.74056" lon="2.55878">
        <ele>97</ele>
        <time>2021-02-17T10:41:21.199Z</time>
      </trkpt>
      <trkpt lat="48.74049" lon="2.55878">
        <ele>97</ele>
        <time>2021-02-17T10:41:26.201Z</time>
      </trkpt>
      <trkpt lat="48.74044" lon="2.55876">
        <ele>97</ele>
        <time>2021-02-17T10:41:31.197Z</time>
      </trkpt>
      <trkpt lat="48.74038" lon="2.55876">
        <ele>96</ele>
        <time>2021-02-17T10:41:35.211Z</time>
      </trkpt>
      <trkpt lat="48.74032" lon="2.55876">
        <ele>96</ele>
        <time>2021-02-17T10:41:40.203Z</time>
      </trkpt>
      <trkpt lat="48.74025" lon="2.55876">
        <ele>96</ele>
        <time>2021-02-17T10:41:45.199Z</time>
      </trkpt>
      <trkpt lat="48.74018" lon="2.55877">
        <ele>96</ele>
        <time>2021-02-17T10:41:50.207Z</time>
      </trkpt>
      <trkpt lat="48.74012" lon="2.55877">
        <ele>97</ele>
        <time>2021-02-17T10:41:55.209Z</time>
      </trkpt>
      <trkpt lat="48.74006" lon="2.55879">
        <ele>97</ele>
        <time>2021-02-17T10:42:00.187Z</time>
      </trkpt>
      <trkpt lat="48.74001" lon="2.55879">
        <ele>97</ele>
        <time>2021-02-17T10:42:04.197Z</time>
      </trkpt>
      <trkpt lat="48.73994" lon="2.5588">
        <ele>97</ele>
        <time>2021-02-17T10:42:09.205Z</time>
      </trkpt>
      <trkpt lat="48.73986" lon="2.55881">
        <ele>97</ele>
        <time>2021-02-17T10:42:14.208Z</time>
      </trkpt>
      <trkpt lat="48.7398" lon="2.55882">
        <ele>98</ele>
        <time>2021-02-17T10:42:19.203Z</time>
      </trkpt>
      <trkpt lat="48.73972" lon="2.55882">
        <ele>98</ele>
        <time>2021-02-17T10:42:24.200Z</time>
      </trkpt>
      <trkpt lat="48.73965" lon="2.55882">
        <ele>98</ele>
        <time>2021-02-17T10:42:29.204Z</time>
      </trkpt>
      <trkpt lat="48.73958" lon="2.55881">
        <ele>98</ele>
        <time>2021-02-17T10:42:34.189Z</time>
      </trkpt>
      <trkpt lat="48.73953" lon="2.55878">
        <ele>98</ele>
        <time>2021-02-17T10:42:39.203Z</time>
      </trkpt>
      <trkpt lat="48.73947" lon="2.55876">
        <ele>98</ele>
        <time>2021-02-17T10:42:44.200Z</time>
      </trkpt>
      <trkpt lat="48.73943" lon="2.55873">
        <ele>99</ele>
        <time>2021-02-17T10:42:48.203Z</time>
      </trkpt>
      <trkpt lat="48.73938" lon="2.55867">
        <ele>99</ele>
        <time>2021-02-17T10:42:53.206Z</time>
      </trkpt>
      <trkpt lat="48.73933" lon="2.55861">
        <ele>99</ele>
        <time>2021-02-17T10:42:58.198Z</time>
      </trkpt>
      <trkpt lat="48.73929" lon="2.55853">
        <ele>99</ele>
        <time>2021-02-17T10:43:03.179Z</time>
      </trkpt>
      <trkpt lat="48.73926" lon="2.55845">
        <ele>99</ele>
        <time>2021-02-17T10:43:08.183Z</time>
      </trkpt>
      <trkpt lat="48.73923" lon="2.55837">
        <ele>99</ele>
        <time>2021-02-17T10:43:13.207Z</time>
      </trkpt>
      <trkpt lat="48.73919" lon="2.55828">
        <ele>99</ele>
        <time>2021-02-17T10:43:18.180Z</time>
      </trkpt>
      <trkpt lat="48.73916" lon="2.55821">
        <ele>99</ele>
        <time>2021-02-17T10:43:22.206Z</time>
      </trkpt>
      <trkpt lat="48.73913" lon="2.55813">
        <ele>98</ele>
        <time>2021-02-17T10:43:27.176Z</time>
      </trkpt>
      <trkpt lat="48.7391" lon="2.55804">
        <ele>98</ele>
        <time>2021-02-17T10:43:32.179Z</time>
      </trkpt>
      <trkpt lat="48.73907" lon="2.55798">
        <ele>98</ele>
        <time>2021-02-17T10:43:36.185Z</time>
      </trkpt>
      <trkpt lat="48.73905" lon="2.5579">
        <ele>97</ele>
        <time>2021-02-17T10:43:40.210Z</time>
      </trkpt>
      <trkpt lat="48.73902" lon="2.55781">
        <ele>96</ele>
        <time>2021-02-17T10:43:45.193Z</time>
      </trkpt>
      <trkpt lat="48.739" lon="2.55775">
        <ele>96</ele>
        <time>2021-02-17T10:43:49.169Z</time>
      </trkpt>
      <trkpt lat="48.73897" lon="2.55766">
        <ele>96</ele>
        <time>2021-02-17T10:43:54.177Z</time>
      </trkpt>
      <trkpt lat="48.73895" lon="2.55761">
        <ele>95</ele>
        <time>2021-02-17T10:43:58.200Z</time>
      </trkpt>
      <trkpt lat="48.73894" lon="2.55756">
        <ele>95</ele>
        <time>2021-02-17T10:44:03.190Z</time>
      </trkpt>
      <trkpt lat="48.73892" lon="2.55748">
        <ele>95</ele>
        <time>2021-02-17T10:44:07.209Z</time>
      </trkpt>
      <trkpt lat="48.73891" lon="2.55737">
        <ele>95</ele>
        <time>2021-02-17T10:44:12.172Z</time>
      </trkpt>
      <trkpt lat="48.73891" lon="2.55729">
        <ele>95</ele>
        <time>2021-02-17T10:44:16.199Z</time>
      </trkpt>
      <trkpt lat="48.73889" lon="2.55718">
        <ele>95</ele>
        <time>2021-02-17T10:44:21.201Z</time>
      </trkpt>
      <trkpt lat="48.73888" lon="2.55711">
        <ele>95</ele>
        <time>2021-02-17T10:44:25.200Z</time>
      </trkpt>
      <trkpt lat="48.73887" lon="2.55706">
        <ele>96</ele>
        <time>2021-02-17T10:44:30.189Z</time>
      </trkpt>
      <trkpt lat="48.73885" lon="2.55699">
        <ele>96</ele>
        <time>2021-02-17T10:44:35.189Z</time>
      </trkpt>
      <trkpt lat="48.73883" lon="2.55693">
        <ele>96</ele>
        <time>2021-02-17T10:44:39.193Z</time>
      </trkpt>
      <trkpt lat="48.7388" lon="2.55687">
        <ele>96</ele>
        <time>2021-02-17T10:44:44.195Z</time>
      </trkpt>
      <trkpt lat="48.73878" lon="2.55682">
        <ele>96</ele>
        <time>2021-02-17T10:44:49.189Z</time>
      </trkpt>
      <trkpt lat="48.73875" lon="2.55678">
        <ele>96</ele>
        <time>2021-02-17T10:44:54.206Z</time>
      </trkpt>
      <trkpt lat="48.7387" lon="2.55669">
        <ele>95</ele>
        <time>2021-02-17T10:44:59.198Z</time>
      </trkpt>
      <trkpt lat="48.73869" lon="2.55662">
        <ele>95</ele>
        <time>2021-02-17T10:45:04.196Z</time>
      </trkpt>
      <trkpt lat="48.73869" lon="2.55656">
        <ele>95</ele>
        <time>2021-02-17T10:45:09.189Z</time>
      </trkpt>
      <trkpt lat="48.7387" lon="2.55648">
        <ele>95</ele>
        <time>2021-02-17T10:45:13.254Z</time>
      </trkpt>
      <trkpt lat="48.7387" lon="2.55635">
        <ele>95</ele>
        <time>2021-02-17T10:45:19.176Z</time>
      </trkpt>
      <trkpt lat="48.73871" lon="2.55626">
        <ele>95</ele>
        <time>2021-02-17T10:45:23.200Z</time>
      </trkpt>
      <trkpt lat="48.7387" lon="2.55616">
        <ele>95</ele>
        <time>2021-02-17T10:45:27.197Z</time>
      </trkpt>
      <trkpt lat="48.73871" lon="2.55609">
        <ele>95</ele>
        <time>2021-02-17T10:45:32.205Z</time>
      </trkpt>
      <trkpt lat="48.7387" lon="2.556">
        <ele>95</ele>
        <time>2021-02-17T10:45:37.199Z</time>
      </trkpt>
      <trkpt lat="48.73869" lon="2.55593">
        <ele>95</ele>
        <time>2021-02-17T10:45:42.199Z</time>
      </trkpt>
      <trkpt lat="48.73868" lon="2.55587">
        <ele>95</ele>
        <time>2021-02-17T10:45:47.200Z</time>
      </trkpt>
      <trkpt lat="48.73866" lon="2.55579">
        <ele>95</ele>
        <time>2021-02-17T10:45:52.209Z</time>
      </trkpt>
      <trkpt lat="48.73862" lon="2.55572">
        <ele>95</ele>
        <time>2021-02-17T10:45:57.203Z</time>
      </trkpt>
      <trkpt lat="48.73859" lon="2.55564">
        <ele>95</ele>
        <time>2021-02-17T10:46:02.189Z</time>
      </trkpt>
      <trkpt lat="48.73857" lon="2.55555">
        <ele>95</ele>
        <time>2021-02-17T10:46:06.189Z</time>
      </trkpt>
      <trkpt lat="48.73855" lon="2.55545">
        <ele>95</ele>
        <time>2021-02-17T10:46:11.209Z</time>
      </trkpt>
      <trkpt lat="48.73852" lon="2.55533">
        <ele>95</ele>
        <time>2021-02-17T10:46:16.200Z</time>
      </trkpt>
      <trkpt lat="48.73847" lon="2.55522">
        <ele>94</ele>
        <time>2021-02-17T10:46:21.200Z</time>
      </trkpt>
      <trkpt lat="48.73844" lon="2.55514">
        <ele>94</ele>
        <time>2021-02-17T10:46:25.196Z</time>
      </trkpt>
      <trkpt lat="48.7384" lon="2.55504">
        <ele>94</ele>
        <time>2021-02-17T10:46:30.191Z</time>
      </trkpt>
      <trkpt lat="48.73833" lon="2.55495">
        <ele>94</ele>
        <time>2021-02-17T10:46:34.182Z</time>
      </trkpt>
      <trkpt lat="48.73826" lon="2.55488">
        <ele>94</ele>
        <time>2021-02-17T10:46:39.190Z</time>
      </trkpt>
      <trkpt lat="48.7382" lon="2.55483">
        <ele>94</ele>
        <time>2021-02-17T10:46:43.200Z</time>
      </trkpt>
      <trkpt lat="48.73814" lon="2.55477">
        <ele>94</ele>
        <time>2021-02-17T10:46:47.217Z</time>
      </trkpt>
      <trkpt lat="48.73805" lon="2.55471">
        <ele>94</ele>
        <time>2021-02-17T10:46:52.202Z</time>
      </trkpt>
      <trkpt lat="48.73798" lon="2.55468">
        <ele>94</ele>
        <time>2021-02-17T10:46:57.177Z</time>
      </trkpt>
      <trkpt lat="48.73793" lon="2.55468">
        <ele>94</ele>
        <time>2021-02-17T10:47:01.180Z</time>
      </trkpt>
      <trkpt lat="48.73782" lon="2.55469">
        <ele>93</ele>
        <time>2021-02-17T10:47:21.215Z</time>
      </trkpt>
      <trkpt lat="48.73781" lon="2.55471">
        <ele>93</ele>
        <time>2021-02-17T10:47:26.186Z</time>
      </trkpt>
      <trkpt lat="48.73777" lon="2.5547">
        <ele>93</ele>
        <time>2021-02-17T10:47:31.197Z</time>
      </trkpt>
      <trkpt lat="48.73774" lon="2.5547">
        <ele>93</ele>
        <time>2021-02-17T10:47:35.198Z</time>
      </trkpt>
      <trkpt lat="48.73771" lon="2.55471">
        <ele>93</ele>
        <time>2021-02-17T10:47:40.189Z</time>
      </trkpt>
      <trkpt lat="48.73774" lon="2.55465">
        <ele>93</ele>
        <time>2021-02-17T11:20:26.167Z</time>
      </trkpt>
      <trkpt lat="48.73775" lon="2.55464">
        <ele>93</ele>
        <time>2021-02-17T11:20:31.156Z</time>
      </trkpt>
      <trkpt lat="48.73779" lon="2.55464">
        <ele>93</ele>
        <time>2021-02-17T11:20:35.170Z</time>
      </trkpt>
      <trkpt lat="48.73784" lon="2.55466">
        <ele>93</ele>
        <time>2021-02-17T11:20:40.181Z</time>
      </trkpt>
      <trkpt lat="48.73789" lon="2.55468">
        <ele>93</ele>
        <time>2021-02-17T11:20:45.184Z</time>
      </trkpt>
      <trkpt lat="48.73793" lon="2.55469">
        <ele>94</ele>
        <time>2021-02-17T11:20:50.179Z</time>
      </trkpt>
      <trkpt lat="48.73795" lon="2.5547">
        <ele>94</ele>
        <time>2021-02-17T11:20:55.178Z</time>
      </trkpt>
      <trkpt lat="48.73798" lon="2.55469">
        <ele>94</ele>
        <time>2021-02-17T11:20:59.175Z</time>
      </trkpt>
      <trkpt lat="48.73802" lon="2.55469">
        <ele>94</ele>
        <time>2021-02-17T11:21:04.179Z</time>
      </trkpt>
      <trkpt lat="48.73806" lon="2.55469">
        <ele>94</ele>
        <time>2021-02-17T11:21:09.179Z</time>
      </trkpt>
      <trkpt lat="48.73808" lon="2.55465">
        <ele>94</ele>
        <time>2021-02-17T11:21:14.154Z</time>
      </trkpt>
      <trkpt lat="48.73809" lon="2.55461">
        <ele>94</ele>
        <time>2021-02-17T11:21:18.163Z</time>
      </trkpt>
      <trkpt lat="48.73808" lon="2.55456">
        <ele>94</ele>
        <time>2021-02-17T11:21:23.179Z</time>
      </trkpt>
      <trkpt lat="48.73806" lon="2.55451">
        <ele>94</ele>
        <time>2021-02-17T11:21:28.177Z</time>
      </trkpt>
      <trkpt lat="48.73804" lon="2.55448">
        <ele>94</ele>
        <time>2021-02-17T11:21:33.167Z</time>
      </trkpt>
      <trkpt lat="48.73802" lon="2.55442">
        <ele>94</ele>
        <time>2021-02-17T11:21:37.179Z</time>
      </trkpt>
      <trkpt lat="48.73798" lon="2.55436">
        <ele>94</ele>
        <time>2021-02-17T11:21:42.174Z</time>
      </trkpt>
      <trkpt lat="48.73794" lon="2.55429">
        <ele>95</ele>
        <time>2021-02-17T11:21:47.175Z</time>
      </trkpt>
      <trkpt lat="48.7379" lon="2.55424">
        <ele>94</ele>
        <time>2021-02-17T11:21:51.179Z</time>
      </trkpt>
      <trkpt lat="48.73786" lon="2.55418">
        <ele>94</ele>
        <time>2021-02-17T11:21:56.183Z</time>
      </trkpt>
      <trkpt lat="48.73783" lon="2.55411">
        <ele>94</ele>
        <time>2021-02-17T11:22:01.174Z</time>
      </trkpt>
      <trkpt lat="48.73779" lon="2.55405">
        <ele>94</ele>
        <time>2021-02-17T11:22:06.173Z</time>
      </trkpt>
      <trkpt lat="48.73775" lon="2.55397">
        <ele>95</ele>
        <time>2021-02-17T11:22:11.180Z</time>
      </trkpt>
      <trkpt lat="48.73772" lon="2.55392">
        <ele>95</ele>
        <time>2021-02-17T11:22:15.168Z</time>
      </trkpt>
      <trkpt lat="48.73768" lon="2.55382">
        <ele>95</ele>
        <time>2021-02-17T11:22:20.166Z</time>
      </trkpt>
      <trkpt lat="48.73766" lon="2.55374">
        <ele>95</ele>
        <time>2021-02-17T11:22:24.175Z</time>
      </trkpt>
      <trkpt lat="48.73766" lon="2.55366">
        <ele>95</ele>
        <time>2021-02-17T11:22:29.163Z</time>
      </trkpt>
      <trkpt lat="48.73765" lon="2.55358">
        <ele>95</ele>
        <time>2021-02-17T11:22:34.165Z</time>
      </trkpt>
      <trkpt lat="48.73764" lon="2.55349">
        <ele>95</ele>
        <time>2021-02-17T11:22:39.173Z</time>
      </trkpt>
      <trkpt lat="48.73761" lon="2.55342">
        <ele>95</ele>
        <time>2021-02-17T11:22:44.167Z</time>
      </trkpt>
      <trkpt lat="48.73757" lon="2.55335">
        <ele>95</ele>
        <time>2021-02-17T11:22:49.151Z</time>
      </trkpt>
      <trkpt lat="48.73754" lon="2.55328">
        <ele>95</ele>
        <time>2021-02-17T11:22:54.148Z</time>
      </trkpt>
      <trkpt lat="48.73749" lon="2.55322">
        <ele>95</ele>
        <time>2021-02-17T11:22:58.178Z</time>
      </trkpt>
      <trkpt lat="48.73745" lon="2.55314">
        <ele>94</ele>
        <time>2021-02-17T11:23:03.172Z</time>
      </trkpt>
      <trkpt lat="48.7374" lon="2.55307">
        <ele>94</ele>
        <time>2021-02-17T11:23:08.163Z</time>
      </trkpt>
      <trkpt lat="48.73735" lon="2.55302">
        <ele>95</ele>
        <time>2021-02-17T11:23:13.168Z</time>
      </trkpt>
      <trkpt lat="48.73731" lon="2.55301">
        <ele>95</ele>
        <time>2021-02-17T11:23:18.182Z</time>
      </trkpt>
      <trkpt lat="48.73724" lon="2.55304">
        <ele>95</ele>
        <time>2021-02-17T11:23:23.174Z</time>
      </trkpt>
      <trkpt lat="48.7372" lon="2.55304">
        <ele>95</ele>
        <time>2021-02-17T11:23:28.197Z</time>
      </trkpt>
      <trkpt lat="48.73715" lon="2.55304">
        <ele>95</ele>
        <time>2021-02-17T11:23:33.176Z</time>
      </trkpt>
      <trkpt lat="48.73708" lon="2.55303">
        <ele>95</ele>
        <time>2021-02-17T11:23:38.186Z</time>
      </trkpt>
      <trkpt lat="48.73701" lon="2.55303">
        <ele>95</ele>
        <time>2021-02-17T11:23:43.168Z</time>
      </trkpt>
      <trkpt lat="48.73697" lon="2.55301">
        <ele>95</ele>
        <time>2021-02-17T11:23:47.188Z</time>
      </trkpt>
      <trkpt lat="48.7369" lon="2.55298">
        <ele>95</ele>
        <time>2021-02-17T11:23:52.173Z</time>
      </trkpt>
      <trkpt lat="48.73684" lon="2.55294">
        <ele>95</ele>
        <time>2021-02-17T11:23:57.179Z</time>
      </trkpt>
      <trkpt lat="48.73681" lon="2.55286">
        <ele>95</ele>
        <time>2021-02-17T11:24:02.178Z</time>
      </trkpt>
      <trkpt lat="48.73679" lon="2.55278">
        <ele>95</ele>
        <time>2021-02-17T11:24:07.165Z</time>
      </trkpt>
      <trkpt lat="48.73677" lon="2.55271">
        <ele>95</ele>
        <time>2021-02-17T11:24:12.167Z</time>
      </trkpt>
      <trkpt lat="48.73673" lon="2.55265">
        <ele>95</ele>
        <time>2021-02-17T11:24:16.172Z</time>
      </trkpt>
      <trkpt lat="48.7367" lon="2.55258">
        <ele>94</ele>
        <time>2021-02-17T11:24:21.149Z</time>
      </trkpt>
      <trkpt lat="48.73667" lon="2.55253">
        <ele>94</ele>
        <time>2021-02-17T11:24:26.168Z</time>
      </trkpt>
      <trkpt lat="48.73661" lon="2.55245">
        <ele>94</ele>
        <time>2021-02-17T11:24:31.164Z</time>
      </trkpt>
      <trkpt lat="48.73657" lon="2.55238">
        <ele>94</ele>
        <time>2021-02-17T11:24:36.174Z</time>
      </trkpt>
      <trkpt lat="48.73654" lon="2.55233">
        <ele>92</ele>
        <time>2021-02-17T11:24:41.150Z</time>
      </trkpt>
      <trkpt lat="48.73651" lon="2.55228">
        <ele>92</ele>
        <time>2021-02-17T11:24:45.184Z</time>
      </trkpt>
      <trkpt lat="48.73646" lon="2.55222">
        <ele>92</ele>
        <time>2021-02-17T11:24:50.148Z</time>
      </trkpt>
      <trkpt lat="48.73642" lon="2.55216">
        <ele>92</ele>
        <time>2021-02-17T11:24:54.173Z</time>
      </trkpt>
      <trkpt lat="48.73637" lon="2.5521">
        <ele>92</ele>
        <time>2021-02-17T11:24:59.175Z</time>
      </trkpt>
      <trkpt lat="48.73631" lon="2.55203">
        <ele>91</ele>
        <time>2021-02-17T11:25:04.154Z</time>
      </trkpt>
      <trkpt lat="48.73629" lon="2.55198">
        <ele>91</ele>
        <time>2021-02-17T11:25:08.181Z</time>
      </trkpt>
      <trkpt lat="48.73623" lon="2.55191">
        <ele>92</ele>
        <time>2021-02-17T11:25:13.167Z</time>
      </trkpt>
      <trkpt lat="48.73619" lon="2.55185">
        <ele>92</ele>
        <time>2021-02-17T11:25:17.166Z</time>
      </trkpt>
      <trkpt lat="48.73614" lon="2.55179">
        <ele>92</ele>
        <time>2021-02-17T11:25:22.165Z</time>
      </trkpt>
      <trkpt lat="48.73609" lon="2.55173">
        <ele>92</ele>
        <time>2021-02-17T11:25:27.171Z</time>
      </trkpt>
      <trkpt lat="48.73605" lon="2.55166">
        <ele>92</ele>
        <time>2021-02-17T11:25:32.173Z</time>
      </trkpt>
      <trkpt lat="48.73601" lon="2.55161">
        <ele>92</ele>
        <time>2021-02-17T11:25:36.174Z</time>
      </trkpt>
      <trkpt lat="48.73596" lon="2.55153">
        <ele>92</ele>
        <time>2021-02-17T11:25:41.160Z</time>
      </trkpt>
      <trkpt lat="48.73592" lon="2.55145">
        <ele>92</ele>
        <time>2021-02-17T11:25:46.174Z</time>
      </trkpt>
      <trkpt lat="48.73587" lon="2.55138">
        <ele>92</ele>
        <time>2021-02-17T11:25:51.157Z</time>
      </trkpt>
      <trkpt lat="48.73582" lon="2.55131">
        <ele>92</ele>
        <time>2021-02-17T11:25:56.169Z</time>
      </trkpt>
      <trkpt lat="48.73578" lon="2.55126">
        <ele>92</ele>
        <time>2021-02-17T11:26:00.176Z</time>
      </trkpt>
      <trkpt lat="48.73572" lon="2.55119">
        <ele>92</ele>
        <time>2021-02-17T11:26:05.172Z</time>
      </trkpt>
      <trkpt lat="48.73568" lon="2.55113">
        <ele>92</ele>
        <time>2021-02-17T11:26:09.173Z</time>
      </trkpt>
      <trkpt lat="48.73564" lon="2.55108">
        <ele>92</ele>
        <time>2021-02-17T11:26:14.167Z</time>
      </trkpt>
      <trkpt lat="48.73559" lon="2.551">
        <ele>92</ele>
        <time>2021-02-17T11:26:19.168Z</time>
      </trkpt>
      <trkpt lat="48.73555" lon="2.55096">
        <ele>92</ele>
        <time>2021-02-17T11:26:23.173Z</time>
      </trkpt>
      <trkpt lat="48.7355" lon="2.55089">
        <ele>92</ele>
        <time>2021-02-17T11:26:28.158Z</time>
      </trkpt>
      <trkpt lat="48.73546" lon="2.55081">
        <ele>92</ele>
        <time>2021-02-17T11:26:32.151Z</time>
      </trkpt>
      <trkpt lat="48.73543" lon="2.55073">
        <ele>92</ele>
        <time>2021-02-17T11:26:37.164Z</time>
      </trkpt>
      <trkpt lat="48.73539" lon="2.55066">
        <ele>92</ele>
        <time>2021-02-17T11:26:42.231Z</time>
      </trkpt>
      <trkpt lat="48.73534" lon="2.5506">
        <ele>92</ele>
        <time>2021-02-17T11:26:47.161Z</time>
      </trkpt>
      <trkpt lat="48.7353" lon="2.55054">
        <ele>92</ele>
        <time>2021-02-17T11:26:52.171Z</time>
      </trkpt>
      <trkpt lat="48.73527" lon="2.55045">
        <ele>92</ele>
        <time>2021-02-17T11:26:57.145Z</time>
      </trkpt>
      <trkpt lat="48.73524" lon="2.55039">
        <ele>92</ele>
        <time>2021-02-17T11:27:01.148Z</time>
      </trkpt>
      <trkpt lat="48.73521" lon="2.55033">
        <ele>92</ele>
        <time>2021-02-17T11:27:05.166Z</time>
      </trkpt>
      <trkpt lat="48.73516" lon="2.55024">
        <ele>92</ele>
        <time>2021-02-17T11:27:10.167Z</time>
      </trkpt>
      <trkpt lat="48.73513" lon="2.55015">
        <ele>93</ele>
        <time>2021-02-17T11:27:15.170Z</time>
      </trkpt>
      <trkpt lat="48.7351" lon="2.55006">
        <ele>93</ele>
        <time>2021-02-17T11:27:20.150Z</time>
      </trkpt>
      <trkpt lat="48.73504" lon="2.55002">
        <ele>93</ele>
        <time>2021-02-17T11:27:25.171Z</time>
      </trkpt>
      <trkpt lat="48.73498" lon="2.55002">
        <ele>93</ele>
        <time>2021-02-17T11:27:30.168Z</time>
      </trkpt>
      <trkpt lat="48.73492" lon="2.55003">
        <ele>93</ele>
        <time>2021-02-17T11:27:35.168Z</time>
      </trkpt>
      <trkpt lat="48.73485" lon="2.55005">
        <ele>92</ele>
        <time>2021-02-17T11:27:40.186Z</time>
      </trkpt>
      <trkpt lat="48.73477" lon="2.55003">
        <ele>92</ele>
        <time>2021-02-17T11:27:45.147Z</time>
      </trkpt>
      <trkpt lat="48.73471" lon="2.55001">
        <ele>92</ele>
        <time>2021-02-17T11:27:49.179Z</time>
      </trkpt>
      <trkpt lat="48.73469" lon="2.54995">
        <ele>92</ele>
        <time>2021-02-17T11:27:53.169Z</time>
      </trkpt>
      <trkpt lat="48.73468" lon="2.54985">
        <ele>92</ele>
        <time>2021-02-17T11:27:58.170Z</time>
      </trkpt>
      <trkpt lat="48.73468" lon="2.54977">
        <ele>92</ele>
        <time>2021-02-17T11:28:03.165Z</time>
      </trkpt>
      <trkpt lat="48.73468" lon="2.54968">
        <ele>92</ele>
        <time>2021-02-17T11:28:08.175Z</time>
      </trkpt>
      <trkpt lat="48.73467" lon="2.54959">
        <ele>92</ele>
        <time>2021-02-17T11:28:13.176Z</time>
      </trkpt>
      <trkpt lat="48.73466" lon="2.54949">
        <ele>92</ele>
        <time>2021-02-17T11:28:18.163Z</time>
      </trkpt>
      <trkpt lat="48.73463" lon="2.54939">
        <ele>92</ele>
        <time>2021-02-17T11:28:23.154Z</time>
      </trkpt>
      <trkpt lat="48.73462" lon="2.54932">
        <ele>92</ele>
        <time>2021-02-17T11:28:27.169Z</time>
      </trkpt>
      <trkpt lat="48.7346" lon="2.54924">
        <ele>91</ele>
        <time>2021-02-17T11:28:32.152Z</time>
      </trkpt>
      <trkpt lat="48.73457" lon="2.54917">
        <ele>91</ele>
        <time>2021-02-17T11:28:36.192Z</time>
      </trkpt>
      <trkpt lat="48.73454" lon="2.54908">
        <ele>91</ele>
        <time>2021-02-17T11:28:41.162Z</time>
      </trkpt>
      <trkpt lat="48.73451" lon="2.54901">
        <ele>91</ele>
        <time>2021-02-17T11:28:45.147Z</time>
      </trkpt>
      <trkpt lat="48.73448" lon="2.54892">
        <ele>91</ele>
        <time>2021-02-17T11:28:50.150Z</time>
      </trkpt>
      <trkpt lat="48.73446" lon="2.54885">
        <ele>91</ele>
        <time>2021-02-17T11:28:54.179Z</time>
      </trkpt>
      <trkpt lat="48.73444" lon="2.54878">
        <ele>91</ele>
        <time>2021-02-17T11:28:58.173Z</time>
      </trkpt>
      <trkpt lat="48.73441" lon="2.54869">
        <ele>91</ele>
        <time>2021-02-17T11:29:03.173Z</time>
      </trkpt>
      <trkpt lat="48.73439" lon="2.54863">
        <ele>91</ele>
        <time>2021-02-17T11:29:07.181Z</time>
      </trkpt>
      <trkpt lat="48.73437" lon="2.54862">
        <ele>91</ele>
        <time>2021-02-17T11:29:12.179Z</time>
      </trkpt>
      <trkpt lat="48.73441" lon="2.54871">
        <ele>91</ele>
        <time>2021-02-17T11:29:17.154Z</time>
      </trkpt>
      <trkpt lat="48.73443" lon="2.54875">
        <ele>91</ele>
        <time>2021-02-17T11:29:21.173Z</time>
      </trkpt>
      <trkpt lat="48.73447" lon="2.54884">
        <ele>91</ele>
        <time>2021-02-17T11:29:26.166Z</time>
      </trkpt>
      <trkpt lat="48.7345" lon="2.54894">
        <ele>91</ele>
        <time>2021-02-17T11:29:31.180Z</time>
      </trkpt>
      <trkpt lat="48.73453" lon="2.54904">
        <ele>91</ele>
        <time>2021-02-17T11:29:36.166Z</time>
      </trkpt>
      <trkpt lat="48.73454" lon="2.54909">
        <ele>91</ele>
        <time>2021-02-17T11:29:40.180Z</time>
      </trkpt>
      <trkpt lat="48.73456" lon="2.54919">
        <ele>91</ele>
        <time>2021-02-17T11:29:45.174Z</time>
      </trkpt>
      <trkpt lat="48.73459" lon="2.54929">
        <ele>91</ele>
        <time>2021-02-17T11:29:50.172Z</time>
      </trkpt>
      <trkpt lat="48.73461" lon="2.54937">
        <ele>92</ele>
        <time>2021-02-17T11:29:55.173Z</time>
      </trkpt>
      <trkpt lat="48.73462" lon="2.54947">
        <ele>92</ele>
        <time>2021-02-17T11:30:00.170Z</time>
      </trkpt>
      <trkpt lat="48.73464" lon="2.54952">
        <ele>92</ele>
        <time>2021-02-17T11:30:04.170Z</time>
      </trkpt>
      <trkpt lat="48.73465" lon="2.54958">
        <ele>92</ele>
        <time>2021-02-17T11:30:09.167Z</time>
      </trkpt>
      <trkpt lat="48.73467" lon="2.54966">
        <ele>92</ele>
        <time>2021-02-17T11:30:13.169Z</time>
      </trkpt>
      <trkpt lat="48.73468" lon="2.54977">
        <ele>92</ele>
        <time>2021-02-17T11:30:18.174Z</time>
      </trkpt>
      <trkpt lat="48.7347" lon="2.54987">
        <ele>92</ele>
        <time>2021-02-17T11:30:23.167Z</time>
      </trkpt>
      <trkpt lat="48.73475" lon="2.54995">
        <ele>92</ele>
        <time>2021-02-17T11:30:28.205Z</time>
      </trkpt>
      <trkpt lat="48.73481" lon="2.54998">
        <ele>92</ele>
        <time>2021-02-17T11:30:33.181Z</time>
      </trkpt>
      <trkpt lat="48.73485" lon="2.54998">
        <ele>92</ele>
        <time>2021-02-17T11:30:37.167Z</time>
      </trkpt>
      <trkpt lat="48.73491" lon="2.54999">
        <ele>93</ele>
        <time>2021-02-17T11:30:42.170Z</time>
      </trkpt>
      <trkpt lat="48.73496" lon="2.55001">
        <ele>93</ele>
        <time>2021-02-17T11:30:47.169Z</time>
      </trkpt>
      <trkpt lat="48.73503" lon="2.55001">
        <ele>93</ele>
        <time>2021-02-17T11:30:52.174Z</time>
      </trkpt>
      <trkpt lat="48.73508" lon="2.55005">
        <ele>93</ele>
        <time>2021-02-17T11:30:57.177Z</time>
      </trkpt>
      <trkpt lat="48.73513" lon="2.55004">
        <ele>93</ele>
        <time>2021-02-17T11:31:02.171Z</time>
      </trkpt>
      <trkpt lat="48.73514" lon="2.54997">
        <ele>93</ele>
        <time>2021-02-17T11:31:06.148Z</time>
      </trkpt>
      <trkpt lat="48.73514" lon="2.54991">
        <ele>93</ele>
        <time>2021-02-17T11:31:11.178Z</time>
      </trkpt>
      <trkpt lat="48.73513" lon="2.54986">
        <ele>93</ele>
        <time>2021-02-17T11:31:15.173Z</time>
      </trkpt>
      <trkpt lat="48.7351" lon="2.54977">
        <ele>93</ele>
        <time>2021-02-17T11:31:20.170Z</time>
      </trkpt>
      <trkpt lat="48.73507" lon="2.54969">
        <ele>93</ele>
        <time>2021-02-17T11:31:25.176Z</time>
      </trkpt>
      <trkpt lat="48.73503" lon="2.54961">
        <ele>93</ele>
        <time>2021-02-17T11:31:30.166Z</time>
      </trkpt>
      <trkpt lat="48.73501" lon="2.54952">
        <ele>93</ele>
        <time>2021-02-17T11:31:35.141Z</time>
      </trkpt>
      <trkpt lat="48.73499" lon="2.54943">
        <ele>93</ele>
        <time>2021-02-17T11:31:40.161Z</time>
      </trkpt>
      <trkpt lat="48.73498" lon="2.54934">
        <ele>93</ele>
        <time>2021-02-17T11:31:45.176Z</time>
      </trkpt>
      <trkpt lat="48.73497" lon="2.54926">
        <ele>92</ele>
        <time>2021-02-17T11:31:50.170Z</time>
      </trkpt>
      <trkpt lat="48.73493" lon="2.54918">
        <ele>92</ele>
        <time>2021-02-17T11:31:55.166Z</time>
      </trkpt>
      <trkpt lat="48.73491" lon="2.54908">
        <ele>92</ele>
        <time>2021-02-17T11:32:00.171Z</time>
      </trkpt>
      <trkpt lat="48.73488" lon="2.54901">
        <ele>91</ele>
        <time>2021-02-17T11:32:04.165Z</time>
      </trkpt>
      <trkpt lat="48.73484" lon="2.5489">
        <ele>91</ele>
        <time>2021-02-17T11:32:09.141Z</time>
      </trkpt>
      <trkpt lat="48.7348" lon="2.54883">
        <ele>91</ele>
        <time>2021-02-17T11:32:13.161Z</time>
      </trkpt>
      <trkpt lat="48.73477" lon="2.54875">
        <ele>91</ele>
        <time>2021-02-17T11:32:18.161Z</time>
      </trkpt>
      <trkpt lat="48.73473" lon="2.54867">
        <ele>91</ele>
        <time>2021-02-17T11:32:23.172Z</time>
      </trkpt>
      <trkpt lat="48.73471" lon="2.54858">
        <ele>91</ele>
        <time>2021-02-17T11:32:28.152Z</time>
      </trkpt>
      <trkpt lat="48.73469" lon="2.5485">
        <ele>91</ele>
        <time>2021-02-17T11:32:33.163Z</time>
      </trkpt>
      <trkpt lat="48.73468" lon="2.54843">
        <ele>91</ele>
        <time>2021-02-17T11:32:38.166Z</time>
      </trkpt>
      <trkpt lat="48.73466" lon="2.54836">
        <ele>91</ele>
        <time>2021-02-17T11:32:42.171Z</time>
      </trkpt>
      <trkpt lat="48.73463" lon="2.54829">
        <ele>91</ele>
        <time>2021-02-17T11:32:46.170Z</time>
      </trkpt>
      <trkpt lat="48.73459" lon="2.54821">
        <ele>91</ele>
        <time>2021-02-17T11:32:51.164Z</time>
      </trkpt>
      <trkpt lat="48.73457" lon="2.54814">
        <ele>90</ele>
        <time>2021-02-17T11:32:55.171Z</time>
      </trkpt>
      <trkpt lat="48.73455" lon="2.54806">
        <ele>90</ele>
        <time>2021-02-17T11:33:00.171Z</time>
      </trkpt>
      <trkpt lat="48.73452" lon="2.54798">
        <ele>90</ele>
        <time>2021-02-17T11:33:05.181Z</time>
      </trkpt>
      <trkpt lat="48.73449" lon="2.54791">
        <ele>90</ele>
        <time>2021-02-17T11:33:10.168Z</time>
      </trkpt>
      <trkpt lat="48.73448" lon="2.54784">
        <ele>90</ele>
        <time>2021-02-17T11:33:15.155Z</time>
      </trkpt>
      <trkpt lat="48.73446" lon="2.54777">
        <ele>90</ele>
        <time>2021-02-17T11:33:19.160Z</time>
      </trkpt>
      <trkpt lat="48.73444" lon="2.5477">
        <ele>90</ele>
        <time>2021-02-17T11:33:23.169Z</time>
      </trkpt>
      <trkpt lat="48.73442" lon="2.54762">
        <ele>90</ele>
        <time>2021-02-17T11:33:28.167Z</time>
      </trkpt>
      <trkpt lat="48.73438" lon="2.54754">
        <ele>90</ele>
        <time>2021-02-17T11:33:33.179Z</time>
      </trkpt>
      <trkpt lat="48.73434" lon="2.54746">
        <ele>90</ele>
        <time>2021-02-17T11:33:38.143Z</time>
      </trkpt>
      <trkpt lat="48.73431" lon="2.54741">
        <ele>90</ele>
        <time>2021-02-17T11:33:42.161Z</time>
      </trkpt>
      <trkpt lat="48.73427" lon="2.54733">
        <ele>90</ele>
        <time>2021-02-17T11:33:47.167Z</time>
      </trkpt>
      <trkpt lat="48.73423" lon="2.54727">
        <ele>90</ele>
        <time>2021-02-17T11:33:51.171Z</time>
      </trkpt>
      <trkpt lat="48.73419" lon="2.54719">
        <ele>90</ele>
        <time>2021-02-17T11:33:56.148Z</time>
      </trkpt>
      <trkpt lat="48.73416" lon="2.54713">
        <ele>90</ele>
        <time>2021-02-17T11:34:00.163Z</time>
      </trkpt>
      <trkpt lat="48.73412" lon="2.54705">
        <ele>91</ele>
        <time>2021-02-17T11:34:05.146Z</time>
      </trkpt>
      <trkpt lat="48.73408" lon="2.54699">
        <ele>91</ele>
        <time>2021-02-17T11:34:10.170Z</time>
      </trkpt>
      <trkpt lat="48.73403" lon="2.54695">
        <ele>91</ele>
        <time>2021-02-17T11:34:15.167Z</time>
      </trkpt>
      <trkpt lat="48.73397" lon="2.54688">
        <ele>91</ele>
        <time>2021-02-17T11:34:20.167Z</time>
      </trkpt>
      <trkpt lat="48.73393" lon="2.54681">
        <ele>91</ele>
        <time>2021-02-17T11:34:25.169Z</time>
      </trkpt>
      <trkpt lat="48.73386" lon="2.54677">
        <ele>91</ele>
        <time>2021-02-17T11:34:30.154Z</time>
      </trkpt>
      <trkpt lat="48.73382" lon="2.54673">
        <ele>91</ele>
        <time>2021-02-17T11:34:34.163Z</time>
      </trkpt>
      <trkpt lat="48.73376" lon="2.54672">
        <ele>91</ele>
        <time>2021-02-17T11:34:39.151Z</time>
      </trkpt>
      <trkpt lat="48.73374" lon="2.5467">
        <ele>91</ele>
        <time>2021-02-17T11:34:43.158Z</time>
      </trkpt>
      <trkpt lat="48.73367" lon="2.54666">
        <ele>91</ele>
        <time>2021-02-17T11:34:48.142Z</time>
      </trkpt>
      <trkpt lat="48.73363" lon="2.54662">
        <ele>91</ele>
        <time>2021-02-17T11:34:52.172Z</time>
      </trkpt>
      <trkpt lat="48.73359" lon="2.54658">
        <ele>91</ele>
        <time>2021-02-17T11:34:57.167Z</time>
      </trkpt>
      <trkpt lat="48.73354" lon="2.54656">
        <ele>91</ele>
        <time>2021-02-17T11:35:02.156Z</time>
      </trkpt>
      <trkpt lat="48.73349" lon="2.5465">
        <ele>90</ele>
        <time>2021-02-17T11:35:07.150Z</time>
      </trkpt>
      <trkpt lat="48.73346" lon="2.54645">
        <ele>89</ele>
        <time>2021-02-17T11:35:11.157Z</time>
      </trkpt>
      <trkpt lat="48.73341" lon="2.54642">
        <ele>89</ele>
        <time>2021-02-17T11:35:16.159Z</time>
      </trkpt>
      <trkpt lat="48.73336" lon="2.54637">
        <ele>89</ele>
        <time>2021-02-17T11:35:21.169Z</time>
      </trkpt>
      <trkpt lat="48.7333" lon="2.54633">
        <ele>89</ele>
        <time>2021-02-17T11:35:26.169Z</time>
      </trkpt>
      <trkpt lat="48.73324" lon="2.5463">
        <ele>89</ele>
        <time>2021-02-17T11:35:31.169Z</time>
      </trkpt>
      <trkpt lat="48.7332" lon="2.54628">
        <ele>89</ele>
        <time>2021-02-17T11:35:36.161Z</time>
      </trkpt>
      <trkpt lat="48.73313" lon="2.54624">
        <ele>89</ele>
        <time>2021-02-17T11:35:41.155Z</time>
      </trkpt>
      <trkpt lat="48.73307" lon="2.5462">
        <ele>89</ele>
        <time>2021-02-17T11:35:46.163Z</time>
      </trkpt>
      <trkpt lat="48.73304" lon="2.54617">
        <ele>89</ele>
        <time>2021-02-17T11:35:50.159Z</time>
      </trkpt>
      <trkpt lat="48.73298" lon="2.54616">
        <ele>89</ele>
        <time>2021-02-17T11:35:55.163Z</time>
      </trkpt>
      <trkpt lat="48.73294" lon="2.54613">
        <ele>89</ele>
        <time>2021-02-17T11:36:00.169Z</time>
      </trkpt>
      <trkpt lat="48.7329" lon="2.54611">
        <ele>86</ele>
        <time>2021-02-17T11:36:05.161Z</time>
      </trkpt>
      <trkpt lat="48.73285" lon="2.54607">
        <ele>86</ele>
        <time>2021-02-17T11:36:10.131Z</time>
      </trkpt>
      <trkpt lat="48.73279" lon="2.54603">
        <ele>86</ele>
        <time>2021-02-17T11:36:14.157Z</time>
      </trkpt>
      <trkpt lat="48.73273" lon="2.546">
        <ele>86</ele>
        <time>2021-02-17T11:36:19.167Z</time>
      </trkpt>
      <trkpt lat="48.73269" lon="2.54596">
        <ele>86</ele>
        <time>2021-02-17T11:36:24.171Z</time>
      </trkpt>
      <trkpt lat="48.73263" lon="2.54595">
        <ele>83</ele>
        <time>2021-02-17T11:36:29.161Z</time>
      </trkpt>
      <trkpt lat="48.73257" lon="2.54594">
        <ele>83</ele>
        <time>2021-02-17T11:36:34.155Z</time>
      </trkpt>
      <trkpt lat="48.73254" lon="2.54593">
        <ele>83</ele>
        <time>2021-02-17T11:36:38.155Z</time>
      </trkpt>
      <trkpt lat="48.73248" lon="2.5459">
        <ele>83</ele>
        <time>2021-02-17T11:36:43.139Z</time>
      </trkpt>
      <trkpt lat="48.73243" lon="2.54587">
        <ele>83</ele>
        <time>2021-02-17T11:36:47.170Z</time>
      </trkpt>
      <trkpt lat="48.73237" lon="2.54584">
        <ele>83</ele>
        <time>2021-02-17T11:36:52.163Z</time>
      </trkpt>
      <trkpt lat="48.73231" lon="2.54577">
        <ele>83</ele>
        <time>2021-02-17T11:36:57.157Z</time>
      </trkpt>
      <trkpt lat="48.73224" lon="2.54576">
        <ele>83</ele>
        <time>2021-02-17T11:37:02.158Z</time>
      </trkpt>
      <trkpt lat="48.73219" lon="2.54575">
        <ele>83</ele>
        <time>2021-02-17T11:37:06.149Z</time>
      </trkpt>
      <trkpt lat="48.73213" lon="2.54573">
        <ele>83</ele>
        <time>2021-02-17T11:37:11.165Z</time>
      </trkpt>
      <trkpt lat="48.73209" lon="2.54567">
        <ele>83</ele>
        <time>2021-02-17T11:37:16.145Z</time>
      </trkpt>
      <trkpt lat="48.73207" lon="2.54559">
        <ele>82</ele>
        <time>2021-02-17T11:37:21.173Z</time>
      </trkpt>
      <trkpt lat="48.73206" lon="2.54553">
        <ele>82</ele>
        <time>2021-02-17T11:37:25.163Z</time>
      </trkpt>
      <trkpt lat="48.73202" lon="2.54548">
        <ele>82</ele>
        <time>2021-02-17T11:37:30.155Z</time>
      </trkpt>
      <trkpt lat="48.73201" lon="2.54548">
        <ele>82</ele>
        <time>2021-02-17T11:37:35.158Z</time>
      </trkpt>
      <trkpt lat="48.732" lon="2.54544">
        <ele>82</ele>
        <time>2021-02-17T11:37:40.167Z</time>
      </trkpt>
      <trkpt lat="48.73198" lon="2.54534">
        <ele>81</ele>
        <time>2021-02-17T11:37:45.148Z</time>
      </trkpt>
      <trkpt lat="48.73194" lon="2.54528">
        <ele>81</ele>
        <time>2021-02-17T11:37:50.166Z</time>
      </trkpt>
      <trkpt lat="48.73191" lon="2.54524">
        <ele>81</ele>
        <time>2021-02-17T11:37:54.159Z</time>
      </trkpt>
      <trkpt lat="48.73189" lon="2.54516">
        <ele>81</ele>
        <time>2021-02-17T11:37:59.172Z</time>
      </trkpt>
      <trkpt lat="48.73186" lon="2.54509">
        <ele>80</ele>
        <time>2021-02-17T11:38:04.163Z</time>
      </trkpt>
      <trkpt lat="48.73183" lon="2.54501">
        <ele>80</ele>
        <time>2021-02-17T11:38:09.153Z</time>
      </trkpt>
      <trkpt lat="48.73182" lon="2.54492">
        <ele>80</ele>
        <time>2021-02-17T11:38:14.166Z</time>
      </trkpt>
      <trkpt lat="48.73178" lon="2.54486">
        <ele>77</ele>
        <time>2021-02-17T11:38:19.171Z</time>
      </trkpt>
      <trkpt lat="48.73173" lon="2.5448">
        <ele>77</ele>
        <time>2021-02-17T11:38:24.147Z</time>
      </trkpt>
      <trkpt lat="48.73168" lon="2.54477">
        <ele>77</ele>
        <time>2021-02-17T11:38:28.160Z</time>
      </trkpt>
      <trkpt lat="48.73165" lon="2.54474">
        <ele>77</ele>
        <time>2021-02-17T11:38:33.162Z</time>
      </trkpt>
      <trkpt lat="48.7316" lon="2.54472">
        <ele>77</ele>
        <time>2021-02-17T11:38:38.143Z</time>
      </trkpt>
      <trkpt lat="48.7316" lon="2.54465">
        <ele>77</ele>
        <time>2021-02-17T11:38:42.155Z</time>
      </trkpt>
      <trkpt lat="48.73159" lon="2.54457">
        <ele>77</ele>
        <time>2021-02-17T11:38:47.166Z</time>
      </trkpt>
      <trkpt lat="48.73157" lon="2.5445">
        <ele>77</ele>
        <time>2021-02-17T11:38:51.171Z</time>
      </trkpt>
      <trkpt lat="48.73152" lon="2.54441">
        <ele>76</ele>
        <time>2021-02-17T11:38:56.149Z</time>
      </trkpt>
      <trkpt lat="48.73149" lon="2.54436">
        <ele>76</ele>
        <time>2021-02-17T11:39:00.163Z</time>
      </trkpt>
      <trkpt lat="48.73144" lon="2.54429">
        <ele>76</ele>
        <time>2021-02-17T11:39:05.184Z</time>
      </trkpt>
      <trkpt lat="48.73139" lon="2.54422">
        <ele>76</ele>
        <time>2021-02-17T11:39:10.144Z</time>
      </trkpt>
      <trkpt lat="48.73137" lon="2.54416">
        <ele>76</ele>
        <time>2021-02-17T11:39:14.144Z</time>
      </trkpt>
      <trkpt lat="48.73134" lon="2.54409">
        <ele>76</ele>
        <time>2021-02-17T11:39:19.160Z</time>
      </trkpt>
      <trkpt lat="48.7313" lon="2.54402">
        <ele>75</ele>
        <time>2021-02-17T11:39:24.139Z</time>
      </trkpt>
      <trkpt lat="48.73127" lon="2.54394">
        <ele>75</ele>
        <time>2021-02-17T11:39:29.167Z</time>
      </trkpt>
      <trkpt lat="48.73124" lon="2.54385">
        <ele>74</ele>
        <time>2021-02-17T11:39:34.157Z</time>
      </trkpt>
      <trkpt lat="48.73119" lon="2.54378">
        <ele>74</ele>
        <time>2021-02-17T11:39:39.165Z</time>
      </trkpt>
      <trkpt lat="48.73114" lon="2.54374">
        <ele>74</ele>
        <time>2021-02-17T11:39:44.161Z</time>
      </trkpt>
      <trkpt lat="48.73107" lon="2.54374">
        <ele>74</ele>
        <time>2021-02-17T11:39:49.171Z</time>
      </trkpt>
      <trkpt lat="48.73102" lon="2.54375">
        <ele>74</ele>
        <time>2021-02-17T11:39:54.154Z</time>
      </trkpt>
      <trkpt lat="48.73099" lon="2.54375">
        <ele>74</ele>
        <time>2021-02-17T11:39:58.129Z</time>
      </trkpt>
      <trkpt lat="48.73095" lon="2.54373">
        <ele>72</ele>
        <time>2021-02-17T11:40:02.132Z</time>
      </trkpt>
      <trkpt lat="48.73091" lon="2.54369">
        <ele>72</ele>
        <time>2021-02-17T11:40:07.161Z</time>
      </trkpt>
      <trkpt lat="48.73085" lon="2.54365">
        <ele>72</ele>
        <time>2021-02-17T11:40:12.174Z</time>
      </trkpt>
      <trkpt lat="48.73078" lon="2.54361">
        <ele>72</ele>
        <time>2021-02-17T11:40:17.175Z</time>
      </trkpt>
      <trkpt lat="48.73071" lon="2.54362">
        <ele>72</ele>
        <time>2021-02-17T11:40:22.161Z</time>
      </trkpt>
      <trkpt lat="48.73065" lon="2.54361">
        <ele>71</ele>
        <time>2021-02-17T11:40:27.153Z</time>
      </trkpt>
      <trkpt lat="48.7306" lon="2.54361">
        <ele>71</ele>
        <time>2021-02-17T11:40:32.149Z</time>
      </trkpt>
      <trkpt lat="48.73054" lon="2.54355">
        <ele>71</ele>
        <time>2021-02-17T11:40:37.163Z</time>
      </trkpt>
      <trkpt lat="48.73049" lon="2.54348">
        <ele>71</ele>
        <time>2021-02-17T11:40:42.152Z</time>
      </trkpt>
      <trkpt lat="48.73043" lon="2.54345">
        <ele>71</ele>
        <time>2021-02-17T11:40:47.133Z</time>
      </trkpt>
      <trkpt lat="48.73038" lon="2.54344">
        <ele>70</ele>
        <time>2021-02-17T11:40:51.167Z</time>
      </trkpt>
      <trkpt lat="48.73034" lon="2.54337">
        <ele>70</ele>
        <time>2021-02-17T11:40:56.164Z</time>
      </trkpt>
      <trkpt lat="48.73031" lon="2.54329">
        <ele>70</ele>
        <time>2021-02-17T11:41:01.162Z</time>
      </trkpt>
      <trkpt lat="48.73029" lon="2.54324">
        <ele>70</ele>
        <time>2021-02-17T11:41:05.158Z</time>
      </trkpt>
      <trkpt lat="48.73026" lon="2.54317">
        <ele>70</ele>
        <time>2021-02-17T11:41:10.160Z</time>
      </trkpt>
      <trkpt lat="48.73023" lon="2.54308">
        <ele>70</ele>
        <time>2021-02-17T11:41:15.165Z</time>
      </trkpt>
      <trkpt lat="48.7302" lon="2.54299">
        <ele>70</ele>
        <time>2021-02-17T11:41:20.161Z</time>
      </trkpt>
      <trkpt lat="48.73017" lon="2.54291">
        <ele>70</ele>
        <time>2021-02-17T11:41:25.152Z</time>
      </trkpt>
      <trkpt lat="48.73016" lon="2.54285">
        <ele>70</ele>
        <time>2021-02-17T11:41:29.151Z</time>
      </trkpt>
      <trkpt lat="48.73013" lon="2.54277">
        <ele>68</ele>
        <time>2021-02-17T11:41:34.159Z</time>
      </trkpt>
      <trkpt lat="48.73009" lon="2.54268">
        <ele>68</ele>
        <time>2021-02-17T11:41:39.156Z</time>
      </trkpt>
      <trkpt lat="48.73006" lon="2.5426">
        <ele>68</ele>
        <time>2021-02-17T11:41:44.166Z</time>
      </trkpt>
      <trkpt lat="48.73004" lon="2.54252">
        <ele>68</ele>
        <time>2021-02-17T11:41:49.163Z</time>
      </trkpt>
      <trkpt lat="48.73001" lon="2.54245">
        <ele>68</ele>
        <time>2021-02-17T11:41:53.149Z</time>
      </trkpt>
      <trkpt lat="48.72997" lon="2.54237">
        <ele>68</ele>
        <time>2021-02-17T11:41:58.155Z</time>
      </trkpt>
      <trkpt lat="48.72992" lon="2.5423">
        <ele>67</ele>
        <time>2021-02-17T11:42:03.143Z</time>
      </trkpt>
      <trkpt lat="48.72988" lon="2.54223">
        <ele>67</ele>
        <time>2021-02-17T11:42:08.215Z</time>
      </trkpt>
      <trkpt lat="48.72983" lon="2.54215">
        <ele>65</ele>
        <time>2021-02-17T11:42:13.158Z</time>
      </trkpt>
      <trkpt lat="48.72978" lon="2.54208">
        <ele>64</ele>
        <time>2021-02-17T11:42:18.142Z</time>
      </trkpt>
      <trkpt lat="48.72975" lon="2.54211">
        <ele>65</ele>
        <time>2021-02-17T11:42:23.157Z</time>
      </trkpt>
      <trkpt lat="48.7297" lon="2.54213">
        <ele>65</ele>
        <time>2021-02-17T11:42:27.171Z</time>
      </trkpt>
      <trkpt lat="48.72964" lon="2.54215">
        <ele>65</ele>
        <time>2021-02-17T11:42:32.150Z</time>
      </trkpt>
      <trkpt lat="48.7296" lon="2.54217">
        <ele>65</ele>
        <time>2021-02-17T11:42:36.145Z</time>
      </trkpt>
      <trkpt lat="48.72956" lon="2.5422">
        <ele>63</ele>
        <time>2021-02-17T11:42:41.149Z</time>
      </trkpt>
      <trkpt lat="48.72953" lon="2.54222">
        <ele>63</ele>
        <time>2021-02-17T11:42:46.162Z</time>
      </trkpt>
      <trkpt lat="48.72951" lon="2.54229">
        <ele>63</ele>
        <time>2021-02-17T11:42:51.149Z</time>
      </trkpt>
      <trkpt lat="48.7295" lon="2.54232">
        <ele>63</ele>
        <time>2021-02-17T11:42:55.178Z</time>
      </trkpt>
      <trkpt lat="48.7295" lon="2.54229">
        <ele>63</ele>
        <time>2021-02-17T11:43:00.156Z</time>
      </trkpt>
      <trkpt lat="48.72948" lon="2.5422">
        <ele>63</ele>
        <time>2021-02-17T11:43:05.192Z</time>
      </trkpt>
      <trkpt lat="48.72947" lon="2.54212">
        <ele>63</ele>
        <time>2021-02-17T11:43:10.152Z</time>
      </trkpt>
      <trkpt lat="48.72944" lon="2.54208">
        <ele>63</ele>
        <time>2021-02-17T11:43:14.164Z</time>
      </trkpt>
      <trkpt lat="48.72941" lon="2.54203">
        <ele>63</ele>
        <time>2021-02-17T11:43:19.167Z</time>
      </trkpt>
      <trkpt lat="48.72941" lon="2.54195">
        <ele>63</ele>
        <time>2021-02-17T11:43:24.163Z</time>
      </trkpt>
      <trkpt lat="48.72941" lon="2.54186">
        <ele>63</ele>
        <time>2021-02-17T11:43:29.156Z</time>
      </trkpt>
      <trkpt lat="48.72936" lon="2.54182">
        <ele>63</ele>
        <time>2021-02-17T11:43:34.157Z</time>
      </trkpt>
      <trkpt lat="48.72929" lon="2.54179">
        <ele>63</ele>
        <time>2021-02-17T11:43:39.151Z</time>
      </trkpt>
      <trkpt lat="48.72923" lon="2.54177">
        <ele>63</ele>
        <time>2021-02-17T11:43:43.142Z</time>
      </trkpt>
      <trkpt lat="48.72918" lon="2.54176">
        <ele>63</ele>
        <time>2021-02-17T11:43:47.159Z</time>
      </trkpt>
      <trkpt lat="48.72912" lon="2.54175">
        <ele>63</ele>
        <time>2021-02-17T11:43:52.163Z</time>
      </trkpt>
      <trkpt lat="48.72907" lon="2.54173">
        <ele>63</ele>
        <time>2021-02-17T11:43:57.164Z</time>
      </trkpt>
      <trkpt lat="48.72903" lon="2.54172">
        <ele>64</ele>
        <time>2021-02-17T11:44:01.168Z</time>
      </trkpt>
      <trkpt lat="48.72896" lon="2.54172">
        <ele>64</ele>
        <time>2021-02-17T11:44:06.141Z</time>
      </trkpt>
      <trkpt lat="48.72891" lon="2.54173">
        <ele>64</ele>
        <time>2021-02-17T11:44:10.163Z</time>
      </trkpt>
      <trkpt lat="48.72884" lon="2.54174">
        <ele>64</ele>
        <time>2021-02-17T11:44:15.142Z</time>
      </trkpt>
      <trkpt lat="48.72879" lon="2.54175">
        <ele>64</ele>
        <time>2021-02-17T11:44:19.153Z</time>
      </trkpt>
      <trkpt lat="48.72872" lon="2.54177">
        <ele>65</ele>
        <time>2021-02-17T11:44:24.167Z</time>
      </trkpt>
      <trkpt lat="48.72868" lon="2.54179">
        <ele>65</ele>
        <time>2021-02-17T11:44:29.157Z</time>
      </trkpt>
      <trkpt lat="48.72864" lon="2.54181">
        <ele>65</ele>
        <time>2021-02-17T11:44:33.166Z</time>
      </trkpt>
      <trkpt lat="48.72858" lon="2.54181">
        <ele>64</ele>
        <time>2021-02-17T11:44:38.168Z</time>
      </trkpt>
      <trkpt lat="48.72853" lon="2.54182">
        <ele>64</ele>
        <time>2021-02-17T11:44:42.170Z</time>
      </trkpt>
      <trkpt lat="48.72847" lon="2.54186">
        <ele>63</ele>
        <time>2021-02-17T11:44:47.156Z</time>
      </trkpt>
      <trkpt lat="48.72841" lon="2.5419">
        <ele>63</ele>
        <time>2021-02-17T11:44:52.154Z</time>
      </trkpt>
      <trkpt lat="48.72834" lon="2.54193">
        <ele>63</ele>
        <time>2021-02-17T11:44:57.161Z</time>
      </trkpt>
      <trkpt lat="48.72828" lon="2.54196">
        <ele>63</ele>
        <time>2021-02-17T11:45:01.168Z</time>
      </trkpt>
      <trkpt lat="48.72822" lon="2.54199">
        <ele>63</ele>
        <time>2021-02-17T11:45:06.153Z</time>
      </trkpt>
      <trkpt lat="48.72816" lon="2.54202">
        <ele>63</ele>
        <time>2021-02-17T11:45:11.139Z</time>
      </trkpt>
      <trkpt lat="48.72809" lon="2.54206">
        <ele>63</ele>
        <time>2021-02-17T11:45:16.162Z</time>
      </trkpt>
      <trkpt lat="48.72804" lon="2.54208">
        <ele>63</ele>
        <time>2021-02-17T11:45:20.173Z</time>
      </trkpt>
      <trkpt lat="48.72798" lon="2.54212">
        <ele>63</ele>
        <time>2021-02-17T11:45:25.159Z</time>
      </trkpt>
      <trkpt lat="48.72794" lon="2.54213">
        <ele>63</ele>
        <time>2021-02-17T11:45:30.163Z</time>
      </trkpt>
      <trkpt lat="48.7279" lon="2.54216">
        <ele>63</ele>
        <time>2021-02-17T11:45:35.173Z</time>
      </trkpt>
      <trkpt lat="48.72786" lon="2.54218">
        <ele>63</ele>
        <time>2021-02-17T11:45:39.160Z</time>
      </trkpt>
      <trkpt lat="48.72782" lon="2.54224">
        <ele>63</ele>
        <time>2021-02-17T11:45:44.169Z</time>
      </trkpt>
      <trkpt lat="48.7278" lon="2.54231">
        <ele>63</ele>
        <time>2021-02-17T11:45:49.163Z</time>
      </trkpt>
      <trkpt lat="48.7278" lon="2.54241">
        <ele>63</ele>
        <time>2021-02-17T11:45:54.168Z</time>
      </trkpt>
      <trkpt lat="48.7278" lon="2.5425">
        <ele>63</ele>
        <time>2021-02-17T11:45:59.160Z</time>
      </trkpt>
      <trkpt lat="48.7278" lon="2.5426">
        <ele>63</ele>
        <time>2021-02-17T11:46:04.160Z</time>
      </trkpt>
      <trkpt lat="48.72779" lon="2.54269">
        <ele>62</ele>
        <time>2021-02-17T11:46:08.160Z</time>
      </trkpt>
      <trkpt lat="48.72779" lon="2.5428">
        <ele>62</ele>
        <time>2021-02-17T11:46:13.142Z</time>
      </trkpt>
      <trkpt lat="48.72778" lon="2.54288">
        <ele>62</ele>
        <time>2021-02-17T11:46:17.158Z</time>
      </trkpt>
      <trkpt lat="48.72778" lon="2.54298">
        <ele>61</ele>
        <time>2021-02-17T11:46:22.144Z</time>
      </trkpt>
      <trkpt lat="48.72777" lon="2.54307">
        <ele>61</ele>
        <time>2021-02-17T11:46:27.152Z</time>
      </trkpt>
      <trkpt lat="48.72778" lon="2.54317">
        <ele>61</ele>
        <time>2021-02-17T11:46:32.151Z</time>
      </trkpt>
      <trkpt lat="48.72778" lon="2.54327">
        <ele>61</ele>
        <time>2021-02-17T11:46:37.154Z</time>
      </trkpt>
      <trkpt lat="48.72777" lon="2.54336">
        <ele>61</ele>
        <time>2021-02-17T11:46:42.161Z</time>
      </trkpt>
      <trkpt lat="48.72778" lon="2.54344">
        <ele>61</ele>
        <time>2021-02-17T11:46:46.131Z</time>
      </trkpt>
      <trkpt lat="48.72779" lon="2.54352">
        <ele>60</ele>
        <time>2021-02-17T11:46:51.144Z</time>
      </trkpt>
      <trkpt lat="48.7278" lon="2.54359">
        <ele>60</ele>
        <time>2021-02-17T11:46:55.142Z</time>
      </trkpt>
      <trkpt lat="48.7278" lon="2.54369">
        <ele>60</ele>
        <time>2021-02-17T11:47:00.159Z</time>
      </trkpt>
      <trkpt lat="48.7278" lon="2.54379">
        <ele>61</ele>
        <time>2021-02-17T11:47:05.154Z</time>
      </trkpt>
      <trkpt lat="48.72779" lon="2.54387">
        <ele>61</ele>
        <time>2021-02-17T11:47:10.152Z</time>
      </trkpt>
      <trkpt lat="48.72779" lon="2.54393">
        <ele>61</ele>
        <time>2021-02-17T11:47:14.155Z</time>
      </trkpt>
      <trkpt lat="48.72778" lon="2.54401">
        <ele>61</ele>
        <time>2021-02-17T11:47:19.156Z</time>
      </trkpt>
      <trkpt lat="48.72776" lon="2.54411">
        <ele>61</ele>
        <time>2021-02-17T11:47:24.151Z</time>
      </trkpt>
      <trkpt lat="48.72777" lon="2.5442">
        <ele>61</ele>
        <time>2021-02-17T11:47:28.152Z</time>
      </trkpt>
      <trkpt lat="48.72777" lon="2.54429">
        <ele>61</ele>
        <time>2021-02-17T11:47:33.171Z</time>
      </trkpt>
      <trkpt lat="48.72779" lon="2.54438">
        <ele>61</ele>
        <time>2021-02-17T11:47:38.142Z</time>
      </trkpt>
      <trkpt lat="48.7278" lon="2.54449">
        <ele>61</ele>
        <time>2021-02-17T11:47:43.164Z</time>
      </trkpt>
      <trkpt lat="48.72781" lon="2.54457">
        <ele>61</ele>
        <time>2021-02-17T11:47:48.186Z</time>
      </trkpt>
      <trkpt lat="48.72781" lon="2.54467">
        <ele>60</ele>
        <time>2021-02-17T11:47:53.146Z</time>
      </trkpt>
      <trkpt lat="48.72781" lon="2.54474">
        <ele>60</ele>
        <time>2021-02-17T11:47:57.162Z</time>
      </trkpt>
      <trkpt lat="48.72781" lon="2.54482">
        <ele>60</ele>
        <time>2021-02-17T11:48:02.165Z</time>
      </trkpt>
      <trkpt lat="48.7278" lon="2.5449">
        <ele>60</ele>
        <time>2021-02-17T11:48:06.157Z</time>
      </trkpt>
      <trkpt lat="48.7278" lon="2.54501">
        <ele>60</ele>
        <time>2021-02-17T11:48:11.168Z</time>
      </trkpt>
      <trkpt lat="48.72779" lon="2.54512">
        <ele>60</ele>
        <time>2021-02-17T11:48:16.166Z</time>
      </trkpt>
      <trkpt lat="48.72782" lon="2.54522">
        <ele>60</ele>
        <time>2021-02-17T11:48:21.153Z</time>
      </trkpt>
      <trkpt lat="48.72784" lon="2.5453">
        <ele>60</ele>
        <time>2021-02-17T11:48:26.156Z</time>
      </trkpt>
      <trkpt lat="48.72781" lon="2.54535">
        <ele>60</ele>
        <time>2021-02-17T11:48:30.160Z</time>
      </trkpt>
      <trkpt lat="48.72778" lon="2.54538">
        <ele>60</ele>
        <time>2021-02-17T11:48:35.152Z</time>
      </trkpt>
      <trkpt lat="48.7275" lon="2.54549">
        <ele>61</ele>
        <time>2021-02-17T11:48:54.153Z</time>
      </trkpt>
      <trkpt lat="48.72744" lon="2.54547">
        <ele>61</ele>
        <time>2021-02-17T11:48:59.136Z</time>
      </trkpt>
      <trkpt lat="48.72739" lon="2.54543">
        <ele>61</ele>
        <time>2021-02-17T11:49:03.158Z</time>
      </trkpt>
      <trkpt lat="48.72733" lon="2.54542">
        <ele>60</ele>
        <time>2021-02-17T11:49:08.153Z</time>
      </trkpt>
      <trkpt lat="48.72727" lon="2.54542">
        <ele>60</ele>
        <time>2021-02-17T11:49:13.153Z</time>
      </trkpt>
      <trkpt lat="48.72721" lon="2.54543">
        <ele>60</ele>
        <time>2021-02-17T11:49:18.154Z</time>
      </trkpt>
      <trkpt lat="48.72717" lon="2.54544">
        <ele>60</ele>
        <time>2021-02-17T11:49:22.188Z</time>
      </trkpt>
      <trkpt lat="48.72711" lon="2.54546">
        <ele>60</ele>
        <time>2021-02-17T11:49:27.153Z</time>
      </trkpt>
      <trkpt lat="48.72704" lon="2.54548">
        <ele>59</ele>
        <time>2021-02-17T11:49:32.157Z</time>
      </trkpt>
      <trkpt lat="48.72699" lon="2.54546">
        <ele>59</ele>
        <time>2021-02-17T11:49:37.157Z</time>
      </trkpt>
      <trkpt lat="48.72697" lon="2.54545">
        <ele>59</ele>
        <time>2021-02-17T11:49:41.155Z</time>
      </trkpt>
      <trkpt lat="48.7269" lon="2.54542">
        <ele>59</ele>
        <time>2021-02-17T11:49:46.168Z</time>
      </trkpt>
      <trkpt lat="48.72685" lon="2.54538">
        <ele>59</ele>
        <time>2021-02-17T11:49:51.160Z</time>
      </trkpt>
      <trkpt lat="48.7268" lon="2.54533">
        <ele>58</ele>
        <time>2021-02-17T11:49:55.164Z</time>
      </trkpt>
      <trkpt lat="48.72675" lon="2.54527">
        <ele>58</ele>
        <time>2021-02-17T11:50:00.155Z</time>
      </trkpt>
      <trkpt lat="48.72671" lon="2.5452">
        <ele>58</ele>
        <time>2021-02-17T11:50:04.164Z</time>
      </trkpt>
      <trkpt lat="48.72667" lon="2.54513">
        <ele>58</ele>
        <time>2021-02-17T11:50:09.155Z</time>
      </trkpt>
      <trkpt lat="48.72664" lon="2.54507">
        <ele>58</ele>
        <time>2021-02-17T11:50:14.156Z</time>
      </trkpt>
      <trkpt lat="48.7266" lon="2.54501">
        <ele>58</ele>
        <time>2021-02-17T11:50:19.156Z</time>
      </trkpt>
      <trkpt lat="48.72656" lon="2.54494">
        <ele>58</ele>
        <time>2021-02-17T11:50:24.134Z</time>
      </trkpt>
      <trkpt lat="48.72652" lon="2.54487">
        <ele>58</ele>
        <time>2021-02-17T11:50:29.151Z</time>
      </trkpt>
      <trkpt lat="48.72648" lon="2.54483">
        <ele>59</ele>
        <time>2021-02-17T11:50:33.156Z</time>
      </trkpt>
      <trkpt lat="48.72643" lon="2.54477">
        <ele>59</ele>
        <time>2021-02-17T11:50:38.164Z</time>
      </trkpt>
      <trkpt lat="48.72638" lon="2.54469">
        <ele>59</ele>
        <time>2021-02-17T11:50:43.148Z</time>
      </trkpt>
      <trkpt lat="48.72633" lon="2.54461">
        <ele>59</ele>
        <time>2021-02-17T11:50:48.170Z</time>
      </trkpt>
      <trkpt lat="48.72628" lon="2.54453">
        <ele>60</ele>
        <time>2021-02-17T11:50:53.164Z</time>
      </trkpt>
      <trkpt lat="48.72624" lon="2.54445">
        <ele>59</ele>
        <time>2021-02-17T11:50:58.143Z</time>
      </trkpt>
      <trkpt lat="48.7262" lon="2.54441">
        <ele>59</ele>
        <time>2021-02-17T11:51:02.145Z</time>
      </trkpt>
      <trkpt lat="48.72614" lon="2.54437">
        <ele>59</ele>
        <time>2021-02-17T11:51:06.154Z</time>
      </trkpt>
      <trkpt lat="48.72611" lon="2.54431">
        <ele>59</ele>
        <time>2021-02-17T11:51:11.160Z</time>
      </trkpt>
      <trkpt lat="48.72608" lon="2.54426">
        <ele>60</ele>
        <time>2021-02-17T11:51:15.162Z</time>
      </trkpt>
      <trkpt lat="48.72604" lon="2.54421">
        <ele>60</ele>
        <time>2021-02-17T11:51:20.153Z</time>
      </trkpt>
      <trkpt lat="48.72601" lon="2.54417">
        <ele>60</ele>
        <time>2021-02-17T11:51:24.153Z</time>
      </trkpt>
      <trkpt lat="48.72597" lon="2.54414">
        <ele>60</ele>
        <time>2021-02-17T11:51:29.150Z</time>
      </trkpt>
      <trkpt lat="48.72592" lon="2.54412">
        <ele>60</ele>
        <time>2021-02-17T11:51:34.151Z</time>
      </trkpt>
      <trkpt lat="48.72587" lon="2.54411">
        <ele>60</ele>
        <time>2021-02-17T11:51:39.154Z</time>
      </trkpt>
      <trkpt lat="48.72583" lon="2.54408">
        <ele>60</ele>
        <time>2021-02-17T11:51:43.160Z</time>
      </trkpt>
      <trkpt lat="48.72579" lon="2.54404">
        <ele>60</ele>
        <time>2021-02-17T11:51:48.147Z</time>
      </trkpt>
      <trkpt lat="48.72573" lon="2.54396">
        <ele>60</ele>
        <time>2021-02-17T11:51:52.146Z</time>
      </trkpt>
      <trkpt lat="48.72568" lon="2.54388">
        <ele>63</ele>
        <time>2021-02-17T11:51:57.132Z</time>
      </trkpt>
      <trkpt lat="48.72565" lon="2.54382">
        <ele>63</ele>
        <time>2021-02-17T11:52:02.135Z</time>
      </trkpt>
      <trkpt lat="48.72564" lon="2.54378">
        <ele>63</ele>
        <time>2021-02-17T11:52:07.143Z</time>
      </trkpt>
      <trkpt lat="48.72564" lon="2.54372">
        <ele>65</ele>
        <time>2021-02-17T11:52:12.153Z</time>
      </trkpt>
      <trkpt lat="48.72566" lon="2.54366">
        <ele>65</ele>
        <time>2021-02-17T11:52:17.157Z</time>
      </trkpt>
      <trkpt lat="48.72567" lon="2.54361">
        <ele>65</ele>
        <time>2021-02-17T11:52:22.151Z</time>
      </trkpt>
      <trkpt lat="48.72568" lon="2.54356">
        <ele>65</ele>
        <time>2021-02-17T11:52:26.154Z</time>
      </trkpt>
      <trkpt lat="48.7257" lon="2.54348">
        <ele>61</ele>
        <time>2021-02-17T11:52:31.157Z</time>
      </trkpt>
      <trkpt lat="48.72572" lon="2.54343">
        <ele>63</ele>
        <time>2021-02-17T11:52:36.135Z</time>
      </trkpt>
      <trkpt lat="48.72574" lon="2.54336">
        <ele>63</ele>
        <time>2021-02-17T11:52:41.142Z</time>
      </trkpt>
      <trkpt lat="48.72575" lon="2.5433">
        <ele>63</ele>
        <time>2021-02-17T11:52:46.161Z</time>
      </trkpt>
      <trkpt lat="48.72579" lon="2.54324">
        <ele>63</ele>
        <time>2021-02-17T11:52:51.156Z</time>
      </trkpt>
      <trkpt lat="48.7258" lon="2.54319">
        <ele>66</ele>
        <time>2021-02-17T11:52:55.151Z</time>
      </trkpt>
      <trkpt lat="48.72581" lon="2.54312">
        <ele>66</ele>
        <time>2021-02-17T11:53:00.134Z</time>
      </trkpt>
      <trkpt lat="48.72582" lon="2.54307">
        <ele>66</ele>
        <time>2021-02-17T11:53:04.157Z</time>
      </trkpt>
      <trkpt lat="48.72584" lon="2.54301">
        <ele>66</ele>
        <time>2021-02-17T11:53:08.156Z</time>
      </trkpt>
      <trkpt lat="48.72587" lon="2.54292">
        <ele>66</ele>
        <time>2021-02-17T11:53:13.156Z</time>
      </trkpt>
      <trkpt lat="48.72589" lon="2.54286">
        <ele>66</ele>
        <time>2021-02-17T11:53:18.135Z</time>
      </trkpt>
      <trkpt lat="48.72592" lon="2.54279">
        <ele>66</ele>
        <time>2021-02-17T11:53:23.152Z</time>
      </trkpt>
      <trkpt lat="48.72593" lon="2.54271">
        <ele>66</ele>
        <time>2021-02-17T11:53:28.166Z</time>
      </trkpt>
      <trkpt lat="48.72596" lon="2.54265">
        <ele>66</ele>
        <time>2021-02-17T11:53:32.148Z</time>
      </trkpt>
      <trkpt lat="48.72599" lon="2.54257">
        <ele>66</ele>
        <time>2021-02-17T11:53:37.156Z</time>
      </trkpt>
      <trkpt lat="48.72601" lon="2.5425">
        <ele>66</ele>
        <time>2021-02-17T11:53:42.153Z</time>
      </trkpt>
      <trkpt lat="48.72602" lon="2.54242">
        <ele>66</ele>
        <time>2021-02-17T11:53:46.158Z</time>
      </trkpt>
      <trkpt lat="48.72604" lon="2.54233">
        <ele>67</ele>
        <time>2021-02-17T11:53:51.154Z</time>
      </trkpt>
      <trkpt lat="48.72606" lon="2.54225">
        <ele>67</ele>
        <time>2021-02-17T11:53:56.156Z</time>
      </trkpt>
      <trkpt lat="48.72608" lon="2.54214">
        <ele>67</ele>
        <time>2021-02-17T11:54:01.160Z</time>
      </trkpt>
      <trkpt lat="48.7261" lon="2.54206">
        <ele>67</ele>
        <time>2021-02-17T11:54:06.146Z</time>
      </trkpt>
      <trkpt lat="48.72611" lon="2.54195">
        <ele>67</ele>
        <time>2021-02-17T11:54:11.144Z</time>
      </trkpt>
      <trkpt lat="48.72613" lon="2.54189">
        <ele>67</ele>
        <time>2021-02-17T11:54:15.144Z</time>
      </trkpt>
      <trkpt lat="48.72617" lon="2.54181">
        <ele>67</ele>
        <time>2021-02-17T11:54:20.158Z</time>
      </trkpt>
      <trkpt lat="48.72618" lon="2.54171">
        <ele>68</ele>
        <time>2021-02-17T11:54:25.147Z</time>
      </trkpt>
      <trkpt lat="48.72619" lon="2.54161">
        <ele>68</ele>
        <time>2021-02-17T11:54:30.154Z</time>
      </trkpt>
      <trkpt lat="48.72621" lon="2.54152">
        <ele>69</ele>
        <time>2021-02-17T11:54:35.155Z</time>
      </trkpt>
      <trkpt lat="48.72622" lon="2.54142">
        <ele>69</ele>
        <time>2021-02-17T11:54:40.162Z</time>
      </trkpt>
      <trkpt lat="48.72623" lon="2.54132">
        <ele>69</ele>
        <time>2021-02-17T11:54:45.152Z</time>
      </trkpt>
      <trkpt lat="48.72624" lon="2.54122">
        <ele>69</ele>
        <time>2021-02-17T11:54:50.161Z</time>
      </trkpt>
      <trkpt lat="48.72625" lon="2.54112">
        <ele>69</ele>
        <time>2021-02-17T11:54:55.153Z</time>
      </trkpt>
      <trkpt lat="48.72626" lon="2.54102">
        <ele>67</ele>
        <time>2021-02-17T11:55:00.140Z</time>
      </trkpt>
      <trkpt lat="48.72627" lon="2.54094">
        <ele>68</ele>
        <time>2021-02-17T11:55:04.151Z</time>
      </trkpt>
      <trkpt lat="48.72628" lon="2.54087">
        <ele>68</ele>
        <time>2021-02-17T11:55:08.160Z</time>
      </trkpt>
      <trkpt lat="48.72628" lon="2.54077">
        <ele>68</ele>
        <time>2021-02-17T11:55:13.159Z</time>
      </trkpt>
      <trkpt lat="48.72628" lon="2.54067">
        <ele>68</ele>
        <time>2021-02-17T11:55:18.146Z</time>
      </trkpt>
      <trkpt lat="48.72628" lon="2.54054">
        <ele>68</ele>
        <time>2021-02-17T11:55:23.156Z</time>
      </trkpt>
      <trkpt lat="48.72629" lon="2.54042">
        <ele>68</ele>
        <time>2021-02-17T11:55:28.164Z</time>
      </trkpt>
      <trkpt lat="48.72629" lon="2.54031">
        <ele>68</ele>
        <time>2021-02-17T11:55:33.133Z</time>
      </trkpt>
      <trkpt lat="48.7263" lon="2.54023">
        <ele>68</ele>
        <time>2021-02-17T11:55:37.157Z</time>
      </trkpt>
      <trkpt lat="48.72629" lon="2.54013">
        <ele>68</ele>
        <time>2021-02-17T11:55:42.150Z</time>
      </trkpt>
      <trkpt lat="48.72629" lon="2.54004">
        <ele>68</ele>
        <time>2021-02-17T11:55:47.156Z</time>
      </trkpt>
      <trkpt lat="48.7263" lon="2.53995">
        <ele>68</ele>
        <time>2021-02-17T11:55:51.159Z</time>
      </trkpt>
      <trkpt lat="48.7263" lon="2.53985">
        <ele>69</ele>
        <time>2021-02-17T11:55:56.154Z</time>
      </trkpt>
      <trkpt lat="48.7263" lon="2.53978">
        <ele>69</ele>
        <time>2021-02-17T11:56:01.158Z</time>
      </trkpt>
      <trkpt lat="48.72631" lon="2.53969">
        <ele>69</ele>
        <time>2021-02-17T11:56:06.160Z</time>
      </trkpt>
      <trkpt lat="48.72631" lon="2.53959">
        <ele>69</ele>
        <time>2021-02-17T11:56:11.142Z</time>
      </trkpt>
      <trkpt lat="48.72632" lon="2.53949">
        <ele>69</ele>
        <time>2021-02-17T11:56:16.149Z</time>
      </trkpt>
      <trkpt lat="48.72632" lon="2.53938">
        <ele>69</ele>
        <time>2021-02-17T11:56:21.154Z</time>
      </trkpt>
      <trkpt lat="48.72632" lon="2.53929">
        <ele>70</ele>
        <time>2021-02-17T11:56:26.160Z</time>
      </trkpt>
      <trkpt lat="48.72633" lon="2.53919">
        <ele>70</ele>
        <time>2021-02-17T11:56:31.162Z</time>
      </trkpt>
      <trkpt lat="48.72634" lon="2.53909">
        <ele>70</ele>
        <time>2021-02-17T11:56:36.161Z</time>
      </trkpt>
      <trkpt lat="48.72634" lon="2.53902">
        <ele>71</ele>
        <time>2021-02-17T11:56:40.158Z</time>
      </trkpt>
      <trkpt lat="48.72634" lon="2.53891">
        <ele>71</ele>
        <time>2021-02-17T11:56:45.163Z</time>
      </trkpt>
      <trkpt lat="48.72632" lon="2.53878">
        <ele>71</ele>
        <time>2021-02-17T11:56:50.149Z</time>
      </trkpt>
      <trkpt lat="48.72633" lon="2.53871">
        <ele>71</ele>
        <time>2021-02-17T11:56:55.152Z</time>
      </trkpt>
      <trkpt lat="48.72634" lon="2.53863">
        <ele>71</ele>
        <time>2021-02-17T11:57:00.153Z</time>
      </trkpt>
      <trkpt lat="48.72633" lon="2.53856">
        <ele>71</ele>
        <time>2021-02-17T11:58:50.156Z</time>
      </trkpt>
      <trkpt lat="48.72634" lon="2.53853">
        <ele>71</ele>
        <time>2021-02-17T11:58:59.134Z</time>
      </trkpt>
      <trkpt lat="48.72633" lon="2.53849">
        <ele>71</ele>
        <time>2021-02-17T11:59:03.158Z</time>
      </trkpt>
      <trkpt lat="48.72633" lon="2.53843">
        <ele>71</ele>
        <time>2021-02-17T11:59:08.138Z</time>
      </trkpt>
      <trkpt lat="48.72633" lon="2.53835">
        <ele>71</ele>
        <time>2021-02-17T11:59:13.153Z</time>
      </trkpt>
      <trkpt lat="48.72635" lon="2.53829">
        <ele>71</ele>
        <time>2021-02-17T11:59:18.161Z</time>
      </trkpt>
      <trkpt lat="48.72635" lon="2.53822">
        <ele>71</ele>
        <time>2021-02-17T11:59:22.148Z</time>
      </trkpt>
      <trkpt lat="48.72635" lon="2.53815">
        <ele>72</ele>
        <time>2021-02-17T11:59:27.145Z</time>
      </trkpt>
      <trkpt lat="48.72635" lon="2.53805">
        <ele>72</ele>
        <time>2021-02-17T11:59:32.151Z</time>
      </trkpt>
      <trkpt lat="48.72635" lon="2.53795">
        <ele>72</ele>
        <time>2021-02-17T11:59:37.133Z</time>
      </trkpt>
      <trkpt lat="48.72635" lon="2.53787">
        <ele>73</ele>
        <time>2021-02-17T11:59:41.141Z</time>
      </trkpt>
      <trkpt lat="48.72635" lon="2.53777">
        <ele>73</ele>
        <time>2021-02-17T11:59:46.147Z</time>
      </trkpt>
      <trkpt lat="48.72634" lon="2.53767">
        <ele>73</ele>
        <time>2021-02-17T11:59:51.147Z</time>
      </trkpt>
      <trkpt lat="48.72635" lon="2.53759">
        <ele>74</ele>
        <time>2021-02-17T11:59:55.162Z</time>
      </trkpt>
      <trkpt lat="48.72635" lon="2.53751">
        <ele>74</ele>
        <time>2021-02-17T11:59:59.138Z</time>
      </trkpt>
      <trkpt lat="48.72635" lon="2.53744">
        <ele>74</ele>
        <time>2021-02-17T12:00:03.150Z</time>
      </trkpt>
      <trkpt lat="48.72635" lon="2.53734">
        <ele>74</ele>
        <time>2021-02-17T12:00:08.153Z</time>
      </trkpt>
      <trkpt lat="48.72634" lon="2.53725">
        <ele>74</ele>
        <time>2021-02-17T12:00:13.150Z</time>
      </trkpt>
      <trkpt lat="48.72633" lon="2.53716">
        <ele>74</ele>
        <time>2021-02-17T12:00:17.156Z</time>
      </trkpt>
      <trkpt lat="48.72633" lon="2.53706">
        <ele>75</ele>
        <time>2021-02-17T12:00:22.144Z</time>
      </trkpt>
      <trkpt lat="48.72632" lon="2.53696">
        <ele>75</ele>
        <time>2021-02-17T12:00:27.144Z</time>
      </trkpt>
      <trkpt lat="48.72632" lon="2.53687">
        <ele>75</ele>
        <time>2021-02-17T12:00:32.157Z</time>
      </trkpt>
      <trkpt lat="48.72631" lon="2.53677">
        <ele>76</ele>
        <time>2021-02-17T12:00:37.140Z</time>
      </trkpt>
      <trkpt lat="48.7263" lon="2.5367">
        <ele>76</ele>
        <time>2021-02-17T12:00:41.153Z</time>
      </trkpt>
      <trkpt lat="48.7263" lon="2.5366">
        <ele>76</ele>
        <time>2021-02-17T12:00:46.155Z</time>
      </trkpt>
      <trkpt lat="48.72629" lon="2.5365">
        <ele>77</ele>
        <time>2021-02-17T12:00:51.158Z</time>
      </trkpt>
      <trkpt lat="48.72628" lon="2.53642">
        <ele>77</ele>
        <time>2021-02-17T12:00:55.157Z</time>
      </trkpt>
      <trkpt lat="48.72628" lon="2.53633">
        <ele>77</ele>
        <time>2021-02-17T12:00:59.150Z</time>
      </trkpt>
      <trkpt lat="48.72627" lon="2.53625">
        <ele>77</ele>
        <time>2021-02-17T12:01:03.154Z</time>
      </trkpt>
      <trkpt lat="48.72626" lon="2.53615">
        <ele>79</ele>
        <time>2021-02-17T12:01:08.142Z</time>
      </trkpt>
      <trkpt lat="48.72626" lon="2.53607">
        <ele>79</ele>
        <time>2021-02-17T12:01:12.156Z</time>
      </trkpt>
      <trkpt lat="48.72625" lon="2.536">
        <ele>79</ele>
        <time>2021-02-17T12:01:16.151Z</time>
      </trkpt>
      <trkpt lat="48.72625" lon="2.53591">
        <ele>80</ele>
        <time>2021-02-17T12:01:21.153Z</time>
      </trkpt>
      <trkpt lat="48.72624" lon="2.53584">
        <ele>80</ele>
        <time>2021-02-17T12:01:25.142Z</time>
      </trkpt>
      <trkpt lat="48.72623" lon="2.53574">
        <ele>80</ele>
        <time>2021-02-17T12:01:30.141Z</time>
      </trkpt>
      <trkpt lat="48.72623" lon="2.53565">
        <ele>80</ele>
        <time>2021-02-17T12:01:35.157Z</time>
      </trkpt>
      <trkpt lat="48.72622" lon="2.53557">
        <ele>80</ele>
        <time>2021-02-17T12:01:40.137Z</time>
      </trkpt>
      <trkpt lat="48.72622" lon="2.5355">
        <ele>80</ele>
        <time>2021-02-17T12:01:44.146Z</time>
      </trkpt>
      <trkpt lat="48.72625" lon="2.53542">
        <ele>80</ele>
        <time>2021-02-17T12:01:49.150Z</time>
      </trkpt>
      <trkpt lat="48.72628" lon="2.53534">
        <ele>82</ele>
        <time>2021-02-17T12:01:54.150Z</time>
      </trkpt>
      <trkpt lat="48.7263" lon="2.53524">
        <ele>82</ele>
        <time>2021-02-17T12:01:59.156Z</time>
      </trkpt>
      <trkpt lat="48.72632" lon="2.53513">
        <ele>82</ele>
        <time>2021-02-17T12:02:04.145Z</time>
      </trkpt>
      <trkpt lat="48.72633" lon="2.53502">
        <ele>82</ele>
        <time>2021-02-17T12:02:09.143Z</time>
      </trkpt>
      <trkpt lat="48.72632" lon="2.53491">
        <ele>82</ele>
        <time>2021-02-17T12:02:14.151Z</time>
      </trkpt>
      <trkpt lat="48.72631" lon="2.53483">
        <ele>82</ele>
        <time>2021-02-17T12:02:18.159Z</time>
      </trkpt>
      <trkpt lat="48.7263" lon="2.53473">
        <ele>82</ele>
        <time>2021-02-17T12:02:23.132Z</time>
      </trkpt>
      <trkpt lat="48.72629" lon="2.53465">
        <ele>82</ele>
        <time>2021-02-17T12:02:27.155Z</time>
      </trkpt>
      <trkpt lat="48.72627" lon="2.53454">
        <ele>83</ele>
        <time>2021-02-17T12:02:32.140Z</time>
      </trkpt>
      <trkpt lat="48.72626" lon="2.53446">
        <ele>83</ele>
        <time>2021-02-17T12:02:36.158Z</time>
      </trkpt>
      <trkpt lat="48.72625" lon="2.53437">
        <ele>83</ele>
        <time>2021-02-17T12:02:41.147Z</time>
      </trkpt>
      <trkpt lat="48.72625" lon="2.53428">
        <ele>84</ele>
        <time>2021-02-17T12:02:46.154Z</time>
      </trkpt>
      <trkpt lat="48.72625" lon="2.53418">
        <ele>84</ele>
        <time>2021-02-17T12:02:51.154Z</time>
      </trkpt>
      <trkpt lat="48.72625" lon="2.5341">
        <ele>83</ele>
        <time>2021-02-17T12:02:56.140Z</time>
      </trkpt>
      <trkpt lat="48.72626" lon="2.53402">
        <ele>86</ele>
        <time>2021-02-17T12:03:01.147Z</time>
      </trkpt>
      <trkpt lat="48.72626" lon="2.53393">
        <ele>86</ele>
        <time>2021-02-17T12:03:06.151Z</time>
      </trkpt>
      <trkpt lat="48.72626" lon="2.53383">
        <ele>86</ele>
        <time>2021-02-17T12:03:11.142Z</time>
      </trkpt>
      <trkpt lat="48.72625" lon="2.53372">
        <ele>88</ele>
        <time>2021-02-17T12:03:16.148Z</time>
      </trkpt>
      <trkpt lat="48.72625" lon="2.53362">
        <ele>88</ele>
        <time>2021-02-17T12:03:21.156Z</time>
      </trkpt>
      <trkpt lat="48.72625" lon="2.53353">
        <ele>88</ele>
        <time>2021-02-17T12:03:26.148Z</time>
      </trkpt>
      <trkpt lat="48.72624" lon="2.53345">
        <ele>89</ele>
        <time>2021-02-17T12:03:31.140Z</time>
      </trkpt>
      <trkpt lat="48.72623" lon="2.53335">
        <ele>89</ele>
        <time>2021-02-17T12:03:36.149Z</time>
      </trkpt>
      <trkpt lat="48.72622" lon="2.53327">
        <ele>89</ele>
        <time>2021-02-17T12:03:40.145Z</time>
      </trkpt>
      <trkpt lat="48.72622" lon="2.53318">
        <ele>90</ele>
        <time>2021-02-17T12:03:45.142Z</time>
      </trkpt>
      <trkpt lat="48.72622" lon="2.5331">
        <ele>90</ele>
        <time>2021-02-17T12:03:49.153Z</time>
      </trkpt>
      <trkpt lat="48.72622" lon="2.53301">
        <ele>90</ele>
        <time>2021-02-17T12:03:54.152Z</time>
      </trkpt>
      <trkpt lat="48.72623" lon="2.53294">
        <ele>90</ele>
        <time>2021-02-17T12:03:58.147Z</time>
      </trkpt>
      <trkpt lat="48.72623" lon="2.53285">
        <ele>90</ele>
        <time>2021-02-17T12:04:03.144Z</time>
      </trkpt>
      <trkpt lat="48.72623" lon="2.53276">
        <ele>90</ele>
        <time>2021-02-17T12:04:08.139Z</time>
      </trkpt>
      <trkpt lat="48.72624" lon="2.53269">
        <ele>90</ele>
        <time>2021-02-17T12:04:12.153Z</time>
      </trkpt>
      <trkpt lat="48.72624" lon="2.53259">
        <ele>89</ele>
        <time>2021-02-17T12:04:17.135Z</time>
      </trkpt>
      <trkpt lat="48.72625" lon="2.5325">
        <ele>89</ele>
        <time>2021-02-17T12:04:22.147Z</time>
      </trkpt>
      <trkpt lat="48.72625" lon="2.53239">
        <ele>88</ele>
        <time>2021-02-17T12:04:27.150Z</time>
      </trkpt>
      <trkpt lat="48.72626" lon="2.53231">
        <ele>88</ele>
        <time>2021-02-17T12:04:31.142Z</time>
      </trkpt>
      <trkpt lat="48.72627" lon="2.53222">
        <ele>88</ele>
        <time>2021-02-17T12:04:36.130Z</time>
      </trkpt>
      <trkpt lat="48.72627" lon="2.53213">
        <ele>88</ele>
        <time>2021-02-17T12:04:41.143Z</time>
      </trkpt>
      <trkpt lat="48.72627" lon="2.53204">
        <ele>88</ele>
        <time>2021-02-17T12:04:46.138Z</time>
      </trkpt>
      <trkpt lat="48.72627" lon="2.53195">
        <ele>88</ele>
        <time>2021-02-17T12:04:51.142Z</time>
      </trkpt>
      <trkpt lat="48.72624" lon="2.53187">
        <ele>88</ele>
        <time>2021-02-17T12:04:56.144Z</time>
      </trkpt>
      <trkpt lat="48.72621" lon="2.53181">
        <ele>88</ele>
        <time>2021-02-17T12:05:01.146Z</time>
      </trkpt>
      <trkpt lat="48.72618" lon="2.53176">
        <ele>88</ele>
        <time>2021-02-17T12:05:06.150Z</time>
      </trkpt>
      <trkpt lat="48.72618" lon="2.53174">
        <ele>88</ele>
        <time>2021-02-17T12:05:10.146Z</time>
      </trkpt>
      <trkpt lat="48.72617" lon="2.53173">
        <ele>88</ele>
        <time>2021-02-17T12:05:15.143Z</time>
      </trkpt>
      <trkpt lat="48.72615" lon="2.53171">
        <ele>88</ele>
        <time>2021-02-17T12:05:20.149Z</time>
      </trkpt>
      <trkpt lat="48.72613" lon="2.53167">
        <ele>88</ele>
        <time>2021-02-17T12:05:25.152Z</time>
      </trkpt>
      <trkpt lat="48.72612" lon="2.53166">
        <ele>88</ele>
        <time>2021-02-17T12:05:29.153Z</time>
      </trkpt>
      <trkpt lat="48.7261" lon="2.5316">
        <ele>88</ele>
        <time>2021-02-17T12:05:34.147Z</time>
      </trkpt>
      <trkpt lat="48.72612" lon="2.53154">
        <ele>88</ele>
        <time>2021-02-17T12:05:39.155Z</time>
      </trkpt>
      <trkpt lat="48.72615" lon="2.53151">
        <ele>89</ele>
        <time>2021-02-17T12:05:44.146Z</time>
      </trkpt>
      <trkpt lat="48.72616" lon="2.53147">
        <ele>89</ele>
        <time>2021-02-17T12:05:48.125Z</time>
      </trkpt>
      <trkpt lat="48.72619" lon="2.53141">
        <ele>89</ele>
        <time>2021-02-17T12:05:53.143Z</time>
      </trkpt>
      <trkpt lat="48.72619" lon="2.53133">
        <ele>89</ele>
        <time>2021-02-17T12:05:58.135Z</time>
      </trkpt>
      <trkpt lat="48.7262" lon="2.53123">
        <ele>89</ele>
        <time>2021-02-17T12:06:03.147Z</time>
      </trkpt>
      <trkpt lat="48.7262" lon="2.53115">
        <ele>89</ele>
        <time>2021-02-17T12:06:08.140Z</time>
      </trkpt>
      <trkpt lat="48.72617" lon="2.53108">
        <ele>89</ele>
        <time>2021-02-17T12:06:13.144Z</time>
      </trkpt>
      <trkpt lat="48.72618" lon="2.53098">
        <ele>89</ele>
        <time>2021-02-17T12:06:18.143Z</time>
      </trkpt>
      <trkpt lat="48.72618" lon="2.5309">
        <ele>89</ele>
        <time>2021-02-17T12:06:23.125Z</time>
      </trkpt>
      <trkpt lat="48.72619" lon="2.53084">
        <ele>89</ele>
        <time>2021-02-17T12:06:27.147Z</time>
      </trkpt>
      <trkpt lat="48.7262" lon="2.53075">
        <ele>89</ele>
        <time>2021-02-17T12:06:32.154Z</time>
      </trkpt>
      <trkpt lat="48.72621" lon="2.53067">
        <ele>90</ele>
        <time>2021-02-17T12:06:37.139Z</time>
      </trkpt>
      <trkpt lat="48.72622" lon="2.53058">
        <ele>90</ele>
        <time>2021-02-17T12:06:42.155Z</time>
      </trkpt>
      <trkpt lat="48.72624" lon="2.53051">
        <ele>90</ele>
        <time>2021-02-17T12:06:47.149Z</time>
      </trkpt>
      <trkpt lat="48.72626" lon="2.53042">
        <ele>91</ele>
        <time>2021-02-17T12:06:52.145Z</time>
      </trkpt>
      <trkpt lat="48.72628" lon="2.53033">
        <ele>91</ele>
        <time>2021-02-17T12:06:57.140Z</time>
      </trkpt>
      <trkpt lat="48.72629" lon="2.53024">
        <ele>91</ele>
        <time>2021-02-17T12:07:02.138Z</time>
      </trkpt>
      <trkpt lat="48.72631" lon="2.53015">
        <ele>91</ele>
        <time>2021-02-17T12:07:07.142Z</time>
      </trkpt>
      <trkpt lat="48.72634" lon="2.53008">
        <ele>91</ele>
        <time>2021-02-17T12:07:12.138Z</time>
      </trkpt>
      <trkpt lat="48.72637" lon="2.52999">
        <ele>91</ele>
        <time>2021-02-17T12:07:17.143Z</time>
      </trkpt>
      <trkpt lat="48.72638" lon="2.52991">
        <ele>91</ele>
        <time>2021-02-17T12:07:22.127Z</time>
      </trkpt>
      <trkpt lat="48.7264" lon="2.52984">
        <ele>91</ele>
        <time>2021-02-17T12:07:26.148Z</time>
      </trkpt>
      <trkpt lat="48.72643" lon="2.52974">
        <ele>91</ele>
        <time>2021-02-17T12:07:31.139Z</time>
      </trkpt>
      <trkpt lat="48.72644" lon="2.52968">
        <ele>91</ele>
        <time>2021-02-17T12:07:35.136Z</time>
      </trkpt>
      <trkpt lat="48.72646" lon="2.5296">
        <ele>91</ele>
        <time>2021-02-17T12:07:40.139Z</time>
      </trkpt>
      <trkpt lat="48.72648" lon="2.52953">
        <ele>91</ele>
        <time>2021-02-17T12:07:44.154Z</time>
      </trkpt>
      <trkpt lat="48.72653" lon="2.52945">
        <ele>91</ele>
        <time>2021-02-17T12:07:49.140Z</time>
      </trkpt>
      <trkpt lat="48.72655" lon="2.52938">
        <ele>90</ele>
        <time>2021-02-17T12:07:53.182Z</time>
      </trkpt>
      <trkpt lat="48.72658" lon="2.52927">
        <ele>90</ele>
        <time>2021-02-17T12:07:58.132Z</time>
      </trkpt>
      <trkpt lat="48.72661" lon="2.52917">
        <ele>90</ele>
        <time>2021-02-17T12:08:03.152Z</time>
      </trkpt>
      <trkpt lat="48.72664" lon="2.52907">
        <ele>90</ele>
        <time>2021-02-17T12:08:08.152Z</time>
      </trkpt>
      <trkpt lat="48.72666" lon="2.52899">
        <ele>91</ele>
        <time>2021-02-17T12:08:12.134Z</time>
      </trkpt>
      <trkpt lat="48.72669" lon="2.5289">
        <ele>91</ele>
        <time>2021-02-17T12:08:17.142Z</time>
      </trkpt>
      <trkpt lat="48.72672" lon="2.5288">
        <ele>91</ele>
        <time>2021-02-17T12:08:22.146Z</time>
      </trkpt>
      <trkpt lat="48.72674" lon="2.52871">
        <ele>91</ele>
        <time>2021-02-17T12:08:27.153Z</time>
      </trkpt>
      <trkpt lat="48.72676" lon="2.52864">
        <ele>91</ele>
        <time>2021-02-17T12:08:31.134Z</time>
      </trkpt>
      <trkpt lat="48.72679" lon="2.52856">
        <ele>91</ele>
        <time>2021-02-17T12:08:36.141Z</time>
      </trkpt>
      <trkpt lat="48.72684" lon="2.52849">
        <ele>91</ele>
        <time>2021-02-17T12:08:41.155Z</time>
      </trkpt>
      <trkpt lat="48.72687" lon="2.5284">
        <ele>91</ele>
        <time>2021-02-17T12:08:46.154Z</time>
      </trkpt>
      <trkpt lat="48.7269" lon="2.52831">
        <ele>91</ele>
        <time>2021-02-17T12:08:51.125Z</time>
      </trkpt>
      <trkpt lat="48.72692" lon="2.52824">
        <ele>91</ele>
        <time>2021-02-17T12:08:55.138Z</time>
      </trkpt>
      <trkpt lat="48.72694" lon="2.52816">
        <ele>92</ele>
        <time>2021-02-17T12:08:59.142Z</time>
      </trkpt>
      <trkpt lat="48.72698" lon="2.52809">
        <ele>92</ele>
        <time>2021-02-17T12:09:04.149Z</time>
      </trkpt>
      <trkpt lat="48.72703" lon="2.52806">
        <ele>92</ele>
        <time>2021-02-17T12:09:09.141Z</time>
      </trkpt>
      <trkpt lat="48.72709" lon="2.52804">
        <ele>93</ele>
        <time>2021-02-17T12:09:13.135Z</time>
      </trkpt>
      <trkpt lat="48.72715" lon="2.52801">
        <ele>93</ele>
        <time>2021-02-17T12:09:18.154Z</time>
      </trkpt>
      <trkpt lat="48.7272" lon="2.52798">
        <ele>93</ele>
        <time>2021-02-17T12:09:22.147Z</time>
      </trkpt>
      <trkpt lat="48.72724" lon="2.52792">
        <ele>93</ele>
        <time>2021-02-17T12:09:27.146Z</time>
      </trkpt>
      <trkpt lat="48.72728" lon="2.52785">
        <ele>94</ele>
        <time>2021-02-17T12:09:32.140Z</time>
      </trkpt>
      <trkpt lat="48.72731" lon="2.52777">
        <ele>94</ele>
        <time>2021-02-17T12:09:37.135Z</time>
      </trkpt>
      <trkpt lat="48.72735" lon="2.52769">
        <ele>94</ele>
        <time>2021-02-17T12:09:42.139Z</time>
      </trkpt>
      <trkpt lat="48.72739" lon="2.52761">
        <ele>96</ele>
        <time>2021-02-17T12:09:47.140Z</time>
      </trkpt>
      <trkpt lat="48.72742" lon="2.52754">
        <ele>96</ele>
        <time>2021-02-17T12:09:52.141Z</time>
      </trkpt>
      <trkpt lat="48.72743" lon="2.52746">
        <ele>96</ele>
        <time>2021-02-17T12:09:56.146Z</time>
      </trkpt>
      <trkpt lat="48.72746" lon="2.52737">
        <ele>96</ele>
        <time>2021-02-17T12:10:01.131Z</time>
      </trkpt>
      <trkpt lat="48.72748" lon="2.52731">
        <ele>96</ele>
        <time>2021-02-17T12:10:05.140Z</time>
      </trkpt>
      <trkpt lat="48.72751" lon="2.52723">
        <ele>96</ele>
        <time>2021-02-17T12:10:10.138Z</time>
      </trkpt>
      <trkpt lat="48.72753" lon="2.52715">
        <ele>96</ele>
        <time>2021-02-17T12:10:15.128Z</time>
      </trkpt>
      <trkpt lat="48.72755" lon="2.5271">
        <ele>96</ele>
        <time>2021-02-17T12:10:19.143Z</time>
      </trkpt>
      <trkpt lat="48.72758" lon="2.52702">
        <ele>96</ele>
        <time>2021-02-17T12:10:24.140Z</time>
      </trkpt>
      <trkpt lat="48.72761" lon="2.52696">
        <ele>96</ele>
        <time>2021-02-17T12:10:28.139Z</time>
      </trkpt>
      <trkpt lat="48.72765" lon="2.52691">
        <ele>95</ele>
        <time>2021-02-17T12:10:33.146Z</time>
      </trkpt>
      <trkpt lat="48.72767" lon="2.52685">
        <ele>95</ele>
        <time>2021-02-17T12:10:38.141Z</time>
      </trkpt>
      <trkpt lat="48.72771" lon="2.52684">
        <ele>95</ele>
        <time>2021-02-17T12:10:43.142Z</time>
      </trkpt>
      <trkpt lat="48.72774" lon="2.52683">
        <ele>95</ele>
        <time>2021-02-17T12:10:47.149Z</time>
      </trkpt>
      <trkpt lat="48.72778" lon="2.52683">
        <ele>95</ele>
        <time>2021-02-17T12:10:52.127Z</time>
      </trkpt>
      <trkpt lat="48.72784" lon="2.5268">
        <ele>94</ele>
        <time>2021-02-17T12:10:57.138Z</time>
      </trkpt>
      <trkpt lat="48.72789" lon="2.52671">
        <ele>94</ele>
        <time>2021-02-17T12:12:04.131Z</time>
      </trkpt>
      <trkpt lat="48.72789" lon="2.52669">
        <ele>94</ele>
        <time>2021-02-17T12:12:09.136Z</time>
      </trkpt>
      <trkpt lat="48.72789" lon="2.52669">
        <ele>94</ele>
        <time>2021-02-17T12:12:13.142Z</time>
      </trkpt>
      <trkpt lat="48.72788" lon="2.52667">
        <ele>94</ele>
        <time>2021-02-17T12:12:18.142Z</time>
      </trkpt>
      <trkpt lat="48.72788" lon="2.52665">
        <ele>94</ele>
        <time>2021-02-17T12:12:23.141Z</time>
      </trkpt>
      <trkpt lat="48.7279" lon="2.52657">
        <ele>94</ele>
        <time>2021-02-17T12:12:41.147Z</time>
      </trkpt>
      <trkpt lat="48.7279" lon="2.52656">
        <ele>94</ele>
        <time>2021-02-17T12:13:00.128Z</time>
      </trkpt>
      <trkpt lat="48.7279" lon="2.52655">
        <ele>94</ele>
        <time>2021-02-17T12:13:24.136Z</time>
      </trkpt>
      <trkpt lat="48.72791" lon="2.52653">
        <ele>94</ele>
        <time>2021-02-17T12:13:28.137Z</time>
      </trkpt>
      <trkpt lat="48.72791" lon="2.52647">
        <ele>93</ele>
        <time>2021-02-17T12:13:33.138Z</time>
      </trkpt>
      <trkpt lat="48.72793" lon="2.52641">
        <ele>93</ele>
        <time>2021-02-17T12:13:38.146Z</time>
      </trkpt>
      <trkpt lat="48.72795" lon="2.52635">
        <ele>93</ele>
        <time>2021-02-17T12:13:43.121Z</time>
      </trkpt>
      <trkpt lat="48.72797" lon="2.52629">
        <ele>93</ele>
        <time>2021-02-17T12:13:47.143Z</time>
      </trkpt>
      <trkpt lat="48.72799" lon="2.52623">
        <ele>93</ele>
        <time>2021-02-17T12:13:51.146Z</time>
      </trkpt>
      <trkpt lat="48.72801" lon="2.52615">
        <ele>93</ele>
        <time>2021-02-17T12:13:56.141Z</time>
      </trkpt>
      <trkpt lat="48.72803" lon="2.52606">
        <ele>93</ele>
        <time>2021-02-17T12:14:01.128Z</time>
      </trkpt>
      <trkpt lat="48.72805" lon="2.52598">
        <ele>93</ele>
        <time>2021-02-17T12:14:06.135Z</time>
      </trkpt>
      <trkpt lat="48.72806" lon="2.5259">
        <ele>93</ele>
        <time>2021-02-17T12:14:11.145Z</time>
      </trkpt>
      <trkpt lat="48.72809" lon="2.52583">
        <ele>93</ele>
        <time>2021-02-17T12:14:16.126Z</time>
      </trkpt>
      <trkpt lat="48.72811" lon="2.52576">
        <ele>93</ele>
        <time>2021-02-17T12:14:21.128Z</time>
      </trkpt>
      <trkpt lat="48.72812" lon="2.52573">
        <ele>93</ele>
        <time>2021-02-17T12:14:25.120Z</time>
      </trkpt>
      <trkpt lat="48.72813" lon="2.52568">
        <ele>94</ele>
        <time>2021-02-17T12:14:30.138Z</time>
      </trkpt>
      <trkpt lat="48.72815" lon="2.5256">
        <ele>94</ele>
        <time>2021-02-17T12:14:35.145Z</time>
      </trkpt>
      <trkpt lat="48.72818" lon="2.52552">
        <ele>94</ele>
        <time>2021-02-17T12:14:40.133Z</time>
      </trkpt>
      <trkpt lat="48.7282" lon="2.52545">
        <ele>93</ele>
        <time>2021-02-17T12:14:45.144Z</time>
      </trkpt>
      <trkpt lat="48.72821" lon="2.5254">
        <ele>93</ele>
        <time>2021-02-17T12:14:50.138Z</time>
      </trkpt>
      <trkpt lat="48.72824" lon="2.52534">
        <ele>93</ele>
        <time>2021-02-17T12:16:17.130Z</time>
      </trkpt>
      <trkpt lat="48.72824" lon="2.52534">
        <ele>93</ele>
        <time>2021-02-17T12:16:22.135Z</time>
      </trkpt>
      <trkpt lat="48.72824" lon="2.52533">
        <ele>93</ele>
        <time>2021-02-17T12:16:27.138Z</time>
      </trkpt>
      <trkpt lat="48.72824" lon="2.5253">
        <ele>93</ele>
        <time>2021-02-17T12:16:31.148Z</time>
      </trkpt>
      <trkpt lat="48.72826" lon="2.52524">
        <ele>93</ele>
        <time>2021-02-17T12:16:36.122Z</time>
      </trkpt>
      <trkpt lat="48.72827" lon="2.52518">
        <ele>93</ele>
        <time>2021-02-17T12:16:40.139Z</time>
      </trkpt>
      <trkpt lat="48.72829" lon="2.52511">
        <ele>93</ele>
        <time>2021-02-17T12:16:45.142Z</time>
      </trkpt>
      <trkpt lat="48.72832" lon="2.52503">
        <ele>93</ele>
        <time>2021-02-17T12:16:50.148Z</time>
      </trkpt>
      <trkpt lat="48.72835" lon="2.52496">
        <ele>93</ele>
        <time>2021-02-17T12:16:55.137Z</time>
      </trkpt>
      <trkpt lat="48.72836" lon="2.52487">
        <ele>93</ele>
        <time>2021-02-17T12:17:00.139Z</time>
      </trkpt>
      <trkpt lat="48.72838" lon="2.52478">
        <ele>94</ele>
        <time>2021-02-17T12:17:05.134Z</time>
      </trkpt>
      <trkpt lat="48.7284" lon="2.52471">
        <ele>94</ele>
        <time>2021-02-17T12:17:09.113Z</time>
      </trkpt>
      <trkpt lat="48.72843" lon="2.52465">
        <ele>94</ele>
        <time>2021-02-17T12:17:14.121Z</time>
      </trkpt>
      <trkpt lat="48.72843" lon="2.52457">
        <ele>95</ele>
        <time>2021-02-17T12:17:18.118Z</time>
      </trkpt>
      <trkpt lat="48.72845" lon="2.52449">
        <ele>95</ele>
        <time>2021-02-17T12:17:23.134Z</time>
      </trkpt>
      <trkpt lat="48.72846" lon="2.52443">
        <ele>95</ele>
        <time>2021-02-17T12:17:28.110Z</time>
      </trkpt>
      <trkpt lat="48.72847" lon="2.52435">
        <ele>94</ele>
        <time>2021-02-17T12:17:33.120Z</time>
      </trkpt>
      <trkpt lat="48.72851" lon="2.5243">
        <ele>95</ele>
        <time>2021-02-17T12:17:38.131Z</time>
      </trkpt>
      <trkpt lat="48.72854" lon="2.52423">
        <ele>95</ele>
        <time>2021-02-17T12:17:43.121Z</time>
      </trkpt>
      <trkpt lat="48.72856" lon="2.52416">
        <ele>95</ele>
        <time>2021-02-17T12:17:47.131Z</time>
      </trkpt>
      <trkpt lat="48.72859" lon="2.52408">
        <ele>95</ele>
        <time>2021-02-17T12:17:52.131Z</time>
      </trkpt>
      <trkpt lat="48.72863" lon="2.524">
        <ele>96</ele>
        <time>2021-02-17T12:17:57.128Z</time>
      </trkpt>
      <trkpt lat="48.72866" lon="2.52395">
        <ele>96</ele>
        <time>2021-02-17T12:18:01.141Z</time>
      </trkpt>
      <trkpt lat="48.72869" lon="2.52388">
        <ele>96</ele>
        <time>2021-02-17T12:18:06.117Z</time>
      </trkpt>
      <trkpt lat="48.72872" lon="2.52382">
        <ele>96</ele>
        <time>2021-02-17T12:18:10.127Z</time>
      </trkpt>
      <trkpt lat="48.72874" lon="2.52375">
        <ele>96</ele>
        <time>2021-02-17T12:18:15.151Z</time>
      </trkpt>
      <trkpt lat="48.72878" lon="2.52367">
        <ele>96</ele>
        <time>2021-02-17T12:18:20.139Z</time>
      </trkpt>
      <trkpt lat="48.7288" lon="2.52361">
        <ele>96</ele>
        <time>2021-02-17T12:18:25.128Z</time>
      </trkpt>
      <trkpt lat="48.72884" lon="2.52351">
        <ele>96</ele>
        <time>2021-02-17T12:18:30.139Z</time>
      </trkpt>
      <trkpt lat="48.72887" lon="2.5234">
        <ele>96</ele>
        <time>2021-02-17T12:18:34.113Z</time>
      </trkpt>
      <trkpt lat="48.7289" lon="2.52328">
        <ele>96</ele>
        <time>2021-02-17T12:18:39.128Z</time>
      </trkpt>
      <trkpt lat="48.72892" lon="2.52322">
        <ele>96</ele>
        <time>2021-02-17T12:18:44.121Z</time>
      </trkpt>
      <trkpt lat="48.72895" lon="2.5232">
        <ele>96</ele>
        <time>2021-02-17T12:18:49.111Z</time>
      </trkpt>
      <trkpt lat="48.72897" lon="2.52316">
        <ele>97</ele>
        <time>2021-02-17T12:18:53.140Z</time>
      </trkpt>
      <trkpt lat="48.729" lon="2.52311">
        <ele>97</ele>
        <time>2021-02-17T12:18:57.141Z</time>
      </trkpt>
      <trkpt lat="48.72904" lon="2.52304">
        <ele>96</ele>
        <time>2021-02-17T12:19:02.135Z</time>
      </trkpt>
      <trkpt lat="48.72906" lon="2.52296">
        <ele>96</ele>
        <time>2021-02-17T12:19:07.131Z</time>
      </trkpt>
      <trkpt lat="48.72909" lon="2.52288">
        <ele>97</ele>
        <time>2021-02-17T12:19:12.128Z</time>
      </trkpt>
      <trkpt lat="48.72912" lon="2.52281">
        <ele>97</ele>
        <time>2021-02-17T12:19:17.118Z</time>
      </trkpt>
      <trkpt lat="48.72914" lon="2.52274">
        <ele>97</ele>
        <time>2021-02-17T12:19:21.139Z</time>
      </trkpt>
      <trkpt lat="48.72918" lon="2.52267">
        <ele>97</ele>
        <time>2021-02-17T12:19:26.130Z</time>
      </trkpt>
      <trkpt lat="48.72921" lon="2.52262">
        <ele>98</ele>
        <time>2021-02-17T12:19:30.125Z</time>
      </trkpt>
      <trkpt lat="48.72925" lon="2.52254">
        <ele>98</ele>
        <time>2021-02-17T12:19:35.122Z</time>
      </trkpt>
      <trkpt lat="48.72928" lon="2.52245">
        <ele>98</ele>
        <time>2021-02-17T12:19:40.137Z</time>
      </trkpt>
      <trkpt lat="48.72931" lon="2.52238">
        <ele>95</ele>
        <time>2021-02-17T12:19:45.122Z</time>
      </trkpt>
      <trkpt lat="48.72933" lon="2.52232">
        <ele>93</ele>
        <time>2021-02-17T12:19:49.139Z</time>
      </trkpt>
      <trkpt lat="48.72936" lon="2.52224">
        <ele>93</ele>
        <time>2021-02-17T12:19:54.139Z</time>
      </trkpt>
      <trkpt lat="48.72939" lon="2.52215">
        <ele>93</ele>
        <time>2021-02-17T12:19:59.136Z</time>
      </trkpt>
      <trkpt lat="48.7294" lon="2.52206">
        <ele>93</ele>
        <time>2021-02-17T12:20:04.122Z</time>
      </trkpt>
      <trkpt lat="48.72943" lon="2.522">
        <ele>93</ele>
        <time>2021-02-17T12:20:08.118Z</time>
      </trkpt>
      <trkpt lat="48.72947" lon="2.52194">
        <ele>93</ele>
        <time>2021-02-17T12:20:13.124Z</time>
      </trkpt>
      <trkpt lat="48.72949" lon="2.52185">
        <ele>93</ele>
        <time>2021-02-17T12:20:18.138Z</time>
      </trkpt>
      <trkpt lat="48.72953" lon="2.52176">
        <ele>93</ele>
        <time>2021-02-17T12:20:23.126Z</time>
      </trkpt>
      <trkpt lat="48.72956" lon="2.52168">
        <ele>93</ele>
        <time>2021-02-17T12:20:28.134Z</time>
      </trkpt>
      <trkpt lat="48.72959" lon="2.52162">
        <ele>91</ele>
        <time>2021-02-17T12:20:32.131Z</time>
      </trkpt>
      <trkpt lat="48.72961" lon="2.52154">
        <ele>91</ele>
        <time>2021-02-17T12:20:37.114Z</time>
      </trkpt>
      <trkpt lat="48.72965" lon="2.5215">
        <ele>92</ele>
        <time>2021-02-17T12:20:42.130Z</time>
      </trkpt>
      <trkpt lat="48.72968" lon="2.52144">
        <ele>92</ele>
        <time>2021-02-17T12:20:47.109Z</time>
      </trkpt>
      <trkpt lat="48.7297" lon="2.52138">
        <ele>92</ele>
        <time>2021-02-17T12:20:51.134Z</time>
      </trkpt>
      <trkpt lat="48.72973" lon="2.52131">
        <ele>92</ele>
        <time>2021-02-17T12:20:56.129Z</time>
      </trkpt>
      <trkpt lat="48.72975" lon="2.52123">
        <ele>93</ele>
        <time>2021-02-17T12:21:00.135Z</time>
      </trkpt>
      <trkpt lat="48.72978" lon="2.52113">
        <ele>93</ele>
        <time>2021-02-17T12:21:05.134Z</time>
      </trkpt>
      <trkpt lat="48.72979" lon="2.52104">
        <ele>93</ele>
        <time>2021-02-17T12:21:10.123Z</time>
      </trkpt>
      <trkpt lat="48.72979" lon="2.52095">
        <ele>95</ele>
        <time>2021-02-17T12:21:15.123Z</time>
      </trkpt>
      <trkpt lat="48.72979" lon="2.52088">
        <ele>95</ele>
        <time>2021-02-17T12:21:19.129Z</time>
      </trkpt>
      <trkpt lat="48.72978" lon="2.52081">
        <ele>95</ele>
        <time>2021-02-17T12:21:24.120Z</time>
      </trkpt>
      <trkpt lat="48.72976" lon="2.52075">
        <ele>95</ele>
        <time>2021-02-17T12:21:28.139Z</time>
      </trkpt>
      <trkpt lat="48.72974" lon="2.52067">
        <ele>95</ele>
        <time>2021-02-17T12:21:33.107Z</time>
      </trkpt>
      <trkpt lat="48.72971" lon="2.52057">
        <ele>95</ele>
        <time>2021-02-17T12:21:38.134Z</time>
      </trkpt>
      <trkpt lat="48.72969" lon="2.52049">
        <ele>95</ele>
        <time>2021-02-17T12:21:42.142Z</time>
      </trkpt>
      <trkpt lat="48.72966" lon="2.52043">
        <ele>95</ele>
        <time>2021-02-17T12:21:47.125Z</time>
      </trkpt>
      <trkpt lat="48.72962" lon="2.52036">
        <ele>95</ele>
        <time>2021-02-17T12:21:52.131Z</time>
      </trkpt>
      <trkpt lat="48.72958" lon="2.52029">
        <ele>97</ele>
        <time>2021-02-17T12:21:57.143Z</time>
      </trkpt>
      <trkpt lat="48.72955" lon="2.52022">
        <ele>97</ele>
        <time>2021-02-17T12:22:01.140Z</time>
      </trkpt>
      <trkpt lat="48.72949" lon="2.52017">
        <ele>97</ele>
        <time>2021-02-17T12:22:06.124Z</time>
      </trkpt>
      <trkpt lat="48.72943" lon="2.52013">
        <ele>97</ele>
        <time>2021-02-17T12:22:11.131Z</time>
      </trkpt>
      <trkpt lat="48.72937" lon="2.52008">
        <ele>97</ele>
        <time>2021-02-17T12:22:16.122Z</time>
      </trkpt>
      <trkpt lat="48.72933" lon="2.52001">
        <ele>97</ele>
        <time>2021-02-17T12:22:21.140Z</time>
      </trkpt>
      <trkpt lat="48.72928" lon="2.51995">
        <ele>97</ele>
        <time>2021-02-17T12:22:26.135Z</time>
      </trkpt>
      <trkpt lat="48.72923" lon="2.5199">
        <ele>97</ele>
        <time>2021-02-17T12:22:31.140Z</time>
      </trkpt>
      <trkpt lat="48.72918" lon="2.51985">
        <ele>97</ele>
        <time>2021-02-17T12:22:36.131Z</time>
      </trkpt>
      <trkpt lat="48.72915" lon="2.51978">
        <ele>97</ele>
        <time>2021-02-17T12:22:41.132Z</time>
      </trkpt>
      <trkpt lat="48.72912" lon="2.51973">
        <ele>97</ele>
        <time>2021-02-17T12:22:45.133Z</time>
      </trkpt>
      <trkpt lat="48.72908" lon="2.51968">
        <ele>97</ele>
        <time>2021-02-17T12:22:50.134Z</time>
      </trkpt>
      <trkpt lat="48.72906" lon="2.51964">
        <ele>97</ele>
        <time>2021-02-17T12:22:54.135Z</time>
      </trkpt>
      <trkpt lat="48.72901" lon="2.51958">
        <ele>99</ele>
        <time>2021-02-17T12:22:59.140Z</time>
      </trkpt>
      <trkpt lat="48.72896" lon="2.51952">
        <ele>99</ele>
        <time>2021-02-17T12:23:04.130Z</time>
      </trkpt>
      <trkpt lat="48.72891" lon="2.51947">
        <ele>99</ele>
        <time>2021-02-17T12:23:08.140Z</time>
      </trkpt>
      <trkpt lat="48.72886" lon="2.51939">
        <ele>99</ele>
        <time>2021-02-17T12:23:13.139Z</time>
      </trkpt>
      <trkpt lat="48.72882" lon="2.51932">
        <ele>99</ele>
        <time>2021-02-17T12:23:18.121Z</time>
      </trkpt>
      <trkpt lat="48.72878" lon="2.51927">
        <ele>99</ele>
        <time>2021-02-17T12:23:23.133Z</time>
      </trkpt>
      <trkpt lat="48.72874" lon="2.51923">
        <ele>101</ele>
        <time>2021-02-17T12:23:27.173Z</time>
      </trkpt>
      <trkpt lat="48.72869" lon="2.51918">
        <ele>101</ele>
        <time>2021-02-17T12:23:32.123Z</time>
      </trkpt>
      <trkpt lat="48.72865" lon="2.51913">
        <ele>101</ele>
        <time>2021-02-17T12:23:37.130Z</time>
      </trkpt>
      <trkpt lat="48.72859" lon="2.51907">
        <ele>101</ele>
        <time>2021-02-17T12:23:42.122Z</time>
      </trkpt>
      <trkpt lat="48.72855" lon="2.51902">
        <ele>101</ele>
        <time>2021-02-17T12:23:46.129Z</time>
      </trkpt>
      <trkpt lat="48.72852" lon="2.51897">
        <ele>101</ele>
        <time>2021-02-17T12:23:50.138Z</time>
      </trkpt>
      <trkpt lat="48.72847" lon="2.5189">
        <ele>101</ele>
        <time>2021-02-17T12:23:55.137Z</time>
      </trkpt>
      <trkpt lat="48.72843" lon="2.51884">
        <ele>103</ele>
        <time>2021-02-17T12:24:00.128Z</time>
      </trkpt>
      <trkpt lat="48.72837" lon="2.51877">
        <ele>103</ele>
        <time>2021-02-17T12:24:05.125Z</time>
      </trkpt>
      <trkpt lat="48.72832" lon="2.5187">
        <ele>103</ele>
        <time>2021-02-17T12:24:10.117Z</time>
      </trkpt>
      <trkpt lat="48.72828" lon="2.51866">
        <ele>103</ele>
        <time>2021-02-17T12:24:14.125Z</time>
      </trkpt>
      <trkpt lat="48.72823" lon="2.51861">
        <ele>103</ele>
        <time>2021-02-17T12:24:19.129Z</time>
      </trkpt>
      <trkpt lat="48.72819" lon="2.51856">
        <ele>103</ele>
        <time>2021-02-17T12:24:24.138Z</time>
      </trkpt>
      <trkpt lat="48.72816" lon="2.5185">
        <ele>104</ele>
        <time>2021-02-17T12:24:28.138Z</time>
      </trkpt>
      <trkpt lat="48.72812" lon="2.51843">
        <ele>105</ele>
        <time>2021-02-17T12:24:33.106Z</time>
      </trkpt>
      <trkpt lat="48.72808" lon="2.51838">
        <ele>105</ele>
        <time>2021-02-17T12:24:37.129Z</time>
      </trkpt>
      <trkpt lat="48.72802" lon="2.5183">
        <ele>105</ele>
        <time>2021-02-17T12:24:42.126Z</time>
      </trkpt>
      <trkpt lat="48.72797" lon="2.51824">
        <ele>105</ele>
        <time>2021-02-17T12:24:46.136Z</time>
      </trkpt>
      <trkpt lat="48.72794" lon="2.51818">
        <ele>106</ele>
        <time>2021-02-17T12:24:51.125Z</time>
      </trkpt>
      <trkpt lat="48.72789" lon="2.51814">
        <ele>108</ele>
        <time>2021-02-17T12:24:55.118Z</time>
      </trkpt>
      <trkpt lat="48.72785" lon="2.51807">
        <ele>108</ele>
        <time>2021-02-17T12:24:59.130Z</time>
      </trkpt>
      <trkpt lat="48.7278" lon="2.518">
        <ele>108</ele>
        <time>2021-02-17T12:25:04.148Z</time>
      </trkpt>
      <trkpt lat="48.72775" lon="2.51794">
        <ele>108</ele>
        <time>2021-02-17T12:25:09.140Z</time>
      </trkpt>
      <trkpt lat="48.72771" lon="2.51787">
        <ele>108</ele>
        <time>2021-02-17T12:25:14.131Z</time>
      </trkpt>
      <trkpt lat="48.72768" lon="2.51783">
        <ele>108</ele>
        <time>2021-02-17T12:25:18.139Z</time>
      </trkpt>
      <trkpt lat="48.72763" lon="2.51777">
        <ele>110</ele>
        <time>2021-02-17T12:25:23.113Z</time>
      </trkpt>
      <trkpt lat="48.72759" lon="2.51774">
        <ele>110</ele>
        <time>2021-02-17T12:25:27.131Z</time>
      </trkpt>
      <trkpt lat="48.72755" lon="2.5177">
        <ele>110</ele>
        <time>2021-02-17T12:25:31.131Z</time>
      </trkpt>
      <trkpt lat="48.72746" lon="2.51762">
        <ele>111</ele>
        <time>2021-02-17T12:25:36.120Z</time>
      </trkpt>
      <trkpt lat="48.72737" lon="2.51751">
        <ele>111</ele>
        <time>2021-02-17T12:25:41.118Z</time>
      </trkpt>
      <trkpt lat="48.7273" lon="2.51742">
        <ele>111</ele>
        <time>2021-02-17T12:25:46.125Z</time>
      </trkpt>
      <trkpt lat="48.72724" lon="2.51734">
        <ele>110</ele>
        <time>2021-02-17T12:25:51.128Z</time>
      </trkpt>
      <trkpt lat="48.72718" lon="2.51727">
        <ele>110</ele>
        <time>2021-02-17T12:25:56.142Z</time>
      </trkpt>
      <trkpt lat="48.72714" lon="2.51722">
        <ele>110</ele>
        <time>2021-02-17T12:26:01.122Z</time>
      </trkpt>
      <trkpt lat="48.72711" lon="2.51714">
        <ele>110</ele>
        <time>2021-02-17T12:26:06.139Z</time>
      </trkpt>
      <trkpt lat="48.72706" lon="2.51709">
        <ele>110</ele>
        <time>2021-02-17T12:26:11.148Z</time>
      </trkpt>
      <trkpt lat="48.72702" lon="2.51704">
        <ele>110</ele>
        <time>2021-02-17T12:26:16.126Z</time>
      </trkpt>
      <trkpt lat="48.72699" lon="2.51698">
        <ele>110</ele>
        <time>2021-02-17T12:26:20.134Z</time>
      </trkpt>
      <trkpt lat="48.72695" lon="2.51692">
        <ele>110</ele>
        <time>2021-02-17T12:26:25.136Z</time>
      </trkpt>
      <trkpt lat="48.72692" lon="2.51686">
        <ele>110</ele>
        <time>2021-02-17T12:26:30.139Z</time>
      </trkpt>
      <trkpt lat="48.72687" lon="2.51678">
        <ele>111</ele>
        <time>2021-02-17T12:26:35.123Z</time>
      </trkpt>
      <trkpt lat="48.72682" lon="2.51674">
        <ele>111</ele>
        <time>2021-02-17T12:26:39.134Z</time>
      </trkpt>
      <trkpt lat="48.72676" lon="2.51673">
        <ele>111</ele>
        <time>2021-02-17T12:26:44.133Z</time>
      </trkpt>
      <trkpt lat="48.72669" lon="2.51673">
        <ele>111</ele>
        <time>2021-02-17T12:26:49.128Z</time>
      </trkpt>
      <trkpt lat="48.72663" lon="2.51672">
        <ele>111</ele>
        <time>2021-02-17T12:26:54.108Z</time>
      </trkpt>
      <trkpt lat="48.72657" lon="2.51672">
        <ele>111</ele>
        <time>2021-02-17T12:26:58.130Z</time>
      </trkpt>
      <trkpt lat="48.72652" lon="2.51672">
        <ele>112</ele>
        <time>2021-02-17T12:27:03.130Z</time>
      </trkpt>
      <trkpt lat="48.72648" lon="2.51674">
        <ele>112</ele>
        <time>2021-02-17T12:27:07.138Z</time>
      </trkpt>
      <trkpt lat="48.72641" lon="2.51674">
        <ele>112</ele>
        <time>2021-02-17T12:27:12.140Z</time>
      </trkpt>
      <trkpt lat="48.72636" lon="2.51671">
        <ele>112</ele>
        <time>2021-02-17T12:27:17.121Z</time>
      </trkpt>
      <trkpt lat="48.72632" lon="2.5167">
        <ele>112</ele>
        <time>2021-02-17T12:27:21.125Z</time>
      </trkpt>
      <trkpt lat="48.72626" lon="2.51667">
        <ele>112</ele>
        <time>2021-02-17T12:27:26.129Z</time>
      </trkpt>
      <trkpt lat="48.7262" lon="2.51665">
        <ele>112</ele>
        <time>2021-02-17T12:27:31.133Z</time>
      </trkpt>
      <trkpt lat="48.72615" lon="2.51662">
        <ele>112</ele>
        <time>2021-02-17T12:27:35.202Z</time>
      </trkpt>
      <trkpt lat="48.72609" lon="2.51657">
        <ele>112</ele>
        <time>2021-02-17T12:27:40.117Z</time>
      </trkpt>
      <trkpt lat="48.72604" lon="2.51651">
        <ele>113</ele>
        <time>2021-02-17T12:27:45.132Z</time>
      </trkpt>
      <trkpt lat="48.72603" lon="2.51645">
        <ele>113</ele>
        <time>2021-02-17T12:27:50.138Z</time>
      </trkpt>
      <trkpt lat="48.72602" lon="2.5164">
        <ele>113</ele>
        <time>2021-02-17T12:27:55.126Z</time>
      </trkpt>
      <trkpt lat="48.72599" lon="2.51633">
        <ele>113</ele>
        <time>2021-02-17T12:28:00.121Z</time>
      </trkpt>
      <trkpt lat="48.72594" lon="2.51624">
        <ele>115</ele>
        <time>2021-02-17T12:28:05.135Z</time>
      </trkpt>
      <trkpt lat="48.72589" lon="2.51621">
        <ele>115</ele>
        <time>2021-02-17T12:28:09.146Z</time>
      </trkpt>
      <trkpt lat="48.72583" lon="2.51617">
        <ele>115</ele>
        <time>2021-02-17T12:28:14.118Z</time>
      </trkpt>
      <trkpt lat="48.72578" lon="2.51615">
        <ele>115</ele>
        <time>2021-02-17T12:28:19.127Z</time>
      </trkpt>
      <trkpt lat="48.72573" lon="2.51614">
        <ele>115</ele>
        <time>2021-02-17T12:28:23.141Z</time>
      </trkpt>
      <trkpt lat="48.72568" lon="2.51614">
        <ele>117</ele>
        <time>2021-02-17T12:28:28.128Z</time>
      </trkpt>
      <trkpt lat="48.72562" lon="2.51614">
        <ele>117</ele>
        <time>2021-02-17T12:28:32.120Z</time>
      </trkpt>
      <trkpt lat="48.72556" lon="2.51612">
        <ele>117</ele>
        <time>2021-02-17T12:28:37.116Z</time>
      </trkpt>
      <trkpt lat="48.72551" lon="2.51611">
        <ele>117</ele>
        <time>2021-02-17T12:28:42.134Z</time>
      </trkpt>
      <trkpt lat="48.72545" lon="2.51611">
        <ele>117</ele>
        <time>2021-02-17T12:28:47.138Z</time>
      </trkpt>
      <trkpt lat="48.72539" lon="2.51611">
        <ele>117</ele>
        <time>2021-02-17T12:28:52.120Z</time>
      </trkpt>
      <trkpt lat="48.72535" lon="2.5161">
        <ele>117</ele>
        <time>2021-02-17T12:28:57.125Z</time>
      </trkpt>
      <trkpt lat="48.7253" lon="2.51609">
        <ele>117</ele>
        <time>2021-02-17T12:29:01.129Z</time>
      </trkpt>
      <trkpt lat="48.72524" lon="2.5161">
        <ele>117</ele>
        <time>2021-02-17T12:29:06.121Z</time>
      </trkpt>
      <trkpt lat="48.72519" lon="2.5161">
        <ele>117</ele>
        <time>2021-02-17T12:29:10.124Z</time>
      </trkpt>
      <trkpt lat="48.72514" lon="2.51612">
        <ele>117</ele>
        <time>2021-02-17T12:29:15.123Z</time>
      </trkpt>
      <trkpt lat="48.72511" lon="2.51615">
        <ele>114</ele>
        <time>2021-02-17T12:29:19.121Z</time>
      </trkpt>
      <trkpt lat="48.72506" lon="2.51615">
        <ele>114</ele>
        <time>2021-02-17T12:29:24.116Z</time>
      </trkpt>
      <trkpt lat="48.72503" lon="2.51619">
        <ele>114</ele>
        <time>2021-02-17T12:29:29.117Z</time>
      </trkpt>
      <trkpt lat="48.72498" lon="2.51622">
        <ele>114</ele>
        <time>2021-02-17T12:29:34.112Z</time>
      </trkpt>
      <trkpt lat="48.72492" lon="2.51622">
        <ele>114</ele>
        <time>2021-02-17T12:29:39.140Z</time>
      </trkpt>
      <trkpt lat="48.72485" lon="2.51622">
        <ele>113</ele>
        <time>2021-02-17T12:29:44.132Z</time>
      </trkpt>
      <trkpt lat="48.72479" lon="2.51623">
        <ele>113</ele>
        <time>2021-02-17T12:29:49.137Z</time>
      </trkpt>
      <trkpt lat="48.72474" lon="2.51624">
        <ele>113</ele>
        <time>2021-02-17T12:29:53.125Z</time>
      </trkpt>
      <trkpt lat="48.72469" lon="2.51625">
        <ele>113</ele>
        <time>2021-02-17T12:29:57.133Z</time>
      </trkpt>
      <trkpt lat="48.72465" lon="2.51624">
        <ele>113</ele>
        <time>2021-02-17T12:30:02.122Z</time>
      </trkpt>
      <trkpt lat="48.7246" lon="2.51625">
        <ele>112</ele>
        <time>2021-02-17T12:30:07.131Z</time>
      </trkpt>
      <trkpt lat="48.72453" lon="2.51626">
        <ele>112</ele>
        <time>2021-02-17T12:30:12.133Z</time>
      </trkpt>
      <trkpt lat="48.72446" lon="2.51627">
        <ele>112</ele>
        <time>2021-02-17T12:30:17.136Z</time>
      </trkpt>
      <trkpt lat="48.7244" lon="2.51627">
        <ele>112</ele>
        <time>2021-02-17T12:30:22.126Z</time>
      </trkpt>
      <trkpt lat="48.72434" lon="2.51627">
        <ele>112</ele>
        <time>2021-02-17T12:30:27.118Z</time>
      </trkpt>
      <trkpt lat="48.7243" lon="2.51626">
        <ele>111</ele>
        <time>2021-02-17T12:30:32.133Z</time>
      </trkpt>
      <trkpt lat="48.72424" lon="2.51628">
        <ele>111</ele>
        <time>2021-02-17T12:30:37.132Z</time>
      </trkpt>
      <trkpt lat="48.72419" lon="2.51629">
        <ele>111</ele>
        <time>2021-02-17T12:30:42.128Z</time>
      </trkpt>
      <trkpt lat="48.72415" lon="2.5163">
        <ele>111</ele>
        <time>2021-02-17T12:30:46.152Z</time>
      </trkpt>
      <trkpt lat="48.7241" lon="2.51631">
        <ele>111</ele>
        <time>2021-02-17T12:30:50.143Z</time>
      </trkpt>
      <trkpt lat="48.72403" lon="2.5163">
        <ele>111</ele>
        <time>2021-02-17T12:30:55.139Z</time>
      </trkpt>
      <trkpt lat="48.72397" lon="2.5163">
        <ele>110</ele>
        <time>2021-02-17T12:31:00.117Z</time>
      </trkpt>
      <trkpt lat="48.72392" lon="2.51633">
        <ele>110</ele>
        <time>2021-02-17T12:31:05.130Z</time>
      </trkpt>
      <trkpt lat="48.72385" lon="2.51636">
        <ele>110</ele>
        <time>2021-02-17T12:31:10.117Z</time>
      </trkpt>
      <trkpt lat="48.72381" lon="2.51637">
        <ele>110</ele>
        <time>2021-02-17T12:31:14.121Z</time>
      </trkpt>
      <trkpt lat="48.72374" lon="2.51639">
        <ele>110</ele>
        <time>2021-02-17T12:31:19.134Z</time>
      </trkpt>
      <trkpt lat="48.72368" lon="2.51639">
        <ele>110</ele>
        <time>2021-02-17T12:31:24.126Z</time>
      </trkpt>
      <trkpt lat="48.72362" lon="2.51639">
        <ele>110</ele>
        <time>2021-02-17T12:31:29.136Z</time>
      </trkpt>
      <trkpt lat="48.72355" lon="2.51639">
        <ele>110</ele>
        <time>2021-02-17T12:31:34.147Z</time>
      </trkpt>
      <trkpt lat="48.7235" lon="2.51641">
        <ele>110</ele>
        <time>2021-02-17T12:31:39.131Z</time>
      </trkpt>
      <trkpt lat="48.72346" lon="2.51642">
        <ele>109</ele>
        <time>2021-02-17T12:31:43.130Z</time>
      </trkpt>
      <trkpt lat="48.72339" lon="2.51645">
        <ele>109</ele>
        <time>2021-02-17T12:31:48.112Z</time>
      </trkpt>
      <trkpt lat="48.72334" lon="2.51646">
        <ele>109</ele>
        <time>2021-02-17T12:31:52.125Z</time>
      </trkpt>
      <trkpt lat="48.72327" lon="2.51646">
        <ele>109</ele>
        <time>2021-02-17T12:31:56.124Z</time>
      </trkpt>
      <trkpt lat="48.72322" lon="2.51648">
        <ele>109</ele>
        <time>2021-02-17T12:32:01.138Z</time>
      </trkpt>
      <trkpt lat="48.72316" lon="2.5165">
        <ele>108</ele>
        <time>2021-02-17T12:32:06.132Z</time>
      </trkpt>
      <trkpt lat="48.72309" lon="2.51649">
        <ele>108</ele>
        <time>2021-02-17T12:32:11.122Z</time>
      </trkpt>
      <trkpt lat="48.72302" lon="2.51647">
        <ele>108</ele>
        <time>2021-02-17T12:32:16.119Z</time>
      </trkpt>
      <trkpt lat="48.72297" lon="2.51647">
        <ele>108</ele>
        <time>2021-02-17T12:32:21.119Z</time>
      </trkpt>
      <trkpt lat="48.72291" lon="2.51647">
        <ele>107</ele>
        <time>2021-02-17T12:32:26.131Z</time>
      </trkpt>
      <trkpt lat="48.72284" lon="2.51648">
        <ele>107</ele>
        <time>2021-02-17T12:32:31.124Z</time>
      </trkpt>
      <trkpt lat="48.72279" lon="2.51648">
        <ele>107</ele>
        <time>2021-02-17T12:32:35.125Z</time>
      </trkpt>
      <trkpt lat="48.72274" lon="2.5165">
        <ele>107</ele>
        <time>2021-02-17T12:32:39.134Z</time>
      </trkpt>
      <trkpt lat="48.72267" lon="2.51651">
        <ele>107</ele>
        <time>2021-02-17T12:32:44.131Z</time>
      </trkpt>
      <trkpt lat="48.72263" lon="2.51651">
        <ele>105</ele>
        <time>2021-02-17T12:32:49.124Z</time>
      </trkpt>
      <trkpt lat="48.72258" lon="2.51651">
        <ele>105</ele>
        <time>2021-02-17T12:32:54.116Z</time>
      </trkpt>
      <trkpt lat="48.72252" lon="2.51652">
        <ele>105</ele>
        <time>2021-02-17T12:32:59.132Z</time>
      </trkpt>
      <trkpt lat="48.72247" lon="2.51654">
        <ele>104</ele>
        <time>2021-02-17T12:33:04.135Z</time>
      </trkpt>
      <trkpt lat="48.72241" lon="2.51656">
        <ele>104</ele>
        <time>2021-02-17T12:33:09.139Z</time>
      </trkpt>
      <trkpt lat="48.72234" lon="2.5166">
        <ele>103</ele>
        <time>2021-02-17T12:33:14.132Z</time>
      </trkpt>
      <trkpt lat="48.72229" lon="2.5166">
        <ele>103</ele>
        <time>2021-02-17T12:33:19.134Z</time>
      </trkpt>
      <trkpt lat="48.72224" lon="2.51661">
        <ele>103</ele>
        <time>2021-02-17T12:33:24.144Z</time>
      </trkpt>
      <trkpt lat="48.72218" lon="2.51663">
        <ele>103</ele>
        <time>2021-02-17T12:33:29.132Z</time>
      </trkpt>
      <trkpt lat="48.72212" lon="2.51662">
        <ele>103</ele>
        <time>2021-02-17T12:33:34.121Z</time>
      </trkpt>
      <trkpt lat="48.72204" lon="2.51664">
        <ele>102</ele>
        <time>2021-02-17T12:33:39.124Z</time>
      </trkpt>
      <trkpt lat="48.72197" lon="2.51665">
        <ele>102</ele>
        <time>2021-02-17T12:33:44.136Z</time>
      </trkpt>
      <trkpt lat="48.72192" lon="2.51667">
        <ele>102</ele>
        <time>2021-02-17T12:33:48.127Z</time>
      </trkpt>
      <trkpt lat="48.72184" lon="2.51669">
        <ele>102</ele>
        <time>2021-02-17T12:33:53.129Z</time>
      </trkpt>
      <trkpt lat="48.72178" lon="2.51669">
        <ele>100</ele>
        <time>2021-02-17T12:33:57.122Z</time>
      </trkpt>
      <trkpt lat="48.72172" lon="2.5167">
        <ele>100</ele>
        <time>2021-02-17T12:34:02.139Z</time>
      </trkpt>
      <trkpt lat="48.72166" lon="2.5167">
        <ele>100</ele>
        <time>2021-02-17T12:34:07.133Z</time>
      </trkpt>
      <trkpt lat="48.7216" lon="2.51668">
        <ele>100</ele>
        <time>2021-02-17T12:34:12.130Z</time>
      </trkpt>
      <trkpt lat="48.72156" lon="2.51667">
        <ele>100</ele>
        <time>2021-02-17T12:34:17.138Z</time>
      </trkpt>
      <trkpt lat="48.72151" lon="2.51668">
        <ele>96</ele>
        <time>2021-02-17T12:34:22.127Z</time>
      </trkpt>
      <trkpt lat="48.72145" lon="2.51668">
        <ele>96</ele>
        <time>2021-02-17T12:34:27.129Z</time>
      </trkpt>
      <trkpt lat="48.72138" lon="2.51668">
        <ele>96</ele>
        <time>2021-02-17T12:34:32.134Z</time>
      </trkpt>
      <trkpt lat="48.72133" lon="2.51668">
        <ele>96</ele>
        <time>2021-02-17T12:34:36.128Z</time>
      </trkpt>
      <trkpt lat="48.72126" lon="2.51671">
        <ele>96</ele>
        <time>2021-02-17T12:34:41.120Z</time>
      </trkpt>
      <trkpt lat="48.72119" lon="2.51674">
        <ele>94</ele>
        <time>2021-02-17T12:34:46.125Z</time>
      </trkpt>
      <trkpt lat="48.72112" lon="2.51677">
        <ele>94</ele>
        <time>2021-02-17T12:34:51.146Z</time>
      </trkpt>
      <trkpt lat="48.72104" lon="2.51677">
        <ele>94</ele>
        <time>2021-02-17T12:34:56.129Z</time>
      </trkpt>
      <trkpt lat="48.72098" lon="2.51677">
        <ele>94</ele>
        <time>2021-02-17T12:35:01.132Z</time>
      </trkpt>
      <trkpt lat="48.72092" lon="2.51677">
        <ele>92</ele>
        <time>2021-02-17T12:35:06.132Z</time>
      </trkpt>
      <trkpt lat="48.72086" lon="2.51678">
        <ele>92</ele>
        <time>2021-02-17T12:35:11.130Z</time>
      </trkpt>
      <trkpt lat="48.7208" lon="2.5168">
        <ele>92</ele>
        <time>2021-02-17T12:35:15.131Z</time>
      </trkpt>
      <trkpt lat="48.72074" lon="2.51681">
        <ele>91</ele>
        <time>2021-02-17T12:35:20.126Z</time>
      </trkpt>
      <trkpt lat="48.72069" lon="2.51683">
        <ele>90</ele>
        <time>2021-02-17T12:35:24.131Z</time>
      </trkpt>
      <trkpt lat="48.72063" lon="2.51684">
        <ele>90</ele>
        <time>2021-02-17T12:35:29.117Z</time>
      </trkpt>
      <trkpt lat="48.72058" lon="2.51685">
        <ele>90</ele>
        <time>2021-02-17T12:35:33.121Z</time>
      </trkpt>
      <trkpt lat="48.72053" lon="2.51684">
        <ele>90</ele>
        <time>2021-02-17T12:35:37.126Z</time>
      </trkpt>
      <trkpt lat="48.72048" lon="2.51685">
        <ele>90</ele>
        <time>2021-02-17T12:35:42.134Z</time>
      </trkpt>
      <trkpt lat="48.72043" lon="2.51687">
        <ele>90</ele>
        <time>2021-02-17T12:35:47.126Z</time>
      </trkpt>
      <trkpt lat="48.72039" lon="2.51688">
        <ele>91</ele>
        <time>2021-02-17T12:35:52.132Z</time>
      </trkpt>
      <trkpt lat="48.72034" lon="2.51688">
        <ele>91</ele>
        <time>2021-02-17T12:35:57.124Z</time>
      </trkpt>
      <trkpt lat="48.7203" lon="2.5169">
        <ele>91</ele>
        <time>2021-02-17T12:36:01.135Z</time>
      </trkpt>
      <trkpt lat="48.72025" lon="2.5169">
        <ele>91</ele>
        <time>2021-02-17T12:36:06.119Z</time>
      </trkpt>
      <trkpt lat="48.7202" lon="2.51692">
        <ele>91</ele>
        <time>2021-02-17T12:36:11.123Z</time>
      </trkpt>
      <trkpt lat="48.72015" lon="2.51694">
        <ele>91</ele>
        <time>2021-02-17T12:36:16.124Z</time>
      </trkpt>
      <trkpt lat="48.72011" lon="2.51697">
        <ele>91</ele>
        <time>2021-02-17T12:36:21.136Z</time>
      </trkpt>
      <trkpt lat="48.72004" lon="2.51699">
        <ele>91</ele>
        <time>2021-02-17T12:36:26.122Z</time>
      </trkpt>
      <trkpt lat="48.71997" lon="2.51698">
        <ele>91</ele>
        <time>2021-02-17T12:36:31.110Z</time>
      </trkpt>
      <trkpt lat="48.7199" lon="2.51699">
        <ele>91</ele>
        <time>2021-02-17T12:36:36.109Z</time>
      </trkpt>
      <trkpt lat="48.71985" lon="2.51699">
        <ele>90</ele>
        <time>2021-02-17T12:36:40.124Z</time>
      </trkpt>
      <trkpt lat="48.71981" lon="2.51699">
        <ele>90</ele>
        <time>2021-02-17T12:36:44.138Z</time>
      </trkpt>
      <trkpt lat="48.71977" lon="2.51702">
        <ele>90</ele>
        <time>2021-02-17T12:36:49.095Z</time>
      </trkpt>
      <trkpt lat="48.71972" lon="2.51703">
        <ele>90</ele>
        <time>2021-02-17T12:36:53.120Z</time>
      </trkpt>
      <trkpt lat="48.71965" lon="2.51703">
        <ele>90</ele>
        <time>2021-02-17T12:36:58.119Z</time>
      </trkpt>
      <trkpt lat="48.7196" lon="2.51704">
        <ele>90</ele>
        <time>2021-02-17T12:37:02.125Z</time>
      </trkpt>
      <trkpt lat="48.71954" lon="2.51703">
        <ele>89</ele>
        <time>2021-02-17T12:37:07.125Z</time>
      </trkpt>
      <trkpt lat="48.7195" lon="2.51703">
        <ele>89</ele>
        <time>2021-02-17T12:37:11.117Z</time>
      </trkpt>
      <trkpt lat="48.71944" lon="2.51706">
        <ele>89</ele>
        <time>2021-02-17T12:37:16.116Z</time>
      </trkpt>
      <trkpt lat="48.71938" lon="2.51707">
        <ele>89</ele>
        <time>2021-02-17T12:37:21.128Z</time>
      </trkpt>
      <trkpt lat="48.71929" lon="2.51706">
        <ele>89</ele>
        <time>2021-02-17T12:37:26.133Z</time>
      </trkpt>
      <trkpt lat="48.7192" lon="2.51708">
        <ele>89</ele>
        <time>2021-02-17T12:37:31.128Z</time>
      </trkpt>
      <trkpt lat="48.71912" lon="2.51709">
        <ele>90</ele>
        <time>2021-02-17T12:37:36.099Z</time>
      </trkpt>
      <trkpt lat="48.71908" lon="2.5171">
        <ele>90</ele>
        <time>2021-02-17T12:37:40.118Z</time>
      </trkpt>
      <trkpt lat="48.71903" lon="2.51711">
        <ele>90</ele>
        <time>2021-02-17T12:37:44.126Z</time>
      </trkpt>
      <trkpt lat="48.71897" lon="2.51712">
        <ele>90</ele>
        <time>2021-02-17T12:37:49.123Z</time>
      </trkpt>
      <trkpt lat="48.71889" lon="2.51713">
        <ele>90</ele>
        <time>2021-02-17T12:37:54.121Z</time>
      </trkpt>
      <trkpt lat="48.71884" lon="2.51715">
        <ele>90</ele>
        <time>2021-02-17T12:37:58.114Z</time>
      </trkpt>
      <trkpt lat="48.71877" lon="2.51716">
        <ele>90</ele>
        <time>2021-02-17T12:38:03.115Z</time>
      </trkpt>
      <trkpt lat="48.71872" lon="2.51718">
        <ele>90</ele>
        <time>2021-02-17T12:38:08.117Z</time>
      </trkpt>
      <trkpt lat="48.71867" lon="2.5172">
        <ele>90</ele>
        <time>2021-02-17T12:38:13.097Z</time>
      </trkpt>
      <trkpt lat="48.71861" lon="2.5172">
        <ele>90</ele>
        <time>2021-02-17T12:38:17.114Z</time>
      </trkpt>
      <trkpt lat="48.71853" lon="2.5172">
        <ele>90</ele>
        <time>2021-02-17T12:38:22.126Z</time>
      </trkpt>
      <trkpt lat="48.71848" lon="2.51721">
        <ele>90</ele>
        <time>2021-02-17T12:38:27.125Z</time>
      </trkpt>
      <trkpt lat="48.71842" lon="2.51721">
        <ele>90</ele>
        <time>2021-02-17T12:38:32.119Z</time>
      </trkpt>
      <trkpt lat="48.71835" lon="2.51722">
        <ele>90</ele>
        <time>2021-02-17T12:38:37.109Z</time>
      </trkpt>
      <trkpt lat="48.71831" lon="2.51722">
        <ele>90</ele>
        <time>2021-02-17T12:38:41.118Z</time>
      </trkpt>
      <trkpt lat="48.71824" lon="2.51723">
        <ele>90</ele>
        <time>2021-02-17T12:38:46.126Z</time>
      </trkpt>
      <trkpt lat="48.71819" lon="2.51724">
        <ele>90</ele>
        <time>2021-02-17T12:38:50.109Z</time>
      </trkpt>
      <trkpt lat="48.71814" lon="2.51724">
        <ele>90</ele>
        <time>2021-02-17T12:38:55.117Z</time>
      </trkpt>
      <trkpt lat="48.71812" lon="2.51725">
        <ele>90</ele>
        <time>2021-02-17T12:39:00.113Z</time>
      </trkpt>
      <trkpt lat="48.71806" lon="2.51727">
        <ele>90</ele>
        <time>2021-02-17T12:39:04.128Z</time>
      </trkpt>
      <trkpt lat="48.71799" lon="2.51728">
        <ele>90</ele>
        <time>2021-02-17T12:39:09.108Z</time>
      </trkpt>
      <trkpt lat="48.71791" lon="2.51727">
        <ele>90</ele>
        <time>2021-02-17T12:39:14.119Z</time>
      </trkpt>
      <trkpt lat="48.71784" lon="2.51727">
        <ele>90</ele>
        <time>2021-02-17T12:39:19.109Z</time>
      </trkpt>
      <trkpt lat="48.71778" lon="2.51727">
        <ele>90</ele>
        <time>2021-02-17T12:39:24.126Z</time>
      </trkpt>
      <trkpt lat="48.71771" lon="2.51727">
        <ele>90</ele>
        <time>2021-02-17T12:39:29.111Z</time>
      </trkpt>
      <trkpt lat="48.71766" lon="2.51727">
        <ele>90</ele>
        <time>2021-02-17T12:39:33.123Z</time>
      </trkpt>
      <trkpt lat="48.7176" lon="2.51728">
        <ele>89</ele>
        <time>2021-02-17T12:39:38.123Z</time>
      </trkpt>
      <trkpt lat="48.71754" lon="2.51729">
        <ele>89</ele>
        <time>2021-02-17T12:39:43.129Z</time>
      </trkpt>
      <trkpt lat="48.71748" lon="2.51729">
        <ele>89</ele>
        <time>2021-02-17T12:39:48.110Z</time>
      </trkpt>
      <trkpt lat="48.71743" lon="2.51729">
        <ele>89</ele>
        <time>2021-02-17T12:39:53.108Z</time>
      </trkpt>
      <trkpt lat="48.71737" lon="2.51729">
        <ele>89</ele>
        <time>2021-02-17T12:39:57.129Z</time>
      </trkpt>
      <trkpt lat="48.71733" lon="2.51732">
        <ele>87</ele>
        <time>2021-02-17T12:40:01.123Z</time>
      </trkpt>
      <trkpt lat="48.71728" lon="2.51733">
        <ele>87</ele>
        <time>2021-02-17T12:40:06.109Z</time>
      </trkpt>
      <trkpt lat="48.71723" lon="2.51734">
        <ele>87</ele>
        <time>2021-02-17T12:40:11.127Z</time>
      </trkpt>
      <trkpt lat="48.71718" lon="2.5174">
        <ele>86</ele>
        <time>2021-02-17T12:40:16.105Z</time>
      </trkpt>
      <trkpt lat="48.71713" lon="2.51744">
        <ele>86</ele>
        <time>2021-02-17T12:40:20.108Z</time>
      </trkpt>
      <trkpt lat="48.71709" lon="2.51747">
        <ele>86</ele>
        <time>2021-02-17T12:40:25.128Z</time>
      </trkpt>
      <trkpt lat="48.71706" lon="2.51751">
        <ele>87</ele>
        <time>2021-02-17T12:40:30.109Z</time>
      </trkpt>
      <trkpt lat="48.71702" lon="2.51753">
        <ele>87</ele>
        <time>2021-02-17T12:40:34.126Z</time>
      </trkpt>
      <trkpt lat="48.71696" lon="2.51756">
        <ele>87</ele>
        <time>2021-02-17T12:40:39.123Z</time>
      </trkpt>
      <trkpt lat="48.71693" lon="2.51757">
        <ele>87</ele>
        <time>2021-02-17T12:40:44.099Z</time>
      </trkpt>
      <trkpt lat="48.71686" lon="2.51761">
        <ele>87</ele>
        <time>2021-02-17T12:40:48.116Z</time>
      </trkpt>
      <trkpt lat="48.71679" lon="2.51762">
        <ele>87</ele>
        <time>2021-02-17T12:40:53.128Z</time>
      </trkpt>
      <trkpt lat="48.7167" lon="2.51767">
        <ele>87</ele>
        <time>2021-02-17T12:40:58.117Z</time>
      </trkpt>
      <trkpt lat="48.71664" lon="2.51771">
        <ele>87</ele>
        <time>2021-02-17T12:41:03.114Z</time>
      </trkpt>
      <trkpt lat="48.71659" lon="2.51776">
        <ele>87</ele>
        <time>2021-02-17T12:41:07.118Z</time>
      </trkpt>
      <trkpt lat="48.71652" lon="2.5178">
        <ele>85</ele>
        <time>2021-02-17T12:41:12.126Z</time>
      </trkpt>
      <trkpt lat="48.71645" lon="2.51784">
        <ele>85</ele>
        <time>2021-02-17T12:41:17.132Z</time>
      </trkpt>
      <trkpt lat="48.71637" lon="2.51787">
        <ele>85</ele>
        <time>2021-02-17T12:41:22.114Z</time>
      </trkpt>
      <trkpt lat="48.71631" lon="2.51791">
        <ele>85</ele>
        <time>2021-02-17T12:41:27.114Z</time>
      </trkpt>
      <trkpt lat="48.71627" lon="2.51795">
        <ele>84</ele>
        <time>2021-02-17T12:41:31.114Z</time>
      </trkpt>
      <trkpt lat="48.71619" lon="2.51798">
        <ele>82</ele>
        <time>2021-02-17T12:41:36.115Z</time>
      </trkpt>
      <trkpt lat="48.71612" lon="2.51801">
        <ele>82</ele>
        <time>2021-02-17T12:41:41.132Z</time>
      </trkpt>
      <trkpt lat="48.71607" lon="2.51804">
        <ele>82</ele>
        <time>2021-02-17T12:41:45.098Z</time>
      </trkpt>
      <trkpt lat="48.716" lon="2.51805">
        <ele>82</ele>
        <time>2021-02-17T12:41:50.115Z</time>
      </trkpt>
      <trkpt lat="48.71596" lon="2.51803">
        <ele>79</ele>
        <time>2021-02-17T12:41:55.120Z</time>
      </trkpt>
      <trkpt lat="48.71593" lon="2.51798">
        <ele>79</ele>
        <time>2021-02-17T12:42:00.121Z</time>
      </trkpt>
      <trkpt lat="48.71591" lon="2.51792">
        <ele>79</ele>
        <time>2021-02-17T12:42:05.105Z</time>
      </trkpt>
      <trkpt lat="48.71589" lon="2.51787">
        <ele>79</ele>
        <time>2021-02-17T12:42:10.109Z</time>
      </trkpt>
      <trkpt lat="48.71587" lon="2.51781">
        <ele>79</ele>
        <time>2021-02-17T12:42:14.112Z</time>
      </trkpt>
      <trkpt lat="48.71585" lon="2.51774">
        <ele>79</ele>
        <time>2021-02-17T12:42:19.111Z</time>
      </trkpt>
      <trkpt lat="48.71584" lon="2.51765">
        <ele>79</ele>
        <time>2021-02-17T12:42:24.122Z</time>
      </trkpt>
      <trkpt lat="48.71582" lon="2.51756">
        <ele>80</ele>
        <time>2021-02-17T12:42:29.109Z</time>
      </trkpt>
      <trkpt lat="48.7158" lon="2.51751">
        <ele>80</ele>
        <time>2021-02-17T12:42:33.118Z</time>
      </trkpt>
      <trkpt lat="48.71578" lon="2.51743">
        <ele>80</ele>
        <time>2021-02-17T12:42:38.124Z</time>
      </trkpt>
      <trkpt lat="48.71573" lon="2.5174">
        <ele>80</ele>
        <time>2021-02-17T12:42:43.099Z</time>
      </trkpt>
      <trkpt lat="48.71568" lon="2.51739">
        <ele>76</ele>
        <time>2021-02-17T12:42:47.122Z</time>
      </trkpt>
      <trkpt lat="48.71562" lon="2.51741">
        <ele>76</ele>
        <time>2021-02-17T12:42:52.111Z</time>
      </trkpt>
      <trkpt lat="48.71558" lon="2.51742">
        <ele>76</ele>
        <time>2021-02-17T12:42:57.113Z</time>
      </trkpt>
      <trkpt lat="48.71555" lon="2.51746">
        <ele>76</ele>
        <time>2021-02-17T12:43:02.126Z</time>
      </trkpt>
      <trkpt lat="48.71551" lon="2.51749">
        <ele>76</ele>
        <time>2021-02-17T12:43:07.131Z</time>
      </trkpt>
      <trkpt lat="48.71546" lon="2.51754">
        <ele>76</ele>
        <time>2021-02-17T12:43:12.101Z</time>
      </trkpt>
      <trkpt lat="48.71541" lon="2.51759">
        <ele>73</ele>
        <time>2021-02-17T12:43:17.113Z</time>
      </trkpt>
      <trkpt lat="48.71539" lon="2.51765">
        <ele>74</ele>
        <time>2021-02-17T12:43:22.123Z</time>
      </trkpt>
      <trkpt lat="48.71538" lon="2.51773">
        <ele>74</ele>
        <time>2021-02-17T12:43:27.120Z</time>
      </trkpt>
      <trkpt lat="48.7154" lon="2.51782">
        <ele>74</ele>
        <time>2021-02-17T12:43:32.108Z</time>
      </trkpt>
      <trkpt lat="48.71542" lon="2.51789">
        <ele>74</ele>
        <time>2021-02-17T12:43:37.112Z</time>
      </trkpt>
      <trkpt lat="48.71542" lon="2.51798">
        <ele>77</ele>
        <time>2021-02-17T12:43:42.130Z</time>
      </trkpt>
      <trkpt lat="48.71538" lon="2.51804">
        <ele>75</ele>
        <time>2021-02-17T12:43:47.114Z</time>
      </trkpt>
      <trkpt lat="48.71535" lon="2.5181">
        <ele>75</ele>
        <time>2021-02-17T12:43:51.116Z</time>
      </trkpt>
      <trkpt lat="48.71531" lon="2.51816">
        <ele>75</ele>
        <time>2021-02-17T12:43:56.117Z</time>
      </trkpt>
      <trkpt lat="48.71528" lon="2.5182">
        <ele>76</ele>
        <time>2021-02-17T12:44:01.109Z</time>
      </trkpt>
      <trkpt lat="48.71523" lon="2.51825">
        <ele>76</ele>
        <time>2021-02-17T12:44:06.111Z</time>
      </trkpt>
      <trkpt lat="48.71521" lon="2.51829">
        <ele>76</ele>
        <time>2021-02-17T12:44:10.116Z</time>
      </trkpt>
      <trkpt lat="48.71516" lon="2.51836">
        <ele>76</ele>
        <time>2021-02-17T12:44:15.126Z</time>
      </trkpt>
      <trkpt lat="48.71513" lon="2.51841">
        <ele>73</ele>
        <time>2021-02-17T12:44:20.112Z</time>
      </trkpt>
      <trkpt lat="48.71509" lon="2.51846">
        <ele>73</ele>
        <time>2021-02-17T12:44:24.111Z</time>
      </trkpt>
      <trkpt lat="48.71504" lon="2.51855">
        <ele>75</ele>
        <time>2021-02-17T12:44:29.105Z</time>
      </trkpt>
      <trkpt lat="48.71499" lon="2.51859">
        <ele>75</ele>
        <time>2021-02-17T12:44:33.119Z</time>
      </trkpt>
      <trkpt lat="48.71496" lon="2.51865">
        <ele>75</ele>
        <time>2021-02-17T12:44:37.118Z</time>
      </trkpt>
      <trkpt lat="48.71491" lon="2.51871">
        <ele>75</ele>
        <time>2021-02-17T12:44:42.109Z</time>
      </trkpt>
      <trkpt lat="48.71486" lon="2.51878">
        <ele>70</ele>
        <time>2021-02-17T12:44:47.110Z</time>
      </trkpt>
      <trkpt lat="48.71482" lon="2.51883">
        <ele>70</ele>
        <time>2021-02-17T12:44:51.122Z</time>
      </trkpt>
      <trkpt lat="48.71476" lon="2.51888">
        <ele>70</ele>
        <time>2021-02-17T12:44:56.112Z</time>
      </trkpt>
      <trkpt lat="48.7147" lon="2.51894">
        <ele>70</ele>
        <time>2021-02-17T12:45:01.113Z</time>
      </trkpt>
      <trkpt lat="48.71464" lon="2.51899">
        <ele>70</ele>
        <time>2021-02-17T12:45:06.124Z</time>
      </trkpt>
      <trkpt lat="48.7146" lon="2.51906">
        <ele>70</ele>
        <time>2021-02-17T12:45:10.122Z</time>
      </trkpt>
      <trkpt lat="48.71454" lon="2.51911">
        <ele>64</ele>
        <time>2021-02-17T12:45:15.114Z</time>
      </trkpt>
      <trkpt lat="48.71448" lon="2.51914">
        <ele>64</ele>
        <time>2021-02-17T12:45:20.109Z</time>
      </trkpt>
      <trkpt lat="48.71442" lon="2.5192">
        <ele>64</ele>
        <time>2021-02-17T12:45:25.109Z</time>
      </trkpt>
      <trkpt lat="48.71436" lon="2.51925">
        <ele>64</ele>
        <time>2021-02-17T12:45:29.117Z</time>
      </trkpt>
      <trkpt lat="48.71429" lon="2.51927">
        <ele>62</ele>
        <time>2021-02-17T12:45:34.114Z</time>
      </trkpt>
      <trkpt lat="48.71424" lon="2.51928">
        <ele>62</ele>
        <time>2021-02-17T12:45:38.126Z</time>
      </trkpt>
      <trkpt lat="48.71419" lon="2.51928">
        <ele>62</ele>
        <time>2021-02-17T12:45:43.097Z</time>
      </trkpt>
      <trkpt lat="48.71413" lon="2.51927">
        <ele>62</ele>
        <time>2021-02-17T12:45:48.095Z</time>
      </trkpt>
      <trkpt lat="48.71407" lon="2.51925">
        <ele>62</ele>
        <time>2021-02-17T12:45:52.117Z</time>
      </trkpt>
      <trkpt lat="48.714" lon="2.51921">
        <ele>58</ele>
        <time>2021-02-17T12:45:57.117Z</time>
      </trkpt>
      <trkpt lat="48.71396" lon="2.51918">
        <ele>58</ele>
        <time>2021-02-17T12:46:01.127Z</time>
      </trkpt>
      <trkpt lat="48.71391" lon="2.5191">
        <ele>58</ele>
        <time>2021-02-17T12:46:06.123Z</time>
      </trkpt>
      <trkpt lat="48.71387" lon="2.51903">
        <ele>57</ele>
        <time>2021-02-17T12:46:11.116Z</time>
      </trkpt>
      <trkpt lat="48.71384" lon="2.51896">
        <ele>57</ele>
        <time>2021-02-17T12:46:16.117Z</time>
      </trkpt>
      <trkpt lat="48.71382" lon="2.51889">
        <ele>57</ele>
        <time>2021-02-17T12:46:21.101Z</time>
      </trkpt>
      <trkpt lat="48.71381" lon="2.51883">
        <ele>57</ele>
        <time>2021-02-17T12:46:25.108Z</time>
      </trkpt>
      <trkpt lat="48.71379" lon="2.51876">
        <ele>57</ele>
        <time>2021-02-17T12:46:30.099Z</time>
      </trkpt>
      <trkpt lat="48.71378" lon="2.51871">
        <ele>56</ele>
        <time>2021-02-17T12:46:35.118Z</time>
      </trkpt>
      <trkpt lat="48.71376" lon="2.51866">
        <ele>56</ele>
        <time>2021-02-17T12:46:39.102Z</time>
      </trkpt>
      <trkpt lat="48.71374" lon="2.51857">
        <ele>53</ele>
        <time>2021-02-17T12:46:44.111Z</time>
      </trkpt>
      <trkpt lat="48.71372" lon="2.5185">
        <ele>53</ele>
        <time>2021-02-17T12:46:49.091Z</time>
      </trkpt>
      <trkpt lat="48.71368" lon="2.51846">
        <ele>52</ele>
        <time>2021-02-17T12:46:54.095Z</time>
      </trkpt>
      <trkpt lat="48.71364" lon="2.51839">
        <ele>52</ele>
        <time>2021-02-17T12:46:59.098Z</time>
      </trkpt>
      <trkpt lat="48.7136" lon="2.5183">
        <ele>52</ele>
        <time>2021-02-17T12:47:04.101Z</time>
      </trkpt>
      <trkpt lat="48.71358" lon="2.51822">
        <ele>52</ele>
        <time>2021-02-17T12:47:08.108Z</time>
      </trkpt>
      <trkpt lat="48.71361" lon="2.51814">
        <ele>52</ele>
        <time>2021-02-17T12:47:13.113Z</time>
      </trkpt>
      <trkpt lat="48.71363" lon="2.51806">
        <ele>52</ele>
        <time>2021-02-17T12:47:18.110Z</time>
      </trkpt>
      <trkpt lat="48.71366" lon="2.51798">
        <ele>52</ele>
        <time>2021-02-17T12:47:23.104Z</time>
      </trkpt>
      <trkpt lat="48.71367" lon="2.51789">
        <ele>52</ele>
        <time>2021-02-17T12:47:28.117Z</time>
      </trkpt>
      <trkpt lat="48.71364" lon="2.51779">
        <ele>52</ele>
        <time>2021-02-17T12:47:33.094Z</time>
      </trkpt>
      <trkpt lat="48.71362" lon="2.51771">
        <ele>52</ele>
        <time>2021-02-17T12:47:37.111Z</time>
      </trkpt>
      <trkpt lat="48.7136" lon="2.51764">
        <ele>54</ele>
        <time>2021-02-17T12:47:41.088Z</time>
      </trkpt>
      <trkpt lat="48.71358" lon="2.51757">
        <ele>54</ele>
        <time>2021-02-17T12:47:45.107Z</time>
      </trkpt>
      <trkpt lat="48.71358" lon="2.51749">
        <ele>54</ele>
        <time>2021-02-17T12:47:49.123Z</time>
      </trkpt>
      <trkpt lat="48.71357" lon="2.51741">
        <ele>54</ele>
        <time>2021-02-17T12:47:54.129Z</time>
      </trkpt>
      <trkpt lat="48.71354" lon="2.51731">
        <ele>56</ele>
        <time>2021-02-17T12:47:59.105Z</time>
      </trkpt>
      <trkpt lat="48.71354" lon="2.51724">
        <ele>56</ele>
        <time>2021-02-17T12:48:03.106Z</time>
      </trkpt>
      <trkpt lat="48.71351" lon="2.51716">
        <ele>56</ele>
        <time>2021-02-17T12:48:08.088Z</time>
      </trkpt>
      <trkpt lat="48.71348" lon="2.51709">
        <ele>56</ele>
        <time>2021-02-17T12:48:12.111Z</time>
      </trkpt>
      <trkpt lat="48.71343" lon="2.51704">
        <ele>59</ele>
        <time>2021-02-17T12:48:17.109Z</time>
      </trkpt>
      <trkpt lat="48.7134" lon="2.51695">
        <ele>59</ele>
        <time>2021-02-17T12:48:22.116Z</time>
      </trkpt>
      <trkpt lat="48.71337" lon="2.51689">
        <ele>59</ele>
        <time>2021-02-17T12:48:26.124Z</time>
      </trkpt>
      <trkpt lat="48.71335" lon="2.51682">
        <ele>59</ele>
        <time>2021-02-17T12:48:31.106Z</time>
      </trkpt>
      <trkpt lat="48.71333" lon="2.51675">
        <ele>61</ele>
        <time>2021-02-17T12:48:36.091Z</time>
      </trkpt>
      <trkpt lat="48.7133" lon="2.51667">
        <ele>61</ele>
        <time>2021-02-17T12:48:41.086Z</time>
      </trkpt>
      <trkpt lat="48.71327" lon="2.51662">
        <ele>61</ele>
        <time>2021-02-17T12:48:45.099Z</time>
      </trkpt>
      <trkpt lat="48.71325" lon="2.51653">
        <ele>61</ele>
        <time>2021-02-17T12:48:50.114Z</time>
      </trkpt>
      <trkpt lat="48.71322" lon="2.51646">
        <ele>61</ele>
        <time>2021-02-17T12:48:55.099Z</time>
      </trkpt>
      <trkpt lat="48.71319" lon="2.5164">
        <ele>58</ele>
        <time>2021-02-17T12:48:59.102Z</time>
      </trkpt>
      <trkpt lat="48.71318" lon="2.51628">
        <ele>58</ele>
        <time>2021-02-17T12:49:04.109Z</time>
      </trkpt>
      <trkpt lat="48.71313" lon="2.5162">
        <ele>58</ele>
        <time>2021-02-17T12:49:09.112Z</time>
      </trkpt>
      <trkpt lat="48.7131" lon="2.51611">
        <ele>58</ele>
        <time>2021-02-17T12:49:14.114Z</time>
      </trkpt>
      <trkpt lat="48.71307" lon="2.51605">
        <ele>58</ele>
        <time>2021-02-17T12:49:19.113Z</time>
      </trkpt>
      <trkpt lat="48.71305" lon="2.51599">
        <ele>58</ele>
        <time>2021-02-17T12:49:23.112Z</time>
      </trkpt>
      <trkpt lat="48.71301" lon="2.5159">
        <ele>59</ele>
        <time>2021-02-17T12:49:28.113Z</time>
      </trkpt>
      <trkpt lat="48.713" lon="2.51587">
        <ele>59</ele>
        <time>2021-02-17T12:49:32.106Z</time>
      </trkpt>
      <trkpt lat="48.71298" lon="2.51576">
        <ele>59</ele>
        <time>2021-02-17T12:49:37.102Z</time>
      </trkpt>
      <trkpt lat="48.71297" lon="2.5157">
        <ele>59</ele>
        <time>2021-02-17T12:49:41.108Z</time>
      </trkpt>
      <trkpt lat="48.71293" lon="2.51561">
        <ele>59</ele>
        <time>2021-02-17T12:49:46.106Z</time>
      </trkpt>
      <trkpt lat="48.7129" lon="2.51553">
        <ele>56</ele>
        <time>2021-02-17T12:49:51.100Z</time>
      </trkpt>
      <trkpt lat="48.71291" lon="2.51545">
        <ele>56</ele>
        <time>2021-02-17T12:49:56.120Z</time>
      </trkpt>
      <trkpt lat="48.7129" lon="2.51537">
        <ele>56</ele>
        <time>2021-02-17T12:50:01.101Z</time>
      </trkpt>
      <trkpt lat="48.71287" lon="2.51528">
        <ele>56</ele>
        <time>2021-02-17T12:50:06.107Z</time>
      </trkpt>
      <trkpt lat="48.71285" lon="2.51518">
        <ele>56</ele>
        <time>2021-02-17T12:50:11.106Z</time>
      </trkpt>
      <trkpt lat="48.71283" lon="2.5151">
        <ele>55</ele>
        <time>2021-02-17T12:50:16.112Z</time>
      </trkpt>
      <trkpt lat="48.71282" lon="2.515">
        <ele>55</ele>
        <time>2021-02-17T12:50:21.118Z</time>
      </trkpt>
      <trkpt lat="48.71279" lon="2.51487">
        <ele>55</ele>
        <time>2021-02-17T12:50:26.110Z</time>
      </trkpt>
      <trkpt lat="48.71276" lon="2.51477">
        <ele>54</ele>
        <time>2021-02-17T12:50:31.107Z</time>
      </trkpt>
      <trkpt lat="48.71272" lon="2.51469">
        <ele>54</ele>
        <time>2021-02-17T12:50:36.098Z</time>
      </trkpt>
      <trkpt lat="48.7127" lon="2.51465">
        <ele>54</ele>
        <time>2021-02-17T12:50:41.108Z</time>
      </trkpt>
      <trkpt lat="48.71268" lon="2.51461">
        <ele>54</ele>
        <time>2021-02-17T12:50:45.100Z</time>
      </trkpt>
      <trkpt lat="48.71268" lon="2.51452">
        <ele>55</ele>
        <time>2021-02-17T12:50:50.107Z</time>
      </trkpt>
      <trkpt lat="48.71264" lon="2.5144">
        <ele>55</ele>
        <time>2021-02-17T12:50:55.104Z</time>
      </trkpt>
      <trkpt lat="48.71262" lon="2.5143">
        <ele>55</ele>
        <time>2021-02-17T12:50:59.112Z</time>
      </trkpt>
      <trkpt lat="48.71261" lon="2.51419">
        <ele>55</ele>
        <time>2021-02-17T12:51:04.111Z</time>
      </trkpt>
      <trkpt lat="48.71256" lon="2.5141">
        <ele>55</ele>
        <time>2021-02-17T12:51:09.098Z</time>
      </trkpt>
      <trkpt lat="48.71254" lon="2.514">
        <ele>56</ele>
        <time>2021-02-17T12:51:14.104Z</time>
      </trkpt>
      <trkpt lat="48.71252" lon="2.51391">
        <ele>56</ele>
        <time>2021-02-17T12:51:19.116Z</time>
      </trkpt>
      <trkpt lat="48.71251" lon="2.51384">
        <ele>56</ele>
        <time>2021-02-17T12:51:23.096Z</time>
      </trkpt>
      <trkpt lat="48.71251" lon="2.51375">
        <ele>58</ele>
        <time>2021-02-17T12:51:28.112Z</time>
      </trkpt>
      <trkpt lat="48.71252" lon="2.51366">
        <ele>58</ele>
        <time>2021-02-17T12:51:33.114Z</time>
      </trkpt>
      <trkpt lat="48.71256" lon="2.51361">
        <ele>58</ele>
        <time>2021-02-17T12:51:38.088Z</time>
      </trkpt>
      <trkpt lat="48.71261" lon="2.51356">
        <ele>58</ele>
        <time>2021-02-17T12:51:42.095Z</time>
      </trkpt>
      <trkpt lat="48.7126" lon="2.51351">
        <ele>58</ele>
        <time>2021-02-17T12:51:46.097Z</time>
      </trkpt>
      <trkpt lat="48.71264" lon="2.51343">
        <ele>58</ele>
        <time>2021-02-17T12:51:51.087Z</time>
      </trkpt>
      <trkpt lat="48.71267" lon="2.51337">
        <ele>60</ele>
        <time>2021-02-17T12:51:56.111Z</time>
      </trkpt>
      <trkpt lat="48.71269" lon="2.5133">
        <ele>60</ele>
        <time>2021-02-17T12:52:01.100Z</time>
      </trkpt>
      <trkpt lat="48.71272" lon="2.51323">
        <ele>60</ele>
        <time>2021-02-17T12:52:06.110Z</time>
      </trkpt>
      <trkpt lat="48.71274" lon="2.51314">
        <ele>60</ele>
        <time>2021-02-17T12:52:11.110Z</time>
      </trkpt>
      <trkpt lat="48.71273" lon="2.51304">
        <ele>60</ele>
        <time>2021-02-17T12:52:16.119Z</time>
      </trkpt>
      <trkpt lat="48.7127" lon="2.51296">
        <ele>60</ele>
        <time>2021-02-17T12:52:21.105Z</time>
      </trkpt>
      <trkpt lat="48.7127" lon="2.51288">
        <ele>59</ele>
        <time>2021-02-17T12:52:25.107Z</time>
      </trkpt>
      <trkpt lat="48.71272" lon="2.5128">
        <ele>59</ele>
        <time>2021-02-17T12:52:30.116Z</time>
      </trkpt>
      <trkpt lat="48.71272" lon="2.51266">
        <ele>59</ele>
        <time>2021-02-17T12:52:35.093Z</time>
      </trkpt>
      <trkpt lat="48.71272" lon="2.51254">
        <ele>58</ele>
        <time>2021-02-17T12:52:39.099Z</time>
      </trkpt>
      <trkpt lat="48.71271" lon="2.51242">
        <ele>58</ele>
        <time>2021-02-17T12:52:44.113Z</time>
      </trkpt>
      <trkpt lat="48.71273" lon="2.51235">
        <ele>57</ele>
        <time>2021-02-17T12:52:49.087Z</time>
      </trkpt>
      <trkpt lat="48.71274" lon="2.5123">
        <ele>57</ele>
        <time>2021-02-17T12:52:53.105Z</time>
      </trkpt>
      <trkpt lat="48.71275" lon="2.51226">
        <ele>57</ele>
        <time>2021-02-17T12:52:57.118Z</time>
      </trkpt>
      <trkpt lat="48.71275" lon="2.51221">
        <ele>57</ele>
        <time>2021-02-17T12:53:01.106Z</time>
      </trkpt>
      <trkpt lat="48.71276" lon="2.5121">
        <ele>57</ele>
        <time>2021-02-17T12:53:06.105Z</time>
      </trkpt>
      <trkpt lat="48.71274" lon="2.51201">
        <ele>56</ele>
        <time>2021-02-17T12:53:10.101Z</time>
      </trkpt>
      <trkpt lat="48.71273" lon="2.5119">
        <ele>56</ele>
        <time>2021-02-17T12:53:15.104Z</time>
      </trkpt>
      <trkpt lat="48.71269" lon="2.51176">
        <ele>55</ele>
        <time>2021-02-17T12:53:20.109Z</time>
      </trkpt>
      <trkpt lat="48.71269" lon="2.51169">
        <ele>55</ele>
        <time>2021-02-17T12:53:25.088Z</time>
      </trkpt>
      <trkpt lat="48.71267" lon="2.51158">
        <ele>55</ele>
        <time>2021-02-17T12:53:30.106Z</time>
      </trkpt>
      <trkpt lat="48.71264" lon="2.51144">
        <ele>54</ele>
        <time>2021-02-17T12:53:35.108Z</time>
      </trkpt>
      <trkpt lat="48.71263" lon="2.51135">
        <ele>51</ele>
        <time>2021-02-17T12:53:39.101Z</time>
      </trkpt>
      <trkpt lat="48.71262" lon="2.51125">
        <ele>50</ele>
        <time>2021-02-17T12:53:44.114Z</time>
      </trkpt>
      <trkpt lat="48.7126" lon="2.51113">
        <ele>50</ele>
        <time>2021-02-17T12:53:49.107Z</time>
      </trkpt>
      <trkpt lat="48.71262" lon="2.51104">
        <ele>50</ele>
        <time>2021-02-17T12:53:54.102Z</time>
      </trkpt>
      <trkpt lat="48.7126" lon="2.51097">
        <ele>50</ele>
        <time>2021-02-17T12:53:58.085Z</time>
      </trkpt>
      <trkpt lat="48.7126" lon="2.51089">
        <ele>50</ele>
        <time>2021-02-17T12:54:02.111Z</time>
      </trkpt>
      <trkpt lat="48.7126" lon="2.5108">
        <ele>50</ele>
        <time>2021-02-17T12:54:07.105Z</time>
      </trkpt>
      <trkpt lat="48.71259" lon="2.5107">
        <ele>50</ele>
        <time>2021-02-17T12:54:12.096Z</time>
      </trkpt>
      <trkpt lat="48.71258" lon="2.5106">
        <ele>51</ele>
        <time>2021-02-17T12:54:17.101Z</time>
      </trkpt>
      <trkpt lat="48.71256" lon="2.51049">
        <ele>51</ele>
        <time>2021-02-17T12:54:22.090Z</time>
      </trkpt>
      <trkpt lat="48.71256" lon="2.5104">
        <ele>52</ele>
        <time>2021-02-17T12:54:26.114Z</time>
      </trkpt>
      <trkpt lat="48.71256" lon="2.51034">
        <ele>52</ele>
        <time>2021-02-17T12:54:30.108Z</time>
      </trkpt>
      <trkpt lat="48.71255" lon="2.51023">
        <ele>52</ele>
        <time>2021-02-17T12:54:35.112Z</time>
      </trkpt>
      <trkpt lat="48.71255" lon="2.51013">
        <ele>52</ele>
        <time>2021-02-17T12:54:40.116Z</time>
      </trkpt>
      <trkpt lat="48.71256" lon="2.51005">
        <ele>52</ele>
        <time>2021-02-17T12:54:45.104Z</time>
      </trkpt>
      <trkpt lat="48.71254" lon="2.50998">
        <ele>52</ele>
        <time>2021-02-17T12:54:49.088Z</time>
      </trkpt>
      <trkpt lat="48.7125" lon="2.50985">
        <ele>52</ele>
        <time>2021-02-17T12:54:54.115Z</time>
      </trkpt>
      <trkpt lat="48.71247" lon="2.50974">
        <ele>52</ele>
        <time>2021-02-17T12:54:59.113Z</time>
      </trkpt>
      <trkpt lat="48.71246" lon="2.50965">
        <ele>52</ele>
        <time>2021-02-17T12:55:04.113Z</time>
      </trkpt>
      <trkpt lat="48.71246" lon="2.50956">
        <ele>52</ele>
        <time>2021-02-17T12:55:09.108Z</time>
      </trkpt>
      <trkpt lat="48.71245" lon="2.50944">
        <ele>52</ele>
        <time>2021-02-17T12:55:14.086Z</time>
      </trkpt>
      <trkpt lat="48.71245" lon="2.50936">
        <ele>52</ele>
        <time>2021-02-17T12:55:18.112Z</time>
      </trkpt>
      <trkpt lat="48.71244" lon="2.50926">
        <ele>51</ele>
        <time>2021-02-17T12:55:23.113Z</time>
      </trkpt>
      <trkpt lat="48.71243" lon="2.50917">
        <ele>51</ele>
        <time>2021-02-17T12:55:28.101Z</time>
      </trkpt>
      <trkpt lat="48.71242" lon="2.50911">
        <ele>51</ele>
        <time>2021-02-17T12:55:32.105Z</time>
      </trkpt>
      <trkpt lat="48.71242" lon="2.50904">
        <ele>51</ele>
        <time>2021-02-17T12:55:37.107Z</time>
      </trkpt>
      <trkpt lat="48.7124" lon="2.50892">
        <ele>52</ele>
        <time>2021-02-17T12:55:42.118Z</time>
      </trkpt>
      <trkpt lat="48.71237" lon="2.50881">
        <ele>52</ele>
        <time>2021-02-17T12:55:47.117Z</time>
      </trkpt>
      <trkpt lat="48.71235" lon="2.50872">
        <ele>53</ele>
        <time>2021-02-17T12:55:52.123Z</time>
      </trkpt>
      <trkpt lat="48.71231" lon="2.50864">
        <ele>53</ele>
        <time>2021-02-17T12:55:57.101Z</time>
      </trkpt>
      <trkpt lat="48.71228" lon="2.50854">
        <ele>53</ele>
        <time>2021-02-17T12:56:02.109Z</time>
      </trkpt>
      <trkpt lat="48.71227" lon="2.50842">
        <ele>53</ele>
        <time>2021-02-17T12:56:07.108Z</time>
      </trkpt>
      <trkpt lat="48.71224" lon="2.50834">
        <ele>53</ele>
        <time>2021-02-17T12:56:11.099Z</time>
      </trkpt>
      <trkpt lat="48.71224" lon="2.50824">
        <ele>53</ele>
        <time>2021-02-17T12:56:16.119Z</time>
      </trkpt>
      <trkpt lat="48.71224" lon="2.50817">
        <ele>52</ele>
        <time>2021-02-17T12:56:20.114Z</time>
      </trkpt>
      <trkpt lat="48.71223" lon="2.50807">
        <ele>52</ele>
        <time>2021-02-17T12:56:25.112Z</time>
      </trkpt>
      <trkpt lat="48.71222" lon="2.50799">
        <ele>52</ele>
        <time>2021-02-17T12:56:30.121Z</time>
      </trkpt>
      <trkpt lat="48.71216" lon="2.50789">
        <ele>52</ele>
        <time>2021-02-17T12:56:35.109Z</time>
      </trkpt>
      <trkpt lat="48.71212" lon="2.50779">
        <ele>52</ele>
        <time>2021-02-17T12:56:40.106Z</time>
      </trkpt>
      <trkpt lat="48.71209" lon="2.50771">
        <ele>52</ele>
        <time>2021-02-17T12:56:45.107Z</time>
      </trkpt>
      <trkpt lat="48.71208" lon="2.50766">
        <ele>51</ele>
        <time>2021-02-17T12:56:50.112Z</time>
      </trkpt>
      <trkpt lat="48.71205" lon="2.50758">
        <ele>51</ele>
        <time>2021-02-17T12:56:55.109Z</time>
      </trkpt>
      <trkpt lat="48.71203" lon="2.50751">
        <ele>51</ele>
        <time>2021-02-17T12:57:00.102Z</time>
      </trkpt>
      <trkpt lat="48.712" lon="2.50742">
        <ele>51</ele>
        <time>2021-02-17T12:57:05.101Z</time>
      </trkpt>
      <trkpt lat="48.71194" lon="2.50733">
        <ele>52</ele>
        <time>2021-02-17T12:57:10.097Z</time>
      </trkpt>
      <trkpt lat="48.71191" lon="2.50729">
        <ele>52</ele>
        <time>2021-02-17T12:57:14.099Z</time>
      </trkpt>
      <trkpt lat="48.71188" lon="2.50721">
        <ele>52</ele>
        <time>2021-02-17T12:57:19.109Z</time>
      </trkpt>
      <trkpt lat="48.71185" lon="2.5071">
        <ele>52</ele>
        <time>2021-02-17T12:57:24.104Z</time>
      </trkpt>
      <trkpt lat="48.71183" lon="2.50705">
        <ele>53</ele>
        <time>2021-02-17T12:57:29.102Z</time>
      </trkpt>
      <trkpt lat="48.71182" lon="2.50695">
        <ele>53</ele>
        <time>2021-02-17T12:57:34.105Z</time>
      </trkpt>
      <trkpt lat="48.71179" lon="2.50688">
        <ele>51</ele>
        <time>2021-02-17T12:57:38.117Z</time>
      </trkpt>
      <trkpt lat="48.7118" lon="2.50681">
        <ele>51</ele>
        <time>2021-02-17T12:57:43.101Z</time>
      </trkpt>
      <trkpt lat="48.71182" lon="2.50673">
        <ele>53</ele>
        <time>2021-02-17T12:57:48.098Z</time>
      </trkpt>
      <trkpt lat="48.71183" lon="2.50668">
        <ele>53</ele>
        <time>2021-02-17T12:57:53.081Z</time>
      </trkpt>
      <trkpt lat="48.71186" lon="2.50664">
        <ele>53</ele>
        <time>2021-02-17T12:57:57.107Z</time>
      </trkpt>
      <trkpt lat="48.71187" lon="2.5066">
        <ele>53</ele>
        <time>2021-02-17T12:58:01.110Z</time>
      </trkpt>
      <trkpt lat="48.71186" lon="2.50654">
        <ele>53</ele>
        <time>2021-02-17T12:58:06.104Z</time>
      </trkpt>
      <trkpt lat="48.71189" lon="2.50645">
        <ele>54</ele>
        <time>2021-02-17T12:58:11.102Z</time>
      </trkpt>
      <trkpt lat="48.71191" lon="2.50636">
        <ele>54</ele>
        <time>2021-02-17T12:58:16.119Z</time>
      </trkpt>
      <trkpt lat="48.71192" lon="2.50629">
        <ele>54</ele>
        <time>2021-02-17T12:58:21.110Z</time>
      </trkpt>
      <trkpt lat="48.71193" lon="2.5062">
        <ele>54</ele>
        <time>2021-02-17T12:58:26.107Z</time>
      </trkpt>
      <trkpt lat="48.71192" lon="2.50614">
        <ele>54</ele>
        <time>2021-02-17T12:58:31.108Z</time>
      </trkpt>
      <trkpt lat="48.71192" lon="2.50604">
        <ele>54</ele>
        <time>2021-02-17T12:58:36.098Z</time>
      </trkpt>
      <trkpt lat="48.71193" lon="2.50596">
        <ele>54</ele>
        <time>2021-02-17T12:58:40.098Z</time>
      </trkpt>
      <trkpt lat="48.71194" lon="2.50587">
        <ele>54</ele>
        <time>2021-02-17T12:58:45.108Z</time>
      </trkpt>
      <trkpt lat="48.71196" lon="2.50581">
        <ele>54</ele>
        <time>2021-02-17T12:58:50.101Z</time>
      </trkpt>
      <trkpt lat="48.71195" lon="2.50577">
        <ele>54</ele>
        <time>2021-02-17T12:58:55.094Z</time>
      </trkpt>
      <trkpt lat="48.71193" lon="2.50568">
        <ele>54</ele>
        <time>2021-02-17T12:58:59.104Z</time>
      </trkpt>
      <trkpt lat="48.7119" lon="2.50556">
        <ele>54</ele>
        <time>2021-02-17T12:59:04.109Z</time>
      </trkpt>
      <trkpt lat="48.71188" lon="2.50546">
        <ele>54</ele>
        <time>2021-02-17T12:59:09.114Z</time>
      </trkpt>
      <trkpt lat="48.71186" lon="2.50538">
        <ele>55</ele>
        <time>2021-02-17T12:59:13.104Z</time>
      </trkpt>
      <trkpt lat="48.71183" lon="2.50529">
        <ele>55</ele>
        <time>2021-02-17T12:59:18.096Z</time>
      </trkpt>
      <trkpt lat="48.7118" lon="2.50519">
        <ele>52</ele>
        <time>2021-02-17T12:59:23.101Z</time>
      </trkpt>
      <trkpt lat="48.71178" lon="2.50508">
        <ele>54</ele>
        <time>2021-02-17T12:59:28.109Z</time>
      </trkpt>
      <trkpt lat="48.71174" lon="2.50501">
        <ele>54</ele>
        <time>2021-02-17T12:59:33.094Z</time>
      </trkpt>
      <trkpt lat="48.71173" lon="2.50496">
        <ele>54</ele>
        <time>2021-02-17T12:59:37.101Z</time>
      </trkpt>
      <trkpt lat="48.71169" lon="2.50487">
        <ele>54</ele>
        <time>2021-02-17T12:59:42.101Z</time>
      </trkpt>
      <trkpt lat="48.71166" lon="2.50481">
        <ele>55</ele>
        <time>2021-02-17T12:59:46.094Z</time>
      </trkpt>
      <trkpt lat="48.71165" lon="2.50476">
        <ele>55</ele>
        <time>2021-02-17T12:59:51.108Z</time>
      </trkpt>
      <trkpt lat="48.71163" lon="2.50471">
        <ele>55</ele>
        <time>2021-02-17T12:59:56.107Z</time>
      </trkpt>
      <trkpt lat="48.71158" lon="2.50466">
        <ele>55</ele>
        <time>2021-02-17T13:00:01.116Z</time>
      </trkpt>
      <trkpt lat="48.71152" lon="2.5046">
        <ele>53</ele>
        <time>2021-02-17T13:00:06.101Z</time>
      </trkpt>
      <trkpt lat="48.71146" lon="2.50458">
        <ele>54</ele>
        <time>2021-02-17T13:00:11.099Z</time>
      </trkpt>
      <trkpt lat="48.71139" lon="2.50458">
        <ele>54</ele>
        <time>2021-02-17T13:00:16.111Z</time>
      </trkpt>
      <trkpt lat="48.71132" lon="2.50458">
        <ele>54</ele>
        <time>2021-02-17T13:00:21.106Z</time>
      </trkpt>
      <trkpt lat="48.71125" lon="2.50454">
        <ele>54</ele>
        <time>2021-02-17T13:00:26.115Z</time>
      </trkpt>
      <trkpt lat="48.71119" lon="2.50452">
        <ele>50</ele>
        <time>2021-02-17T13:00:31.113Z</time>
      </trkpt>
      <trkpt lat="48.71114" lon="2.5045">
        <ele>50</ele>
        <time>2021-02-17T13:00:36.115Z</time>
      </trkpt>
      <trkpt lat="48.71109" lon="2.50447">
        <ele>50</ele>
        <time>2021-02-17T13:00:41.118Z</time>
      </trkpt>
      <trkpt lat="48.71103" lon="2.50439">
        <ele>50</ele>
        <time>2021-02-17T13:00:46.086Z</time>
      </trkpt>
      <trkpt lat="48.71099" lon="2.50432">
        <ele>50</ele>
        <time>2021-02-17T13:00:51.111Z</time>
      </trkpt>
      <trkpt lat="48.71095" lon="2.50426">
        <ele>47</ele>
        <time>2021-02-17T13:00:56.116Z</time>
      </trkpt>
      <trkpt lat="48.71091" lon="2.50418">
        <ele>47</ele>
        <time>2021-02-17T13:01:01.105Z</time>
      </trkpt>
      <trkpt lat="48.71088" lon="2.5041">
        <ele>47</ele>
        <time>2021-02-17T13:01:05.119Z</time>
      </trkpt>
      <trkpt lat="48.71084" lon="2.50402">
        <ele>47</ele>
        <time>2021-02-17T13:01:10.117Z</time>
      </trkpt>
      <trkpt lat="48.7108" lon="2.50394">
        <ele>47</ele>
        <time>2021-02-17T13:01:15.117Z</time>
      </trkpt>
      <trkpt lat="48.71076" lon="2.50387">
        <ele>47</ele>
        <time>2021-02-17T13:01:19.118Z</time>
      </trkpt>
      <trkpt lat="48.71071" lon="2.50378">
        <ele>47</ele>
        <time>2021-02-17T13:01:24.100Z</time>
      </trkpt>
      <trkpt lat="48.71068" lon="2.5037">
        <ele>46</ele>
        <time>2021-02-17T13:01:28.104Z</time>
      </trkpt>
      <trkpt lat="48.71066" lon="2.50363">
        <ele>46</ele>
        <time>2021-02-17T13:01:33.092Z</time>
      </trkpt>
      <trkpt lat="48.71066" lon="2.50356">
        <ele>46</ele>
        <time>2021-02-17T13:01:37.113Z</time>
      </trkpt>
      <trkpt lat="48.71065" lon="2.50348">
        <ele>46</ele>
        <time>2021-02-17T13:01:41.118Z</time>
      </trkpt>
      <trkpt lat="48.71065" lon="2.50341">
        <ele>45</ele>
        <time>2021-02-17T13:01:46.111Z</time>
      </trkpt>
      <trkpt lat="48.71063" lon="2.50332">
        <ele>45</ele>
        <time>2021-02-17T13:01:51.091Z</time>
      </trkpt>
      <trkpt lat="48.71061" lon="2.50326">
        <ele>45</ele>
        <time>2021-02-17T13:01:55.082Z</time>
      </trkpt>
      <trkpt lat="48.71059" lon="2.50316">
        <ele>46</ele>
        <time>2021-02-17T13:01:59.110Z</time>
      </trkpt>
      <trkpt lat="48.71056" lon="2.50314">
        <ele>46</ele>
        <time>2021-02-17T13:02:04.111Z</time>
      </trkpt>
      <trkpt lat="48.71051" lon="2.50313">
        <ele>46</ele>
        <time>2021-02-17T13:02:09.109Z</time>
      </trkpt>
      <trkpt lat="48.71042" lon="2.50311">
        <ele>46</ele>
        <time>2021-02-17T13:02:14.105Z</time>
      </trkpt>
      <trkpt lat="48.71038" lon="2.50308">
        <ele>44</ele>
        <time>2021-02-17T13:02:19.114Z</time>
      </trkpt>
      <trkpt lat="48.71035" lon="2.50305">
        <ele>44</ele>
        <time>2021-02-17T13:02:23.108Z</time>
      </trkpt>
      <trkpt lat="48.71031" lon="2.503">
        <ele>44</ele>
        <time>2021-02-17T13:02:28.106Z</time>
      </trkpt>
      <trkpt lat="48.71027" lon="2.50295">
        <ele>44</ele>
        <time>2021-02-17T13:02:32.106Z</time>
      </trkpt>
      <trkpt lat="48.71022" lon="2.50289">
        <ele>44</ele>
        <time>2021-02-17T13:02:37.110Z</time>
      </trkpt>
      <trkpt lat="48.71019" lon="2.50285">
        <ele>44</ele>
        <time>2021-02-17T13:02:42.111Z</time>
      </trkpt>
      <trkpt lat="48.71013" lon="2.50275">
        <ele>43</ele>
        <time>2021-02-17T13:03:39.109Z</time>
      </trkpt>
      <trkpt lat="48.71013" lon="2.50274">
        <ele>43</ele>
        <time>2021-02-17T13:03:43.107Z</time>
      </trkpt>
      <trkpt lat="48.7101" lon="2.50271">
        <ele>43</ele>
        <time>2021-02-17T13:03:48.109Z</time>
      </trkpt>
      <trkpt lat="48.71009" lon="2.50271">
        <ele>43</ele>
        <time>2021-02-17T13:03:53.119Z</time>
      </trkpt>
      <trkpt lat="48.71008" lon="2.50269">
        <ele>43</ele>
        <time>2021-02-17T13:03:58.099Z</time>
      </trkpt>
      <trkpt lat="48.71003" lon="2.5027">
        <ele>43</ele>
        <time>2021-02-17T13:06:23.092Z</time>
      </trkpt>
      <trkpt lat="48.71004" lon="2.50263">
        <ele>42</ele>
        <time>2021-02-17T13:06:28.078Z</time>
      </trkpt>
      <trkpt lat="48.71002" lon="2.50258">
        <ele>42</ele>
        <time>2021-02-17T13:06:32.095Z</time>
      </trkpt>
      <trkpt lat="48.70999" lon="2.50258">
        <ele>42</ele>
        <time>2021-02-17T13:06:37.090Z</time>
      </trkpt>
      <trkpt lat="48.70998" lon="2.50259">
        <ele>42</ele>
        <time>2021-02-17T13:06:42.089Z</time>
      </trkpt>
      <trkpt lat="48.71" lon="2.50258">
        <ele>42</ele>
        <time>2021-02-17T13:06:47.088Z</time>
      </trkpt>
      <trkpt lat="48.71006" lon="2.50262">
        <ele>42</ele>
        <time>2021-02-17T13:06:52.094Z</time>
      </trkpt>
      <trkpt lat="48.71006" lon="2.50269">
        <ele>43</ele>
        <time>2021-02-17T13:06:57.104Z</time>
      </trkpt>
      <trkpt lat="48.71008" lon="2.50273">
        <ele>43</ele>
        <time>2021-02-17T13:07:02.094Z</time>
      </trkpt>
      <trkpt lat="48.71009" lon="2.50271">
        <ele>43</ele>
        <time>2021-02-17T13:09:14.101Z</time>
      </trkpt>
      <trkpt lat="48.71009" lon="2.50268">
        <ele>43</ele>
        <time>2021-02-17T13:09:18.103Z</time>
      </trkpt>
      <trkpt lat="48.71007" lon="2.50261">
        <ele>42</ele>
        <time>2021-02-17T13:09:23.113Z</time>
      </trkpt>
      <trkpt lat="48.71004" lon="2.50255">
        <ele>42</ele>
        <time>2021-02-17T13:09:28.100Z</time>
      </trkpt>
      <trkpt lat="48.71002" lon="2.50251">
        <ele>42</ele>
        <time>2021-02-17T13:09:32.126Z</time>
      </trkpt>
      <trkpt lat="48.71" lon="2.50245">
        <ele>42</ele>
        <time>2021-02-17T13:09:37.110Z</time>
      </trkpt>
      <trkpt lat="48.70998" lon="2.50239">
        <ele>42</ele>
        <time>2021-02-17T13:09:41.103Z</time>
      </trkpt>
      <trkpt lat="48.70995" lon="2.50231">
        <ele>43</ele>
        <time>2021-02-17T13:09:46.110Z</time>
      </trkpt>
      <trkpt lat="48.70991" lon="2.50225">
        <ele>43</ele>
        <time>2021-02-17T13:09:51.109Z</time>
      </trkpt>
      <trkpt lat="48.70989" lon="2.50218">
        <ele>43</ele>
        <time>2021-02-17T13:09:56.107Z</time>
      </trkpt>
      <trkpt lat="48.70986" lon="2.50213">
        <ele>42</ele>
        <time>2021-02-17T13:10:00.105Z</time>
      </trkpt>
      <trkpt lat="48.70983" lon="2.50207">
        <ele>43</ele>
        <time>2021-02-17T13:10:05.108Z</time>
      </trkpt>
      <trkpt lat="48.7098" lon="2.50209">
        <ele>42</ele>
        <time>2021-02-17T13:10:10.108Z</time>
      </trkpt>
      <trkpt lat="48.70976" lon="2.50213">
        <ele>42</ele>
        <time>2021-02-17T13:10:15.099Z</time>
      </trkpt>
      <trkpt lat="48.70971" lon="2.50215">
        <ele>42</ele>
        <time>2021-02-17T13:10:19.098Z</time>
      </trkpt>
      <trkpt lat="48.70967" lon="2.50211">
        <ele>42</ele>
        <time>2021-02-17T13:10:24.109Z</time>
      </trkpt>
      <trkpt lat="48.70964" lon="2.50205">
        <ele>43</ele>
        <time>2021-02-17T13:10:29.112Z</time>
      </trkpt>
      <trkpt lat="48.70959" lon="2.502">
        <ele>43</ele>
        <time>2021-02-17T13:10:34.100Z</time>
      </trkpt>
      <trkpt lat="48.70955" lon="2.50196">
        <ele>44</ele>
        <time>2021-02-17T13:10:39.100Z</time>
      </trkpt>
      <trkpt lat="48.70951" lon="2.50188">
        <ele>44</ele>
        <time>2021-02-17T13:10:44.077Z</time>
      </trkpt>
      <trkpt lat="48.7095" lon="2.50183">
        <ele>44</ele>
        <time>2021-02-17T13:10:48.099Z</time>
      </trkpt>
      <trkpt lat="48.70947" lon="2.50174">
        <ele>43</ele>
        <time>2021-02-17T13:10:53.083Z</time>
      </trkpt>
      <trkpt lat="48.70945" lon="2.50168">
        <ele>43</ele>
        <time>2021-02-17T13:10:57.111Z</time>
      </trkpt>
      <trkpt lat="48.70943" lon="2.50159">
        <ele>43</ele>
        <time>2021-02-17T13:11:02.111Z</time>
      </trkpt>
      <trkpt lat="48.70942" lon="2.5015">
        <ele>42</ele>
        <time>2021-02-17T13:11:07.110Z</time>
      </trkpt>
      <trkpt lat="48.70941" lon="2.50143">
        <ele>42</ele>
        <time>2021-02-17T13:11:11.113Z</time>
      </trkpt>
      <trkpt lat="48.70944" lon="2.50137">
        <ele>42</ele>
        <time>2021-02-17T13:11:16.102Z</time>
      </trkpt>
      <trkpt lat="48.70946" lon="2.50136">
        <ele>42</ele>
        <time>2021-02-17T13:11:20.113Z</time>
      </trkpt>
      <trkpt lat="48.70949" lon="2.50128">
        <ele>42</ele>
        <time>2021-02-17T13:11:25.109Z</time>
      </trkpt>
      <trkpt lat="48.70953" lon="2.5012">
        <ele>40</ele>
        <time>2021-02-17T13:11:30.082Z</time>
      </trkpt>
      <trkpt lat="48.70953" lon="2.50111">
        <ele>40</ele>
        <time>2021-02-17T13:11:34.094Z</time>
      </trkpt>
      <trkpt lat="48.70951" lon="2.50104">
        <ele>40</ele>
        <time>2021-02-17T13:11:38.089Z</time>
      </trkpt>
      <trkpt lat="48.70947" lon="2.50094">
        <ele>40</ele>
        <time>2021-02-17T13:11:43.095Z</time>
      </trkpt>
      <trkpt lat="48.70944" lon="2.50088">
        <ele>40</ele>
        <time>2021-02-17T13:11:47.110Z</time>
      </trkpt>
      <trkpt lat="48.7094" lon="2.50079">
        <ele>40</ele>
        <time>2021-02-17T13:11:52.083Z</time>
      </trkpt>
      <trkpt lat="48.70938" lon="2.50073">
        <ele>40</ele>
        <time>2021-02-17T13:11:56.092Z</time>
      </trkpt>
      <trkpt lat="48.70936" lon="2.50065">
        <ele>41</ele>
        <time>2021-02-17T13:12:00.116Z</time>
      </trkpt>
      <trkpt lat="48.70934" lon="2.50056">
        <ele>41</ele>
        <time>2021-02-17T13:12:05.087Z</time>
      </trkpt>
      <trkpt lat="48.70931" lon="2.50047">
        <ele>41</ele>
        <time>2021-02-17T13:12:10.100Z</time>
      </trkpt>
      <trkpt lat="48.70933" lon="2.50036">
        <ele>43</ele>
        <time>2021-02-17T13:12:15.101Z</time>
      </trkpt>
      <trkpt lat="48.70934" lon="2.50028">
        <ele>43</ele>
        <time>2021-02-17T13:12:20.105Z</time>
      </trkpt>
      <trkpt lat="48.70932" lon="2.50019">
        <ele>43</ele>
        <time>2021-02-17T13:12:25.098Z</time>
      </trkpt>
      <trkpt lat="48.70929" lon="2.50013">
        <ele>43</ele>
        <time>2021-02-17T13:12:29.093Z</time>
      </trkpt>
      <trkpt lat="48.70926" lon="2.50009">
        <ele>43</ele>
        <time>2021-02-17T13:12:33.098Z</time>
      </trkpt>
      <trkpt lat="48.70925" lon="2.50002">
        <ele>43</ele>
        <time>2021-02-17T13:12:38.074Z</time>
      </trkpt>
      <trkpt lat="48.70925" lon="2.49997">
        <ele>43</ele>
        <time>2021-02-17T13:12:42.099Z</time>
      </trkpt>
      <trkpt lat="48.70925" lon="2.49991">
        <ele>43</ele>
        <time>2021-02-17T13:12:46.106Z</time>
      </trkpt>
      <trkpt lat="48.70926" lon="2.49982">
        <ele>43</ele>
        <time>2021-02-17T13:12:51.082Z</time>
      </trkpt>
      <trkpt lat="48.70928" lon="2.49975">
        <ele>43</ele>
        <time>2021-02-17T13:12:56.091Z</time>
      </trkpt>
      <trkpt lat="48.7093" lon="2.49969">
        <ele>43</ele>
        <time>2021-02-17T13:13:00.092Z</time>
      </trkpt>
      <trkpt lat="48.70932" lon="2.49962">
        <ele>45</ele>
        <time>2021-02-17T13:13:05.102Z</time>
      </trkpt>
      <trkpt lat="48.70934" lon="2.49956">
        <ele>46</ele>
        <time>2021-02-17T13:13:10.094Z</time>
      </trkpt>
      <trkpt lat="48.70937" lon="2.49953">
        <ele>46</ele>
        <time>2021-02-17T13:13:15.095Z</time>
      </trkpt>
      <trkpt lat="48.7094" lon="2.49949">
        <ele>46</ele>
        <time>2021-02-17T13:13:20.090Z</time>
      </trkpt>
      <trkpt lat="48.70943" lon="2.49947">
        <ele>46</ele>
        <time>2021-02-17T13:13:24.105Z</time>
      </trkpt>
      <trkpt lat="48.70947" lon="2.49942">
        <ele>46</ele>
        <time>2021-02-17T13:13:29.088Z</time>
      </trkpt>
      <trkpt lat="48.70951" lon="2.49935">
        <ele>46</ele>
        <time>2021-02-17T13:13:34.090Z</time>
      </trkpt>
      <trkpt lat="48.70957" lon="2.49927">
        <ele>46</ele>
        <time>2021-02-17T13:13:39.090Z</time>
      </trkpt>
      <trkpt lat="48.70961" lon="2.49922">
        <ele>47</ele>
        <time>2021-02-17T13:13:43.099Z</time>
      </trkpt>
      <trkpt lat="48.70965" lon="2.49916">
        <ele>47</ele>
        <time>2021-02-17T13:13:48.083Z</time>
      </trkpt>
      <trkpt lat="48.70969" lon="2.49909">
        <ele>47</ele>
        <time>2021-02-17T13:13:53.098Z</time>
      </trkpt>
      <trkpt lat="48.70972" lon="2.49903">
        <ele>47</ele>
        <time>2021-02-17T13:13:57.096Z</time>
      </trkpt>
      <trkpt lat="48.70975" lon="2.49895">
        <ele>46</ele>
        <time>2021-02-17T13:14:02.117Z</time>
      </trkpt>
      <trkpt lat="48.70978" lon="2.49889">
        <ele>46</ele>
        <time>2021-02-17T13:14:07.102Z</time>
      </trkpt>
      <trkpt lat="48.70978" lon="2.49883">
        <ele>46</ele>
        <time>2021-02-17T13:14:12.107Z</time>
      </trkpt>
      <trkpt lat="48.70979" lon="2.49874">
        <ele>45</ele>
        <time>2021-02-17T13:14:17.094Z</time>
      </trkpt>
      <trkpt lat="48.70977" lon="2.49867">
        <ele>45</ele>
        <time>2021-02-17T13:14:21.105Z</time>
      </trkpt>
      <trkpt lat="48.70973" lon="2.49857">
        <ele>45</ele>
        <time>2021-02-17T13:14:26.090Z</time>
      </trkpt>
      <trkpt lat="48.7097" lon="2.49852">
        <ele>45</ele>
        <time>2021-02-17T13:14:30.106Z</time>
      </trkpt>
      <trkpt lat="48.70965" lon="2.49849">
        <ele>45</ele>
        <time>2021-02-17T13:14:34.104Z</time>
      </trkpt>
      <trkpt lat="48.70959" lon="2.49846">
        <ele>43</ele>
        <time>2021-02-17T13:14:39.099Z</time>
      </trkpt>
      <trkpt lat="48.70954" lon="2.49841">
        <ele>43</ele>
        <time>2021-02-17T13:14:43.110Z</time>
      </trkpt>
      <trkpt lat="48.70949" lon="2.49835">
        <ele>43</ele>
        <time>2021-02-17T13:14:48.095Z</time>
      </trkpt>
      <trkpt lat="48.70944" lon="2.49829">
        <ele>43</ele>
        <time>2021-02-17T13:14:53.098Z</time>
      </trkpt>
      <trkpt lat="48.70938" lon="2.49824">
        <ele>43</ele>
        <time>2021-02-17T13:14:58.088Z</time>
      </trkpt>
      <trkpt lat="48.70934" lon="2.49821">
        <ele>43</ele>
        <time>2021-02-17T13:15:02.103Z</time>
      </trkpt>
      <trkpt lat="48.70929" lon="2.49816">
        <ele>40</ele>
        <time>2021-02-17T13:15:07.108Z</time>
      </trkpt>
      <trkpt lat="48.70923" lon="2.4981">
        <ele>40</ele>
        <time>2021-02-17T13:15:12.103Z</time>
      </trkpt>
      <trkpt lat="48.70919" lon="2.49806">
        <ele>40</ele>
        <time>2021-02-17T13:15:16.105Z</time>
      </trkpt>
      <trkpt lat="48.70913" lon="2.49801">
        <ele>40</ele>
        <time>2021-02-17T13:15:21.108Z</time>
      </trkpt>
      <trkpt lat="48.70907" lon="2.49796">
        <ele>40</ele>
        <time>2021-02-17T13:15:26.093Z</time>
      </trkpt>
      <trkpt lat="48.70902" lon="2.4979">
        <ele>38</ele>
        <time>2021-02-17T13:15:31.110Z</time>
      </trkpt>
      <trkpt lat="48.70899" lon="2.49784">
        <ele>38</ele>
        <time>2021-02-17T13:15:36.111Z</time>
      </trkpt>
      <trkpt lat="48.70897" lon="2.49777">
        <ele>38</ele>
        <time>2021-02-17T13:15:41.113Z</time>
      </trkpt>
      <trkpt lat="48.70895" lon="2.4977">
        <ele>38</ele>
        <time>2021-02-17T13:15:46.096Z</time>
      </trkpt>
      <trkpt lat="48.70894" lon="2.49764">
        <ele>37</ele>
        <time>2021-02-17T13:15:50.104Z</time>
      </trkpt>
      <trkpt lat="48.70892" lon="2.49755">
        <ele>37</ele>
        <time>2021-02-17T13:15:55.112Z</time>
      </trkpt>
      <trkpt lat="48.70887" lon="2.49752">
        <ele>37</ele>
        <time>2021-02-17T13:16:00.114Z</time>
      </trkpt>
      <trkpt lat="48.70882" lon="2.49751">
        <ele>37</ele>
        <time>2021-02-17T13:16:05.102Z</time>
      </trkpt>
      <trkpt lat="48.70876" lon="2.49751">
        <ele>37</ele>
        <time>2021-02-17T13:16:09.096Z</time>
      </trkpt>
      <trkpt lat="48.7087" lon="2.49752">
        <ele>37</ele>
        <time>2021-02-17T13:16:14.120Z</time>
      </trkpt>
      <trkpt lat="48.70865" lon="2.4975">
        <ele>37</ele>
        <time>2021-02-17T13:16:19.109Z</time>
      </trkpt>
      <trkpt lat="48.70862" lon="2.49751">
        <ele>37</ele>
        <time>2021-02-17T13:16:23.101Z</time>
      </trkpt>
      <trkpt lat="48.70855" lon="2.49752">
        <ele>37</ele>
        <time>2021-02-17T13:16:28.087Z</time>
      </trkpt>
      <trkpt lat="48.7085" lon="2.49751">
        <ele>37</ele>
        <time>2021-02-17T13:16:32.099Z</time>
      </trkpt>
      <trkpt lat="48.70846" lon="2.49751">
        <ele>37</ele>
        <time>2021-02-17T13:16:36.112Z</time>
      </trkpt>
      <trkpt lat="48.7084" lon="2.49751">
        <ele>37</ele>
        <time>2021-02-17T13:16:41.109Z</time>
      </trkpt>
      <trkpt lat="48.70835" lon="2.49752">
        <ele>37</ele>
        <time>2021-02-17T13:16:45.106Z</time>
      </trkpt>
      <trkpt lat="48.70829" lon="2.49754">
        <ele>37</ele>
        <time>2021-02-17T13:16:50.104Z</time>
      </trkpt>
      <trkpt lat="48.70825" lon="2.49755">
        <ele>37</ele>
        <time>2021-02-17T13:16:54.104Z</time>
      </trkpt>
      <trkpt lat="48.70819" lon="2.49757">
        <ele>36</ele>
        <time>2021-02-17T13:16:59.109Z</time>
      </trkpt>
      <trkpt lat="48.70812" lon="2.49757">
        <ele>36</ele>
        <time>2021-02-17T13:17:04.102Z</time>
      </trkpt>
      <trkpt lat="48.70806" lon="2.49754">
        <ele>36</ele>
        <time>2021-02-17T13:17:09.102Z</time>
      </trkpt>
      <trkpt lat="48.70802" lon="2.49751">
        <ele>36</ele>
        <time>2021-02-17T13:17:13.112Z</time>
      </trkpt>
      <trkpt lat="48.70798" lon="2.49745">
        <ele>36</ele>
        <time>2021-02-17T13:17:18.095Z</time>
      </trkpt>
      <trkpt lat="48.70793" lon="2.49737">
        <ele>36</ele>
        <time>2021-02-17T13:17:23.101Z</time>
      </trkpt>
      <trkpt lat="48.70792" lon="2.49731">
        <ele>37</ele>
        <time>2021-02-17T13:17:27.107Z</time>
      </trkpt>
      <trkpt lat="48.70792" lon="2.49724">
        <ele>37</ele>
        <time>2021-02-17T13:17:32.090Z</time>
      </trkpt>
      <trkpt lat="48.70792" lon="2.49716">
        <ele>37</ele>
        <time>2021-02-17T13:17:37.106Z</time>
      </trkpt>
      <trkpt lat="48.70792" lon="2.4971">
        <ele>37</ele>
        <time>2021-02-17T13:17:41.107Z</time>
      </trkpt>
      <trkpt lat="48.70792" lon="2.49703">
        <ele>38</ele>
        <time>2021-02-17T13:17:46.111Z</time>
      </trkpt>
      <trkpt lat="48.70792" lon="2.49696">
        <ele>38</ele>
        <time>2021-02-17T13:17:51.098Z</time>
      </trkpt>
      <trkpt lat="48.70793" lon="2.4969">
        <ele>38</ele>
        <time>2021-02-17T13:17:56.094Z</time>
      </trkpt>
      <trkpt lat="48.70796" lon="2.49682">
        <ele>38</ele>
        <time>2021-02-17T13:18:01.109Z</time>
      </trkpt>
      <trkpt lat="48.708" lon="2.4968">
        <ele>39</ele>
        <time>2021-02-17T13:18:06.097Z</time>
      </trkpt>
      <trkpt lat="48.70804" lon="2.4968">
        <ele>39</ele>
        <time>2021-02-17T13:18:11.101Z</time>
      </trkpt>
      <trkpt lat="48.70808" lon="2.49679">
        <ele>39</ele>
        <time>2021-02-17T13:18:16.100Z</time>
      </trkpt>
      <trkpt lat="48.7081" lon="2.49678">
        <ele>39</ele>
        <time>2021-02-17T13:18:20.092Z</time>
      </trkpt>
      <trkpt lat="48.70815" lon="2.49678">
        <ele>39</ele>
        <time>2021-02-17T13:18:25.099Z</time>
      </trkpt>
      <trkpt lat="48.7082" lon="2.49675">
        <ele>39</ele>
        <time>2021-02-17T13:18:30.112Z</time>
      </trkpt>
      <trkpt lat="48.70826" lon="2.4967">
        <ele>39</ele>
        <time>2021-02-17T13:18:35.108Z</time>
      </trkpt>
      <trkpt lat="48.70831" lon="2.49665">
        <ele>39</ele>
        <time>2021-02-17T13:18:40.095Z</time>
      </trkpt>
      <trkpt lat="48.70835" lon="2.4966">
        <ele>39</ele>
        <time>2021-02-17T13:18:45.094Z</time>
      </trkpt>
      <trkpt lat="48.70841" lon="2.49654">
        <ele>39</ele>
        <time>2021-02-17T13:18:50.097Z</time>
      </trkpt>
      <trkpt lat="48.70847" lon="2.4965">
        <ele>40</ele>
        <time>2021-02-17T13:18:55.091Z</time>
      </trkpt>
      <trkpt lat="48.70851" lon="2.49648">
        <ele>38</ele>
        <time>2021-02-17T13:18:59.099Z</time>
      </trkpt>
      <trkpt lat="48.70856" lon="2.49645">
        <ele>38</ele>
        <time>2021-02-17T13:19:03.081Z</time>
      </trkpt>
      <trkpt lat="48.70859" lon="2.49637">
        <ele>38</ele>
        <time>2021-02-17T13:19:08.106Z</time>
      </trkpt>
      <trkpt lat="48.7086" lon="2.49627">
        <ele>38</ele>
        <time>2021-02-17T13:19:13.084Z</time>
      </trkpt>
      <trkpt lat="48.7086" lon="2.49618">
        <ele>39</ele>
        <time>2021-02-17T13:19:18.095Z</time>
      </trkpt>
      <trkpt lat="48.70861" lon="2.4961">
        <ele>39</ele>
        <time>2021-02-17T13:19:23.098Z</time>
      </trkpt>
      <trkpt lat="48.70863" lon="2.496">
        <ele>39</ele>
        <time>2021-02-17T13:19:28.094Z</time>
      </trkpt>
      <trkpt lat="48.70864" lon="2.49593">
        <ele>39</ele>
        <time>2021-02-17T13:19:32.096Z</time>
      </trkpt>
      <trkpt lat="48.70867" lon="2.49587">
        <ele>39</ele>
        <time>2021-02-17T13:19:37.100Z</time>
      </trkpt>
      <trkpt lat="48.7087" lon="2.49581">
        <ele>39</ele>
        <time>2021-02-17T13:19:42.102Z</time>
      </trkpt>
      <trkpt lat="48.70875" lon="2.49577">
        <ele>39</ele>
        <time>2021-02-17T13:19:47.090Z</time>
      </trkpt>
      <trkpt lat="48.7088" lon="2.49573">
        <ele>36</ele>
        <time>2021-02-17T13:19:51.089Z</time>
      </trkpt>
      <trkpt lat="48.70885" lon="2.49566">
        <ele>37</ele>
        <time>2021-02-17T13:19:56.102Z</time>
      </trkpt>
      <trkpt lat="48.70889" lon="2.49561">
        <ele>37</ele>
        <time>2021-02-17T13:20:01.107Z</time>
      </trkpt>
      <trkpt lat="48.70894" lon="2.49556">
        <ele>37</ele>
        <time>2021-02-17T13:20:06.087Z</time>
      </trkpt>
      <trkpt lat="48.70898" lon="2.4955">
        <ele>37</ele>
        <time>2021-02-17T13:20:11.099Z</time>
      </trkpt>
      <trkpt lat="48.70902" lon="2.49545">
        <ele>37</ele>
        <time>2021-02-17T13:20:15.095Z</time>
      </trkpt>
      <trkpt lat="48.70906" lon="2.49539">
        <ele>38</ele>
        <time>2021-02-17T13:20:20.101Z</time>
      </trkpt>
      <trkpt lat="48.7091" lon="2.49533">
        <ele>38</ele>
        <time>2021-02-17T13:20:25.095Z</time>
      </trkpt>
      <trkpt lat="48.70915" lon="2.49526">
        <ele>38</ele>
        <time>2021-02-17T13:20:30.095Z</time>
      </trkpt>
      <trkpt lat="48.70919" lon="2.4952">
        <ele>38</ele>
        <time>2021-02-17T13:20:35.102Z</time>
      </trkpt>
      <trkpt lat="48.70926" lon="2.49515">
        <ele>38</ele>
        <time>2021-02-17T13:20:40.092Z</time>
      </trkpt>
      <trkpt lat="48.70931" lon="2.49511">
        <ele>38</ele>
        <time>2021-02-17T13:20:44.098Z</time>
      </trkpt>
      <trkpt lat="48.70937" lon="2.49505">
        <ele>38</ele>
        <time>2021-02-17T13:20:49.075Z</time>
      </trkpt>
      <trkpt lat="48.70942" lon="2.49502">
        <ele>38</ele>
        <time>2021-02-17T13:20:53.110Z</time>
      </trkpt>
      <trkpt lat="48.70947" lon="2.49497">
        <ele>38</ele>
        <time>2021-02-17T13:20:58.086Z</time>
      </trkpt>
      <trkpt lat="48.70949" lon="2.49495">
        <ele>38</ele>
        <time>2021-02-17T13:21:02.089Z</time>
      </trkpt>
      <trkpt lat="48.70952" lon="2.49491">
        <ele>38</ele>
        <time>2021-02-17T13:21:06.096Z</time>
      </trkpt>
      <trkpt lat="48.70956" lon="2.49486">
        <ele>39</ele>
        <time>2021-02-17T13:21:11.103Z</time>
      </trkpt>
      <trkpt lat="48.7096" lon="2.49481">
        <ele>38</ele>
        <time>2021-02-17T13:21:16.098Z</time>
      </trkpt>
      <trkpt lat="48.70965" lon="2.49477">
        <ele>38</ele>
        <time>2021-02-17T13:21:21.095Z</time>
      </trkpt>
      <trkpt lat="48.70972" lon="2.49471">
        <ele>38</ele>
        <time>2021-02-17T13:21:26.096Z</time>
      </trkpt>
      <trkpt lat="48.7098" lon="2.49465">
        <ele>38</ele>
        <time>2021-02-17T13:21:31.084Z</time>
      </trkpt>
      <trkpt lat="48.70983" lon="2.49461">
        <ele>38</ele>
        <time>2021-02-17T13:21:35.086Z</time>
      </trkpt>
      <trkpt lat="48.70987" lon="2.49456">
        <ele>39</ele>
        <time>2021-02-17T13:21:40.096Z</time>
      </trkpt>
      <trkpt lat="48.70993" lon="2.49452">
        <ele>39</ele>
        <time>2021-02-17T13:21:45.083Z</time>
      </trkpt>
      <trkpt lat="48.70997" lon="2.49447">
        <ele>39</ele>
        <time>2021-02-17T13:21:49.099Z</time>
      </trkpt>
      <trkpt lat="48.71002" lon="2.49443">
        <ele>39</ele>
        <time>2021-02-17T13:21:54.097Z</time>
      </trkpt>
      <trkpt lat="48.71006" lon="2.49439">
        <ele>39</ele>
        <time>2021-02-17T13:21:59.077Z</time>
      </trkpt>
      <trkpt lat="48.71012" lon="2.49436">
        <ele>39</ele>
        <time>2021-02-17T13:22:04.099Z</time>
      </trkpt>
      <trkpt lat="48.71014" lon="2.49432">
        <ele>39</ele>
        <time>2021-02-17T13:22:08.090Z</time>
      </trkpt>
      <trkpt lat="48.7102" lon="2.49425">
        <ele>41</ele>
        <time>2021-02-17T13:22:13.095Z</time>
      </trkpt>
      <trkpt lat="48.71027" lon="2.49419">
        <ele>41</ele>
        <time>2021-02-17T13:22:18.098Z</time>
      </trkpt>
      <trkpt lat="48.71031" lon="2.49413">
        <ele>41</ele>
        <time>2021-02-17T13:22:22.099Z</time>
      </trkpt>
      <trkpt lat="48.71038" lon="2.49408">
        <ele>41</ele>
        <time>2021-02-17T13:22:27.104Z</time>
      </trkpt>
      <trkpt lat="48.71045" lon="2.49402">
        <ele>41</ele>
        <time>2021-02-17T13:22:32.096Z</time>
      </trkpt>
      <trkpt lat="48.71051" lon="2.49397">
        <ele>41</ele>
        <time>2021-02-17T13:22:37.096Z</time>
      </trkpt>
      <trkpt lat="48.71057" lon="2.49393">
        <ele>41</ele>
        <time>2021-02-17T13:22:42.086Z</time>
      </trkpt>
      <trkpt lat="48.71061" lon="2.4939">
        <ele>41</ele>
        <time>2021-02-17T13:22:47.092Z</time>
      </trkpt>
      <trkpt lat="48.71062" lon="2.49388">
        <ele>41</ele>
        <time>2021-02-17T13:22:52.098Z</time>
      </trkpt>
      <trkpt lat="48.71068" lon="2.49382">
        <ele>41</ele>
        <time>2021-02-17T13:22:57.098Z</time>
      </trkpt>
      <trkpt lat="48.71073" lon="2.49377">
        <ele>40</ele>
        <time>2021-02-17T13:23:02.106Z</time>
      </trkpt>
      <trkpt lat="48.71077" lon="2.49373">
        <ele>41</ele>
        <time>2021-02-17T13:23:07.100Z</time>
      </trkpt>
      <trkpt lat="48.71083" lon="2.49369">
        <ele>41</ele>
        <time>2021-02-17T13:23:12.091Z</time>
      </trkpt>
      <trkpt lat="48.71089" lon="2.49368">
        <ele>41</ele>
        <time>2021-02-17T13:23:16.097Z</time>
      </trkpt>
      <trkpt lat="48.71095" lon="2.49365">
        <ele>41</ele>
        <time>2021-02-17T13:23:21.097Z</time>
      </trkpt>
      <trkpt lat="48.71101" lon="2.49359">
        <ele>40</ele>
        <time>2021-02-17T13:23:26.108Z</time>
      </trkpt>
      <trkpt lat="48.71102" lon="2.49359">
        <ele>40</ele>
        <time>2021-02-17T13:23:31.115Z</time>
      </trkpt>
      <trkpt lat="48.71106" lon="2.49349">
        <ele>40</ele>
        <time>2021-02-17T13:23:36.092Z</time>
      </trkpt>
      <trkpt lat="48.7111" lon="2.49343">
        <ele>41</ele>
        <time>2021-02-17T13:23:41.095Z</time>
      </trkpt>
      <trkpt lat="48.71113" lon="2.49334">
        <ele>41</ele>
        <time>2021-02-17T13:23:46.101Z</time>
      </trkpt>
      <trkpt lat="48.71115" lon="2.49326">
        <ele>41</ele>
        <time>2021-02-17T13:23:51.098Z</time>
      </trkpt>
      <trkpt lat="48.71119" lon="2.49318">
        <ele>41</ele>
        <time>2021-02-17T13:23:56.069Z</time>
      </trkpt>
      <trkpt lat="48.71123" lon="2.49309">
        <ele>41</ele>
        <time>2021-02-17T13:24:01.102Z</time>
      </trkpt>
      <trkpt lat="48.7112" lon="2.49302">
        <ele>41</ele>
        <time>2021-02-17T13:24:43.093Z</time>
      </trkpt>
      <trkpt lat="48.7112" lon="2.49302">
        <ele>41</ele>
        <time>2021-02-17T13:24:48.096Z</time>
      </trkpt>
      <trkpt lat="48.71118" lon="2.49304">
        <ele>41</ele>
        <time>2021-02-17T13:24:58.090Z</time>
      </trkpt>
      <trkpt lat="48.71117" lon="2.49305">
        <ele>41</ele>
        <time>2021-02-17T13:25:03.092Z</time>
      </trkpt>
      <trkpt lat="48.71117" lon="2.49307">
        <ele>41</ele>
        <time>2021-02-17T13:25:13.080Z</time>
      </trkpt>
      <trkpt lat="48.7112" lon="2.49318">
        <ele>41</ele>
        <time>2021-02-17T13:30:36.086Z</time>
      </trkpt>
      <trkpt lat="48.7112" lon="2.49319">
        <ele>41</ele>
        <time>2021-02-17T13:30:41.094Z</time>
      </trkpt>
      <trkpt lat="48.71119" lon="2.49323">
        <ele>41</ele>
        <time>2021-02-17T13:30:56.086Z</time>
      </trkpt>
      <trkpt lat="48.71119" lon="2.49328">
        <ele>41</ele>
        <time>2021-02-17T13:31:00.079Z</time>
      </trkpt>
      <trkpt lat="48.71118" lon="2.49332">
        <ele>41</ele>
        <time>2021-02-17T13:31:05.078Z</time>
      </trkpt>
      <trkpt lat="48.71112" lon="2.49339">
        <ele>41</ele>
        <time>2021-02-17T13:31:14.088Z</time>
      </trkpt>
      <trkpt lat="48.71112" lon="2.49343">
        <ele>41</ele>
        <time>2021-02-17T13:31:19.090Z</time>
      </trkpt>
      <trkpt lat="48.71112" lon="2.49345">
        <ele>41</ele>
        <time>2021-02-17T13:31:24.060Z</time>
      </trkpt>
      <trkpt lat="48.71112" lon="2.49347">
        <ele>41</ele>
        <time>2021-02-17T13:31:28.096Z</time>
      </trkpt>
      <trkpt lat="48.7111" lon="2.49352">
        <ele>40</ele>
        <time>2021-02-17T13:31:43.083Z</time>
      </trkpt>
      <trkpt lat="48.71111" lon="2.49358">
        <ele>40</ele>
        <time>2021-02-17T13:31:48.084Z</time>
      </trkpt>
      <trkpt lat="48.71114" lon="2.49363">
        <ele>40</ele>
        <time>2021-02-17T13:31:53.076Z</time>
      </trkpt>
      <trkpt lat="48.71115" lon="2.49366">
        <ele>40</ele>
        <time>2021-02-17T13:31:57.098Z</time>
      </trkpt>
      <trkpt lat="48.71118" lon="2.49372">
        <ele>40</ele>
        <time>2021-02-17T13:32:02.091Z</time>
      </trkpt>
      <trkpt lat="48.71122" lon="2.4938">
        <ele>39</ele>
        <time>2021-02-17T13:32:07.078Z</time>
      </trkpt>
      <trkpt lat="48.71127" lon="2.49386">
        <ele>38</ele>
        <time>2021-02-17T13:32:12.083Z</time>
      </trkpt>
      <trkpt lat="48.71131" lon="2.49389">
        <ele>38</ele>
        <time>2021-02-17T13:32:17.088Z</time>
      </trkpt>
      <trkpt lat="48.71134" lon="2.49396">
        <ele>38</ele>
        <time>2021-02-17T13:32:22.087Z</time>
      </trkpt>
      <trkpt lat="48.71138" lon="2.49402">
        <ele>38</ele>
        <time>2021-02-17T13:32:27.085Z</time>
      </trkpt>
      <trkpt lat="48.71141" lon="2.49409">
        <ele>37</ele>
        <time>2021-02-17T13:32:32.080Z</time>
      </trkpt>
      <trkpt lat="48.71145" lon="2.49417">
        <ele>37</ele>
        <time>2021-02-17T13:32:37.097Z</time>
      </trkpt>
      <trkpt lat="48.71147" lon="2.49424">
        <ele>37</ele>
        <time>2021-02-17T13:32:42.092Z</time>
      </trkpt>
      <trkpt lat="48.71152" lon="2.49432">
        <ele>37</ele>
        <time>2021-02-17T13:32:47.098Z</time>
      </trkpt>
      <trkpt lat="48.71159" lon="2.49439">
        <ele>37</ele>
        <time>2021-02-17T13:32:52.084Z</time>
      </trkpt>
      <trkpt lat="48.71165" lon="2.49439">
        <ele>37</ele>
        <time>2021-02-17T13:32:57.083Z</time>
      </trkpt>
      <trkpt lat="48.71168" lon="2.49437">
        <ele>37</ele>
        <time>2021-02-17T13:33:01.090Z</time>
      </trkpt>
      <trkpt lat="48.71173" lon="2.49434">
        <ele>37</ele>
        <time>2021-02-17T13:33:06.092Z</time>
      </trkpt>
      <trkpt lat="48.71179" lon="2.49432">
        <ele>37</ele>
        <time>2021-02-17T13:33:11.086Z</time>
      </trkpt>
      <trkpt lat="48.71184" lon="2.49428">
        <ele>37</ele>
        <time>2021-02-17T13:33:15.082Z</time>
      </trkpt>
      <trkpt lat="48.71189" lon="2.49422">
        <ele>37</ele>
        <time>2021-02-17T13:33:20.088Z</time>
      </trkpt>
      <trkpt lat="48.71194" lon="2.49416">
        <ele>37</ele>
        <time>2021-02-17T13:33:25.092Z</time>
      </trkpt>
      <trkpt lat="48.71199" lon="2.49412">
        <ele>37</ele>
        <time>2021-02-17T13:33:29.090Z</time>
      </trkpt>
      <trkpt lat="48.71203" lon="2.49408">
        <ele>37</ele>
        <time>2021-02-17T13:33:34.082Z</time>
      </trkpt>
      <trkpt lat="48.71204" lon="2.49408">
        <ele>37</ele>
        <time>2021-02-17T13:33:39.059Z</time>
      </trkpt>
      <trkpt lat="48.71204" lon="2.49407">
        <ele>37</ele>
        <time>2021-02-17T13:33:43.090Z</time>
      </trkpt>
      <trkpt lat="48.71207" lon="2.49403">
        <ele>37</ele>
        <time>2021-02-17T13:33:47.088Z</time>
      </trkpt>
      <trkpt lat="48.71212" lon="2.494">
        <ele>37</ele>
        <time>2021-02-17T13:33:52.089Z</time>
      </trkpt>
      <trkpt lat="48.71217" lon="2.49397">
        <ele>37</ele>
        <time>2021-02-17T13:33:57.083Z</time>
      </trkpt>
      <trkpt lat="48.71221" lon="2.49393">
        <ele>37</ele>
        <time>2021-02-17T13:34:01.077Z</time>
      </trkpt>
      <trkpt lat="48.71228" lon="2.4939">
        <ele>37</ele>
        <time>2021-02-17T13:34:06.093Z</time>
      </trkpt>
      <trkpt lat="48.71235" lon="2.49388">
        <ele>37</ele>
        <time>2021-02-17T13:34:11.089Z</time>
      </trkpt>
      <trkpt lat="48.71242" lon="2.49386">
        <ele>38</ele>
        <time>2021-02-17T13:34:16.089Z</time>
      </trkpt>
      <trkpt lat="48.71245" lon="2.49386">
        <ele>38</ele>
        <time>2021-02-17T13:34:20.077Z</time>
      </trkpt>
      <trkpt lat="48.71248" lon="2.49385">
        <ele>38</ele>
        <time>2021-02-17T13:34:24.084Z</time>
      </trkpt>
      <trkpt lat="48.71252" lon="2.49382">
        <ele>38</ele>
        <time>2021-02-17T13:34:29.087Z</time>
      </trkpt>
      <trkpt lat="48.71257" lon="2.49381">
        <ele>38</ele>
        <time>2021-02-17T13:34:33.099Z</time>
      </trkpt>
      <trkpt lat="48.71262" lon="2.49377">
        <ele>38</ele>
        <time>2021-02-17T13:34:37.094Z</time>
      </trkpt>
      <trkpt lat="48.71267" lon="2.49375">
        <ele>38</ele>
        <time>2021-02-17T13:34:42.066Z</time>
      </trkpt>
      <trkpt lat="48.7127" lon="2.4937">
        <ele>38</ele>
        <time>2021-02-17T13:34:46.071Z</time>
      </trkpt>
      <trkpt lat="48.71275" lon="2.49364">
        <ele>38</ele>
        <time>2021-02-17T13:34:51.091Z</time>
      </trkpt>
      <trkpt lat="48.7128" lon="2.49356">
        <ele>38</ele>
        <time>2021-02-17T13:34:56.083Z</time>
      </trkpt>
      <trkpt lat="48.71283" lon="2.49349">
        <ele>38</ele>
        <time>2021-02-17T13:35:00.080Z</time>
      </trkpt>
      <trkpt lat="48.71286" lon="2.4934">
        <ele>39</ele>
        <time>2021-02-17T13:35:05.080Z</time>
      </trkpt>
      <trkpt lat="48.71291" lon="2.49331">
        <ele>39</ele>
        <time>2021-02-17T13:35:10.080Z</time>
      </trkpt>
      <trkpt lat="48.71297" lon="2.49325">
        <ele>39</ele>
        <time>2021-02-17T13:35:15.082Z</time>
      </trkpt>
      <trkpt lat="48.713" lon="2.49322">
        <ele>39</ele>
        <time>2021-02-17T13:35:19.089Z</time>
      </trkpt>
      <trkpt lat="48.71304" lon="2.49319">
        <ele>39</ele>
        <time>2021-02-17T13:35:24.087Z</time>
      </trkpt>
      <trkpt lat="48.71309" lon="2.49314">
        <ele>39</ele>
        <time>2021-02-17T13:35:28.083Z</time>
      </trkpt>
      <trkpt lat="48.71315" lon="2.49309">
        <ele>39</ele>
        <time>2021-02-17T13:35:33.095Z</time>
      </trkpt>
      <trkpt lat="48.71321" lon="2.49306">
        <ele>40</ele>
        <time>2021-02-17T13:35:38.082Z</time>
      </trkpt>
      <trkpt lat="48.71324" lon="2.49304">
        <ele>40</ele>
        <time>2021-02-17T13:35:43.079Z</time>
      </trkpt>
      <trkpt lat="48.71327" lon="2.49302">
        <ele>40</ele>
        <time>2021-02-17T13:35:47.086Z</time>
      </trkpt>
      <trkpt lat="48.71331" lon="2.49305">
        <ele>40</ele>
        <time>2021-02-17T13:35:52.086Z</time>
      </trkpt>
      <trkpt lat="48.71338" lon="2.49306">
        <ele>40</ele>
        <time>2021-02-17T13:35:57.093Z</time>
      </trkpt>
      <trkpt lat="48.71344" lon="2.49309">
        <ele>40</ele>
        <time>2021-02-17T13:36:02.088Z</time>
      </trkpt>
      <trkpt lat="48.71348" lon="2.49313">
        <ele>41</ele>
        <time>2021-02-17T13:36:06.099Z</time>
      </trkpt>
      <trkpt lat="48.71354" lon="2.4931">
        <ele>41</ele>
        <time>2021-02-17T13:36:11.090Z</time>
      </trkpt>
      <trkpt lat="48.71358" lon="2.49307">
        <ele>41</ele>
        <time>2021-02-17T13:36:16.086Z</time>
      </trkpt>
      <trkpt lat="48.71361" lon="2.49305">
        <ele>41</ele>
        <time>2021-02-17T13:36:20.092Z</time>
      </trkpt>
      <trkpt lat="48.71364" lon="2.49301">
        <ele>41</ele>
        <time>2021-02-17T13:36:25.092Z</time>
      </trkpt>
      <trkpt lat="48.71368" lon="2.49296">
        <ele>41</ele>
        <time>2021-02-17T13:36:30.087Z</time>
      </trkpt>
      <trkpt lat="48.71372" lon="2.49291">
        <ele>41</ele>
        <time>2021-02-17T13:36:35.082Z</time>
      </trkpt>
      <trkpt lat="48.71376" lon="2.49284">
        <ele>41</ele>
        <time>2021-02-17T13:36:40.085Z</time>
      </trkpt>
      <trkpt lat="48.71376" lon="2.49275">
        <ele>41</ele>
        <time>2021-02-17T13:36:45.094Z</time>
      </trkpt>
      <trkpt lat="48.71377" lon="2.49268">
        <ele>41</ele>
        <time>2021-02-17T13:36:50.081Z</time>
      </trkpt>
      <trkpt lat="48.7138" lon="2.49261">
        <ele>42</ele>
        <time>2021-02-17T13:36:55.077Z</time>
      </trkpt>
      <trkpt lat="48.71382" lon="2.49256">
        <ele>42</ele>
        <time>2021-02-17T13:37:00.092Z</time>
      </trkpt>
      <trkpt lat="48.71383" lon="2.49249">
        <ele>42</ele>
        <time>2021-02-17T13:37:04.068Z</time>
      </trkpt>
      <trkpt lat="48.71385" lon="2.49243">
        <ele>42</ele>
        <time>2021-02-17T13:37:09.068Z</time>
      </trkpt>
      <trkpt lat="48.71385" lon="2.49235">
        <ele>42</ele>
        <time>2021-02-17T13:37:13.089Z</time>
      </trkpt>
      <trkpt lat="48.71387" lon="2.49229">
        <ele>42</ele>
        <time>2021-02-17T13:37:18.080Z</time>
      </trkpt>
      <trkpt lat="48.7139" lon="2.4922">
        <ele>42</ele>
        <time>2021-02-17T13:37:23.083Z</time>
      </trkpt>
      <trkpt lat="48.71393" lon="2.49212">
        <ele>42</ele>
        <time>2021-02-17T13:37:27.093Z</time>
      </trkpt>
      <trkpt lat="48.71396" lon="2.49204">
        <ele>43</ele>
        <time>2021-02-17T13:37:32.087Z</time>
      </trkpt>
      <trkpt lat="48.71397" lon="2.49198">
        <ele>43</ele>
        <time>2021-02-17T13:37:36.075Z</time>
      </trkpt>
      <trkpt lat="48.71398" lon="2.49192">
        <ele>43</ele>
        <time>2021-02-17T13:37:41.082Z</time>
      </trkpt>
      <trkpt lat="48.714" lon="2.49185">
        <ele>43</ele>
        <time>2021-02-17T13:37:46.084Z</time>
      </trkpt>
      <trkpt lat="48.71403" lon="2.49174">
        <ele>42</ele>
        <time>2021-02-17T13:37:51.096Z</time>
      </trkpt>
      <trkpt lat="48.71407" lon="2.49163">
        <ele>42</ele>
        <time>2021-02-17T13:37:56.080Z</time>
      </trkpt>
      <trkpt lat="48.7141" lon="2.49157">
        <ele>42</ele>
        <time>2021-02-17T13:38:00.088Z</time>
      </trkpt>
      <trkpt lat="48.71412" lon="2.49149">
        <ele>42</ele>
        <time>2021-02-17T13:38:05.085Z</time>
      </trkpt>
      <trkpt lat="48.71414" lon="2.49139">
        <ele>42</ele>
        <time>2021-02-17T13:38:10.079Z</time>
      </trkpt>
      <trkpt lat="48.71416" lon="2.49133">
        <ele>42</ele>
        <time>2021-02-17T13:38:14.077Z</time>
      </trkpt>
      <trkpt lat="48.7142" lon="2.49126">
        <ele>42</ele>
        <time>2021-02-17T13:38:19.089Z</time>
      </trkpt>
      <trkpt lat="48.71423" lon="2.49118">
        <ele>42</ele>
        <time>2021-02-17T13:38:24.094Z</time>
      </trkpt>
      <trkpt lat="48.71426" lon="2.49112">
        <ele>42</ele>
        <time>2021-02-17T13:38:29.072Z</time>
      </trkpt>
      <trkpt lat="48.71428" lon="2.49104">
        <ele>42</ele>
        <time>2021-02-17T13:38:34.085Z</time>
      </trkpt>
      <trkpt lat="48.71432" lon="2.49095">
        <ele>41</ele>
        <time>2021-02-17T13:38:39.074Z</time>
      </trkpt>
      <trkpt lat="48.71433" lon="2.49085">
        <ele>41</ele>
        <time>2021-02-17T13:38:44.088Z</time>
      </trkpt>
      <trkpt lat="48.71435" lon="2.49075">
        <ele>41</ele>
        <time>2021-02-17T13:38:49.082Z</time>
      </trkpt>
      <trkpt lat="48.71439" lon="2.49067">
        <ele>41</ele>
        <time>2021-02-17T13:38:54.062Z</time>
      </trkpt>
      <trkpt lat="48.71442" lon="2.49062">
        <ele>41</ele>
        <time>2021-02-17T13:38:58.086Z</time>
      </trkpt>
      <trkpt lat="48.71444" lon="2.49055">
        <ele>41</ele>
        <time>2021-02-17T13:39:03.058Z</time>
      </trkpt>
      <trkpt lat="48.71447" lon="2.49046">
        <ele>41</ele>
        <time>2021-02-17T13:39:08.083Z</time>
      </trkpt>
      <trkpt lat="48.71448" lon="2.49037">
        <ele>41</ele>
        <time>2021-02-17T13:39:13.078Z</time>
      </trkpt>
      <trkpt lat="48.71451" lon="2.4903">
        <ele>41</ele>
        <time>2021-02-17T13:39:18.086Z</time>
      </trkpt>
      <trkpt lat="48.71453" lon="2.49022">
        <ele>41</ele>
        <time>2021-02-17T13:39:23.093Z</time>
      </trkpt>
      <trkpt lat="48.71454" lon="2.49013">
        <ele>40</ele>
        <time>2021-02-17T13:39:28.058Z</time>
      </trkpt>
      <trkpt lat="48.71455" lon="2.49007">
        <ele>40</ele>
        <time>2021-02-17T13:39:33.084Z</time>
      </trkpt>
      <trkpt lat="48.71457" lon="2.48999">
        <ele>40</ele>
        <time>2021-02-17T13:39:38.085Z</time>
      </trkpt>
      <trkpt lat="48.71458" lon="2.48996">
        <ele>40</ele>
        <time>2021-02-17T13:39:43.092Z</time>
      </trkpt>
      <trkpt lat="48.71461" lon="2.48991">
        <ele>41</ele>
        <time>2021-02-17T13:39:48.088Z</time>
      </trkpt>
      <trkpt lat="48.71462" lon="2.48986">
        <ele>41</ele>
        <time>2021-02-17T13:39:53.076Z</time>
      </trkpt>
      <trkpt lat="48.7146" lon="2.48978">
        <ele>40</ele>
        <time>2021-02-17T13:39:58.083Z</time>
      </trkpt>
      <trkpt lat="48.71457" lon="2.48972">
        <ele>39</ele>
        <time>2021-02-17T13:40:02.058Z</time>
      </trkpt>
      <trkpt lat="48.71456" lon="2.48965">
        <ele>39</ele>
        <time>2021-02-17T13:40:07.082Z</time>
      </trkpt>
      <trkpt lat="48.71457" lon="2.48962">
        <ele>39</ele>
        <time>2021-02-17T13:40:11.092Z</time>
      </trkpt>
      <trkpt lat="48.71456" lon="2.48953">
        <ele>38</ele>
        <time>2021-02-17T13:40:16.084Z</time>
      </trkpt>
      <trkpt lat="48.71451" lon="2.48948">
        <ele>38</ele>
        <time>2021-02-17T13:40:21.081Z</time>
      </trkpt>
      <trkpt lat="48.71445" lon="2.48943">
        <ele>38</ele>
        <time>2021-02-17T13:40:26.080Z</time>
      </trkpt>
      <trkpt lat="48.71439" lon="2.48938">
        <ele>38</ele>
        <time>2021-02-17T13:40:31.098Z</time>
      </trkpt>
      <trkpt lat="48.71432" lon="2.48936">
        <ele>38</ele>
        <time>2021-02-17T13:40:36.085Z</time>
      </trkpt>
      <trkpt lat="48.71427" lon="2.48933">
        <ele>39</ele>
        <time>2021-02-17T13:40:40.080Z</time>
      </trkpt>
      <trkpt lat="48.71422" lon="2.48928">
        <ele>38</ele>
        <time>2021-02-17T13:40:45.084Z</time>
      </trkpt>
      <trkpt lat="48.71416" lon="2.48925">
        <ele>38</ele>
        <time>2021-02-17T13:40:50.088Z</time>
      </trkpt>
      <trkpt lat="48.7141" lon="2.48921">
        <ele>38</ele>
        <time>2021-02-17T13:40:55.082Z</time>
      </trkpt>
      <trkpt lat="48.71405" lon="2.48919">
        <ele>38</ele>
        <time>2021-02-17T13:41:00.093Z</time>
      </trkpt>
      <trkpt lat="48.71399" lon="2.48914">
        <ele>39</ele>
        <time>2021-02-17T13:41:05.084Z</time>
      </trkpt>
      <trkpt lat="48.71395" lon="2.48911">
        <ele>39</ele>
        <time>2021-02-17T13:41:10.067Z</time>
      </trkpt>
      <trkpt lat="48.71396" lon="2.48906">
        <ele>39</ele>
        <time>2021-02-17T13:41:15.081Z</time>
      </trkpt>
      <trkpt lat="48.71393" lon="2.48902">
        <ele>39</ele>
        <time>2021-02-17T13:41:20.078Z</time>
      </trkpt>
      <trkpt lat="48.7139" lon="2.48901">
        <ele>39</ele>
        <time>2021-02-17T13:41:25.064Z</time>
      </trkpt>
      <trkpt lat="48.71391" lon="2.48895">
        <ele>39</ele>
        <time>2021-02-17T13:41:29.075Z</time>
      </trkpt>
      <trkpt lat="48.71391" lon="2.48884">
        <ele>39</ele>
        <time>2021-02-17T13:41:34.082Z</time>
      </trkpt>
      <trkpt lat="48.71391" lon="2.48874">
        <ele>40</ele>
        <time>2021-02-17T13:41:39.080Z</time>
      </trkpt>
      <trkpt lat="48.71392" lon="2.48868">
        <ele>40</ele>
        <time>2021-02-17T13:41:43.063Z</time>
      </trkpt>
      <trkpt lat="48.71395" lon="2.48862">
        <ele>40</ele>
        <time>2021-02-17T13:41:47.083Z</time>
      </trkpt>
      <trkpt lat="48.71398" lon="2.48855">
        <ele>40</ele>
        <time>2021-02-17T13:41:52.075Z</time>
      </trkpt>
      <trkpt lat="48.71403" lon="2.4885">
        <ele>40</ele>
        <time>2021-02-17T13:41:57.077Z</time>
      </trkpt>
      <trkpt lat="48.71408" lon="2.48842">
        <ele>41</ele>
        <time>2021-02-17T13:42:02.064Z</time>
      </trkpt>
      <trkpt lat="48.71411" lon="2.48837">
        <ele>41</ele>
        <time>2021-02-17T13:42:06.084Z</time>
      </trkpt>
      <trkpt lat="48.71413" lon="2.48831">
        <ele>41</ele>
        <time>2021-02-17T13:42:11.061Z</time>
      </trkpt>
      <trkpt lat="48.71418" lon="2.48811">
        <ele>42</ele>
        <time>2021-02-17T13:42:41.076Z</time>
      </trkpt>
      <trkpt lat="48.7142" lon="2.48812">
        <ele>42</ele>
        <time>2021-02-17T13:42:55.075Z</time>
      </trkpt>
      <trkpt lat="48.7142" lon="2.48811">
        <ele>42</ele>
        <time>2021-02-17T13:43:00.071Z</time>
      </trkpt>
      <trkpt lat="48.7142" lon="2.48807">
        <ele>42</ele>
        <time>2021-02-17T13:43:05.079Z</time>
      </trkpt>
      <trkpt lat="48.7142" lon="2.48807">
        <ele>42</ele>
        <time>2021-02-17T13:43:09.094Z</time>
      </trkpt>
      <trkpt lat="48.7142" lon="2.48806">
        <ele>42</ele>
        <time>2021-02-17T13:44:02.075Z</time>
      </trkpt>
      <trkpt lat="48.71421" lon="2.48801">
        <ele>42</ele>
        <time>2021-02-17T13:44:34.085Z</time>
      </trkpt>
      <trkpt lat="48.71422" lon="2.48794">
        <ele>42</ele>
        <time>2021-02-17T13:44:39.070Z</time>
      </trkpt>
      <trkpt lat="48.71424" lon="2.48789">
        <ele>41</ele>
        <time>2021-02-17T13:44:43.074Z</time>
      </trkpt>
      <trkpt lat="48.71427" lon="2.48782">
        <ele>41</ele>
        <time>2021-02-17T13:44:48.078Z</time>
      </trkpt>
      <trkpt lat="48.71429" lon="2.48773">
        <ele>41</ele>
        <time>2021-02-17T13:44:53.083Z</time>
      </trkpt>
      <trkpt lat="48.7143" lon="2.48766">
        <ele>41</ele>
        <time>2021-02-17T13:44:57.093Z</time>
      </trkpt>
      <trkpt lat="48.71433" lon="2.48758">
        <ele>40</ele>
        <time>2021-02-17T13:45:02.072Z</time>
      </trkpt>
      <trkpt lat="48.71435" lon="2.48751">
        <ele>40</ele>
        <time>2021-02-17T13:45:07.067Z</time>
      </trkpt>
      <trkpt lat="48.71437" lon="2.48744">
        <ele>40</ele>
        <time>2021-02-17T13:45:12.072Z</time>
      </trkpt>
      <trkpt lat="48.7144" lon="2.48736">
        <ele>39</ele>
        <time>2021-02-17T13:45:17.068Z</time>
      </trkpt>
      <trkpt lat="48.71442" lon="2.48726">
        <ele>39</ele>
        <time>2021-02-17T13:45:22.067Z</time>
      </trkpt>
      <trkpt lat="48.71444" lon="2.48718">
        <ele>39</ele>
        <time>2021-02-17T13:45:27.068Z</time>
      </trkpt>
      <trkpt lat="48.71445" lon="2.48709">
        <ele>39</ele>
        <time>2021-02-17T13:45:32.083Z</time>
      </trkpt>
      <trkpt lat="48.71447" lon="2.48699">
        <ele>39</ele>
        <time>2021-02-17T13:45:37.080Z</time>
      </trkpt>
      <trkpt lat="48.71448" lon="2.48692">
        <ele>39</ele>
        <time>2021-02-17T13:45:42.072Z</time>
      </trkpt>
      <trkpt lat="48.71449" lon="2.48684">
        <ele>39</ele>
        <time>2021-02-17T13:45:46.068Z</time>
      </trkpt>
      <trkpt lat="48.71451" lon="2.48676">
        <ele>39</ele>
        <time>2021-02-17T13:45:51.088Z</time>
      </trkpt>
      <trkpt lat="48.71452" lon="2.4867">
        <ele>39</ele>
        <time>2021-02-17T13:45:56.080Z</time>
      </trkpt>
      <trkpt lat="48.71453" lon="2.48663">
        <ele>39</ele>
        <time>2021-02-17T13:46:01.080Z</time>
      </trkpt>
      <trkpt lat="48.71453" lon="2.48655">
        <ele>39</ele>
        <time>2021-02-17T13:46:06.051Z</time>
      </trkpt>
      <trkpt lat="48.71455" lon="2.48648">
        <ele>39</ele>
        <time>2021-02-17T13:46:10.073Z</time>
      </trkpt>
      <trkpt lat="48.71457" lon="2.48642">
        <ele>39</ele>
        <time>2021-02-17T13:46:14.091Z</time>
      </trkpt>
      <trkpt lat="48.71459" lon="2.48636">
        <ele>39</ele>
        <time>2021-02-17T13:46:19.094Z</time>
      </trkpt>
      <trkpt lat="48.71462" lon="2.48626">
        <ele>39</ele>
        <time>2021-02-17T13:46:24.085Z</time>
      </trkpt>
      <trkpt lat="48.71464" lon="2.48616">
        <ele>40</ele>
        <time>2021-02-17T13:46:29.049Z</time>
      </trkpt>
      <trkpt lat="48.71468" lon="2.4861">
        <ele>40</ele>
        <time>2021-02-17T13:46:33.071Z</time>
      </trkpt>
      <trkpt lat="48.71469" lon="2.486">
        <ele>40</ele>
        <time>2021-02-17T13:46:38.073Z</time>
      </trkpt>
      <trkpt lat="48.71469" lon="2.4859">
        <ele>40</ele>
        <time>2021-02-17T13:46:43.082Z</time>
      </trkpt>
      <trkpt lat="48.7147" lon="2.48583">
        <ele>40</ele>
        <time>2021-02-17T13:46:47.076Z</time>
      </trkpt>
      <trkpt lat="48.7147" lon="2.48574">
        <ele>40</ele>
        <time>2021-02-17T13:46:52.083Z</time>
      </trkpt>
      <trkpt lat="48.71473" lon="2.48565">
        <ele>40</ele>
        <time>2021-02-17T13:46:57.085Z</time>
      </trkpt>
      <trkpt lat="48.71476" lon="2.48556">
        <ele>40</ele>
        <time>2021-02-17T13:47:02.087Z</time>
      </trkpt>
      <trkpt lat="48.71478" lon="2.48547">
        <ele>40</ele>
        <time>2021-02-17T13:47:07.077Z</time>
      </trkpt>
      <trkpt lat="48.71479" lon="2.48537">
        <ele>41</ele>
        <time>2021-02-17T13:47:12.061Z</time>
      </trkpt>
      <trkpt lat="48.71483" lon="2.48529">
        <ele>41</ele>
        <time>2021-02-17T13:47:17.072Z</time>
      </trkpt>
      <trkpt lat="48.71487" lon="2.48522">
        <ele>41</ele>
        <time>2021-02-17T13:47:22.076Z</time>
      </trkpt>
      <trkpt lat="48.71489" lon="2.48512">
        <ele>40</ele>
        <time>2021-02-17T13:47:27.058Z</time>
      </trkpt>
      <trkpt lat="48.71491" lon="2.4851">
        <ele>40</ele>
        <time>2021-02-17T13:47:32.072Z</time>
      </trkpt>
      <trkpt lat="48.71494" lon="2.48503">
        <ele>40</ele>
        <time>2021-02-17T13:47:36.074Z</time>
      </trkpt>
      <trkpt lat="48.71495" lon="2.48497">
        <ele>40</ele>
        <time>2021-02-17T13:47:41.078Z</time>
      </trkpt>
      <trkpt lat="48.715" lon="2.48489">
        <ele>40</ele>
        <time>2021-02-17T13:47:46.080Z</time>
      </trkpt>
      <trkpt lat="48.71501" lon="2.4848">
        <ele>40</ele>
        <time>2021-02-17T13:47:51.067Z</time>
      </trkpt>
      <trkpt lat="48.715" lon="2.48471">
        <ele>40</ele>
        <time>2021-02-17T13:47:56.073Z</time>
      </trkpt>
      <trkpt lat="48.71503" lon="2.48463">
        <ele>40</ele>
        <time>2021-02-17T13:48:00.069Z</time>
      </trkpt>
      <trkpt lat="48.71506" lon="2.48456">
        <ele>40</ele>
        <time>2021-02-17T13:48:04.079Z</time>
      </trkpt>
      <trkpt lat="48.71508" lon="2.48452">
        <ele>40</ele>
        <time>2021-02-17T13:48:09.080Z</time>
      </trkpt>
      <trkpt lat="48.71512" lon="2.48449">
        <ele>40</ele>
        <time>2021-02-17T13:48:14.065Z</time>
      </trkpt>
      <trkpt lat="48.71518" lon="2.48443">
        <ele>40</ele>
        <time>2021-02-17T13:48:19.075Z</time>
      </trkpt>
      <trkpt lat="48.71523" lon="2.48439">
        <ele>40</ele>
        <time>2021-02-17T13:48:23.072Z</time>
      </trkpt>
      <trkpt lat="48.71529" lon="2.48433">
        <ele>40</ele>
        <time>2021-02-17T13:48:28.074Z</time>
      </trkpt>
      <trkpt lat="48.71534" lon="2.48429">
        <ele>40</ele>
        <time>2021-02-17T13:48:33.085Z</time>
      </trkpt>
      <trkpt lat="48.71537" lon="2.48424">
        <ele>40</ele>
        <time>2021-02-17T13:48:37.083Z</time>
      </trkpt>
      <trkpt lat="48.71542" lon="2.48417">
        <ele>40</ele>
        <time>2021-02-17T13:48:42.068Z</time>
      </trkpt>
      <trkpt lat="48.71544" lon="2.48408">
        <ele>41</ele>
        <time>2021-02-17T13:48:47.077Z</time>
      </trkpt>
      <trkpt lat="48.71549" lon="2.484">
        <ele>41</ele>
        <time>2021-02-17T13:48:52.084Z</time>
      </trkpt>
      <trkpt lat="48.71555" lon="2.48392">
        <ele>41</ele>
        <time>2021-02-17T13:48:57.077Z</time>
      </trkpt>
      <trkpt lat="48.71557" lon="2.48387">
        <ele>41</ele>
        <time>2021-02-17T13:49:02.050Z</time>
      </trkpt>
      <trkpt lat="48.7156" lon="2.48379">
        <ele>41</ele>
        <time>2021-02-17T13:49:07.086Z</time>
      </trkpt>
      <trkpt lat="48.71564" lon="2.48371">
        <ele>42</ele>
        <time>2021-02-17T13:49:12.086Z</time>
      </trkpt>
      <trkpt lat="48.71566" lon="2.48364">
        <ele>42</ele>
        <time>2021-02-17T13:49:17.080Z</time>
      </trkpt>
      <trkpt lat="48.71568" lon="2.48358">
        <ele>42</ele>
        <time>2021-02-17T13:49:21.070Z</time>
      </trkpt>
      <trkpt lat="48.7157" lon="2.48352">
        <ele>41</ele>
        <time>2021-02-17T13:49:26.086Z</time>
      </trkpt>
      <trkpt lat="48.71572" lon="2.48345">
        <ele>42</ele>
        <time>2021-02-17T13:49:31.080Z</time>
      </trkpt>
      <trkpt lat="48.71576" lon="2.48338">
        <ele>42</ele>
        <time>2021-02-17T13:49:36.072Z</time>
      </trkpt>
      <trkpt lat="48.7158" lon="2.4833">
        <ele>42</ele>
        <time>2021-02-17T13:49:41.089Z</time>
      </trkpt>
      <trkpt lat="48.71582" lon="2.48321">
        <ele>42</ele>
        <time>2021-02-17T13:49:46.078Z</time>
      </trkpt>
      <trkpt lat="48.71581" lon="2.48313">
        <ele>42</ele>
        <time>2021-02-17T13:49:51.084Z</time>
      </trkpt>
      <trkpt lat="48.71581" lon="2.48305">
        <ele>42</ele>
        <time>2021-02-17T13:49:54.070Z</time>
      </trkpt>
      <trkpt lat="48.7158" lon="2.48288">
        <ele>43</ele>
        <time>2021-02-17T13:50:00.065Z</time>
      </trkpt>
      <trkpt lat="48.71581" lon="2.48274">
        <ele>43</ele>
        <time>2021-02-17T13:50:05.077Z</time>
      </trkpt>
      <trkpt lat="48.71582" lon="2.48269">
        <ele>43</ele>
        <time>2021-02-17T13:50:09.080Z</time>
      </trkpt>
      <trkpt lat="48.71582" lon="2.4826">
        <ele>43</ele>
        <time>2021-02-17T13:50:14.090Z</time>
      </trkpt>
      <trkpt lat="48.71582" lon="2.48253">
        <ele>43</ele>
        <time>2021-02-17T13:50:19.080Z</time>
      </trkpt>
      <trkpt lat="48.71583" lon="2.48246">
        <ele>43</ele>
        <time>2021-02-17T13:50:23.068Z</time>
      </trkpt>
      <trkpt lat="48.71585" lon="2.48237">
        <ele>43</ele>
        <time>2021-02-17T13:50:28.065Z</time>
      </trkpt>
      <trkpt lat="48.71586" lon="2.4823">
        <ele>43</ele>
        <time>2021-02-17T13:50:32.081Z</time>
      </trkpt>
      <trkpt lat="48.71586" lon="2.48222">
        <ele>43</ele>
        <time>2021-02-17T13:50:36.077Z</time>
      </trkpt>
      <trkpt lat="48.71586" lon="2.48215">
        <ele>43</ele>
        <time>2021-02-17T13:50:41.075Z</time>
      </trkpt>
      <trkpt lat="48.71586" lon="2.48207">
        <ele>42</ele>
        <time>2021-02-17T13:50:46.065Z</time>
      </trkpt>
      <trkpt lat="48.71588" lon="2.482">
        <ele>42</ele>
        <time>2021-02-17T13:50:51.079Z</time>
      </trkpt>
      <trkpt lat="48.71588" lon="2.4819">
        <ele>42</ele>
        <time>2021-02-17T13:50:56.079Z</time>
      </trkpt>
      <trkpt lat="48.71587" lon="2.48184">
        <ele>42</ele>
        <time>2021-02-17T13:51:01.059Z</time>
      </trkpt>
      <trkpt lat="48.71587" lon="2.48175">
        <ele>42</ele>
        <time>2021-02-17T13:51:05.081Z</time>
      </trkpt>
      <trkpt lat="48.71586" lon="2.48164">
        <ele>42</ele>
        <time>2021-02-17T13:51:10.085Z</time>
      </trkpt>
      <trkpt lat="48.71585" lon="2.48158">
        <ele>42</ele>
        <time>2021-02-17T13:51:15.078Z</time>
      </trkpt>
      <trkpt lat="48.71584" lon="2.48146">
        <ele>41</ele>
        <time>2021-02-17T13:51:20.084Z</time>
      </trkpt>
      <trkpt lat="48.71584" lon="2.48138">
        <ele>41</ele>
        <time>2021-02-17T13:51:25.070Z</time>
      </trkpt>
      <trkpt lat="48.71583" lon="2.48133">
        <ele>41</ele>
        <time>2021-02-17T13:51:29.061Z</time>
      </trkpt>
      <trkpt lat="48.71584" lon="2.48125">
        <ele>41</ele>
        <time>2021-02-17T13:51:33.077Z</time>
      </trkpt>
      <trkpt lat="48.71582" lon="2.48114">
        <ele>40</ele>
        <time>2021-02-17T13:51:38.055Z</time>
      </trkpt>
      <trkpt lat="48.71581" lon="2.48107">
        <ele>40</ele>
        <time>2021-02-17T13:51:42.084Z</time>
      </trkpt>
      <trkpt lat="48.7158" lon="2.48099">
        <ele>40</ele>
        <time>2021-02-17T13:51:46.076Z</time>
      </trkpt>
      <trkpt lat="48.71579" lon="2.48088">
        <ele>39</ele>
        <time>2021-02-17T13:51:51.082Z</time>
      </trkpt>
      <trkpt lat="48.7158" lon="2.4808">
        <ele>39</ele>
        <time>2021-02-17T13:51:55.077Z</time>
      </trkpt>
      <trkpt lat="48.71578" lon="2.4807">
        <ele>39</ele>
        <time>2021-02-17T13:52:00.078Z</time>
      </trkpt>
      <trkpt lat="48.71578" lon="2.48062">
        <ele>38</ele>
        <time>2021-02-17T13:52:04.072Z</time>
      </trkpt>
      <trkpt lat="48.71576" lon="2.48055">
        <ele>38</ele>
        <time>2021-02-17T13:52:09.084Z</time>
      </trkpt>
      <trkpt lat="48.71573" lon="2.48049">
        <ele>38</ele>
        <time>2021-02-17T13:52:13.060Z</time>
      </trkpt>
      <trkpt lat="48.71572" lon="2.48039">
        <ele>38</ele>
        <time>2021-02-17T13:52:18.071Z</time>
      </trkpt>
      <trkpt lat="48.71571" lon="2.4803">
        <ele>38</ele>
        <time>2021-02-17T13:52:23.083Z</time>
      </trkpt>
      <trkpt lat="48.71571" lon="2.48021">
        <ele>38</ele>
        <time>2021-02-17T13:52:28.088Z</time>
      </trkpt>
      <trkpt lat="48.71569" lon="2.48012">
        <ele>38</ele>
        <time>2021-02-17T13:52:33.085Z</time>
      </trkpt>
      <trkpt lat="48.71569" lon="2.48002">
        <ele>38</ele>
        <time>2021-02-17T13:52:38.086Z</time>
      </trkpt>
      <trkpt lat="48.71568" lon="2.47994">
        <ele>38</ele>
        <time>2021-02-17T13:52:42.066Z</time>
      </trkpt>
      <trkpt lat="48.71567" lon="2.47988">
        <ele>38</ele>
        <time>2021-02-17T13:52:46.069Z</time>
      </trkpt>
      <trkpt lat="48.71564" lon="2.47981">
        <ele>38</ele>
        <time>2021-02-17T13:52:51.074Z</time>
      </trkpt>
      <trkpt lat="48.71559" lon="2.47974">
        <ele>38</ele>
        <time>2021-02-17T13:52:56.084Z</time>
      </trkpt>
      <trkpt lat="48.71554" lon="2.47964">
        <ele>38</ele>
        <time>2021-02-17T13:53:01.070Z</time>
      </trkpt>
      <trkpt lat="48.71551" lon="2.47958">
        <ele>38</ele>
        <time>2021-02-17T13:53:05.073Z</time>
      </trkpt>
      <trkpt lat="48.71548" lon="2.47949">
        <ele>38</ele>
        <time>2021-02-17T13:53:10.062Z</time>
      </trkpt>
      <trkpt lat="48.71547" lon="2.47945">
        <ele>38</ele>
        <time>2021-02-17T13:53:14.078Z</time>
      </trkpt>
      <trkpt lat="48.71547" lon="2.47938">
        <ele>38</ele>
        <time>2021-02-17T13:53:19.080Z</time>
      </trkpt>
      <trkpt lat="48.71545" lon="2.4793">
        <ele>38</ele>
        <time>2021-02-17T13:53:24.054Z</time>
      </trkpt>
      <trkpt lat="48.71536" lon="2.47921">
        <ele>38</ele>
        <time>2021-02-17T13:53:29.076Z</time>
      </trkpt>
      <trkpt lat="48.71529" lon="2.47916">
        <ele>38</ele>
        <time>2021-02-17T13:53:33.083Z</time>
      </trkpt>
      <trkpt lat="48.7152" lon="2.47912">
        <ele>38</ele>
        <time>2021-02-17T13:53:38.050Z</time>
      </trkpt>
      <trkpt lat="48.71514" lon="2.47909">
        <ele>38</ele>
        <time>2021-02-17T13:53:42.063Z</time>
      </trkpt>
      <trkpt lat="48.7151" lon="2.47906">
        <ele>38</ele>
        <time>2021-02-17T13:53:47.071Z</time>
      </trkpt>
      <trkpt lat="48.7151" lon="2.47906">
        <ele>38</ele>
        <time>2021-02-17T13:53:51.072Z</time>
      </trkpt>
      <trkpt lat="48.71508" lon="2.47904">
        <ele>38</ele>
        <time>2021-02-17T13:54:15.077Z</time>
      </trkpt>
      <trkpt lat="48.71507" lon="2.47901">
        <ele>38</ele>
        <time>2021-02-17T13:54:20.084Z</time>
      </trkpt>
      <trkpt lat="48.71505" lon="2.47896">
        <ele>38</ele>
        <time>2021-02-17T13:54:25.076Z</time>
      </trkpt>
      <trkpt lat="48.71504" lon="2.4789">
        <ele>38</ele>
        <time>2021-02-17T13:54:30.087Z</time>
      </trkpt>
      <trkpt lat="48.71504" lon="2.47883">
        <ele>38</ele>
        <time>2021-02-17T13:54:35.070Z</time>
      </trkpt>
      <trkpt lat="48.71502" lon="2.47878">
        <ele>38</ele>
        <time>2021-02-17T13:54:39.084Z</time>
      </trkpt>
      <trkpt lat="48.71504" lon="2.47874">
        <ele>38</ele>
        <time>2021-02-17T13:54:44.082Z</time>
      </trkpt>
      <trkpt lat="48.71508" lon="2.4787">
        <ele>38</ele>
        <time>2021-02-17T13:54:49.076Z</time>
      </trkpt>
      <trkpt lat="48.71512" lon="2.47869">
        <ele>38</ele>
        <time>2021-02-17T13:54:54.080Z</time>
      </trkpt>
      <trkpt lat="48.71518" lon="2.47867">
        <ele>37</ele>
        <time>2021-02-17T13:54:59.077Z</time>
      </trkpt>
      <trkpt lat="48.71523" lon="2.47867">
        <ele>37</ele>
        <time>2021-02-17T13:55:04.082Z</time>
      </trkpt>
      <trkpt lat="48.71526" lon="2.47865">
        <ele>37</ele>
        <time>2021-02-17T13:55:08.062Z</time>
      </trkpt>
      <trkpt lat="48.7153" lon="2.47864">
        <ele>37</ele>
        <time>2021-02-17T13:55:13.073Z</time>
      </trkpt>
      <trkpt lat="48.71536" lon="2.47864">
        <ele>37</ele>
        <time>2021-02-17T13:55:18.070Z</time>
      </trkpt>
    </trkseg>
  </trk>
</gpx>